<?xml version="1.0" encoding="UTF-8" standalone="no" ?>
<gpx xmlns="http://www.topografix.com/GPX/1/1" xmlns:xsi="http://www.w3.org/2001/XMLSchema-instance" xsi:schemaLocation="http://www.topografix.com/GPX/1/1 http://www.topografix.com/GPX/1/1/gpx.xsd" version="1.1" creator="VisuGPX - https://www.visugpx.com">
  <metadata>
    <name>Raid Vauban 2011</name>
    <desc><![CDATA[Raid Vauban 2011]]></desc>
  </metadata>
  <trk>
    <name><![CDATA[JUN-12-11 15:22:11]]></name>
    <trkseg>
      <trkpt lat="44.62251" lon="6.63347">
        <ele>1870.38</ele>
        <time>2011-06-12T06:06:30Z</time>
      </trkpt>
      <trkpt lat="44.62251" lon="6.63347">
        <ele>1870.86</ele>
        <time>2011-06-12T06:06:34Z</time>
      </trkpt>
      <trkpt lat="44.62233" lon="6.63345">
        <ele>1871.34</ele>
        <time>2011-06-12T06:07:38Z</time>
      </trkpt>
      <trkpt lat="44.62211" lon="6.63325">
        <ele>1873.75</ele>
        <time>2011-06-12T06:07:45Z</time>
      </trkpt>
      <trkpt lat="44.62209" lon="6.6332">
        <ele>1873.75</ele>
        <time>2011-06-12T06:07:46Z</time>
      </trkpt>
      <trkpt lat="44.62178" lon="6.63292">
        <ele>1875.67</ele>
        <time>2011-06-12T06:07:57Z</time>
      </trkpt>
      <trkpt lat="44.62151" lon="6.63293">
        <ele>1879.03</ele>
        <time>2011-06-12T06:08:07Z</time>
      </trkpt>
      <trkpt lat="44.62145" lon="6.63295">
        <ele>1879.51</ele>
        <time>2011-06-12T06:08:09Z</time>
      </trkpt>
      <trkpt lat="44.621" lon="6.63305">
        <ele>1882.4</ele>
        <time>2011-06-12T06:08:24Z</time>
      </trkpt>
      <trkpt lat="44.62064" lon="6.633">
        <ele>1884.8</ele>
        <time>2011-06-12T06:08:36Z</time>
      </trkpt>
      <trkpt lat="44.62048" lon="6.63256">
        <ele>1887.21</ele>
        <time>2011-06-12T06:08:47Z</time>
      </trkpt>
      <trkpt lat="44.6205" lon="6.63225">
        <ele>1888.65</ele>
        <time>2011-06-12T06:08:55Z</time>
      </trkpt>
      <trkpt lat="44.62052" lon="6.63223">
        <ele>1888.17</ele>
        <time>2011-06-12T06:08:56Z</time>
      </trkpt>
      <trkpt lat="44.62054" lon="6.63221">
        <ele>1888.65</ele>
        <time>2011-06-12T06:08:57Z</time>
      </trkpt>
      <trkpt lat="44.62063" lon="6.63219">
        <ele>1889.13</ele>
        <time>2011-06-12T06:08:59Z</time>
      </trkpt>
      <trkpt lat="44.62125" lon="6.63199">
        <ele>1892.49</ele>
        <time>2011-06-12T06:09:12Z</time>
      </trkpt>
      <trkpt lat="44.62139" lon="6.63172">
        <ele>1895.86</ele>
        <time>2011-06-12T06:09:24Z</time>
      </trkpt>
      <trkpt lat="44.62137" lon="6.63147">
        <ele>1899.22</ele>
        <time>2011-06-12T06:09:34Z</time>
      </trkpt>
      <trkpt lat="44.62136" lon="6.63144">
        <ele>1899.7</ele>
        <time>2011-06-12T06:09:35Z</time>
      </trkpt>
      <trkpt lat="44.62116" lon="6.63126">
        <ele>1903.07</ele>
        <time>2011-06-12T06:09:48Z</time>
      </trkpt>
      <trkpt lat="44.6209" lon="6.6312">
        <ele>1905.95</ele>
        <time>2011-06-12T06:10:02Z</time>
      </trkpt>
      <trkpt lat="44.62062" lon="6.63117">
        <ele>1909.32</ele>
        <time>2011-06-12T06:10:16Z</time>
      </trkpt>
      <trkpt lat="44.62048" lon="6.63102">
        <ele>1912.2</ele>
        <time>2011-06-12T06:10:27Z</time>
      </trkpt>
      <trkpt lat="44.62048" lon="6.63074">
        <ele>1915.56</ele>
        <time>2011-06-12T06:10:39Z</time>
      </trkpt>
      <trkpt lat="44.62049" lon="6.63029">
        <ele>1917.49</ele>
        <time>2011-06-12T06:10:53Z</time>
      </trkpt>
      <trkpt lat="44.62042" lon="6.62988">
        <ele>1920.37</ele>
        <time>2011-06-12T06:11:05Z</time>
      </trkpt>
      <trkpt lat="44.62038" lon="6.62956">
        <ele>1923.74</ele>
        <time>2011-06-12T06:11:17Z</time>
      </trkpt>
      <trkpt lat="44.62042" lon="6.62929">
        <ele>1926.62</ele>
        <time>2011-06-12T06:11:27Z</time>
      </trkpt>
      <trkpt lat="44.62043" lon="6.62924">
        <ele>1927.58</ele>
        <time>2011-06-12T06:11:29Z</time>
      </trkpt>
      <trkpt lat="44.62062" lon="6.6289">
        <ele>1930.46</ele>
        <time>2011-06-12T06:11:43Z</time>
      </trkpt>
      <trkpt lat="44.62083" lon="6.62875">
        <ele>1930.95</ele>
        <time>2011-06-12T06:11:50Z</time>
      </trkpt>
      <trkpt lat="44.62092" lon="6.62873">
        <ele>1930.95</ele>
        <time>2011-06-12T06:11:52Z</time>
      </trkpt>
      <trkpt lat="44.62097" lon="6.62872">
        <ele>1930.46</ele>
        <time>2011-06-12T06:11:53Z</time>
      </trkpt>
      <trkpt lat="44.62129" lon="6.62869">
        <ele>1926.62</ele>
        <time>2011-06-12T06:11:58Z</time>
      </trkpt>
      <trkpt lat="44.62136" lon="6.62865">
        <ele>1926.62</ele>
        <time>2011-06-12T06:11:59Z</time>
      </trkpt>
      <trkpt lat="44.62143" lon="6.62858">
        <ele>1926.14</ele>
        <time>2011-06-12T06:12:00Z</time>
      </trkpt>
      <trkpt lat="44.62149" lon="6.62851">
        <ele>1926.14</ele>
        <time>2011-06-12T06:12:01Z</time>
      </trkpt>
      <trkpt lat="44.62153" lon="6.62844">
        <ele>1926.14</ele>
        <time>2011-06-12T06:12:02Z</time>
      </trkpt>
      <trkpt lat="44.6217" lon="6.62819">
        <ele>1928.06</ele>
        <time>2011-06-12T06:12:06Z</time>
      </trkpt>
      <trkpt lat="44.62198" lon="6.62787">
        <ele>1931.43</ele>
        <time>2011-06-12T06:12:15Z</time>
      </trkpt>
      <trkpt lat="44.62235" lon="6.62736">
        <ele>1934.31</ele>
        <time>2011-06-12T06:12:30Z</time>
      </trkpt>
      <trkpt lat="44.62274" lon="6.62692">
        <ele>1937.67</ele>
        <time>2011-06-12T06:12:45Z</time>
      </trkpt>
      <trkpt lat="44.62291" lon="6.62659">
        <ele>1941.04</ele>
        <time>2011-06-12T06:12:56Z</time>
      </trkpt>
      <trkpt lat="44.62316" lon="6.62633">
        <ele>1943.92</ele>
        <time>2011-06-12T06:13:07Z</time>
      </trkpt>
      <trkpt lat="44.62333" lon="6.62594">
        <ele>1947.29</ele>
        <time>2011-06-12T06:13:20Z</time>
      </trkpt>
      <trkpt lat="44.62359" lon="6.62562">
        <ele>1950.65</ele>
        <time>2011-06-12T06:13:34Z</time>
      </trkpt>
      <trkpt lat="44.6238" lon="6.62531">
        <ele>1954.02</ele>
        <time>2011-06-12T06:13:48Z</time>
      </trkpt>
      <trkpt lat="44.62396" lon="6.62496">
        <ele>1956.42</ele>
        <time>2011-06-12T06:14:01Z</time>
      </trkpt>
      <trkpt lat="44.62395" lon="6.62455">
        <ele>1959.3</ele>
        <time>2011-06-12T06:14:15Z</time>
      </trkpt>
      <trkpt lat="44.62394" lon="6.62444">
        <ele>1960.75</ele>
        <time>2011-06-12T06:14:19Z</time>
      </trkpt>
      <trkpt lat="44.62399" lon="6.62415">
        <ele>1964.11</ele>
        <time>2011-06-12T06:14:30Z</time>
      </trkpt>
      <trkpt lat="44.624" lon="6.62412">
        <ele>1964.59</ele>
        <time>2011-06-12T06:14:31Z</time>
      </trkpt>
      <trkpt lat="44.62403" lon="6.62407">
        <ele>1964.59</ele>
        <time>2011-06-12T06:14:34Z</time>
      </trkpt>
      <trkpt lat="44.62404" lon="6.62405">
        <ele>1965.07</ele>
        <time>2011-06-12T06:14:35Z</time>
      </trkpt>
      <trkpt lat="44.62405" lon="6.62404">
        <ele>1965.55</ele>
        <time>2011-06-12T06:14:36Z</time>
      </trkpt>
      <trkpt lat="44.62406" lon="6.62402">
        <ele>1965.07</ele>
        <time>2011-06-12T06:14:37Z</time>
      </trkpt>
      <trkpt lat="44.62409" lon="6.62401">
        <ele>1965.55</ele>
        <time>2011-06-12T06:14:38Z</time>
      </trkpt>
      <trkpt lat="44.62411" lon="6.62401">
        <ele>1966.03</ele>
        <time>2011-06-12T06:14:39Z</time>
      </trkpt>
      <trkpt lat="44.62413" lon="6.62401">
        <ele>1966.03</ele>
        <time>2011-06-12T06:14:40Z</time>
      </trkpt>
      <trkpt lat="44.62416" lon="6.62403">
        <ele>1966.51</ele>
        <time>2011-06-12T06:14:41Z</time>
      </trkpt>
      <trkpt lat="44.62419" lon="6.62406">
        <ele>1966.51</ele>
        <time>2011-06-12T06:14:42Z</time>
      </trkpt>
      <trkpt lat="44.62421" lon="6.62408">
        <ele>1966.51</ele>
        <time>2011-06-12T06:14:43Z</time>
      </trkpt>
      <trkpt lat="44.62423" lon="6.6241">
        <ele>1966.51</ele>
        <time>2011-06-12T06:14:44Z</time>
      </trkpt>
      <trkpt lat="44.62425" lon="6.62412">
        <ele>1966.99</ele>
        <time>2011-06-12T06:14:45Z</time>
      </trkpt>
      <trkpt lat="44.6246" lon="6.62428">
        <ele>1968.92</ele>
        <time>2011-06-12T06:14:59Z</time>
      </trkpt>
      <trkpt lat="44.62471" lon="6.62422">
        <ele>1970.84</ele>
        <time>2011-06-12T06:15:06Z</time>
      </trkpt>
      <trkpt lat="44.6247" lon="6.6242">
        <ele>1971.32</ele>
        <time>2011-06-12T06:15:07Z</time>
      </trkpt>
      <trkpt lat="44.62469" lon="6.62418">
        <ele>1971.32</ele>
        <time>2011-06-12T06:15:08Z</time>
      </trkpt>
      <trkpt lat="44.62465" lon="6.62416">
        <ele>1971.32</ele>
        <time>2011-06-12T06:15:09Z</time>
      </trkpt>
      <trkpt lat="44.62462" lon="6.62415">
        <ele>1971.8</ele>
        <time>2011-06-12T06:15:10Z</time>
      </trkpt>
      <trkpt lat="44.62459" lon="6.62413">
        <ele>1972.28</ele>
        <time>2011-06-12T06:15:11Z</time>
      </trkpt>
      <trkpt lat="44.62457" lon="6.62411">
        <ele>1972.76</ele>
        <time>2011-06-12T06:15:12Z</time>
      </trkpt>
      <trkpt lat="44.62455" lon="6.6241">
        <ele>1973.24</ele>
        <time>2011-06-12T06:15:13Z</time>
      </trkpt>
      <trkpt lat="44.62453" lon="6.62408">
        <ele>1973.24</ele>
        <time>2011-06-12T06:15:14Z</time>
      </trkpt>
      <trkpt lat="44.62451" lon="6.62407">
        <ele>1973.24</ele>
        <time>2011-06-12T06:15:15Z</time>
      </trkpt>
      <trkpt lat="44.6245" lon="6.62405">
        <ele>1973.24</ele>
        <time>2011-06-12T06:15:16Z</time>
      </trkpt>
      <trkpt lat="44.62448" lon="6.62403">
        <ele>1974.2</ele>
        <time>2011-06-12T06:15:17Z</time>
      </trkpt>
      <trkpt lat="44.62447" lon="6.62402">
        <ele>1974.2</ele>
        <time>2011-06-12T06:15:18Z</time>
      </trkpt>
      <trkpt lat="44.62432" lon="6.62372">
        <ele>1977.09</ele>
        <time>2011-06-12T06:15:32Z</time>
      </trkpt>
      <trkpt lat="44.62442" lon="6.62355">
        <ele>1980.45</ele>
        <time>2011-06-12T06:15:42Z</time>
      </trkpt>
      <trkpt lat="44.62473" lon="6.62372">
        <ele>1983.34</ele>
        <time>2011-06-12T06:15:56Z</time>
      </trkpt>
      <trkpt lat="44.62506" lon="6.62379">
        <ele>1986.22</ele>
        <time>2011-06-12T06:16:11Z</time>
      </trkpt>
      <trkpt lat="44.62516" lon="6.6237">
        <ele>1987.66</ele>
        <time>2011-06-12T06:16:16Z</time>
      </trkpt>
      <trkpt lat="44.62533" lon="6.62338">
        <ele>1991.03</ele>
        <time>2011-06-12T06:16:29Z</time>
      </trkpt>
      <trkpt lat="44.62542" lon="6.62325">
        <ele>1992.47</ele>
        <time>2011-06-12T06:16:36Z</time>
      </trkpt>
      <trkpt lat="44.6257" lon="6.62317">
        <ele>1995.83</ele>
        <time>2011-06-12T06:16:50Z</time>
      </trkpt>
      <trkpt lat="44.62598" lon="6.62296">
        <ele>1998.72</ele>
        <time>2011-06-12T06:17:04Z</time>
      </trkpt>
      <trkpt lat="44.62621" lon="6.62267">
        <ele>2002.08</ele>
        <time>2011-06-12T06:17:18Z</time>
      </trkpt>
      <trkpt lat="44.62635" lon="6.62235">
        <ele>2004.97</ele>
        <time>2011-06-12T06:17:30Z</time>
      </trkpt>
      <trkpt lat="44.6265" lon="6.62198">
        <ele>2007.85</ele>
        <time>2011-06-12T06:17:44Z</time>
      </trkpt>
      <trkpt lat="44.62672" lon="6.62169">
        <ele>2011.22</ele>
        <time>2011-06-12T06:17:58Z</time>
      </trkpt>
      <trkpt lat="44.62688" lon="6.62146">
        <ele>2014.1</ele>
        <time>2011-06-12T06:18:09Z</time>
      </trkpt>
      <trkpt lat="44.62706" lon="6.62115">
        <ele>2016.98</ele>
        <time>2011-06-12T06:18:22Z</time>
      </trkpt>
      <trkpt lat="44.62725" lon="6.62089">
        <ele>2019.39</ele>
        <time>2011-06-12T06:18:35Z</time>
      </trkpt>
      <trkpt lat="44.6275" lon="6.62066">
        <ele>2022.75</ele>
        <time>2011-06-12T06:18:49Z</time>
      </trkpt>
      <trkpt lat="44.6278" lon="6.62068">
        <ele>2026.12</ele>
        <time>2011-06-12T06:19:02Z</time>
      </trkpt>
      <trkpt lat="44.62806" lon="6.62043">
        <ele>2028.04</ele>
        <time>2011-06-12T06:19:16Z</time>
      </trkpt>
      <trkpt lat="44.62814" lon="6.62008">
        <ele>2030.92</ele>
        <time>2011-06-12T06:19:28Z</time>
      </trkpt>
      <trkpt lat="44.62813" lon="6.62005">
        <ele>2030.92</ele>
        <time>2011-06-12T06:19:29Z</time>
      </trkpt>
      <trkpt lat="44.62807" lon="6.62002">
        <ele>2031.4</ele>
        <time>2011-06-12T06:19:34Z</time>
      </trkpt>
      <trkpt lat="44.62803" lon="6.62003">
        <ele>2031.88</ele>
        <time>2011-06-12T06:19:35Z</time>
      </trkpt>
      <trkpt lat="44.628" lon="6.62005">
        <ele>2031.88</ele>
        <time>2011-06-12T06:19:36Z</time>
      </trkpt>
      <trkpt lat="44.62797" lon="6.62006">
        <ele>2032.36</ele>
        <time>2011-06-12T06:19:37Z</time>
      </trkpt>
      <trkpt lat="44.62795" lon="6.62007">
        <ele>2031.88</ele>
        <time>2011-06-12T06:19:38Z</time>
      </trkpt>
      <trkpt lat="44.62792" lon="6.62007">
        <ele>2032.36</ele>
        <time>2011-06-12T06:19:39Z</time>
      </trkpt>
      <trkpt lat="44.6279" lon="6.62008">
        <ele>2032.84</ele>
        <time>2011-06-12T06:19:40Z</time>
      </trkpt>
      <trkpt lat="44.62752" lon="6.6201">
        <ele>2035.73</ele>
        <time>2011-06-12T06:19:55Z</time>
      </trkpt>
      <trkpt lat="44.62711" lon="6.62011">
        <ele>2039.09</ele>
        <time>2011-06-12T06:20:11Z</time>
      </trkpt>
      <trkpt lat="44.62672" lon="6.62028">
        <ele>2039.09</ele>
        <time>2011-06-12T06:20:23Z</time>
      </trkpt>
      <trkpt lat="44.62645" lon="6.62044">
        <ele>2037.17</ele>
        <time>2011-06-12T06:20:29Z</time>
      </trkpt>
      <trkpt lat="44.62637" lon="6.62053">
        <ele>2036.21</ele>
        <time>2011-06-12T06:20:31Z</time>
      </trkpt>
      <trkpt lat="44.62613" lon="6.62071">
        <ele>2035.25</ele>
        <time>2011-06-12T06:20:35Z</time>
      </trkpt>
      <trkpt lat="44.62607" lon="6.62074">
        <ele>2035.25</ele>
        <time>2011-06-12T06:20:36Z</time>
      </trkpt>
      <trkpt lat="44.62603" lon="6.62075">
        <ele>2035.73</ele>
        <time>2011-06-12T06:20:37Z</time>
      </trkpt>
      <trkpt lat="44.62599" lon="6.62075">
        <ele>2035.73</ele>
        <time>2011-06-12T06:20:38Z</time>
      </trkpt>
      <trkpt lat="44.62595" lon="6.62075">
        <ele>2036.21</ele>
        <time>2011-06-12T06:20:39Z</time>
      </trkpt>
      <trkpt lat="44.62574" lon="6.62076">
        <ele>2039.09</ele>
        <time>2011-06-12T06:20:47Z</time>
      </trkpt>
      <trkpt lat="44.62551" lon="6.6208">
        <ele>2042.46</ele>
        <time>2011-06-12T06:20:58Z</time>
      </trkpt>
      <trkpt lat="44.62525" lon="6.6208">
        <ele>2044.86</ele>
        <time>2011-06-12T06:21:11Z</time>
      </trkpt>
      <trkpt lat="44.62501" lon="6.62081">
        <ele>2047.75</ele>
        <time>2011-06-12T06:21:23Z</time>
      </trkpt>
      <trkpt lat="44.62481" lon="6.62078">
        <ele>2050.15</ele>
        <time>2011-06-12T06:21:35Z</time>
      </trkpt>
      <trkpt lat="44.62462" lon="6.62077">
        <ele>2053.51</ele>
        <time>2011-06-12T06:21:46Z</time>
      </trkpt>
      <trkpt lat="44.6246" lon="6.62077">
        <ele>2053.99</ele>
        <time>2011-06-12T06:21:47Z</time>
      </trkpt>
      <trkpt lat="44.62442" lon="6.62066">
        <ele>2056.88</ele>
        <time>2011-06-12T06:22:00Z</time>
      </trkpt>
      <trkpt lat="44.62435" lon="6.62055">
        <ele>2059.28</ele>
        <time>2011-06-12T06:22:07Z</time>
      </trkpt>
      <trkpt lat="44.62433" lon="6.62054">
        <ele>2059.28</ele>
        <time>2011-06-12T06:22:09Z</time>
      </trkpt>
      <trkpt lat="44.62432" lon="6.62053">
        <ele>2059.76</ele>
        <time>2011-06-12T06:22:10Z</time>
      </trkpt>
      <trkpt lat="44.62431" lon="6.62052">
        <ele>2060.24</ele>
        <time>2011-06-12T06:22:11Z</time>
      </trkpt>
      <trkpt lat="44.6243" lon="6.62051">
        <ele>2060.72</ele>
        <time>2011-06-12T06:22:12Z</time>
      </trkpt>
      <trkpt lat="44.62429" lon="6.6205">
        <ele>2060.72</ele>
        <time>2011-06-12T06:22:13Z</time>
      </trkpt>
      <trkpt lat="44.62428" lon="6.62049">
        <ele>2060.72</ele>
        <time>2011-06-12T06:22:14Z</time>
      </trkpt>
      <trkpt lat="44.62427" lon="6.62048">
        <ele>2061.68</ele>
        <time>2011-06-12T06:22:15Z</time>
      </trkpt>
      <trkpt lat="44.62426" lon="6.62046">
        <ele>2062.17</ele>
        <time>2011-06-12T06:22:17Z</time>
      </trkpt>
      <trkpt lat="44.62416" lon="6.62034">
        <ele>2065.53</ele>
        <time>2011-06-12T06:22:29Z</time>
      </trkpt>
      <trkpt lat="44.62401" lon="6.62016">
        <ele>2067.93</ele>
        <time>2011-06-12T06:22:42Z</time>
      </trkpt>
      <trkpt lat="44.62378" lon="6.62006">
        <ele>2069.86</ele>
        <time>2011-06-12T06:22:56Z</time>
      </trkpt>
      <trkpt lat="44.62357" lon="6.62003">
        <ele>2071.78</ele>
        <time>2011-06-12T06:23:09Z</time>
      </trkpt>
      <trkpt lat="44.62341" lon="6.61998">
        <ele>2075.14</ele>
        <time>2011-06-12T06:23:21Z</time>
      </trkpt>
      <trkpt lat="44.62334" lon="6.61993">
        <ele>2076.59</ele>
        <time>2011-06-12T06:23:26Z</time>
      </trkpt>
      <trkpt lat="44.62325" lon="6.61985">
        <ele>2079.47</ele>
        <time>2011-06-12T06:23:34Z</time>
      </trkpt>
      <trkpt lat="44.62298" lon="6.61991">
        <ele>2080.91</ele>
        <time>2011-06-12T06:23:49Z</time>
      </trkpt>
      <trkpt lat="44.62269" lon="6.62001">
        <ele>2083.79</ele>
        <time>2011-06-12T06:24:04Z</time>
      </trkpt>
      <trkpt lat="44.62236" lon="6.62027">
        <ele>2080.43</ele>
        <time>2011-06-12T06:24:17Z</time>
      </trkpt>
      <trkpt lat="44.62222" lon="6.62048">
        <ele>2076.59</ele>
        <time>2011-06-12T06:24:20Z</time>
      </trkpt>
      <trkpt lat="44.62214" lon="6.6206">
        <ele>2075.14</ele>
        <time>2011-06-12T06:24:22Z</time>
      </trkpt>
      <trkpt lat="44.62207" lon="6.62071">
        <ele>2072.74</ele>
        <time>2011-06-12T06:24:24Z</time>
      </trkpt>
      <trkpt lat="44.62189" lon="6.62111">
        <ele>2069.38</ele>
        <time>2011-06-12T06:24:33Z</time>
      </trkpt>
      <trkpt lat="44.62156" lon="6.62194">
        <ele>2067.93</ele>
        <time>2011-06-12T06:24:49Z</time>
      </trkpt>
      <trkpt lat="44.62113" lon="6.62224">
        <ele>2069.38</ele>
        <time>2011-06-12T06:25:02Z</time>
      </trkpt>
      <trkpt lat="44.62089" lon="6.62246">
        <ele>2072.26</ele>
        <time>2011-06-12T06:25:15Z</time>
      </trkpt>
      <trkpt lat="44.62068" lon="6.62265">
        <ele>2075.62</ele>
        <time>2011-06-12T06:25:27Z</time>
      </trkpt>
      <trkpt lat="44.6204" lon="6.62282">
        <ele>2077.07</ele>
        <time>2011-06-12T06:25:41Z</time>
      </trkpt>
      <trkpt lat="44.62005" lon="6.62291">
        <ele>2078.51</ele>
        <time>2011-06-12T06:25:56Z</time>
      </trkpt>
      <trkpt lat="44.61964" lon="6.62283">
        <ele>2077.07</ele>
        <time>2011-06-12T06:26:07Z</time>
      </trkpt>
      <trkpt lat="44.6196" lon="6.62283">
        <ele>2077.07</ele>
        <time>2011-06-12T06:26:08Z</time>
      </trkpt>
      <trkpt lat="44.6194" lon="6.62285">
        <ele>2076.1</ele>
        <time>2011-06-12T06:26:12Z</time>
      </trkpt>
      <trkpt lat="44.61929" lon="6.62288">
        <ele>2075.14</ele>
        <time>2011-06-12T06:26:14Z</time>
      </trkpt>
      <trkpt lat="44.61901" lon="6.62298">
        <ele>2074.18</ele>
        <time>2011-06-12T06:26:19Z</time>
      </trkpt>
      <trkpt lat="44.61882" lon="6.62308">
        <ele>2072.74</ele>
        <time>2011-06-12T06:26:27Z</time>
      </trkpt>
      <trkpt lat="44.61875" lon="6.62311">
        <ele>2072.74</ele>
        <time>2011-06-12T06:26:36Z</time>
      </trkpt>
      <trkpt lat="44.61868" lon="6.62312">
        <ele>2072.26</ele>
        <time>2011-06-12T06:26:41Z</time>
      </trkpt>
      <trkpt lat="44.61836" lon="6.62332">
        <ele>2073.7</ele>
        <time>2011-06-12T06:26:52Z</time>
      </trkpt>
      <trkpt lat="44.61806" lon="6.62336">
        <ele>2075.62</ele>
        <time>2011-06-12T06:27:01Z</time>
      </trkpt>
      <trkpt lat="44.6179" lon="6.62327">
        <ele>2076.1</ele>
        <time>2011-06-12T06:27:06Z</time>
      </trkpt>
      <trkpt lat="44.61765" lon="6.62329">
        <ele>2077.07</ele>
        <time>2011-06-12T06:27:13Z</time>
      </trkpt>
      <trkpt lat="44.61751" lon="6.62331">
        <ele>2077.55</ele>
        <time>2011-06-12T06:27:17Z</time>
      </trkpt>
      <trkpt lat="44.61729" lon="6.62335">
        <ele>2078.51</ele>
        <time>2011-06-12T06:27:23Z</time>
      </trkpt>
      <trkpt lat="44.61719" lon="6.62334">
        <ele>2078.03</ele>
        <time>2011-06-12T06:27:26Z</time>
      </trkpt>
      <trkpt lat="44.61698" lon="6.62321">
        <ele>2076.59</ele>
        <time>2011-06-12T06:27:31Z</time>
      </trkpt>
      <trkpt lat="44.6167" lon="6.62339">
        <ele>2077.07</ele>
        <time>2011-06-12T06:27:39Z</time>
      </trkpt>
      <trkpt lat="44.61653" lon="6.62367">
        <ele>2079.47</ele>
        <time>2011-06-12T06:27:48Z</time>
      </trkpt>
      <trkpt lat="44.61644" lon="6.62378">
        <ele>2078.99</ele>
        <time>2011-06-12T06:27:51Z</time>
      </trkpt>
      <trkpt lat="44.6164" lon="6.62381">
        <ele>2078.51</ele>
        <time>2011-06-12T06:27:52Z</time>
      </trkpt>
      <trkpt lat="44.61636" lon="6.62384">
        <ele>2077.55</ele>
        <time>2011-06-12T06:27:53Z</time>
      </trkpt>
      <trkpt lat="44.61602" lon="6.62407">
        <ele>2078.99</ele>
        <time>2011-06-12T06:28:04Z</time>
      </trkpt>
      <trkpt lat="44.616" lon="6.62411">
        <ele>2078.51</ele>
        <time>2011-06-12T06:28:05Z</time>
      </trkpt>
      <trkpt lat="44.61597" lon="6.62416">
        <ele>2078.99</ele>
        <time>2011-06-12T06:28:06Z</time>
      </trkpt>
      <trkpt lat="44.61594" lon="6.6242">
        <ele>2078.51</ele>
        <time>2011-06-12T06:28:07Z</time>
      </trkpt>
      <trkpt lat="44.61584" lon="6.62428">
        <ele>2077.07</ele>
        <time>2011-06-12T06:28:10Z</time>
      </trkpt>
      <trkpt lat="44.61581" lon="6.62432">
        <ele>2076.59</ele>
        <time>2011-06-12T06:28:11Z</time>
      </trkpt>
      <trkpt lat="44.61577" lon="6.62436">
        <ele>2075.62</ele>
        <time>2011-06-12T06:28:12Z</time>
      </trkpt>
      <trkpt lat="44.61574" lon="6.62439">
        <ele>2076.1</ele>
        <time>2011-06-12T06:28:13Z</time>
      </trkpt>
      <trkpt lat="44.61572" lon="6.62442">
        <ele>2076.1</ele>
        <time>2011-06-12T06:28:14Z</time>
      </trkpt>
      <trkpt lat="44.6157" lon="6.62445">
        <ele>2076.1</ele>
        <time>2011-06-12T06:28:15Z</time>
      </trkpt>
      <trkpt lat="44.61567" lon="6.62447">
        <ele>2076.59</ele>
        <time>2011-06-12T06:28:16Z</time>
      </trkpt>
      <trkpt lat="44.61565" lon="6.62447">
        <ele>2077.07</ele>
        <time>2011-06-12T06:28:17Z</time>
      </trkpt>
      <trkpt lat="44.61562" lon="6.62447">
        <ele>2077.55</ele>
        <time>2011-06-12T06:28:18Z</time>
      </trkpt>
      <trkpt lat="44.61528" lon="6.62444">
        <ele>2080.91</ele>
        <time>2011-06-12T06:28:31Z</time>
      </trkpt>
      <trkpt lat="44.61499" lon="6.62428">
        <ele>2083.79</ele>
        <time>2011-06-12T06:28:43Z</time>
      </trkpt>
      <trkpt lat="44.61482" lon="6.624">
        <ele>2086.68</ele>
        <time>2011-06-12T06:28:55Z</time>
      </trkpt>
      <trkpt lat="44.6148" lon="6.624">
        <ele>2086.68</ele>
        <time>2011-06-12T06:28:56Z</time>
      </trkpt>
      <trkpt lat="44.61478" lon="6.62399">
        <ele>2086.68</ele>
        <time>2011-06-12T06:28:57Z</time>
      </trkpt>
      <trkpt lat="44.61477" lon="6.624">
        <ele>2087.16</ele>
        <time>2011-06-12T06:28:58Z</time>
      </trkpt>
      <trkpt lat="44.61475" lon="6.62401">
        <ele>2087.64</ele>
        <time>2011-06-12T06:28:59Z</time>
      </trkpt>
      <trkpt lat="44.61473" lon="6.62404">
        <ele>2087.64</ele>
        <time>2011-06-12T06:29:00Z</time>
      </trkpt>
      <trkpt lat="44.61471" lon="6.62406">
        <ele>2087.64</ele>
        <time>2011-06-12T06:29:01Z</time>
      </trkpt>
      <trkpt lat="44.6147" lon="6.62409">
        <ele>2088.6</ele>
        <time>2011-06-12T06:29:02Z</time>
      </trkpt>
      <trkpt lat="44.6147" lon="6.62412">
        <ele>2088.6</ele>
        <time>2011-06-12T06:29:03Z</time>
      </trkpt>
      <trkpt lat="44.61469" lon="6.62415">
        <ele>2088.6</ele>
        <time>2011-06-12T06:29:04Z</time>
      </trkpt>
      <trkpt lat="44.61469" lon="6.62418">
        <ele>2089.08</ele>
        <time>2011-06-12T06:29:05Z</time>
      </trkpt>
      <trkpt lat="44.61453" lon="6.6247">
        <ele>2091.97</ele>
        <time>2011-06-12T06:29:21Z</time>
      </trkpt>
      <trkpt lat="44.6143" lon="6.62488">
        <ele>2095.33</ele>
        <time>2011-06-12T06:29:33Z</time>
      </trkpt>
      <trkpt lat="44.61398" lon="6.62476">
        <ele>2096.77</ele>
        <time>2011-06-12T06:29:47Z</time>
      </trkpt>
      <trkpt lat="44.61375" lon="6.6247">
        <ele>2100.14</ele>
        <time>2011-06-12T06:29:57Z</time>
      </trkpt>
      <trkpt lat="44.61356" lon="6.62438">
        <ele>2102.54</ele>
        <time>2011-06-12T06:30:10Z</time>
      </trkpt>
      <trkpt lat="44.61327" lon="6.62422">
        <ele>2104.94</ele>
        <time>2011-06-12T06:30:23Z</time>
      </trkpt>
      <trkpt lat="44.61291" lon="6.62426">
        <ele>2107.35</ele>
        <time>2011-06-12T06:30:37Z</time>
      </trkpt>
      <trkpt lat="44.61246" lon="6.62418">
        <ele>2110.71</ele>
        <time>2011-06-12T06:30:53Z</time>
      </trkpt>
      <trkpt lat="44.61209" lon="6.6245">
        <ele>2111.67</ele>
        <time>2011-06-12T06:31:06Z</time>
      </trkpt>
      <trkpt lat="44.61169" lon="6.62474">
        <ele>2114.08</ele>
        <time>2011-06-12T06:31:19Z</time>
      </trkpt>
      <trkpt lat="44.61137" lon="6.62468">
        <ele>2117.44</ele>
        <time>2011-06-12T06:31:31Z</time>
      </trkpt>
      <trkpt lat="44.61111" lon="6.62469">
        <ele>2120.81</ele>
        <time>2011-06-12T06:31:43Z</time>
      </trkpt>
      <trkpt lat="44.61089" lon="6.62476">
        <ele>2123.69</ele>
        <time>2011-06-12T06:31:54Z</time>
      </trkpt>
      <trkpt lat="44.61062" lon="6.62485">
        <ele>2127.05</ele>
        <time>2011-06-12T06:32:08Z</time>
      </trkpt>
      <trkpt lat="44.61047" lon="6.6247">
        <ele>2128.98</ele>
        <time>2011-06-12T06:32:17Z</time>
      </trkpt>
      <trkpt lat="44.61042" lon="6.62461">
        <ele>2129.94</ele>
        <time>2011-06-12T06:32:21Z</time>
      </trkpt>
      <trkpt lat="44.61025" lon="6.62442">
        <ele>2133.3</ele>
        <time>2011-06-12T06:32:32Z</time>
      </trkpt>
      <trkpt lat="44.61001" lon="6.62417">
        <ele>2136.67</ele>
        <time>2011-06-12T06:32:47Z</time>
      </trkpt>
      <trkpt lat="44.60982" lon="6.62389">
        <ele>2140.03</ele>
        <time>2011-06-12T06:33:01Z</time>
      </trkpt>
      <trkpt lat="44.60959" lon="6.62367">
        <ele>2142.44</ele>
        <time>2011-06-12T06:33:14Z</time>
      </trkpt>
      <trkpt lat="44.60955" lon="6.62366">
        <ele>2142.44</ele>
        <time>2011-06-12T06:33:16Z</time>
      </trkpt>
      <trkpt lat="44.60922" lon="6.62368">
        <ele>2145.8</ele>
        <time>2011-06-12T06:33:31Z</time>
      </trkpt>
      <trkpt lat="44.60896" lon="6.62389">
        <ele>2148.2</ele>
        <time>2011-06-12T06:33:44Z</time>
      </trkpt>
      <trkpt lat="44.60879" lon="6.62412">
        <ele>2151.57</ele>
        <time>2011-06-12T06:33:55Z</time>
      </trkpt>
      <trkpt lat="44.60874" lon="6.62448">
        <ele>2153.49</ele>
        <time>2011-06-12T06:34:07Z</time>
      </trkpt>
      <trkpt lat="44.60908" lon="6.62492">
        <ele>2155.89</ele>
        <time>2011-06-12T06:34:22Z</time>
      </trkpt>
      <trkpt lat="44.609" lon="6.62526">
        <ele>2156.86</ele>
        <time>2011-06-12T06:34:32Z</time>
      </trkpt>
      <trkpt lat="44.60873" lon="6.62519">
        <ele>2160.22</ele>
        <time>2011-06-12T06:34:44Z</time>
      </trkpt>
      <trkpt lat="44.60863" lon="6.62501">
        <ele>2163.1</ele>
        <time>2011-06-12T06:34:52Z</time>
      </trkpt>
      <trkpt lat="44.60848" lon="6.62485">
        <ele>2165.51</ele>
        <time>2011-06-12T06:35:03Z</time>
      </trkpt>
      <trkpt lat="44.60843" lon="6.62489">
        <ele>2167.43</ele>
        <time>2011-06-12T06:35:07Z</time>
      </trkpt>
      <trkpt lat="44.60841" lon="6.62492">
        <ele>2167.91</ele>
        <time>2011-06-12T06:35:09Z</time>
      </trkpt>
      <trkpt lat="44.60842" lon="6.62534">
        <ele>2170.79</ele>
        <time>2011-06-12T06:35:23Z</time>
      </trkpt>
      <trkpt lat="44.60842" lon="6.62568">
        <ele>2173.2</ele>
        <time>2011-06-12T06:35:36Z</time>
      </trkpt>
      <trkpt lat="44.60857" lon="6.62595">
        <ele>2177.04</ele>
        <time>2011-06-12T06:35:48Z</time>
      </trkpt>
      <trkpt lat="44.60858" lon="6.62598">
        <ele>2177.04</ele>
        <time>2011-06-12T06:35:49Z</time>
      </trkpt>
      <trkpt lat="44.60859" lon="6.62635">
        <ele>2178.97</ele>
        <time>2011-06-12T06:36:03Z</time>
      </trkpt>
      <trkpt lat="44.60839" lon="6.62665">
        <ele>2182.33</ele>
        <time>2011-06-12T06:36:17Z</time>
      </trkpt>
      <trkpt lat="44.60831" lon="6.62709">
        <ele>2185.21</ele>
        <time>2011-06-12T06:36:32Z</time>
      </trkpt>
      <trkpt lat="44.60842" lon="6.62755">
        <ele>2188.58</ele>
        <time>2011-06-12T06:36:46Z</time>
      </trkpt>
      <trkpt lat="44.60828" lon="6.62794">
        <ele>2190.98</ele>
        <time>2011-06-12T06:37:00Z</time>
      </trkpt>
      <trkpt lat="44.60807" lon="6.62812">
        <ele>2194.35</ele>
        <time>2011-06-12T06:37:11Z</time>
      </trkpt>
      <trkpt lat="44.60785" lon="6.62831">
        <ele>2197.23</ele>
        <time>2011-06-12T06:37:23Z</time>
      </trkpt>
      <trkpt lat="44.60777" lon="6.6285">
        <ele>2199.63</ele>
        <time>2011-06-12T06:37:31Z</time>
      </trkpt>
      <trkpt lat="44.60771" lon="6.62884">
        <ele>2202.52</ele>
        <time>2011-06-12T06:37:43Z</time>
      </trkpt>
      <trkpt lat="44.60755" lon="6.6292">
        <ele>2204.92</ele>
        <time>2011-06-12T06:37:58Z</time>
      </trkpt>
      <trkpt lat="44.60734" lon="6.62934">
        <ele>2208.29</ele>
        <time>2011-06-12T06:38:09Z</time>
      </trkpt>
      <trkpt lat="44.60719" lon="6.62946">
        <ele>2210.21</ele>
        <time>2011-06-12T06:38:17Z</time>
      </trkpt>
      <trkpt lat="44.60697" lon="6.62963">
        <ele>2212.61</ele>
        <time>2011-06-12T06:38:29Z</time>
      </trkpt>
      <trkpt lat="44.60675" lon="6.6297">
        <ele>2215.5</ele>
        <time>2011-06-12T06:38:40Z</time>
      </trkpt>
      <trkpt lat="44.60653" lon="6.62977">
        <ele>2218.86</ele>
        <time>2011-06-12T06:38:51Z</time>
      </trkpt>
      <trkpt lat="44.60629" lon="6.62996">
        <ele>2221.26</ele>
        <time>2011-06-12T06:39:04Z</time>
      </trkpt>
      <trkpt lat="44.60607" lon="6.63009">
        <ele>2224.63</ele>
        <time>2011-06-12T06:39:16Z</time>
      </trkpt>
      <trkpt lat="44.60575" lon="6.63017">
        <ele>2227.51</ele>
        <time>2011-06-12T06:39:32Z</time>
      </trkpt>
      <trkpt lat="44.60556" lon="6.62998">
        <ele>2229.43</ele>
        <time>2011-06-12T06:39:44Z</time>
      </trkpt>
      <trkpt lat="44.6057" lon="6.62969">
        <ele>2231.84</ele>
        <time>2011-06-12T06:39:56Z</time>
      </trkpt>
      <trkpt lat="44.6059" lon="6.62944">
        <ele>2234.24</ele>
        <time>2011-06-12T06:40:08Z</time>
      </trkpt>
      <trkpt lat="44.60593" lon="6.62938">
        <ele>2235.68</ele>
        <time>2011-06-12T06:40:11Z</time>
      </trkpt>
      <trkpt lat="44.60605" lon="6.62907">
        <ele>2238.57</ele>
        <time>2011-06-12T06:40:24Z</time>
      </trkpt>
      <trkpt lat="44.60613" lon="6.6287">
        <ele>2241.93</ele>
        <time>2011-06-12T06:40:39Z</time>
      </trkpt>
      <trkpt lat="44.60595" lon="6.62888">
        <ele>2243.85</ele>
        <time>2011-06-12T06:40:51Z</time>
      </trkpt>
      <trkpt lat="44.60589" lon="6.629">
        <ele>2244.33</ele>
        <time>2011-06-12T06:40:55Z</time>
      </trkpt>
      <trkpt lat="44.60582" lon="6.62909">
        <ele>2245.78</ele>
        <time>2011-06-12T06:40:59Z</time>
      </trkpt>
      <trkpt lat="44.60557" lon="6.62924">
        <ele>2248.66</ele>
        <time>2011-06-12T06:41:12Z</time>
      </trkpt>
      <trkpt lat="44.60528" lon="6.62935">
        <ele>2252.03</ele>
        <time>2011-06-12T06:41:27Z</time>
      </trkpt>
      <trkpt lat="44.60515" lon="6.62928">
        <ele>2253.95</ele>
        <time>2011-06-12T06:41:34Z</time>
      </trkpt>
      <trkpt lat="44.60514" lon="6.62915">
        <ele>2254.91</ele>
        <time>2011-06-12T06:41:39Z</time>
      </trkpt>
      <trkpt lat="44.60545" lon="6.6289">
        <ele>2257.31</ele>
        <time>2011-06-12T06:41:54Z</time>
      </trkpt>
      <trkpt lat="44.60558" lon="6.62856">
        <ele>2260.68</ele>
        <time>2011-06-12T06:42:07Z</time>
      </trkpt>
      <trkpt lat="44.60539" lon="6.6283">
        <ele>2264.04</ele>
        <time>2011-06-12T06:42:19Z</time>
      </trkpt>
      <trkpt lat="44.60527" lon="6.62798">
        <ele>2266.93</ele>
        <time>2011-06-12T06:42:31Z</time>
      </trkpt>
      <trkpt lat="44.60543" lon="6.62767">
        <ele>2270.29</ele>
        <time>2011-06-12T06:42:44Z</time>
      </trkpt>
      <trkpt lat="44.6057" lon="6.62743">
        <ele>2273.17</ele>
        <time>2011-06-12T06:42:59Z</time>
      </trkpt>
      <trkpt lat="44.60577" lon="6.62704">
        <ele>2275.1</ele>
        <time>2011-06-12T06:43:12Z</time>
      </trkpt>
      <trkpt lat="44.60563" lon="6.62682">
        <ele>2277.98</ele>
        <time>2011-06-12T06:43:21Z</time>
      </trkpt>
      <trkpt lat="44.60531" lon="6.62645">
        <ele>2280.38</ele>
        <time>2011-06-12T06:43:37Z</time>
      </trkpt>
      <trkpt lat="44.60488" lon="6.62607">
        <ele>2279.42</ele>
        <time>2011-06-12T06:43:50Z</time>
      </trkpt>
      <trkpt lat="44.60479" lon="6.62599">
        <ele>2278.94</ele>
        <time>2011-06-12T06:43:52Z</time>
      </trkpt>
      <trkpt lat="44.60475" lon="6.62593">
        <ele>2279.42</ele>
        <time>2011-06-12T06:43:53Z</time>
      </trkpt>
      <trkpt lat="44.60472" lon="6.62586">
        <ele>2278.94</ele>
        <time>2011-06-12T06:43:54Z</time>
      </trkpt>
      <trkpt lat="44.60467" lon="6.62571">
        <ele>2277.98</ele>
        <time>2011-06-12T06:43:56Z</time>
      </trkpt>
      <trkpt lat="44.60463" lon="6.62555">
        <ele>2278.46</ele>
        <time>2011-06-12T06:43:58Z</time>
      </trkpt>
      <trkpt lat="44.60461" lon="6.62548">
        <ele>2277.98</ele>
        <time>2011-06-12T06:43:59Z</time>
      </trkpt>
      <trkpt lat="44.60456" lon="6.62526">
        <ele>2278.46</ele>
        <time>2011-06-12T06:44:02Z</time>
      </trkpt>
      <trkpt lat="44.60451" lon="6.625">
        <ele>2277.02</ele>
        <time>2011-06-12T06:44:05Z</time>
      </trkpt>
      <trkpt lat="44.60444" lon="6.62472">
        <ele>2276.06</ele>
        <time>2011-06-12T06:44:08Z</time>
      </trkpt>
      <trkpt lat="44.60444" lon="6.62461">
        <ele>2275.58</ele>
        <time>2011-06-12T06:44:09Z</time>
      </trkpt>
      <trkpt lat="44.60447" lon="6.62429">
        <ele>2274.14</ele>
        <time>2011-06-12T06:44:12Z</time>
      </trkpt>
      <trkpt lat="44.60449" lon="6.62418">
        <ele>2274.14</ele>
        <time>2011-06-12T06:44:13Z</time>
      </trkpt>
      <trkpt lat="44.60456" lon="6.6235">
        <ele>2271.25</ele>
        <time>2011-06-12T06:44:19Z</time>
      </trkpt>
      <trkpt lat="44.60457" lon="6.62337">
        <ele>2270.29</ele>
        <time>2011-06-12T06:44:20Z</time>
      </trkpt>
      <trkpt lat="44.6046" lon="6.62325">
        <ele>2269.81</ele>
        <time>2011-06-12T06:44:21Z</time>
      </trkpt>
      <trkpt lat="44.60464" lon="6.62314">
        <ele>2269.81</ele>
        <time>2011-06-12T06:44:22Z</time>
      </trkpt>
      <trkpt lat="44.60469" lon="6.62304">
        <ele>2269.33</ele>
        <time>2011-06-12T06:44:23Z</time>
      </trkpt>
      <trkpt lat="44.60476" lon="6.62296">
        <ele>2269.33</ele>
        <time>2011-06-12T06:44:24Z</time>
      </trkpt>
      <trkpt lat="44.60482" lon="6.62289">
        <ele>2269.33</ele>
        <time>2011-06-12T06:44:25Z</time>
      </trkpt>
      <trkpt lat="44.60493" lon="6.62274">
        <ele>2268.37</ele>
        <time>2011-06-12T06:44:27Z</time>
      </trkpt>
      <trkpt lat="44.60497" lon="6.62264">
        <ele>2268.37</ele>
        <time>2011-06-12T06:44:28Z</time>
      </trkpt>
      <trkpt lat="44.60502" lon="6.62254">
        <ele>2268.85</ele>
        <time>2011-06-12T06:44:29Z</time>
      </trkpt>
      <trkpt lat="44.60507" lon="6.62246">
        <ele>2269.33</ele>
        <time>2011-06-12T06:44:30Z</time>
      </trkpt>
      <trkpt lat="44.60512" lon="6.62239">
        <ele>2268.85</ele>
        <time>2011-06-12T06:44:31Z</time>
      </trkpt>
      <trkpt lat="44.60516" lon="6.62232">
        <ele>2269.33</ele>
        <time>2011-06-12T06:44:32Z</time>
      </trkpt>
      <trkpt lat="44.60519" lon="6.62224">
        <ele>2269.81</ele>
        <time>2011-06-12T06:44:33Z</time>
      </trkpt>
      <trkpt lat="44.60521" lon="6.62216">
        <ele>2269.33</ele>
        <time>2011-06-12T06:44:34Z</time>
      </trkpt>
      <trkpt lat="44.60523" lon="6.62209">
        <ele>2270.77</ele>
        <time>2011-06-12T06:44:35Z</time>
      </trkpt>
      <trkpt lat="44.60526" lon="6.62195">
        <ele>2270.77</ele>
        <time>2011-06-12T06:44:37Z</time>
      </trkpt>
      <trkpt lat="44.60534" lon="6.62163">
        <ele>2272.21</ele>
        <time>2011-06-12T06:44:42Z</time>
      </trkpt>
      <trkpt lat="44.60537" lon="6.62158">
        <ele>2273.17</ele>
        <time>2011-06-12T06:44:43Z</time>
      </trkpt>
      <trkpt lat="44.6054" lon="6.62153">
        <ele>2273.17</ele>
        <time>2011-06-12T06:44:44Z</time>
      </trkpt>
      <trkpt lat="44.60543" lon="6.62149">
        <ele>2273.17</ele>
        <time>2011-06-12T06:44:45Z</time>
      </trkpt>
      <trkpt lat="44.60547" lon="6.62145">
        <ele>2274.14</ele>
        <time>2011-06-12T06:44:46Z</time>
      </trkpt>
      <trkpt lat="44.60551" lon="6.62142">
        <ele>2273.66</ele>
        <time>2011-06-12T06:44:47Z</time>
      </trkpt>
      <trkpt lat="44.60555" lon="6.6214">
        <ele>2274.14</ele>
        <time>2011-06-12T06:44:48Z</time>
      </trkpt>
      <trkpt lat="44.60572" lon="6.62126">
        <ele>2275.1</ele>
        <time>2011-06-12T06:44:53Z</time>
      </trkpt>
      <trkpt lat="44.6059" lon="6.62095">
        <ele>2277.98</ele>
        <time>2011-06-12T06:45:03Z</time>
      </trkpt>
      <trkpt lat="44.60628" lon="6.62072">
        <ele>2280.38</ele>
        <time>2011-06-12T06:45:17Z</time>
      </trkpt>
      <trkpt lat="44.6067" lon="6.62047">
        <ele>2282.79</ele>
        <time>2011-06-12T06:45:32Z</time>
      </trkpt>
      <trkpt lat="44.6068" lon="6.62033">
        <ele>2284.23</ele>
        <time>2011-06-12T06:45:37Z</time>
      </trkpt>
      <trkpt lat="44.60695" lon="6.61987">
        <ele>2286.63</ele>
        <time>2011-06-12T06:45:50Z</time>
      </trkpt>
      <trkpt lat="44.60712" lon="6.61927">
        <ele>2290</ele>
        <time>2011-06-12T06:46:06Z</time>
      </trkpt>
      <trkpt lat="44.60738" lon="6.61858">
        <ele>2293.36</ele>
        <time>2011-06-12T06:46:24Z</time>
      </trkpt>
      <trkpt lat="44.60764" lon="6.61828">
        <ele>2296.25</ele>
        <time>2011-06-12T06:46:36Z</time>
      </trkpt>
      <trkpt lat="44.60789" lon="6.61803">
        <ele>2299.13</ele>
        <time>2011-06-12T06:46:47Z</time>
      </trkpt>
      <trkpt lat="44.60819" lon="6.61781">
        <ele>2302.49</ele>
        <time>2011-06-12T06:47:00Z</time>
      </trkpt>
      <trkpt lat="44.60846" lon="6.61772">
        <ele>2305.38</ele>
        <time>2011-06-12T06:47:11Z</time>
      </trkpt>
      <trkpt lat="44.60879" lon="6.61763">
        <ele>2308.26</ele>
        <time>2011-06-12T06:47:25Z</time>
      </trkpt>
      <trkpt lat="44.60893" lon="6.61722">
        <ele>2311.15</ele>
        <time>2011-06-12T06:47:39Z</time>
      </trkpt>
      <trkpt lat="44.60892" lon="6.61719">
        <ele>2310.67</ele>
        <time>2011-06-12T06:47:40Z</time>
      </trkpt>
      <trkpt lat="44.6089" lon="6.61717">
        <ele>2311.15</ele>
        <time>2011-06-12T06:47:41Z</time>
      </trkpt>
      <trkpt lat="44.60888" lon="6.61714">
        <ele>2311.63</ele>
        <time>2011-06-12T06:47:42Z</time>
      </trkpt>
      <trkpt lat="44.60886" lon="6.61712">
        <ele>2312.11</ele>
        <time>2011-06-12T06:47:43Z</time>
      </trkpt>
      <trkpt lat="44.60884" lon="6.61711">
        <ele>2312.59</ele>
        <time>2011-06-12T06:47:44Z</time>
      </trkpt>
      <trkpt lat="44.60882" lon="6.61709">
        <ele>2312.59</ele>
        <time>2011-06-12T06:47:45Z</time>
      </trkpt>
      <trkpt lat="44.60862" lon="6.61697">
        <ele>2314.99</ele>
        <time>2011-06-12T06:47:55Z</time>
      </trkpt>
      <trkpt lat="44.6086" lon="6.61695">
        <ele>2315.47</ele>
        <time>2011-06-12T06:47:56Z</time>
      </trkpt>
      <trkpt lat="44.60859" lon="6.61692">
        <ele>2315.47</ele>
        <time>2011-06-12T06:47:57Z</time>
      </trkpt>
      <trkpt lat="44.60857" lon="6.6169">
        <ele>2315.95</ele>
        <time>2011-06-12T06:47:58Z</time>
      </trkpt>
      <trkpt lat="44.60856" lon="6.61687">
        <ele>2315.95</ele>
        <time>2011-06-12T06:47:59Z</time>
      </trkpt>
      <trkpt lat="44.60855" lon="6.61683">
        <ele>2315.95</ele>
        <time>2011-06-12T06:48:00Z</time>
      </trkpt>
      <trkpt lat="44.60854" lon="6.61673">
        <ele>2316.43</ele>
        <time>2011-06-12T06:48:03Z</time>
      </trkpt>
      <trkpt lat="44.60855" lon="6.61671">
        <ele>2316.91</ele>
        <time>2011-06-12T06:48:04Z</time>
      </trkpt>
      <trkpt lat="44.60856" lon="6.61668">
        <ele>2316.91</ele>
        <time>2011-06-12T06:48:05Z</time>
      </trkpt>
      <trkpt lat="44.60858" lon="6.61666">
        <ele>2317.4</ele>
        <time>2011-06-12T06:48:06Z</time>
      </trkpt>
      <trkpt lat="44.60859" lon="6.61664">
        <ele>2317.4</ele>
        <time>2011-06-12T06:48:07Z</time>
      </trkpt>
      <trkpt lat="44.60861" lon="6.61663">
        <ele>2317.88</ele>
        <time>2011-06-12T06:48:08Z</time>
      </trkpt>
      <trkpt lat="44.60878" lon="6.61648">
        <ele>2320.28</ele>
        <time>2011-06-12T06:48:17Z</time>
      </trkpt>
      <trkpt lat="44.60905" lon="6.61615">
        <ele>2323.64</ele>
        <time>2011-06-12T06:48:34Z</time>
      </trkpt>
      <trkpt lat="44.60932" lon="6.61597">
        <ele>2326.53</ele>
        <time>2011-06-12T06:48:49Z</time>
      </trkpt>
      <trkpt lat="44.60957" lon="6.61589">
        <ele>2329.89</ele>
        <time>2011-06-12T06:49:02Z</time>
      </trkpt>
      <trkpt lat="44.60979" lon="6.61565">
        <ele>2333.26</ele>
        <time>2011-06-12T06:49:16Z</time>
      </trkpt>
      <trkpt lat="44.60995" lon="6.61531">
        <ele>2335.66</ele>
        <time>2011-06-12T06:49:30Z</time>
      </trkpt>
      <trkpt lat="44.61011" lon="6.61496">
        <ele>2338.54</ele>
        <time>2011-06-12T06:49:43Z</time>
      </trkpt>
      <trkpt lat="44.61037" lon="6.61477">
        <ele>2340.95</ele>
        <time>2011-06-12T06:49:56Z</time>
      </trkpt>
      <trkpt lat="44.61058" lon="6.61442">
        <ele>2343.83</ele>
        <time>2011-06-12T06:50:10Z</time>
      </trkpt>
      <trkpt lat="44.6107" lon="6.61395">
        <ele>2346.23</ele>
        <time>2011-06-12T06:50:26Z</time>
      </trkpt>
      <trkpt lat="44.61046" lon="6.61372">
        <ele>2348.16</ele>
        <time>2011-06-12T06:50:38Z</time>
      </trkpt>
      <trkpt lat="44.61022" lon="6.61345">
        <ele>2351.52</ele>
        <time>2011-06-12T06:50:52Z</time>
      </trkpt>
      <trkpt lat="44.61013" lon="6.6132">
        <ele>2354.41</ele>
        <time>2011-06-12T06:51:02Z</time>
      </trkpt>
      <trkpt lat="44.61029" lon="6.61279">
        <ele>2356.81</ele>
        <time>2011-06-12T06:51:16Z</time>
      </trkpt>
      <trkpt lat="44.61055" lon="6.61228">
        <ele>2359.21</ele>
        <time>2011-06-12T06:51:33Z</time>
      </trkpt>
      <trkpt lat="44.61074" lon="6.61175">
        <ele>2361.62</ele>
        <time>2011-06-12T06:51:48Z</time>
      </trkpt>
      <trkpt lat="44.611" lon="6.6114">
        <ele>2363.54</ele>
        <time>2011-06-12T06:52:01Z</time>
      </trkpt>
      <trkpt lat="44.61118" lon="6.61067">
        <ele>2361.62</ele>
        <time>2011-06-12T06:52:14Z</time>
      </trkpt>
      <trkpt lat="44.61118" lon="6.60991">
        <ele>2360.17</ele>
        <time>2011-06-12T06:52:25Z</time>
      </trkpt>
      <trkpt lat="44.61117" lon="6.60966">
        <ele>2359.69</ele>
        <time>2011-06-12T06:52:28Z</time>
      </trkpt>
      <trkpt lat="44.61112" lon="6.60914">
        <ele>2356.81</ele>
        <time>2011-06-12T06:52:33Z</time>
      </trkpt>
      <trkpt lat="44.61111" lon="6.60841">
        <ele>2358.73</ele>
        <time>2011-06-12T06:52:43Z</time>
      </trkpt>
      <trkpt lat="44.6111" lon="6.60743">
        <ele>2359.21</ele>
        <time>2011-06-12T06:52:58Z</time>
      </trkpt>
      <trkpt lat="44.61109" lon="6.60676">
        <ele>2354.41</ele>
        <time>2011-06-12T06:53:06Z</time>
      </trkpt>
      <trkpt lat="44.6111" lon="6.60643">
        <ele>2351.04</ele>
        <time>2011-06-12T06:53:09Z</time>
      </trkpt>
      <trkpt lat="44.6111" lon="6.60619">
        <ele>2346.23</ele>
        <time>2011-06-12T06:53:11Z</time>
      </trkpt>
      <trkpt lat="44.6111" lon="6.60608">
        <ele>2344.79</ele>
        <time>2011-06-12T06:53:12Z</time>
      </trkpt>
      <trkpt lat="44.61111" lon="6.60599">
        <ele>2344.79</ele>
        <time>2011-06-12T06:53:13Z</time>
      </trkpt>
      <trkpt lat="44.61114" lon="6.60591">
        <ele>2344.31</ele>
        <time>2011-06-12T06:53:14Z</time>
      </trkpt>
      <trkpt lat="44.61116" lon="6.60584">
        <ele>2344.31</ele>
        <time>2011-06-12T06:53:15Z</time>
      </trkpt>
      <trkpt lat="44.61118" lon="6.60576">
        <ele>2343.83</ele>
        <time>2011-06-12T06:53:16Z</time>
      </trkpt>
      <trkpt lat="44.61119" lon="6.60567">
        <ele>2343.83</ele>
        <time>2011-06-12T06:53:17Z</time>
      </trkpt>
      <trkpt lat="44.61121" lon="6.60557">
        <ele>2342.39</ele>
        <time>2011-06-12T06:53:18Z</time>
      </trkpt>
      <trkpt lat="44.61123" lon="6.60547">
        <ele>2341.91</ele>
        <time>2011-06-12T06:53:19Z</time>
      </trkpt>
      <trkpt lat="44.61127" lon="6.60525">
        <ele>2339.02</ele>
        <time>2011-06-12T06:53:21Z</time>
      </trkpt>
      <trkpt lat="44.61131" lon="6.60516">
        <ele>2338.54</ele>
        <time>2011-06-12T06:53:22Z</time>
      </trkpt>
      <trkpt lat="44.61145" lon="6.60489">
        <ele>2337.1</ele>
        <time>2011-06-12T06:53:25Z</time>
      </trkpt>
      <trkpt lat="44.61156" lon="6.6047">
        <ele>2334.22</ele>
        <time>2011-06-12T06:53:27Z</time>
      </trkpt>
      <trkpt lat="44.6116" lon="6.6046">
        <ele>2333.74</ele>
        <time>2011-06-12T06:53:28Z</time>
      </trkpt>
      <trkpt lat="44.61164" lon="6.60449">
        <ele>2333.26</ele>
        <time>2011-06-12T06:53:29Z</time>
      </trkpt>
      <trkpt lat="44.61167" lon="6.60438">
        <ele>2332.3</ele>
        <time>2011-06-12T06:53:30Z</time>
      </trkpt>
      <trkpt lat="44.61169" lon="6.60428">
        <ele>2332.3</ele>
        <time>2011-06-12T06:53:31Z</time>
      </trkpt>
      <trkpt lat="44.61172" lon="6.60417">
        <ele>2331.81</ele>
        <time>2011-06-12T06:53:32Z</time>
      </trkpt>
      <trkpt lat="44.61176" lon="6.60407">
        <ele>2331.33</ele>
        <time>2011-06-12T06:53:33Z</time>
      </trkpt>
      <trkpt lat="44.61181" lon="6.60397">
        <ele>2329.89</ele>
        <time>2011-06-12T06:53:34Z</time>
      </trkpt>
      <trkpt lat="44.61187" lon="6.60386">
        <ele>2328.45</ele>
        <time>2011-06-12T06:53:35Z</time>
      </trkpt>
      <trkpt lat="44.61194" lon="6.60377">
        <ele>2327.49</ele>
        <time>2011-06-12T06:53:36Z</time>
      </trkpt>
      <trkpt lat="44.61201" lon="6.60369">
        <ele>2327.01</ele>
        <time>2011-06-12T06:53:37Z</time>
      </trkpt>
      <trkpt lat="44.6121" lon="6.60363">
        <ele>2326.53</ele>
        <time>2011-06-12T06:53:38Z</time>
      </trkpt>
      <trkpt lat="44.61217" lon="6.60356">
        <ele>2326.53</ele>
        <time>2011-06-12T06:53:39Z</time>
      </trkpt>
      <trkpt lat="44.61224" lon="6.6035">
        <ele>2326.53</ele>
        <time>2011-06-12T06:53:40Z</time>
      </trkpt>
      <trkpt lat="44.6123" lon="6.60343">
        <ele>2325.57</ele>
        <time>2011-06-12T06:53:41Z</time>
      </trkpt>
      <trkpt lat="44.61237" lon="6.60337">
        <ele>2324.61</ele>
        <time>2011-06-12T06:53:42Z</time>
      </trkpt>
      <trkpt lat="44.61256" lon="6.60318">
        <ele>2322.68</ele>
        <time>2011-06-12T06:53:45Z</time>
      </trkpt>
      <trkpt lat="44.61267" lon="6.60303">
        <ele>2321.72</ele>
        <time>2011-06-12T06:53:47Z</time>
      </trkpt>
      <trkpt lat="44.61281" lon="6.60278">
        <ele>2318.36</ele>
        <time>2011-06-12T06:53:50Z</time>
      </trkpt>
      <trkpt lat="44.61289" lon="6.60257">
        <ele>2315.95</ele>
        <time>2011-06-12T06:53:52Z</time>
      </trkpt>
      <trkpt lat="44.61294" lon="6.60249">
        <ele>2314.51</ele>
        <time>2011-06-12T06:53:53Z</time>
      </trkpt>
      <trkpt lat="44.61299" lon="6.60243">
        <ele>2314.51</ele>
        <time>2011-06-12T06:53:54Z</time>
      </trkpt>
      <trkpt lat="44.61305" lon="6.60239">
        <ele>2314.51</ele>
        <time>2011-06-12T06:53:55Z</time>
      </trkpt>
      <trkpt lat="44.61309" lon="6.60235">
        <ele>2313.55</ele>
        <time>2011-06-12T06:53:56Z</time>
      </trkpt>
      <trkpt lat="44.61312" lon="6.6023">
        <ele>2312.11</ele>
        <time>2011-06-12T06:53:57Z</time>
      </trkpt>
      <trkpt lat="44.61313" lon="6.60226">
        <ele>2311.15</ele>
        <time>2011-06-12T06:53:58Z</time>
      </trkpt>
      <trkpt lat="44.61316" lon="6.60222">
        <ele>2311.15</ele>
        <time>2011-06-12T06:53:59Z</time>
      </trkpt>
      <trkpt lat="44.61319" lon="6.60219">
        <ele>2310.67</ele>
        <time>2011-06-12T06:54:00Z</time>
      </trkpt>
      <trkpt lat="44.61322" lon="6.60216">
        <ele>2311.63</ele>
        <time>2011-06-12T06:54:01Z</time>
      </trkpt>
      <trkpt lat="44.61336" lon="6.60208">
        <ele>2310.67</ele>
        <time>2011-06-12T06:54:04Z</time>
      </trkpt>
      <trkpt lat="44.61346" lon="6.60203">
        <ele>2309.7</ele>
        <time>2011-06-12T06:54:06Z</time>
      </trkpt>
      <trkpt lat="44.61356" lon="6.60196">
        <ele>2309.22</ele>
        <time>2011-06-12T06:54:08Z</time>
      </trkpt>
      <trkpt lat="44.61373" lon="6.60179">
        <ele>2306.34</ele>
        <time>2011-06-12T06:54:11Z</time>
      </trkpt>
      <trkpt lat="44.61378" lon="6.60172">
        <ele>2305.38</ele>
        <time>2011-06-12T06:54:12Z</time>
      </trkpt>
      <trkpt lat="44.61382" lon="6.60165">
        <ele>2305.38</ele>
        <time>2011-06-12T06:54:13Z</time>
      </trkpt>
      <trkpt lat="44.61386" lon="6.60158">
        <ele>2304.42</ele>
        <time>2011-06-12T06:54:14Z</time>
      </trkpt>
      <trkpt lat="44.61389" lon="6.6015">
        <ele>2303.94</ele>
        <time>2011-06-12T06:54:15Z</time>
      </trkpt>
      <trkpt lat="44.61391" lon="6.60142">
        <ele>2302.98</ele>
        <time>2011-06-12T06:54:16Z</time>
      </trkpt>
      <trkpt lat="44.61392" lon="6.60133">
        <ele>2302.49</ele>
        <time>2011-06-12T06:54:17Z</time>
      </trkpt>
      <trkpt lat="44.61392" lon="6.60125">
        <ele>2302.49</ele>
        <time>2011-06-12T06:54:18Z</time>
      </trkpt>
      <trkpt lat="44.61394" lon="6.60095">
        <ele>2302.01</ele>
        <time>2011-06-12T06:54:22Z</time>
      </trkpt>
      <trkpt lat="44.61396" lon="6.60088">
        <ele>2301.53</ele>
        <time>2011-06-12T06:54:23Z</time>
      </trkpt>
      <trkpt lat="44.614" lon="6.60081">
        <ele>2300.09</ele>
        <time>2011-06-12T06:54:24Z</time>
      </trkpt>
      <trkpt lat="44.61402" lon="6.60075">
        <ele>2300.09</ele>
        <time>2011-06-12T06:54:25Z</time>
      </trkpt>
      <trkpt lat="44.61405" lon="6.60067">
        <ele>2299.61</ele>
        <time>2011-06-12T06:54:26Z</time>
      </trkpt>
      <trkpt lat="44.61407" lon="6.60058">
        <ele>2298.65</ele>
        <time>2011-06-12T06:54:27Z</time>
      </trkpt>
      <trkpt lat="44.61411" lon="6.6005">
        <ele>2298.17</ele>
        <time>2011-06-12T06:54:28Z</time>
      </trkpt>
      <trkpt lat="44.61416" lon="6.60043">
        <ele>2297.21</ele>
        <time>2011-06-12T06:54:29Z</time>
      </trkpt>
      <trkpt lat="44.6142" lon="6.60037">
        <ele>2296.73</ele>
        <time>2011-06-12T06:54:30Z</time>
      </trkpt>
      <trkpt lat="44.61426" lon="6.6003">
        <ele>2296.25</ele>
        <time>2011-06-12T06:54:31Z</time>
      </trkpt>
      <trkpt lat="44.61431" lon="6.60024">
        <ele>2296.25</ele>
        <time>2011-06-12T06:54:32Z</time>
      </trkpt>
      <trkpt lat="44.61435" lon="6.60018">
        <ele>2296.25</ele>
        <time>2011-06-12T06:54:33Z</time>
      </trkpt>
      <trkpt lat="44.61438" lon="6.60011">
        <ele>2296.25</ele>
        <time>2011-06-12T06:54:34Z</time>
      </trkpt>
      <trkpt lat="44.61441" lon="6.60003">
        <ele>2295.28</ele>
        <time>2011-06-12T06:54:35Z</time>
      </trkpt>
      <trkpt lat="44.61443" lon="6.59995">
        <ele>2295.77</ele>
        <time>2011-06-12T06:54:36Z</time>
      </trkpt>
      <trkpt lat="44.61445" lon="6.59987">
        <ele>2295.77</ele>
        <time>2011-06-12T06:54:37Z</time>
      </trkpt>
      <trkpt lat="44.61448" lon="6.5998">
        <ele>2295.28</ele>
        <time>2011-06-12T06:54:38Z</time>
      </trkpt>
      <trkpt lat="44.61449" lon="6.59973">
        <ele>2295.28</ele>
        <time>2011-06-12T06:54:39Z</time>
      </trkpt>
      <trkpt lat="44.61451" lon="6.59961">
        <ele>2292.88</ele>
        <time>2011-06-12T06:54:41Z</time>
      </trkpt>
      <trkpt lat="44.61453" lon="6.59956">
        <ele>2291.92</ele>
        <time>2011-06-12T06:54:42Z</time>
      </trkpt>
      <trkpt lat="44.61454" lon="6.59951">
        <ele>2290.96</ele>
        <time>2011-06-12T06:54:43Z</time>
      </trkpt>
      <trkpt lat="44.61455" lon="6.59947">
        <ele>2290.48</ele>
        <time>2011-06-12T06:54:44Z</time>
      </trkpt>
      <trkpt lat="44.61456" lon="6.59945">
        <ele>2290</ele>
        <time>2011-06-12T06:54:45Z</time>
      </trkpt>
      <trkpt lat="44.61458" lon="6.59942">
        <ele>2290</ele>
        <time>2011-06-12T06:54:46Z</time>
      </trkpt>
      <trkpt lat="44.61459" lon="6.59939">
        <ele>2290</ele>
        <time>2011-06-12T06:54:47Z</time>
      </trkpt>
      <trkpt lat="44.6146" lon="6.59936">
        <ele>2290.48</ele>
        <time>2011-06-12T06:54:48Z</time>
      </trkpt>
      <trkpt lat="44.61461" lon="6.59932">
        <ele>2290.48</ele>
        <time>2011-06-12T06:54:49Z</time>
      </trkpt>
      <trkpt lat="44.61462" lon="6.59928">
        <ele>2290</ele>
        <time>2011-06-12T06:54:50Z</time>
      </trkpt>
      <trkpt lat="44.61464" lon="6.59923">
        <ele>2290</ele>
        <time>2011-06-12T06:54:51Z</time>
      </trkpt>
      <trkpt lat="44.61467" lon="6.59918">
        <ele>2289.52</ele>
        <time>2011-06-12T06:54:52Z</time>
      </trkpt>
      <trkpt lat="44.61471" lon="6.59906">
        <ele>2289.04</ele>
        <time>2011-06-12T06:54:54Z</time>
      </trkpt>
      <trkpt lat="44.61476" lon="6.59894">
        <ele>2287.11</ele>
        <time>2011-06-12T06:54:56Z</time>
      </trkpt>
      <trkpt lat="44.6148" lon="6.5989">
        <ele>2285.67</ele>
        <time>2011-06-12T06:54:57Z</time>
      </trkpt>
      <trkpt lat="44.61483" lon="6.59885">
        <ele>2283.75</ele>
        <time>2011-06-12T06:54:58Z</time>
      </trkpt>
      <trkpt lat="44.61487" lon="6.59879">
        <ele>2281.83</ele>
        <time>2011-06-12T06:54:59Z</time>
      </trkpt>
      <trkpt lat="44.61492" lon="6.59877">
        <ele>2281.35</ele>
        <time>2011-06-12T06:55:00Z</time>
      </trkpt>
      <trkpt lat="44.61497" lon="6.59876">
        <ele>2280.38</ele>
        <time>2011-06-12T06:55:01Z</time>
      </trkpt>
      <trkpt lat="44.61503" lon="6.59877">
        <ele>2278.46</ele>
        <time>2011-06-12T06:55:02Z</time>
      </trkpt>
      <trkpt lat="44.6151" lon="6.59876">
        <ele>2276.54</ele>
        <time>2011-06-12T06:55:03Z</time>
      </trkpt>
      <trkpt lat="44.61517" lon="6.59876">
        <ele>2275.1</ele>
        <time>2011-06-12T06:55:04Z</time>
      </trkpt>
      <trkpt lat="44.61524" lon="6.59874">
        <ele>2274.14</ele>
        <time>2011-06-12T06:55:05Z</time>
      </trkpt>
      <trkpt lat="44.61529" lon="6.59873">
        <ele>2274.62</ele>
        <time>2011-06-12T06:55:06Z</time>
      </trkpt>
      <trkpt lat="44.61534" lon="6.59876">
        <ele>2273.66</ele>
        <time>2011-06-12T06:55:07Z</time>
      </trkpt>
      <trkpt lat="44.61539" lon="6.59878">
        <ele>2272.69</ele>
        <time>2011-06-12T06:55:08Z</time>
      </trkpt>
      <trkpt lat="44.61545" lon="6.59879">
        <ele>2270.77</ele>
        <time>2011-06-12T06:55:09Z</time>
      </trkpt>
      <trkpt lat="44.61552" lon="6.59879">
        <ele>2270.29</ele>
        <time>2011-06-12T06:55:10Z</time>
      </trkpt>
      <trkpt lat="44.61565" lon="6.59877">
        <ele>2269.33</ele>
        <time>2011-06-12T06:55:12Z</time>
      </trkpt>
      <trkpt lat="44.6157" lon="6.59874">
        <ele>2268.85</ele>
        <time>2011-06-12T06:55:13Z</time>
      </trkpt>
      <trkpt lat="44.61574" lon="6.59869">
        <ele>2267.89</ele>
        <time>2011-06-12T06:55:14Z</time>
      </trkpt>
      <trkpt lat="44.61579" lon="6.59864">
        <ele>2267.41</ele>
        <time>2011-06-12T06:55:15Z</time>
      </trkpt>
      <trkpt lat="44.61584" lon="6.5986">
        <ele>2266.93</ele>
        <time>2011-06-12T06:55:16Z</time>
      </trkpt>
      <trkpt lat="44.6159" lon="6.59858">
        <ele>2265.96</ele>
        <time>2011-06-12T06:55:17Z</time>
      </trkpt>
      <trkpt lat="44.61596" lon="6.59855">
        <ele>2265.48</ele>
        <time>2011-06-12T06:55:18Z</time>
      </trkpt>
      <trkpt lat="44.61603" lon="6.59851">
        <ele>2264.04</ele>
        <time>2011-06-12T06:55:19Z</time>
      </trkpt>
      <trkpt lat="44.61622" lon="6.5984">
        <ele>2260.2</ele>
        <time>2011-06-12T06:55:22Z</time>
      </trkpt>
      <trkpt lat="44.61627" lon="6.59835">
        <ele>2260.2</ele>
        <time>2011-06-12T06:55:23Z</time>
      </trkpt>
      <trkpt lat="44.61635" lon="6.59825">
        <ele>2259.72</ele>
        <time>2011-06-12T06:55:25Z</time>
      </trkpt>
      <trkpt lat="44.61639" lon="6.59824">
        <ele>2259.72</ele>
        <time>2011-06-12T06:55:26Z</time>
      </trkpt>
      <trkpt lat="44.61644" lon="6.59823">
        <ele>2258.75</ele>
        <time>2011-06-12T06:55:27Z</time>
      </trkpt>
      <trkpt lat="44.61649" lon="6.59822">
        <ele>2257.31</ele>
        <time>2011-06-12T06:55:28Z</time>
      </trkpt>
      <trkpt lat="44.61653" lon="6.59821">
        <ele>2255.87</ele>
        <time>2011-06-12T06:55:29Z</time>
      </trkpt>
      <trkpt lat="44.61658" lon="6.59822">
        <ele>2255.87</ele>
        <time>2011-06-12T06:55:30Z</time>
      </trkpt>
      <trkpt lat="44.61661" lon="6.59825">
        <ele>2254.43</ele>
        <time>2011-06-12T06:55:31Z</time>
      </trkpt>
      <trkpt lat="44.61665" lon="6.59829">
        <ele>2253.47</ele>
        <time>2011-06-12T06:55:32Z</time>
      </trkpt>
      <trkpt lat="44.6167" lon="6.59833">
        <ele>2252.03</ele>
        <time>2011-06-12T06:55:33Z</time>
      </trkpt>
      <trkpt lat="44.61675" lon="6.59836">
        <ele>2250.58</ele>
        <time>2011-06-12T06:55:34Z</time>
      </trkpt>
      <trkpt lat="44.61679" lon="6.59839">
        <ele>2250.1</ele>
        <time>2011-06-12T06:55:35Z</time>
      </trkpt>
      <trkpt lat="44.61691" lon="6.59844">
        <ele>2246.26</ele>
        <time>2011-06-12T06:55:38Z</time>
      </trkpt>
      <trkpt lat="44.61698" lon="6.59845">
        <ele>2243.85</ele>
        <time>2011-06-12T06:55:40Z</time>
      </trkpt>
      <trkpt lat="44.617" lon="6.59847">
        <ele>2243.37</ele>
        <time>2011-06-12T06:55:41Z</time>
      </trkpt>
      <trkpt lat="44.61702" lon="6.59849">
        <ele>2242.41</ele>
        <time>2011-06-12T06:55:42Z</time>
      </trkpt>
      <trkpt lat="44.6171" lon="6.59851">
        <ele>2238.57</ele>
        <time>2011-06-12T06:55:46Z</time>
      </trkpt>
      <trkpt lat="44.61711" lon="6.59853">
        <ele>2238.57</ele>
        <time>2011-06-12T06:55:47Z</time>
      </trkpt>
      <trkpt lat="44.61713" lon="6.59855">
        <ele>2237.61</ele>
        <time>2011-06-12T06:55:48Z</time>
      </trkpt>
      <trkpt lat="44.61714" lon="6.59855">
        <ele>2237.13</ele>
        <time>2011-06-12T06:55:49Z</time>
      </trkpt>
      <trkpt lat="44.61717" lon="6.59856">
        <ele>2236.16</ele>
        <time>2011-06-12T06:55:50Z</time>
      </trkpt>
      <trkpt lat="44.61718" lon="6.59856">
        <ele>2235.2</ele>
        <time>2011-06-12T06:55:51Z</time>
      </trkpt>
      <trkpt lat="44.6172" lon="6.59856">
        <ele>2234.24</ele>
        <time>2011-06-12T06:55:52Z</time>
      </trkpt>
      <trkpt lat="44.61725" lon="6.59857">
        <ele>2232.32</ele>
        <time>2011-06-12T06:55:54Z</time>
      </trkpt>
      <trkpt lat="44.61731" lon="6.59856">
        <ele>2228.95</ele>
        <time>2011-06-12T06:55:57Z</time>
      </trkpt>
      <trkpt lat="44.6174" lon="6.59855">
        <ele>2225.59</ele>
        <time>2011-06-12T06:56:01Z</time>
      </trkpt>
      <trkpt lat="44.61751" lon="6.59856">
        <ele>2222.71</ele>
        <time>2011-06-12T06:56:04Z</time>
      </trkpt>
      <trkpt lat="44.61766" lon="6.59857">
        <ele>2219.34</ele>
        <time>2011-06-12T06:56:08Z</time>
      </trkpt>
      <trkpt lat="44.61782" lon="6.5986">
        <ele>2215.01</ele>
        <time>2011-06-12T06:56:12Z</time>
      </trkpt>
      <trkpt lat="44.61791" lon="6.59861">
        <ele>2213.57</ele>
        <time>2011-06-12T06:56:14Z</time>
      </trkpt>
      <trkpt lat="44.61803" lon="6.5986">
        <ele>2212.61</ele>
        <time>2011-06-12T06:56:16Z</time>
      </trkpt>
      <trkpt lat="44.61808" lon="6.59859">
        <ele>2212.61</ele>
        <time>2011-06-12T06:56:17Z</time>
      </trkpt>
      <trkpt lat="44.61813" lon="6.59857">
        <ele>2213.09</ele>
        <time>2011-06-12T06:56:18Z</time>
      </trkpt>
      <trkpt lat="44.61817" lon="6.59857">
        <ele>2213.57</ele>
        <time>2011-06-12T06:56:19Z</time>
      </trkpt>
      <trkpt lat="44.61819" lon="6.59857">
        <ele>2214.53</ele>
        <time>2011-06-12T06:56:20Z</time>
      </trkpt>
      <trkpt lat="44.61821" lon="6.59856">
        <ele>2215.01</ele>
        <time>2011-06-12T06:56:21Z</time>
      </trkpt>
      <trkpt lat="44.61824" lon="6.59856">
        <ele>2215.01</ele>
        <time>2011-06-12T06:56:22Z</time>
      </trkpt>
      <trkpt lat="44.61827" lon="6.59856">
        <ele>2215.01</ele>
        <time>2011-06-12T06:56:23Z</time>
      </trkpt>
      <trkpt lat="44.6183" lon="6.59857">
        <ele>2215.01</ele>
        <time>2011-06-12T06:56:24Z</time>
      </trkpt>
      <trkpt lat="44.61834" lon="6.59858">
        <ele>2215.01</ele>
        <time>2011-06-12T06:56:25Z</time>
      </trkpt>
      <trkpt lat="44.61838" lon="6.59859">
        <ele>2213.57</ele>
        <time>2011-06-12T06:56:26Z</time>
      </trkpt>
      <trkpt lat="44.61842" lon="6.5986">
        <ele>2213.09</ele>
        <time>2011-06-12T06:56:27Z</time>
      </trkpt>
      <trkpt lat="44.61845" lon="6.59861">
        <ele>2213.09</ele>
        <time>2011-06-12T06:56:28Z</time>
      </trkpt>
      <trkpt lat="44.61847" lon="6.59861">
        <ele>2213.09</ele>
        <time>2011-06-12T06:56:29Z</time>
      </trkpt>
      <trkpt lat="44.61849" lon="6.59861">
        <ele>2213.09</ele>
        <time>2011-06-12T06:56:30Z</time>
      </trkpt>
      <trkpt lat="44.61851" lon="6.59862">
        <ele>2213.09</ele>
        <time>2011-06-12T06:56:31Z</time>
      </trkpt>
      <trkpt lat="44.61852" lon="6.59863">
        <ele>2212.61</ele>
        <time>2011-06-12T06:56:32Z</time>
      </trkpt>
      <trkpt lat="44.61857" lon="6.59866">
        <ele>2213.57</ele>
        <time>2011-06-12T06:56:36Z</time>
      </trkpt>
      <trkpt lat="44.6186" lon="6.59866">
        <ele>2212.61</ele>
        <time>2011-06-12T06:56:37Z</time>
      </trkpt>
      <trkpt lat="44.6187" lon="6.5987">
        <ele>2212.13</ele>
        <time>2011-06-12T06:56:40Z</time>
      </trkpt>
      <trkpt lat="44.61874" lon="6.59871">
        <ele>2211.65</ele>
        <time>2011-06-12T06:56:41Z</time>
      </trkpt>
      <trkpt lat="44.61879" lon="6.5987">
        <ele>2210.69</ele>
        <time>2011-06-12T06:56:42Z</time>
      </trkpt>
      <trkpt lat="44.61883" lon="6.5987">
        <ele>2211.17</ele>
        <time>2011-06-12T06:56:43Z</time>
      </trkpt>
      <trkpt lat="44.61886" lon="6.5987">
        <ele>2211.17</ele>
        <time>2011-06-12T06:56:44Z</time>
      </trkpt>
      <trkpt lat="44.61898" lon="6.59867">
        <ele>2210.69</ele>
        <time>2011-06-12T06:56:47Z</time>
      </trkpt>
      <trkpt lat="44.61912" lon="6.59863">
        <ele>2208.29</ele>
        <time>2011-06-12T06:56:50Z</time>
      </trkpt>
      <trkpt lat="44.61915" lon="6.59861">
        <ele>2207.81</ele>
        <time>2011-06-12T06:56:51Z</time>
      </trkpt>
      <trkpt lat="44.6192" lon="6.5986">
        <ele>2206.84</ele>
        <time>2011-06-12T06:56:52Z</time>
      </trkpt>
      <trkpt lat="44.61924" lon="6.59859">
        <ele>2205.4</ele>
        <time>2011-06-12T06:56:53Z</time>
      </trkpt>
      <trkpt lat="44.61929" lon="6.59859">
        <ele>2204.92</ele>
        <time>2011-06-12T06:56:54Z</time>
      </trkpt>
      <trkpt lat="44.61938" lon="6.59859">
        <ele>2203.96</ele>
        <time>2011-06-12T06:56:56Z</time>
      </trkpt>
      <trkpt lat="44.61957" lon="6.59861">
        <ele>2200.11</ele>
        <time>2011-06-12T06:57:01Z</time>
      </trkpt>
      <trkpt lat="44.61962" lon="6.59861">
        <ele>2199.63</ele>
        <time>2011-06-12T06:57:02Z</time>
      </trkpt>
      <trkpt lat="44.61965" lon="6.5986">
        <ele>2199.15</ele>
        <time>2011-06-12T06:57:03Z</time>
      </trkpt>
      <trkpt lat="44.61969" lon="6.59857">
        <ele>2198.19</ele>
        <time>2011-06-12T06:57:04Z</time>
      </trkpt>
      <trkpt lat="44.61972" lon="6.59853">
        <ele>2197.23</ele>
        <time>2011-06-12T06:57:05Z</time>
      </trkpt>
      <trkpt lat="44.61977" lon="6.59848">
        <ele>2196.27</ele>
        <time>2011-06-12T06:57:06Z</time>
      </trkpt>
      <trkpt lat="44.61982" lon="6.59844">
        <ele>2195.79</ele>
        <time>2011-06-12T06:57:07Z</time>
      </trkpt>
      <trkpt lat="44.61988" lon="6.59841">
        <ele>2194.83</ele>
        <time>2011-06-12T06:57:08Z</time>
      </trkpt>
      <trkpt lat="44.61993" lon="6.59839">
        <ele>2194.83</ele>
        <time>2011-06-12T06:57:09Z</time>
      </trkpt>
      <trkpt lat="44.62004" lon="6.59835">
        <ele>2194.83</ele>
        <time>2011-06-12T06:57:11Z</time>
      </trkpt>
      <trkpt lat="44.62009" lon="6.59833">
        <ele>2194.35</ele>
        <time>2011-06-12T06:57:12Z</time>
      </trkpt>
      <trkpt lat="44.62029" lon="6.5982">
        <ele>2194.35</ele>
        <time>2011-06-12T06:57:17Z</time>
      </trkpt>
      <trkpt lat="44.62039" lon="6.59815">
        <ele>2193.87</ele>
        <time>2011-06-12T06:57:19Z</time>
      </trkpt>
      <trkpt lat="44.62044" lon="6.59813">
        <ele>2194.35</ele>
        <time>2011-06-12T06:57:20Z</time>
      </trkpt>
      <trkpt lat="44.62048" lon="6.5981">
        <ele>2193.87</ele>
        <time>2011-06-12T06:57:21Z</time>
      </trkpt>
      <trkpt lat="44.62052" lon="6.59806">
        <ele>2193.39</ele>
        <time>2011-06-12T06:57:22Z</time>
      </trkpt>
      <trkpt lat="44.62056" lon="6.59802">
        <ele>2192.9</ele>
        <time>2011-06-12T06:57:23Z</time>
      </trkpt>
      <trkpt lat="44.6206" lon="6.59799">
        <ele>2191.94</ele>
        <time>2011-06-12T06:57:24Z</time>
      </trkpt>
      <trkpt lat="44.62063" lon="6.59796">
        <ele>2191.46</ele>
        <time>2011-06-12T06:57:25Z</time>
      </trkpt>
      <trkpt lat="44.62064" lon="6.59793">
        <ele>2190.5</ele>
        <time>2011-06-12T06:57:26Z</time>
      </trkpt>
      <trkpt lat="44.62065" lon="6.5979">
        <ele>2190.02</ele>
        <time>2011-06-12T06:57:27Z</time>
      </trkpt>
      <trkpt lat="44.62067" lon="6.59788">
        <ele>2189.54</ele>
        <time>2011-06-12T06:57:28Z</time>
      </trkpt>
      <trkpt lat="44.62069" lon="6.59786">
        <ele>2189.06</ele>
        <time>2011-06-12T06:57:29Z</time>
      </trkpt>
      <trkpt lat="44.62071" lon="6.59784">
        <ele>2188.58</ele>
        <time>2011-06-12T06:57:30Z</time>
      </trkpt>
      <trkpt lat="44.62073" lon="6.59781">
        <ele>2188.1</ele>
        <time>2011-06-12T06:57:31Z</time>
      </trkpt>
      <trkpt lat="44.62076" lon="6.59779">
        <ele>2187.14</ele>
        <time>2011-06-12T06:57:32Z</time>
      </trkpt>
      <trkpt lat="44.62079" lon="6.59776">
        <ele>2187.14</ele>
        <time>2011-06-12T06:57:33Z</time>
      </trkpt>
      <trkpt lat="44.62082" lon="6.59772">
        <ele>2185.69</ele>
        <time>2011-06-12T06:57:34Z</time>
      </trkpt>
      <trkpt lat="44.62086" lon="6.59768">
        <ele>2184.25</ele>
        <time>2011-06-12T06:57:35Z</time>
      </trkpt>
      <trkpt lat="44.6209" lon="6.59763">
        <ele>2182.81</ele>
        <time>2011-06-12T06:57:36Z</time>
      </trkpt>
      <trkpt lat="44.62095" lon="6.59758">
        <ele>2182.33</ele>
        <time>2011-06-12T06:57:37Z</time>
      </trkpt>
      <trkpt lat="44.62099" lon="6.59754">
        <ele>2181.85</ele>
        <time>2011-06-12T06:57:38Z</time>
      </trkpt>
      <trkpt lat="44.62102" lon="6.59751">
        <ele>2181.85</ele>
        <time>2011-06-12T06:57:39Z</time>
      </trkpt>
      <trkpt lat="44.62107" lon="6.59747">
        <ele>2182.33</ele>
        <time>2011-06-12T06:57:41Z</time>
      </trkpt>
      <trkpt lat="44.62109" lon="6.59744">
        <ele>2182.33</ele>
        <time>2011-06-12T06:57:42Z</time>
      </trkpt>
      <trkpt lat="44.62112" lon="6.59742">
        <ele>2182.33</ele>
        <time>2011-06-12T06:57:43Z</time>
      </trkpt>
      <trkpt lat="44.62115" lon="6.59741">
        <ele>2181.85</ele>
        <time>2011-06-12T06:57:44Z</time>
      </trkpt>
      <trkpt lat="44.62118" lon="6.59738">
        <ele>2181.85</ele>
        <time>2011-06-12T06:57:45Z</time>
      </trkpt>
      <trkpt lat="44.62121" lon="6.59735">
        <ele>2181.85</ele>
        <time>2011-06-12T06:57:46Z</time>
      </trkpt>
      <trkpt lat="44.62123" lon="6.59732">
        <ele>2182.33</ele>
        <time>2011-06-12T06:57:47Z</time>
      </trkpt>
      <trkpt lat="44.62126" lon="6.59728">
        <ele>2182.33</ele>
        <time>2011-06-12T06:57:48Z</time>
      </trkpt>
      <trkpt lat="44.62129" lon="6.59725">
        <ele>2182.33</ele>
        <time>2011-06-12T06:57:49Z</time>
      </trkpt>
      <trkpt lat="44.62133" lon="6.59723">
        <ele>2181.85</ele>
        <time>2011-06-12T06:57:50Z</time>
      </trkpt>
      <trkpt lat="44.62138" lon="6.59721">
        <ele>2180.89</ele>
        <time>2011-06-12T06:57:51Z</time>
      </trkpt>
      <trkpt lat="44.62142" lon="6.59718">
        <ele>2179.93</ele>
        <time>2011-06-12T06:57:52Z</time>
      </trkpt>
      <trkpt lat="44.62147" lon="6.59715">
        <ele>2179.45</ele>
        <time>2011-06-12T06:57:53Z</time>
      </trkpt>
      <trkpt lat="44.62153" lon="6.59711">
        <ele>2178</ele>
        <time>2011-06-12T06:57:54Z</time>
      </trkpt>
      <trkpt lat="44.62158" lon="6.59706">
        <ele>2177.04</ele>
        <time>2011-06-12T06:57:55Z</time>
      </trkpt>
      <trkpt lat="44.62163" lon="6.59701">
        <ele>2176.56</ele>
        <time>2011-06-12T06:57:56Z</time>
      </trkpt>
      <trkpt lat="44.62168" lon="6.59696">
        <ele>2176.08</ele>
        <time>2011-06-12T06:57:57Z</time>
      </trkpt>
      <trkpt lat="44.62178" lon="6.59687">
        <ele>2174.64</ele>
        <time>2011-06-12T06:57:59Z</time>
      </trkpt>
      <trkpt lat="44.6219" lon="6.59679">
        <ele>2172.72</ele>
        <time>2011-06-12T06:58:01Z</time>
      </trkpt>
      <trkpt lat="44.62203" lon="6.59673">
        <ele>2170.79</ele>
        <time>2011-06-12T06:58:03Z</time>
      </trkpt>
      <trkpt lat="44.62209" lon="6.59669">
        <ele>2170.31</ele>
        <time>2011-06-12T06:58:04Z</time>
      </trkpt>
      <trkpt lat="44.62214" lon="6.59666">
        <ele>2169.35</ele>
        <time>2011-06-12T06:58:05Z</time>
      </trkpt>
      <trkpt lat="44.6222" lon="6.59665">
        <ele>2169.83</ele>
        <time>2011-06-12T06:58:06Z</time>
      </trkpt>
      <trkpt lat="44.62226" lon="6.59665">
        <ele>2169.35</ele>
        <time>2011-06-12T06:58:07Z</time>
      </trkpt>
      <trkpt lat="44.62231" lon="6.59664">
        <ele>2168.87</ele>
        <time>2011-06-12T06:58:08Z</time>
      </trkpt>
      <trkpt lat="44.62236" lon="6.59663">
        <ele>2169.35</ele>
        <time>2011-06-12T06:58:09Z</time>
      </trkpt>
      <trkpt lat="44.62241" lon="6.59662">
        <ele>2168.87</ele>
        <time>2011-06-12T06:58:10Z</time>
      </trkpt>
      <trkpt lat="44.62245" lon="6.59661">
        <ele>2169.35</ele>
        <time>2011-06-12T06:58:11Z</time>
      </trkpt>
      <trkpt lat="44.62248" lon="6.59661">
        <ele>2169.35</ele>
        <time>2011-06-12T06:58:12Z</time>
      </trkpt>
      <trkpt lat="44.62262" lon="6.59658">
        <ele>2167.43</ele>
        <time>2011-06-12T06:58:16Z</time>
      </trkpt>
      <trkpt lat="44.62263" lon="6.59657">
        <ele>2167.43</ele>
        <time>2011-06-12T06:58:17Z</time>
      </trkpt>
      <trkpt lat="44.62265" lon="6.59656">
        <ele>2166.47</ele>
        <time>2011-06-12T06:58:18Z</time>
      </trkpt>
      <trkpt lat="44.62267" lon="6.59656">
        <ele>2166.47</ele>
        <time>2011-06-12T06:58:19Z</time>
      </trkpt>
      <trkpt lat="44.6227" lon="6.59656">
        <ele>2164.55</ele>
        <time>2011-06-12T06:58:21Z</time>
      </trkpt>
      <trkpt lat="44.62281" lon="6.59651">
        <ele>2161.66</ele>
        <time>2011-06-12T06:58:26Z</time>
      </trkpt>
      <trkpt lat="44.62293" lon="6.59648">
        <ele>2157.82</ele>
        <time>2011-06-12T06:58:30Z</time>
      </trkpt>
      <trkpt lat="44.62296" lon="6.59648">
        <ele>2156.86</ele>
        <time>2011-06-12T06:58:31Z</time>
      </trkpt>
      <trkpt lat="44.62299" lon="6.59647">
        <ele>2156.37</ele>
        <time>2011-06-12T06:58:32Z</time>
      </trkpt>
      <trkpt lat="44.62302" lon="6.59647">
        <ele>2155.89</ele>
        <time>2011-06-12T06:58:33Z</time>
      </trkpt>
      <trkpt lat="44.62304" lon="6.59646">
        <ele>2154.93</ele>
        <time>2011-06-12T06:58:34Z</time>
      </trkpt>
      <trkpt lat="44.62306" lon="6.59644">
        <ele>2154.45</ele>
        <time>2011-06-12T06:58:35Z</time>
      </trkpt>
      <trkpt lat="44.62308" lon="6.59644">
        <ele>2153.97</ele>
        <time>2011-06-12T06:58:36Z</time>
      </trkpt>
      <trkpt lat="44.6231" lon="6.59643">
        <ele>2153.49</ele>
        <time>2011-06-12T06:58:37Z</time>
      </trkpt>
      <trkpt lat="44.62313" lon="6.59644">
        <ele>2153.01</ele>
        <time>2011-06-12T06:58:38Z</time>
      </trkpt>
      <trkpt lat="44.62317" lon="6.59645">
        <ele>2152.05</ele>
        <time>2011-06-12T06:58:39Z</time>
      </trkpt>
      <trkpt lat="44.62323" lon="6.59646">
        <ele>2151.57</ele>
        <time>2011-06-12T06:58:40Z</time>
      </trkpt>
      <trkpt lat="44.62327" lon="6.59648">
        <ele>2151.09</ele>
        <time>2011-06-12T06:58:41Z</time>
      </trkpt>
      <trkpt lat="44.62331" lon="6.59648">
        <ele>2150.61</ele>
        <time>2011-06-12T06:58:42Z</time>
      </trkpt>
      <trkpt lat="44.62334" lon="6.5965">
        <ele>2150.61</ele>
        <time>2011-06-12T06:58:43Z</time>
      </trkpt>
      <trkpt lat="44.62337" lon="6.59652">
        <ele>2149.65</ele>
        <time>2011-06-12T06:58:44Z</time>
      </trkpt>
      <trkpt lat="44.62341" lon="6.59654">
        <ele>2149.16</ele>
        <time>2011-06-12T06:58:45Z</time>
      </trkpt>
      <trkpt lat="44.62345" lon="6.59654">
        <ele>2147.72</ele>
        <time>2011-06-12T06:58:46Z</time>
      </trkpt>
      <trkpt lat="44.6235" lon="6.59652">
        <ele>2146.76</ele>
        <time>2011-06-12T06:58:47Z</time>
      </trkpt>
      <trkpt lat="44.62374" lon="6.59638">
        <ele>2143.88</ele>
        <time>2011-06-12T06:58:51Z</time>
      </trkpt>
      <trkpt lat="44.62381" lon="6.59637">
        <ele>2143.4</ele>
        <time>2011-06-12T06:58:52Z</time>
      </trkpt>
      <trkpt lat="44.62387" lon="6.59636">
        <ele>2142.92</ele>
        <time>2011-06-12T06:58:53Z</time>
      </trkpt>
      <trkpt lat="44.62391" lon="6.59634">
        <ele>2141.95</ele>
        <time>2011-06-12T06:58:54Z</time>
      </trkpt>
      <trkpt lat="44.62394" lon="6.59631">
        <ele>2140.99</ele>
        <time>2011-06-12T06:58:55Z</time>
      </trkpt>
      <trkpt lat="44.62397" lon="6.59627">
        <ele>2141.47</ele>
        <time>2011-06-12T06:58:56Z</time>
      </trkpt>
      <trkpt lat="44.62401" lon="6.59623">
        <ele>2140.51</ele>
        <time>2011-06-12T06:58:57Z</time>
      </trkpt>
      <trkpt lat="44.62413" lon="6.59616">
        <ele>2137.15</ele>
        <time>2011-06-12T06:59:01Z</time>
      </trkpt>
      <trkpt lat="44.62421" lon="6.59608">
        <ele>2133.78</ele>
        <time>2011-06-12T06:59:05Z</time>
      </trkpt>
      <trkpt lat="44.62423" lon="6.59606">
        <ele>2132.34</ele>
        <time>2011-06-12T06:59:06Z</time>
      </trkpt>
      <trkpt lat="44.62427" lon="6.59604">
        <ele>2130.9</ele>
        <time>2011-06-12T06:59:07Z</time>
      </trkpt>
      <trkpt lat="44.6243" lon="6.59603">
        <ele>2130.42</ele>
        <time>2011-06-12T06:59:08Z</time>
      </trkpt>
      <trkpt lat="44.62434" lon="6.596">
        <ele>2128.98</ele>
        <time>2011-06-12T06:59:09Z</time>
      </trkpt>
      <trkpt lat="44.6244" lon="6.59595">
        <ele>2126.09</ele>
        <time>2011-06-12T06:59:11Z</time>
      </trkpt>
      <trkpt lat="44.62443" lon="6.59593">
        <ele>2125.13</ele>
        <time>2011-06-12T06:59:12Z</time>
      </trkpt>
      <trkpt lat="44.62452" lon="6.5959">
        <ele>2123.21</ele>
        <time>2011-06-12T06:59:14Z</time>
      </trkpt>
      <trkpt lat="44.62464" lon="6.59586">
        <ele>2119.36</ele>
        <time>2011-06-12T06:59:17Z</time>
      </trkpt>
      <trkpt lat="44.62467" lon="6.59585">
        <ele>2119.36</ele>
        <time>2011-06-12T06:59:18Z</time>
      </trkpt>
      <trkpt lat="44.62476" lon="6.59577">
        <ele>2116.96</ele>
        <time>2011-06-12T06:59:21Z</time>
      </trkpt>
      <trkpt lat="44.62481" lon="6.59566">
        <ele>2114.56</ele>
        <time>2011-06-12T06:59:23Z</time>
      </trkpt>
      <trkpt lat="44.62485" lon="6.59563">
        <ele>2114.08</ele>
        <time>2011-06-12T06:59:24Z</time>
      </trkpt>
      <trkpt lat="44.62494" lon="6.5956">
        <ele>2112.15</ele>
        <time>2011-06-12T06:59:26Z</time>
      </trkpt>
      <trkpt lat="44.62511" lon="6.59558">
        <ele>2108.31</ele>
        <time>2011-06-12T06:59:30Z</time>
      </trkpt>
      <trkpt lat="44.62523" lon="6.59558">
        <ele>2106.39</ele>
        <time>2011-06-12T06:59:33Z</time>
      </trkpt>
      <trkpt lat="44.62527" lon="6.59559">
        <ele>2105.42</ele>
        <time>2011-06-12T06:59:34Z</time>
      </trkpt>
      <trkpt lat="44.62531" lon="6.5956">
        <ele>2103.98</ele>
        <time>2011-06-12T06:59:35Z</time>
      </trkpt>
      <trkpt lat="44.62536" lon="6.59562">
        <ele>2103.02</ele>
        <time>2011-06-12T06:59:36Z</time>
      </trkpt>
      <trkpt lat="44.6254" lon="6.59563">
        <ele>2102.54</ele>
        <time>2011-06-12T06:59:37Z</time>
      </trkpt>
      <trkpt lat="44.62545" lon="6.59564">
        <ele>2101.58</ele>
        <time>2011-06-12T06:59:38Z</time>
      </trkpt>
      <trkpt lat="44.6255" lon="6.59565">
        <ele>2100.62</ele>
        <time>2011-06-12T06:59:39Z</time>
      </trkpt>
      <trkpt lat="44.62554" lon="6.59564">
        <ele>2099.66</ele>
        <time>2011-06-12T06:59:40Z</time>
      </trkpt>
      <trkpt lat="44.62558" lon="6.59563">
        <ele>2099.18</ele>
        <time>2011-06-12T06:59:41Z</time>
      </trkpt>
      <trkpt lat="44.62574" lon="6.59556">
        <ele>2095.81</ele>
        <time>2011-06-12T06:59:47Z</time>
      </trkpt>
      <trkpt lat="44.62592" lon="6.59547">
        <ele>2092.45</ele>
        <time>2011-06-12T06:59:51Z</time>
      </trkpt>
      <trkpt lat="44.62597" lon="6.59544">
        <ele>2091.97</ele>
        <time>2011-06-12T06:59:52Z</time>
      </trkpt>
      <trkpt lat="44.62607" lon="6.59538">
        <ele>2090.52</ele>
        <time>2011-06-12T06:59:54Z</time>
      </trkpt>
      <trkpt lat="44.62611" lon="6.59535">
        <ele>2090.04</ele>
        <time>2011-06-12T06:59:55Z</time>
      </trkpt>
      <trkpt lat="44.62615" lon="6.59532">
        <ele>2089.08</ele>
        <time>2011-06-12T06:59:56Z</time>
      </trkpt>
      <trkpt lat="44.6262" lon="6.59528">
        <ele>2088.12</ele>
        <time>2011-06-12T06:59:57Z</time>
      </trkpt>
      <trkpt lat="44.62623" lon="6.59524">
        <ele>2087.16</ele>
        <time>2011-06-12T06:59:58Z</time>
      </trkpt>
      <trkpt lat="44.62626" lon="6.5952">
        <ele>2086.68</ele>
        <time>2011-06-12T06:59:59Z</time>
      </trkpt>
      <trkpt lat="44.62628" lon="6.59517">
        <ele>2085.72</ele>
        <time>2011-06-12T07:00:00Z</time>
      </trkpt>
      <trkpt lat="44.6263" lon="6.59514">
        <ele>2085.24</ele>
        <time>2011-06-12T07:00:01Z</time>
      </trkpt>
      <trkpt lat="44.62633" lon="6.59512">
        <ele>2084.76</ele>
        <time>2011-06-12T07:00:02Z</time>
      </trkpt>
      <trkpt lat="44.62635" lon="6.59511">
        <ele>2083.79</ele>
        <time>2011-06-12T07:00:03Z</time>
      </trkpt>
      <trkpt lat="44.62637" lon="6.59511">
        <ele>2082.35</ele>
        <time>2011-06-12T07:00:04Z</time>
      </trkpt>
      <trkpt lat="44.6264" lon="6.59512">
        <ele>2080.91</ele>
        <time>2011-06-12T07:00:05Z</time>
      </trkpt>
      <trkpt lat="44.62643" lon="6.59513">
        <ele>2080.91</ele>
        <time>2011-06-12T07:00:06Z</time>
      </trkpt>
      <trkpt lat="44.62647" lon="6.59514">
        <ele>2078.99</ele>
        <time>2011-06-12T07:00:07Z</time>
      </trkpt>
      <trkpt lat="44.62649" lon="6.59513">
        <ele>2078.03</ele>
        <time>2011-06-12T07:00:08Z</time>
      </trkpt>
      <trkpt lat="44.6265" lon="6.5951">
        <ele>2077.55</ele>
        <time>2011-06-12T07:00:09Z</time>
      </trkpt>
      <trkpt lat="44.62652" lon="6.59507">
        <ele>2076.59</ele>
        <time>2011-06-12T07:00:10Z</time>
      </trkpt>
      <trkpt lat="44.62655" lon="6.59505">
        <ele>2075.14</ele>
        <time>2011-06-12T07:00:11Z</time>
      </trkpt>
      <trkpt lat="44.62659" lon="6.59502">
        <ele>2073.7</ele>
        <time>2011-06-12T07:00:12Z</time>
      </trkpt>
      <trkpt lat="44.62663" lon="6.595">
        <ele>2073.22</ele>
        <time>2011-06-12T07:00:13Z</time>
      </trkpt>
      <trkpt lat="44.62678" lon="6.59494">
        <ele>2069.86</ele>
        <time>2011-06-12T07:00:16Z</time>
      </trkpt>
      <trkpt lat="44.62683" lon="6.59494">
        <ele>2067.93</ele>
        <time>2011-06-12T07:00:17Z</time>
      </trkpt>
      <trkpt lat="44.62688" lon="6.59495">
        <ele>2067.45</ele>
        <time>2011-06-12T07:00:18Z</time>
      </trkpt>
      <trkpt lat="44.62693" lon="6.59496">
        <ele>2066.49</ele>
        <time>2011-06-12T07:00:19Z</time>
      </trkpt>
      <trkpt lat="44.62698" lon="6.59497">
        <ele>2065.53</ele>
        <time>2011-06-12T07:00:20Z</time>
      </trkpt>
      <trkpt lat="44.62704" lon="6.59497">
        <ele>2065.05</ele>
        <time>2011-06-12T07:00:21Z</time>
      </trkpt>
      <trkpt lat="44.6271" lon="6.59498">
        <ele>2064.09</ele>
        <time>2011-06-12T07:00:22Z</time>
      </trkpt>
      <trkpt lat="44.62715" lon="6.59497">
        <ele>2062.65</ele>
        <time>2011-06-12T07:00:23Z</time>
      </trkpt>
      <trkpt lat="44.6272" lon="6.59495">
        <ele>2062.17</ele>
        <time>2011-06-12T07:00:24Z</time>
      </trkpt>
      <trkpt lat="44.62724" lon="6.59493">
        <ele>2061.68</ele>
        <time>2011-06-12T07:00:25Z</time>
      </trkpt>
      <trkpt lat="44.62728" lon="6.59491">
        <ele>2061.2</ele>
        <time>2011-06-12T07:00:26Z</time>
      </trkpt>
      <trkpt lat="44.62732" lon="6.5949">
        <ele>2060.24</ele>
        <time>2011-06-12T07:00:27Z</time>
      </trkpt>
      <trkpt lat="44.62743" lon="6.59494">
        <ele>2056.4</ele>
        <time>2011-06-12T07:00:30Z</time>
      </trkpt>
      <trkpt lat="44.62746" lon="6.59496">
        <ele>2055.44</ele>
        <time>2011-06-12T07:00:31Z</time>
      </trkpt>
      <trkpt lat="44.62756" lon="6.595">
        <ele>2052.55</ele>
        <time>2011-06-12T07:00:33Z</time>
      </trkpt>
      <trkpt lat="44.62762" lon="6.59502">
        <ele>2051.11</ele>
        <time>2011-06-12T07:00:34Z</time>
      </trkpt>
      <trkpt lat="44.62774" lon="6.59507">
        <ele>2050.15</ele>
        <time>2011-06-12T07:00:36Z</time>
      </trkpt>
      <trkpt lat="44.6278" lon="6.59512">
        <ele>2048.71</ele>
        <time>2011-06-12T07:00:37Z</time>
      </trkpt>
      <trkpt lat="44.62787" lon="6.59514">
        <ele>2048.23</ele>
        <time>2011-06-12T07:00:38Z</time>
      </trkpt>
      <trkpt lat="44.62811" lon="6.59522">
        <ele>2049.19</ele>
        <time>2011-06-12T07:00:42Z</time>
      </trkpt>
      <trkpt lat="44.62825" lon="6.59522">
        <ele>2049.67</ele>
        <time>2011-06-12T07:00:45Z</time>
      </trkpt>
      <trkpt lat="44.6283" lon="6.59522">
        <ele>2050.15</ele>
        <time>2011-06-12T07:00:46Z</time>
      </trkpt>
      <trkpt lat="44.62835" lon="6.59523">
        <ele>2050.15</ele>
        <time>2011-06-12T07:00:47Z</time>
      </trkpt>
      <trkpt lat="44.62839" lon="6.59523">
        <ele>2050.15</ele>
        <time>2011-06-12T07:00:48Z</time>
      </trkpt>
      <trkpt lat="44.62844" lon="6.59522">
        <ele>2050.15</ele>
        <time>2011-06-12T07:00:49Z</time>
      </trkpt>
      <trkpt lat="44.62849" lon="6.59523">
        <ele>2050.15</ele>
        <time>2011-06-12T07:00:50Z</time>
      </trkpt>
      <trkpt lat="44.62854" lon="6.59525">
        <ele>2049.19</ele>
        <time>2011-06-12T07:00:51Z</time>
      </trkpt>
      <trkpt lat="44.62861" lon="6.59525">
        <ele>2048.23</ele>
        <time>2011-06-12T07:00:52Z</time>
      </trkpt>
      <trkpt lat="44.62868" lon="6.59524">
        <ele>2048.23</ele>
        <time>2011-06-12T07:00:53Z</time>
      </trkpt>
      <trkpt lat="44.62874" lon="6.59524">
        <ele>2048.71</ele>
        <time>2011-06-12T07:00:54Z</time>
      </trkpt>
      <trkpt lat="44.6288" lon="6.59522">
        <ele>2048.23</ele>
        <time>2011-06-12T07:00:55Z</time>
      </trkpt>
      <trkpt lat="44.62885" lon="6.59521">
        <ele>2048.71</ele>
        <time>2011-06-12T07:00:56Z</time>
      </trkpt>
      <trkpt lat="44.6289" lon="6.5952">
        <ele>2048.71</ele>
        <time>2011-06-12T07:00:57Z</time>
      </trkpt>
      <trkpt lat="44.62924" lon="6.59516">
        <ele>2048.23</ele>
        <time>2011-06-12T07:01:05Z</time>
      </trkpt>
      <trkpt lat="44.62932" lon="6.59518">
        <ele>2045.82</ele>
        <time>2011-06-12T07:01:07Z</time>
      </trkpt>
      <trkpt lat="44.62936" lon="6.59521">
        <ele>2044.38</ele>
        <time>2011-06-12T07:01:08Z</time>
      </trkpt>
      <trkpt lat="44.62945" lon="6.59523">
        <ele>2040.54</ele>
        <time>2011-06-12T07:01:10Z</time>
      </trkpt>
      <trkpt lat="44.62953" lon="6.59526">
        <ele>2037.65</ele>
        <time>2011-06-12T07:01:12Z</time>
      </trkpt>
      <trkpt lat="44.62961" lon="6.59527">
        <ele>2034.29</ele>
        <time>2011-06-12T07:01:14Z</time>
      </trkpt>
      <trkpt lat="44.62964" lon="6.59526">
        <ele>2032.36</ele>
        <time>2011-06-12T07:01:15Z</time>
      </trkpt>
      <trkpt lat="44.62967" lon="6.59525">
        <ele>2031.88</ele>
        <time>2011-06-12T07:01:16Z</time>
      </trkpt>
      <trkpt lat="44.6298" lon="6.59526">
        <ele>2027.56</ele>
        <time>2011-06-12T07:01:19Z</time>
      </trkpt>
      <trkpt lat="44.62985" lon="6.59526">
        <ele>2025.64</ele>
        <time>2011-06-12T07:01:20Z</time>
      </trkpt>
      <trkpt lat="44.6299" lon="6.59526">
        <ele>2024.19</ele>
        <time>2011-06-12T07:01:21Z</time>
      </trkpt>
      <trkpt lat="44.62995" lon="6.59525">
        <ele>2023.23</ele>
        <time>2011-06-12T07:01:22Z</time>
      </trkpt>
      <trkpt lat="44.63" lon="6.59525">
        <ele>2021.31</ele>
        <time>2011-06-12T07:01:23Z</time>
      </trkpt>
      <trkpt lat="44.63005" lon="6.59526">
        <ele>2020.35</ele>
        <time>2011-06-12T07:01:24Z</time>
      </trkpt>
      <trkpt lat="44.6301" lon="6.59528">
        <ele>2018.43</ele>
        <time>2011-06-12T07:01:25Z</time>
      </trkpt>
      <trkpt lat="44.63015" lon="6.5953">
        <ele>2016.5</ele>
        <time>2011-06-12T07:01:26Z</time>
      </trkpt>
      <trkpt lat="44.63027" lon="6.59535">
        <ele>2013.14</ele>
        <time>2011-06-12T07:01:28Z</time>
      </trkpt>
      <trkpt lat="44.63033" lon="6.59536">
        <ele>2012.18</ele>
        <time>2011-06-12T07:01:29Z</time>
      </trkpt>
      <trkpt lat="44.63039" lon="6.59536">
        <ele>2011.22</ele>
        <time>2011-06-12T07:01:30Z</time>
      </trkpt>
      <trkpt lat="44.63045" lon="6.59538">
        <ele>2010.73</ele>
        <time>2011-06-12T07:01:31Z</time>
      </trkpt>
      <trkpt lat="44.63051" lon="6.59539">
        <ele>2010.25</ele>
        <time>2011-06-12T07:01:32Z</time>
      </trkpt>
      <trkpt lat="44.63057" lon="6.5954">
        <ele>2008.33</ele>
        <time>2011-06-12T07:01:33Z</time>
      </trkpt>
      <trkpt lat="44.63063" lon="6.59543">
        <ele>2007.85</ele>
        <time>2011-06-12T07:01:34Z</time>
      </trkpt>
      <trkpt lat="44.63068" lon="6.59545">
        <ele>2007.85</ele>
        <time>2011-06-12T07:01:35Z</time>
      </trkpt>
      <trkpt lat="44.63073" lon="6.59547">
        <ele>2006.41</ele>
        <time>2011-06-12T07:01:36Z</time>
      </trkpt>
      <trkpt lat="44.63078" lon="6.59546">
        <ele>2005.45</ele>
        <time>2011-06-12T07:01:37Z</time>
      </trkpt>
      <trkpt lat="44.63083" lon="6.59546">
        <ele>2004.97</ele>
        <time>2011-06-12T07:01:38Z</time>
      </trkpt>
      <trkpt lat="44.63093" lon="6.59548">
        <ele>2001.6</ele>
        <time>2011-06-12T07:01:41Z</time>
      </trkpt>
      <trkpt lat="44.63099" lon="6.59551">
        <ele>1998.24</ele>
        <time>2011-06-12T07:01:43Z</time>
      </trkpt>
      <trkpt lat="44.63104" lon="6.59553">
        <ele>1994.39</ele>
        <time>2011-06-12T07:01:45Z</time>
      </trkpt>
      <trkpt lat="44.6311" lon="6.59558">
        <ele>1991.03</ele>
        <time>2011-06-12T07:01:47Z</time>
      </trkpt>
      <trkpt lat="44.63115" lon="6.5956">
        <ele>1989.1</ele>
        <time>2011-06-12T07:01:48Z</time>
      </trkpt>
      <trkpt lat="44.63123" lon="6.59561">
        <ele>1986.22</ele>
        <time>2011-06-12T07:01:49Z</time>
      </trkpt>
      <trkpt lat="44.63144" lon="6.59566">
        <ele>1982.86</ele>
        <time>2011-06-12T07:01:52Z</time>
      </trkpt>
      <trkpt lat="44.63159" lon="6.59569">
        <ele>1979.49</ele>
        <time>2011-06-12T07:01:55Z</time>
      </trkpt>
      <trkpt lat="44.63164" lon="6.59572">
        <ele>1978.53</ele>
        <time>2011-06-12T07:01:56Z</time>
      </trkpt>
      <trkpt lat="44.63173" lon="6.59576">
        <ele>1975.65</ele>
        <time>2011-06-12T07:01:58Z</time>
      </trkpt>
      <trkpt lat="44.63177" lon="6.59579">
        <ele>1974.69</ele>
        <time>2011-06-12T07:01:59Z</time>
      </trkpt>
      <trkpt lat="44.63183" lon="6.59584">
        <ele>1973.72</ele>
        <time>2011-06-12T07:02:00Z</time>
      </trkpt>
      <trkpt lat="44.63189" lon="6.59588">
        <ele>1973.72</ele>
        <time>2011-06-12T07:02:01Z</time>
      </trkpt>
      <trkpt lat="44.63195" lon="6.5959">
        <ele>1973.24</ele>
        <time>2011-06-12T07:02:02Z</time>
      </trkpt>
      <trkpt lat="44.63259" lon="6.59618">
        <ele>1975.17</ele>
        <time>2011-06-12T07:02:14Z</time>
      </trkpt>
      <trkpt lat="44.63265" lon="6.59621">
        <ele>1976.13</ele>
        <time>2011-06-12T07:02:16Z</time>
      </trkpt>
      <trkpt lat="44.63279" lon="6.59623">
        <ele>1978.53</ele>
        <time>2011-06-12T07:02:21Z</time>
      </trkpt>
      <trkpt lat="44.6329" lon="6.59628">
        <ele>1979.97</ele>
        <time>2011-06-12T07:02:27Z</time>
      </trkpt>
      <trkpt lat="44.63293" lon="6.59627">
        <ele>1979.49</ele>
        <time>2011-06-12T07:02:28Z</time>
      </trkpt>
      <trkpt lat="44.63296" lon="6.59625">
        <ele>1978.53</ele>
        <time>2011-06-12T07:02:29Z</time>
      </trkpt>
      <trkpt lat="44.63301" lon="6.59624">
        <ele>1976.61</ele>
        <time>2011-06-12T07:02:30Z</time>
      </trkpt>
      <trkpt lat="44.63306" lon="6.59624">
        <ele>1974.69</ele>
        <time>2011-06-12T07:02:31Z</time>
      </trkpt>
      <trkpt lat="44.63312" lon="6.59622">
        <ele>1972.76</ele>
        <time>2011-06-12T07:02:32Z</time>
      </trkpt>
      <trkpt lat="44.63318" lon="6.5962">
        <ele>1971.8</ele>
        <time>2011-06-12T07:02:33Z</time>
      </trkpt>
      <trkpt lat="44.63323" lon="6.5962">
        <ele>1971.32</ele>
        <time>2011-06-12T07:02:34Z</time>
      </trkpt>
      <trkpt lat="44.63329" lon="6.5962">
        <ele>1969.88</ele>
        <time>2011-06-12T07:02:35Z</time>
      </trkpt>
      <trkpt lat="44.63342" lon="6.59621">
        <ele>1965.07</ele>
        <time>2011-06-12T07:02:37Z</time>
      </trkpt>
      <trkpt lat="44.63348" lon="6.59622">
        <ele>1963.63</ele>
        <time>2011-06-12T07:02:38Z</time>
      </trkpt>
      <trkpt lat="44.63354" lon="6.59625">
        <ele>1961.23</ele>
        <time>2011-06-12T07:02:39Z</time>
      </trkpt>
      <trkpt lat="44.63359" lon="6.59629">
        <ele>1961.23</ele>
        <time>2011-06-12T07:02:40Z</time>
      </trkpt>
      <trkpt lat="44.63369" lon="6.59636">
        <ele>1958.34</ele>
        <time>2011-06-12T07:02:42Z</time>
      </trkpt>
      <trkpt lat="44.63374" lon="6.59639">
        <ele>1956.9</ele>
        <time>2011-06-12T07:02:43Z</time>
      </trkpt>
      <trkpt lat="44.63399" lon="6.59651">
        <ele>1952.57</ele>
        <time>2011-06-12T07:02:47Z</time>
      </trkpt>
      <trkpt lat="44.63413" lon="6.5966">
        <ele>1951.61</ele>
        <time>2011-06-12T07:02:49Z</time>
      </trkpt>
      <trkpt lat="44.63434" lon="6.59677">
        <ele>1951.61</ele>
        <time>2011-06-12T07:02:56Z</time>
      </trkpt>
      <trkpt lat="44.63446" lon="6.59685">
        <ele>1952.09</ele>
        <time>2011-06-12T07:03:08Z</time>
      </trkpt>
      <trkpt lat="44.63455" lon="6.59688">
        <ele>1952.57</ele>
        <time>2011-06-12T07:03:16Z</time>
      </trkpt>
      <trkpt lat="44.63456" lon="6.59689">
        <ele>1953.06</ele>
        <time>2011-06-12T07:03:17Z</time>
      </trkpt>
      <trkpt lat="44.63462" lon="6.59694">
        <ele>1951.61</ele>
        <time>2011-06-12T07:03:20Z</time>
      </trkpt>
      <trkpt lat="44.63467" lon="6.59701">
        <ele>1950.65</ele>
        <time>2011-06-12T07:03:22Z</time>
      </trkpt>
      <trkpt lat="44.63471" lon="6.59704">
        <ele>1949.21</ele>
        <time>2011-06-12T07:03:23Z</time>
      </trkpt>
      <trkpt lat="44.6348" lon="6.59708">
        <ele>1947.77</ele>
        <time>2011-06-12T07:03:25Z</time>
      </trkpt>
      <trkpt lat="44.63485" lon="6.5971">
        <ele>1947.77</ele>
        <time>2011-06-12T07:03:26Z</time>
      </trkpt>
      <trkpt lat="44.6349" lon="6.59712">
        <ele>1946.81</ele>
        <time>2011-06-12T07:03:27Z</time>
      </trkpt>
      <trkpt lat="44.63496" lon="6.59715">
        <ele>1945.36</ele>
        <time>2011-06-12T07:03:28Z</time>
      </trkpt>
      <trkpt lat="44.63502" lon="6.59718">
        <ele>1943.92</ele>
        <time>2011-06-12T07:03:29Z</time>
      </trkpt>
      <trkpt lat="44.63507" lon="6.5972">
        <ele>1942.48</ele>
        <time>2011-06-12T07:03:30Z</time>
      </trkpt>
      <trkpt lat="44.63514" lon="6.59722">
        <ele>1942</ele>
        <time>2011-06-12T07:03:31Z</time>
      </trkpt>
      <trkpt lat="44.6352" lon="6.59724">
        <ele>1942</ele>
        <time>2011-06-12T07:03:32Z</time>
      </trkpt>
      <trkpt lat="44.63531" lon="6.5973">
        <ele>1941.04</ele>
        <time>2011-06-12T07:03:34Z</time>
      </trkpt>
      <trkpt lat="44.63534" lon="6.59733">
        <ele>1940.56</ele>
        <time>2011-06-12T07:03:35Z</time>
      </trkpt>
      <trkpt lat="44.63539" lon="6.59741">
        <ele>1937.19</ele>
        <time>2011-06-12T07:03:38Z</time>
      </trkpt>
      <trkpt lat="44.63541" lon="6.59742">
        <ele>1937.19</ele>
        <time>2011-06-12T07:03:39Z</time>
      </trkpt>
      <trkpt lat="44.63553" lon="6.59746">
        <ele>1939.12</ele>
        <time>2011-06-12T07:03:47Z</time>
      </trkpt>
      <trkpt lat="44.63554" lon="6.59747">
        <ele>1939.12</ele>
        <time>2011-06-12T07:03:48Z</time>
      </trkpt>
      <trkpt lat="44.63556" lon="6.59748">
        <ele>1938.64</ele>
        <time>2011-06-12T07:03:49Z</time>
      </trkpt>
      <trkpt lat="44.63558" lon="6.5975">
        <ele>1938.64</ele>
        <time>2011-06-12T07:03:50Z</time>
      </trkpt>
      <trkpt lat="44.63562" lon="6.59751">
        <ele>1938.64</ele>
        <time>2011-06-12T07:03:51Z</time>
      </trkpt>
      <trkpt lat="44.63565" lon="6.59752">
        <ele>1937.19</ele>
        <time>2011-06-12T07:03:52Z</time>
      </trkpt>
      <trkpt lat="44.63571" lon="6.59755">
        <ele>1938.16</ele>
        <time>2011-06-12T07:03:54Z</time>
      </trkpt>
      <trkpt lat="44.63574" lon="6.59758">
        <ele>1938.16</ele>
        <time>2011-06-12T07:03:55Z</time>
      </trkpt>
      <trkpt lat="44.63595" lon="6.59775">
        <ele>1941.52</ele>
        <time>2011-06-12T07:04:04Z</time>
      </trkpt>
      <trkpt lat="44.63596" lon="6.59776">
        <ele>1941.52</ele>
        <time>2011-06-12T07:04:05Z</time>
      </trkpt>
      <trkpt lat="44.63605" lon="6.5979">
        <ele>1941.52</ele>
        <time>2011-06-12T07:04:13Z</time>
      </trkpt>
      <trkpt lat="44.63606" lon="6.59791">
        <ele>1942</ele>
        <time>2011-06-12T07:04:15Z</time>
      </trkpt>
      <trkpt lat="44.63608" lon="6.5979">
        <ele>1942.48</ele>
        <time>2011-06-12T07:04:16Z</time>
      </trkpt>
      <trkpt lat="44.63609" lon="6.59791">
        <ele>1942.48</ele>
        <time>2011-06-12T07:04:17Z</time>
      </trkpt>
      <trkpt lat="44.63632" lon="6.59797">
        <ele>1942</ele>
        <time>2011-06-12T07:04:29Z</time>
      </trkpt>
      <trkpt lat="44.63643" lon="6.59801">
        <ele>1939.6</ele>
        <time>2011-06-12T07:04:32Z</time>
      </trkpt>
      <trkpt lat="44.63647" lon="6.59801">
        <ele>1939.6</ele>
        <time>2011-06-12T07:04:33Z</time>
      </trkpt>
      <trkpt lat="44.63651" lon="6.598">
        <ele>1939.6</ele>
        <time>2011-06-12T07:04:34Z</time>
      </trkpt>
      <trkpt lat="44.63669" lon="6.59798">
        <ele>1934.79</ele>
        <time>2011-06-12T07:04:39Z</time>
      </trkpt>
      <trkpt lat="44.63676" lon="6.598">
        <ele>1931.43</ele>
        <time>2011-06-12T07:04:41Z</time>
      </trkpt>
      <trkpt lat="44.63684" lon="6.59804">
        <ele>1928.54</ele>
        <time>2011-06-12T07:04:43Z</time>
      </trkpt>
      <trkpt lat="44.63698" lon="6.59808">
        <ele>1924.7</ele>
        <time>2011-06-12T07:04:47Z</time>
      </trkpt>
      <trkpt lat="44.63708" lon="6.59807">
        <ele>1922.77</ele>
        <time>2011-06-12T07:04:50Z</time>
      </trkpt>
      <trkpt lat="44.63708" lon="6.59809">
        <ele>1922.29</ele>
        <time>2011-06-12T07:04:51Z</time>
      </trkpt>
      <trkpt lat="44.63707" lon="6.59812">
        <ele>1921.81</ele>
        <time>2011-06-12T07:04:52Z</time>
      </trkpt>
      <trkpt lat="44.63706" lon="6.59814">
        <ele>1920.85</ele>
        <time>2011-06-12T07:04:53Z</time>
      </trkpt>
      <trkpt lat="44.63703" lon="6.59818">
        <ele>1919.89</ele>
        <time>2011-06-12T07:04:54Z</time>
      </trkpt>
      <trkpt lat="44.63701" lon="6.59821">
        <ele>1918.45</ele>
        <time>2011-06-12T07:04:55Z</time>
      </trkpt>
      <trkpt lat="44.637" lon="6.59827">
        <ele>1917.49</ele>
        <time>2011-06-12T07:04:57Z</time>
      </trkpt>
      <trkpt lat="44.637" lon="6.59832">
        <ele>1914.12</ele>
        <time>2011-06-12T07:05:00Z</time>
      </trkpt>
      <trkpt lat="44.63709" lon="6.59835">
        <ele>1910.28</ele>
        <time>2011-06-12T07:05:04Z</time>
      </trkpt>
      <trkpt lat="44.63711" lon="6.59836">
        <ele>1908.35</ele>
        <time>2011-06-12T07:05:05Z</time>
      </trkpt>
      <trkpt lat="44.63714" lon="6.59837">
        <ele>1906.91</ele>
        <time>2011-06-12T07:05:06Z</time>
      </trkpt>
      <trkpt lat="44.63721" lon="6.59843">
        <ele>1903.07</ele>
        <time>2011-06-12T07:05:11Z</time>
      </trkpt>
      <trkpt lat="44.63722" lon="6.59847">
        <ele>1901.14</ele>
        <time>2011-06-12T07:05:13Z</time>
      </trkpt>
      <trkpt lat="44.63722" lon="6.59847">
        <ele>1901.14</ele>
        <time>2011-06-12T07:05:14Z</time>
      </trkpt>
      <trkpt lat="44.63722" lon="6.5985">
        <ele>1900.18</ele>
        <time>2011-06-12T07:05:15Z</time>
      </trkpt>
      <trkpt lat="44.63724" lon="6.59854">
        <ele>1896.82</ele>
        <time>2011-06-12T07:05:18Z</time>
      </trkpt>
      <trkpt lat="44.63726" lon="6.59855">
        <ele>1896.34</ele>
        <time>2011-06-12T07:05:19Z</time>
      </trkpt>
      <trkpt lat="44.63729" lon="6.59856">
        <ele>1894.42</ele>
        <time>2011-06-12T07:05:20Z</time>
      </trkpt>
      <trkpt lat="44.63731" lon="6.59855">
        <ele>1892.49</ele>
        <time>2011-06-12T07:05:21Z</time>
      </trkpt>
      <trkpt lat="44.63736" lon="6.59855">
        <ele>1891.05</ele>
        <time>2011-06-12T07:05:22Z</time>
      </trkpt>
      <trkpt lat="44.63741" lon="6.59855">
        <ele>1889.13</ele>
        <time>2011-06-12T07:05:23Z</time>
      </trkpt>
      <trkpt lat="44.63748" lon="6.59854">
        <ele>1887.21</ele>
        <time>2011-06-12T07:05:24Z</time>
      </trkpt>
      <trkpt lat="44.63754" lon="6.59856">
        <ele>1885.76</ele>
        <time>2011-06-12T07:05:25Z</time>
      </trkpt>
      <trkpt lat="44.6376" lon="6.59856">
        <ele>1885.76</ele>
        <time>2011-06-12T07:05:26Z</time>
      </trkpt>
      <trkpt lat="44.6378" lon="6.59859">
        <ele>1882.4</ele>
        <time>2011-06-12T07:05:32Z</time>
      </trkpt>
      <trkpt lat="44.63784" lon="6.5986">
        <ele>1882.4</ele>
        <time>2011-06-12T07:05:33Z</time>
      </trkpt>
      <trkpt lat="44.63844" lon="6.59892">
        <ele>1880</ele>
        <time>2011-06-12T07:05:46Z</time>
      </trkpt>
      <trkpt lat="44.63874" lon="6.59896">
        <ele>1877.11</ele>
        <time>2011-06-12T07:05:50Z</time>
      </trkpt>
      <trkpt lat="44.63881" lon="6.59897">
        <ele>1876.63</ele>
        <time>2011-06-12T07:05:51Z</time>
      </trkpt>
      <trkpt lat="44.63888" lon="6.59898">
        <ele>1876.63</ele>
        <time>2011-06-12T07:05:52Z</time>
      </trkpt>
      <trkpt lat="44.63907" lon="6.59901">
        <ele>1873.27</ele>
        <time>2011-06-12T07:05:55Z</time>
      </trkpt>
      <trkpt lat="44.63911" lon="6.59903">
        <ele>1872.3</ele>
        <time>2011-06-12T07:05:56Z</time>
      </trkpt>
      <trkpt lat="44.63915" lon="6.59907">
        <ele>1870.38</ele>
        <time>2011-06-12T07:05:57Z</time>
      </trkpt>
      <trkpt lat="44.63919" lon="6.5991">
        <ele>1868.94</ele>
        <time>2011-06-12T07:05:58Z</time>
      </trkpt>
      <trkpt lat="44.6392" lon="6.59913">
        <ele>1867.98</ele>
        <time>2011-06-12T07:05:59Z</time>
      </trkpt>
      <trkpt lat="44.63918" lon="6.59929">
        <ele>1864.13</ele>
        <time>2011-06-12T07:06:04Z</time>
      </trkpt>
      <trkpt lat="44.6392" lon="6.59934">
        <ele>1862.69</ele>
        <time>2011-06-12T07:06:05Z</time>
      </trkpt>
      <trkpt lat="44.63924" lon="6.59939">
        <ele>1861.25</ele>
        <time>2011-06-12T07:06:06Z</time>
      </trkpt>
      <trkpt lat="44.63928" lon="6.59942">
        <ele>1861.25</ele>
        <time>2011-06-12T07:06:07Z</time>
      </trkpt>
      <trkpt lat="44.63933" lon="6.59943">
        <ele>1859.81</ele>
        <time>2011-06-12T07:06:08Z</time>
      </trkpt>
      <trkpt lat="44.63939" lon="6.59942">
        <ele>1858.37</ele>
        <time>2011-06-12T07:06:09Z</time>
      </trkpt>
      <trkpt lat="44.63953" lon="6.59931">
        <ele>1854.04</ele>
        <time>2011-06-12T07:06:12Z</time>
      </trkpt>
      <trkpt lat="44.6396" lon="6.59918">
        <ele>1851.16</ele>
        <time>2011-06-12T07:06:14Z</time>
      </trkpt>
      <trkpt lat="44.63968" lon="6.59909">
        <ele>1849.23</ele>
        <time>2011-06-12T07:06:16Z</time>
      </trkpt>
      <trkpt lat="44.63973" lon="6.59907">
        <ele>1849.23</ele>
        <time>2011-06-12T07:06:17Z</time>
      </trkpt>
      <trkpt lat="44.63992" lon="6.59904">
        <ele>1847.31</ele>
        <time>2011-06-12T07:06:20Z</time>
      </trkpt>
      <trkpt lat="44.64004" lon="6.59903">
        <ele>1846.83</ele>
        <time>2011-06-12T07:06:22Z</time>
      </trkpt>
      <trkpt lat="44.64032" lon="6.59901">
        <ele>1842.5</ele>
        <time>2011-06-12T07:06:27Z</time>
      </trkpt>
      <trkpt lat="44.64048" lon="6.59893">
        <ele>1837.7</ele>
        <time>2011-06-12T07:06:30Z</time>
      </trkpt>
      <trkpt lat="44.64059" lon="6.59888">
        <ele>1834.33</ele>
        <time>2011-06-12T07:06:32Z</time>
      </trkpt>
      <trkpt lat="44.64077" lon="6.59892">
        <ele>1829.05</ele>
        <time>2011-06-12T07:06:37Z</time>
      </trkpt>
      <trkpt lat="44.64084" lon="6.59908">
        <ele>1825.2</ele>
        <time>2011-06-12T07:06:40Z</time>
      </trkpt>
      <trkpt lat="44.64087" lon="6.59913">
        <ele>1823.76</ele>
        <time>2011-06-12T07:06:41Z</time>
      </trkpt>
      <trkpt lat="44.64097" lon="6.59911">
        <ele>1818.95</ele>
        <time>2011-06-12T07:06:46Z</time>
      </trkpt>
      <trkpt lat="44.64105" lon="6.59891">
        <ele>1815.59</ele>
        <time>2011-06-12T07:06:49Z</time>
      </trkpt>
      <trkpt lat="44.64116" lon="6.59875">
        <ele>1810.3</ele>
        <time>2011-06-12T07:06:53Z</time>
      </trkpt>
      <trkpt lat="44.64122" lon="6.59873">
        <ele>1809.82</ele>
        <time>2011-06-12T07:06:54Z</time>
      </trkpt>
      <trkpt lat="44.64132" lon="6.59865">
        <ele>1808.38</ele>
        <time>2011-06-12T07:06:57Z</time>
      </trkpt>
      <trkpt lat="44.64137" lon="6.5986">
        <ele>1806.94</ele>
        <time>2011-06-12T07:07:01Z</time>
      </trkpt>
      <trkpt lat="44.64135" lon="6.59852">
        <ele>1805.01</ele>
        <time>2011-06-12T07:07:05Z</time>
      </trkpt>
      <trkpt lat="44.64135" lon="6.59849">
        <ele>1804.53</ele>
        <time>2011-06-12T07:07:07Z</time>
      </trkpt>
      <trkpt lat="44.64143" lon="6.59852">
        <ele>1802.61</ele>
        <time>2011-06-12T07:07:13Z</time>
      </trkpt>
      <trkpt lat="44.64144" lon="6.59849">
        <ele>1802.13</ele>
        <time>2011-06-12T07:07:15Z</time>
      </trkpt>
      <trkpt lat="44.64141" lon="6.59836">
        <ele>1798.76</ele>
        <time>2011-06-12T07:07:19Z</time>
      </trkpt>
      <trkpt lat="44.6414" lon="6.59832">
        <ele>1797.8</ele>
        <time>2011-06-12T07:07:20Z</time>
      </trkpt>
      <trkpt lat="44.6414" lon="6.59827">
        <ele>1795.88</ele>
        <time>2011-06-12T07:07:23Z</time>
      </trkpt>
      <trkpt lat="44.64146" lon="6.59833">
        <ele>1795.4</ele>
        <time>2011-06-12T07:07:26Z</time>
      </trkpt>
      <trkpt lat="44.64158" lon="6.59842">
        <ele>1790.11</ele>
        <time>2011-06-12T07:07:29Z</time>
      </trkpt>
      <trkpt lat="44.64161" lon="6.59846">
        <ele>1788.19</ele>
        <time>2011-06-12T07:07:32Z</time>
      </trkpt>
      <trkpt lat="44.64164" lon="6.59833">
        <ele>1784.34</ele>
        <time>2011-06-12T07:07:38Z</time>
      </trkpt>
      <trkpt lat="44.64163" lon="6.59823">
        <ele>1781.46</ele>
        <time>2011-06-12T07:07:40Z</time>
      </trkpt>
      <trkpt lat="44.64158" lon="6.59804">
        <ele>1776.65</ele>
        <time>2011-06-12T07:07:43Z</time>
      </trkpt>
      <trkpt lat="44.64156" lon="6.59799">
        <ele>1775.69</ele>
        <time>2011-06-12T07:07:44Z</time>
      </trkpt>
      <trkpt lat="44.64162" lon="6.59788">
        <ele>1771.37</ele>
        <time>2011-06-12T07:07:49Z</time>
      </trkpt>
      <trkpt lat="44.64187" lon="6.59791">
        <ele>1763.68</ele>
        <time>2011-06-12T07:07:54Z</time>
      </trkpt>
      <trkpt lat="44.64192" lon="6.59768">
        <ele>1760.79</ele>
        <time>2011-06-12T07:07:59Z</time>
      </trkpt>
      <trkpt lat="44.64188" lon="6.59761">
        <ele>1759.35</ele>
        <time>2011-06-12T07:08:01Z</time>
      </trkpt>
      <trkpt lat="44.64172" lon="6.59752">
        <ele>1754.54</ele>
        <time>2011-06-12T07:08:06Z</time>
      </trkpt>
      <trkpt lat="44.64166" lon="6.59748">
        <ele>1751.66</ele>
        <time>2011-06-12T07:08:08Z</time>
      </trkpt>
      <trkpt lat="44.64154" lon="6.59743">
        <ele>1747.33</ele>
        <time>2011-06-12T07:08:12Z</time>
      </trkpt>
      <trkpt lat="44.64147" lon="6.5974">
        <ele>1744.93</ele>
        <time>2011-06-12T07:08:14Z</time>
      </trkpt>
      <trkpt lat="44.64128" lon="6.59731">
        <ele>1739.64</ele>
        <time>2011-06-12T07:08:18Z</time>
      </trkpt>
      <trkpt lat="44.64123" lon="6.5973">
        <ele>1737.24</ele>
        <time>2011-06-12T07:08:19Z</time>
      </trkpt>
      <trkpt lat="44.64103" lon="6.59727">
        <ele>1731.95</ele>
        <time>2011-06-12T07:08:23Z</time>
      </trkpt>
      <trkpt lat="44.64096" lon="6.59727">
        <ele>1730.03</ele>
        <time>2011-06-12T07:08:24Z</time>
      </trkpt>
      <trkpt lat="44.64074" lon="6.59716">
        <ele>1725.22</ele>
        <time>2011-06-12T07:08:27Z</time>
      </trkpt>
      <trkpt lat="44.64069" lon="6.59711">
        <ele>1724.74</ele>
        <time>2011-06-12T07:08:28Z</time>
      </trkpt>
      <trkpt lat="44.64062" lon="6.59703">
        <ele>1722.82</ele>
        <time>2011-06-12T07:08:30Z</time>
      </trkpt>
      <trkpt lat="44.64067" lon="6.59691">
        <ele>1718.49</ele>
        <time>2011-06-12T07:08:34Z</time>
      </trkpt>
      <trkpt lat="44.64085" lon="6.59677">
        <ele>1713.69</ele>
        <time>2011-06-12T07:08:37Z</time>
      </trkpt>
      <trkpt lat="44.64091" lon="6.59672">
        <ele>1712.25</ele>
        <time>2011-06-12T07:08:38Z</time>
      </trkpt>
      <trkpt lat="44.64095" lon="6.59667">
        <ele>1710.8</ele>
        <time>2011-06-12T07:08:39Z</time>
      </trkpt>
      <trkpt lat="44.64101" lon="6.59663">
        <ele>1709.84</ele>
        <time>2011-06-12T07:08:40Z</time>
      </trkpt>
      <trkpt lat="44.64106" lon="6.59661">
        <ele>1708.4</ele>
        <time>2011-06-12T07:08:41Z</time>
      </trkpt>
      <trkpt lat="44.64113" lon="6.5966">
        <ele>1706.48</ele>
        <time>2011-06-12T07:08:42Z</time>
      </trkpt>
      <trkpt lat="44.64119" lon="6.59658">
        <ele>1705.04</ele>
        <time>2011-06-12T07:08:43Z</time>
      </trkpt>
      <trkpt lat="44.64126" lon="6.59656">
        <ele>1703.59</ele>
        <time>2011-06-12T07:08:44Z</time>
      </trkpt>
      <trkpt lat="44.64136" lon="6.5965">
        <ele>1702.15</ele>
        <time>2011-06-12T07:08:46Z</time>
      </trkpt>
      <trkpt lat="44.64145" lon="6.59641">
        <ele>1697.83</ele>
        <time>2011-06-12T07:08:48Z</time>
      </trkpt>
      <trkpt lat="44.6415" lon="6.59638">
        <ele>1695.42</ele>
        <time>2011-06-12T07:08:49Z</time>
      </trkpt>
      <trkpt lat="44.64162" lon="6.5963">
        <ele>1692.06</ele>
        <time>2011-06-12T07:08:51Z</time>
      </trkpt>
      <trkpt lat="44.64169" lon="6.59625">
        <ele>1691.1</ele>
        <time>2011-06-12T07:08:52Z</time>
      </trkpt>
      <trkpt lat="44.64175" lon="6.5962">
        <ele>1688.69</ele>
        <time>2011-06-12T07:08:53Z</time>
      </trkpt>
      <trkpt lat="44.6418" lon="6.59616">
        <ele>1686.77</ele>
        <time>2011-06-12T07:08:54Z</time>
      </trkpt>
      <trkpt lat="44.64185" lon="6.59613">
        <ele>1685.33</ele>
        <time>2011-06-12T07:08:55Z</time>
      </trkpt>
      <trkpt lat="44.6419" lon="6.59613">
        <ele>1683.89</ele>
        <time>2011-06-12T07:08:56Z</time>
      </trkpt>
      <trkpt lat="44.64195" lon="6.59612">
        <ele>1682.44</ele>
        <time>2011-06-12T07:08:57Z</time>
      </trkpt>
      <trkpt lat="44.64199" lon="6.5961">
        <ele>1681.48</ele>
        <time>2011-06-12T07:08:58Z</time>
      </trkpt>
      <trkpt lat="44.64203" lon="6.59609">
        <ele>1680.04</ele>
        <time>2011-06-12T07:08:59Z</time>
      </trkpt>
      <trkpt lat="44.64208" lon="6.59608">
        <ele>1678.12</ele>
        <time>2011-06-12T07:09:00Z</time>
      </trkpt>
      <trkpt lat="44.64213" lon="6.59607">
        <ele>1676.68</ele>
        <time>2011-06-12T07:09:01Z</time>
      </trkpt>
      <trkpt lat="44.64217" lon="6.59608">
        <ele>1674.75</ele>
        <time>2011-06-12T07:09:02Z</time>
      </trkpt>
      <trkpt lat="44.64221" lon="6.59608">
        <ele>1673.31</ele>
        <time>2011-06-12T07:09:03Z</time>
      </trkpt>
      <trkpt lat="44.64226" lon="6.59609">
        <ele>1672.35</ele>
        <time>2011-06-12T07:09:04Z</time>
      </trkpt>
      <trkpt lat="44.64231" lon="6.5961">
        <ele>1670.91</ele>
        <time>2011-06-12T07:09:05Z</time>
      </trkpt>
      <trkpt lat="44.6424" lon="6.59611">
        <ele>1668.02</ele>
        <time>2011-06-12T07:09:07Z</time>
      </trkpt>
      <trkpt lat="44.64245" lon="6.59611">
        <ele>1666.58</ele>
        <time>2011-06-12T07:09:08Z</time>
      </trkpt>
      <trkpt lat="44.64251" lon="6.59613">
        <ele>1666.1</ele>
        <time>2011-06-12T07:09:09Z</time>
      </trkpt>
      <trkpt lat="44.64275" lon="6.59628">
        <ele>1663.22</ele>
        <time>2011-06-12T07:09:12Z</time>
      </trkpt>
      <trkpt lat="44.64282" lon="6.59634">
        <ele>1662.26</ele>
        <time>2011-06-12T07:09:13Z</time>
      </trkpt>
      <trkpt lat="44.64295" lon="6.59645">
        <ele>1659.37</ele>
        <time>2011-06-12T07:09:15Z</time>
      </trkpt>
      <trkpt lat="44.643" lon="6.59651">
        <ele>1657.93</ele>
        <time>2011-06-12T07:09:16Z</time>
      </trkpt>
      <trkpt lat="44.64304" lon="6.59657">
        <ele>1656.49</ele>
        <time>2011-06-12T07:09:17Z</time>
      </trkpt>
      <trkpt lat="44.64308" lon="6.59664">
        <ele>1654.09</ele>
        <time>2011-06-12T07:09:18Z</time>
      </trkpt>
      <trkpt lat="44.64313" lon="6.59668">
        <ele>1652.16</ele>
        <time>2011-06-12T07:09:19Z</time>
      </trkpt>
      <trkpt lat="44.64318" lon="6.59672">
        <ele>1650.24</ele>
        <time>2011-06-12T07:09:20Z</time>
      </trkpt>
      <trkpt lat="44.64327" lon="6.59682">
        <ele>1646.4</ele>
        <time>2011-06-12T07:09:22Z</time>
      </trkpt>
      <trkpt lat="44.64336" lon="6.5969">
        <ele>1642.07</ele>
        <time>2011-06-12T07:09:24Z</time>
      </trkpt>
      <trkpt lat="44.64344" lon="6.597">
        <ele>1637.26</ele>
        <time>2011-06-12T07:09:26Z</time>
      </trkpt>
      <trkpt lat="44.64348" lon="6.59706">
        <ele>1635.82</ele>
        <time>2011-06-12T07:09:27Z</time>
      </trkpt>
      <trkpt lat="44.64352" lon="6.59711">
        <ele>1632.94</ele>
        <time>2011-06-12T07:09:28Z</time>
      </trkpt>
      <trkpt lat="44.64361" lon="6.59722">
        <ele>1627.17</ele>
        <time>2011-06-12T07:09:30Z</time>
      </trkpt>
      <trkpt lat="44.6437" lon="6.59734">
        <ele>1621.88</ele>
        <time>2011-06-12T07:09:32Z</time>
      </trkpt>
      <trkpt lat="44.64381" lon="6.59747">
        <ele>1616.59</ele>
        <time>2011-06-12T07:09:34Z</time>
      </trkpt>
      <trkpt lat="44.64387" lon="6.59754">
        <ele>1613.23</ele>
        <time>2011-06-12T07:09:35Z</time>
      </trkpt>
      <trkpt lat="44.64392" lon="6.5976">
        <ele>1610.35</ele>
        <time>2011-06-12T07:09:36Z</time>
      </trkpt>
      <trkpt lat="44.64397" lon="6.59767">
        <ele>1606.98</ele>
        <time>2011-06-12T07:09:37Z</time>
      </trkpt>
      <trkpt lat="44.64402" lon="6.59775">
        <ele>1603.62</ele>
        <time>2011-06-12T07:09:38Z</time>
      </trkpt>
      <trkpt lat="44.64411" lon="6.59792">
        <ele>1599.29</ele>
        <time>2011-06-12T07:09:40Z</time>
      </trkpt>
      <trkpt lat="44.64418" lon="6.59808">
        <ele>1594.96</ele>
        <time>2011-06-12T07:09:42Z</time>
      </trkpt>
      <trkpt lat="44.64426" lon="6.59826">
        <ele>1590.64</ele>
        <time>2011-06-12T07:09:44Z</time>
      </trkpt>
      <trkpt lat="44.64433" lon="6.59844">
        <ele>1586.31</ele>
        <time>2011-06-12T07:09:46Z</time>
      </trkpt>
      <trkpt lat="44.64438" lon="6.59866">
        <ele>1581.03</ele>
        <time>2011-06-12T07:09:48Z</time>
      </trkpt>
      <trkpt lat="44.64443" lon="6.59885">
        <ele>1576.22</ele>
        <time>2011-06-12T07:09:50Z</time>
      </trkpt>
      <trkpt lat="44.64445" lon="6.59892">
        <ele>1575.26</ele>
        <time>2011-06-12T07:09:51Z</time>
      </trkpt>
      <trkpt lat="44.64446" lon="6.599">
        <ele>1572.85</ele>
        <time>2011-06-12T07:09:52Z</time>
      </trkpt>
      <trkpt lat="44.64446" lon="6.59907">
        <ele>1570.93</ele>
        <time>2011-06-12T07:09:53Z</time>
      </trkpt>
      <trkpt lat="44.64445" lon="6.59914">
        <ele>1569.01</ele>
        <time>2011-06-12T07:09:54Z</time>
      </trkpt>
      <trkpt lat="44.64443" lon="6.59923">
        <ele>1567.09</ele>
        <time>2011-06-12T07:09:55Z</time>
      </trkpt>
      <trkpt lat="44.64444" lon="6.59932">
        <ele>1565.16</ele>
        <time>2011-06-12T07:09:56Z</time>
      </trkpt>
      <trkpt lat="44.64446" lon="6.59941">
        <ele>1564.2</ele>
        <time>2011-06-12T07:09:57Z</time>
      </trkpt>
      <trkpt lat="44.64448" lon="6.5995">
        <ele>1562.76</ele>
        <time>2011-06-12T07:09:58Z</time>
      </trkpt>
      <trkpt lat="44.64451" lon="6.59959">
        <ele>1561.32</ele>
        <time>2011-06-12T07:09:59Z</time>
      </trkpt>
      <trkpt lat="44.64454" lon="6.59969">
        <ele>1559.4</ele>
        <time>2011-06-12T07:10:00Z</time>
      </trkpt>
      <trkpt lat="44.64459" lon="6.59985">
        <ele>1556.51</ele>
        <time>2011-06-12T07:10:02Z</time>
      </trkpt>
      <trkpt lat="44.64462" lon="6.59991">
        <ele>1556.03</ele>
        <time>2011-06-12T07:10:03Z</time>
      </trkpt>
      <trkpt lat="44.64466" lon="6.59995">
        <ele>1554.59</ele>
        <time>2011-06-12T07:10:04Z</time>
      </trkpt>
      <trkpt lat="44.64471" lon="6.59999">
        <ele>1553.15</ele>
        <time>2011-06-12T07:10:05Z</time>
      </trkpt>
      <trkpt lat="44.64476" lon="6.60002">
        <ele>1551.71</ele>
        <time>2011-06-12T07:10:06Z</time>
      </trkpt>
      <trkpt lat="44.6448" lon="6.60005">
        <ele>1549.3</ele>
        <time>2011-06-12T07:10:07Z</time>
      </trkpt>
      <trkpt lat="44.64482" lon="6.60009">
        <ele>1548.34</ele>
        <time>2011-06-12T07:10:08Z</time>
      </trkpt>
      <trkpt lat="44.64483" lon="6.60014">
        <ele>1547.86</ele>
        <time>2011-06-12T07:10:09Z</time>
      </trkpt>
      <trkpt lat="44.64477" lon="6.6004">
        <ele>1544.01</ele>
        <time>2011-06-12T07:10:13Z</time>
      </trkpt>
      <trkpt lat="44.64473" lon="6.60046">
        <ele>1541.61</ele>
        <time>2011-06-12T07:10:14Z</time>
      </trkpt>
      <trkpt lat="44.64466" lon="6.60062">
        <ele>1537.29</ele>
        <time>2011-06-12T07:10:17Z</time>
      </trkpt>
      <trkpt lat="44.64467" lon="6.60069">
        <ele>1534.88</ele>
        <time>2011-06-12T07:10:18Z</time>
      </trkpt>
      <trkpt lat="44.64473" lon="6.60089">
        <ele>1531.04</ele>
        <time>2011-06-12T07:10:20Z</time>
      </trkpt>
      <trkpt lat="44.64485" lon="6.60115">
        <ele>1524.79</ele>
        <time>2011-06-12T07:10:23Z</time>
      </trkpt>
      <trkpt lat="44.64492" lon="6.6013">
        <ele>1521.42</ele>
        <time>2011-06-12T07:10:25Z</time>
      </trkpt>
      <trkpt lat="44.64495" lon="6.60137">
        <ele>1520.46</ele>
        <time>2011-06-12T07:10:26Z</time>
      </trkpt>
      <trkpt lat="44.64506" lon="6.60151">
        <ele>1514.21</ele>
        <time>2011-06-12T07:10:30Z</time>
      </trkpt>
      <trkpt lat="44.64507" lon="6.60147">
        <ele>1514.69</ele>
        <time>2011-06-12T07:10:31Z</time>
      </trkpt>
      <trkpt lat="44.64512" lon="6.60139">
        <ele>1513.25</ele>
        <time>2011-06-12T07:10:33Z</time>
      </trkpt>
      <trkpt lat="44.64516" lon="6.60135">
        <ele>1512.29</ele>
        <time>2011-06-12T07:10:34Z</time>
      </trkpt>
      <trkpt lat="44.64521" lon="6.6013">
        <ele>1511.81</ele>
        <time>2011-06-12T07:10:35Z</time>
      </trkpt>
      <trkpt lat="44.64538" lon="6.60116">
        <ele>1509.41</ele>
        <time>2011-06-12T07:10:38Z</time>
      </trkpt>
      <trkpt lat="44.64551" lon="6.60108">
        <ele>1506.04</ele>
        <time>2011-06-12T07:10:40Z</time>
      </trkpt>
      <trkpt lat="44.64557" lon="6.60103">
        <ele>1505.56</ele>
        <time>2011-06-12T07:10:41Z</time>
      </trkpt>
      <trkpt lat="44.64564" lon="6.60095">
        <ele>1503.64</ele>
        <time>2011-06-12T07:10:42Z</time>
      </trkpt>
      <trkpt lat="44.64569" lon="6.60084">
        <ele>1502.2</ele>
        <time>2011-06-12T07:10:43Z</time>
      </trkpt>
      <trkpt lat="44.64574" lon="6.6007">
        <ele>1501.24</ele>
        <time>2011-06-12T07:10:44Z</time>
      </trkpt>
      <trkpt lat="44.64578" lon="6.60059">
        <ele>1499.31</ele>
        <time>2011-06-12T07:10:45Z</time>
      </trkpt>
      <trkpt lat="44.64584" lon="6.60042">
        <ele>1496.91</ele>
        <time>2011-06-12T07:10:47Z</time>
      </trkpt>
      <trkpt lat="44.64588" lon="6.60038">
        <ele>1495.95</ele>
        <time>2011-06-12T07:10:48Z</time>
      </trkpt>
      <trkpt lat="44.64593" lon="6.60036">
        <ele>1494.99</ele>
        <time>2011-06-12T07:10:49Z</time>
      </trkpt>
      <trkpt lat="44.64596" lon="6.60031">
        <ele>1494.51</ele>
        <time>2011-06-12T07:10:50Z</time>
      </trkpt>
      <trkpt lat="44.64599" lon="6.60026">
        <ele>1492.58</ele>
        <time>2011-06-12T07:10:51Z</time>
      </trkpt>
      <trkpt lat="44.64601" lon="6.6002">
        <ele>1490.66</ele>
        <time>2011-06-12T07:10:52Z</time>
      </trkpt>
      <trkpt lat="44.64603" lon="6.60013">
        <ele>1488.74</ele>
        <time>2011-06-12T07:10:53Z</time>
      </trkpt>
      <trkpt lat="44.64606" lon="6.60004">
        <ele>1486.34</ele>
        <time>2011-06-12T07:10:54Z</time>
      </trkpt>
      <trkpt lat="44.6461" lon="6.59984">
        <ele>1483.45</ele>
        <time>2011-06-12T07:10:56Z</time>
      </trkpt>
      <trkpt lat="44.64615" lon="6.59961">
        <ele>1479.13</ele>
        <time>2011-06-12T07:10:58Z</time>
      </trkpt>
      <trkpt lat="44.64621" lon="6.59937">
        <ele>1474.8</ele>
        <time>2011-06-12T07:11:00Z</time>
      </trkpt>
      <trkpt lat="44.64625" lon="6.59926">
        <ele>1472.88</ele>
        <time>2011-06-12T07:11:01Z</time>
      </trkpt>
      <trkpt lat="44.64632" lon="6.59906">
        <ele>1469.99</ele>
        <time>2011-06-12T07:11:03Z</time>
      </trkpt>
      <trkpt lat="44.64638" lon="6.59889">
        <ele>1467.11</ele>
        <time>2011-06-12T07:11:05Z</time>
      </trkpt>
      <trkpt lat="44.64645" lon="6.59874">
        <ele>1463.26</ele>
        <time>2011-06-12T07:11:07Z</time>
      </trkpt>
      <trkpt lat="44.6465" lon="6.59867">
        <ele>1461.82</ele>
        <time>2011-06-12T07:11:08Z</time>
      </trkpt>
      <trkpt lat="44.64656" lon="6.59861">
        <ele>1459.42</ele>
        <time>2011-06-12T07:11:09Z</time>
      </trkpt>
      <trkpt lat="44.64662" lon="6.59856">
        <ele>1458.46</ele>
        <time>2011-06-12T07:11:10Z</time>
      </trkpt>
      <trkpt lat="44.64669" lon="6.59852">
        <ele>1457.02</ele>
        <time>2011-06-12T07:11:11Z</time>
      </trkpt>
      <trkpt lat="44.64684" lon="6.59848">
        <ele>1452.69</ele>
        <time>2011-06-12T07:11:13Z</time>
      </trkpt>
      <trkpt lat="44.647" lon="6.59844">
        <ele>1448.36</ele>
        <time>2011-06-12T07:11:15Z</time>
      </trkpt>
      <trkpt lat="44.64707" lon="6.5984">
        <ele>1446.92</ele>
        <time>2011-06-12T07:11:16Z</time>
      </trkpt>
      <trkpt lat="44.64742" lon="6.59817">
        <ele>1444.04</ele>
        <time>2011-06-12T07:11:21Z</time>
      </trkpt>
      <trkpt lat="44.64749" lon="6.59812">
        <ele>1443.08</ele>
        <time>2011-06-12T07:11:22Z</time>
      </trkpt>
      <trkpt lat="44.64771" lon="6.59794">
        <ele>1439.71</ele>
        <time>2011-06-12T07:11:25Z</time>
      </trkpt>
      <trkpt lat="44.64779" lon="6.59787">
        <ele>1438.75</ele>
        <time>2011-06-12T07:11:26Z</time>
      </trkpt>
      <trkpt lat="44.648" lon="6.59769">
        <ele>1434.42</ele>
        <time>2011-06-12T07:11:29Z</time>
      </trkpt>
      <trkpt lat="44.64809" lon="6.59765">
        <ele>1432.98</ele>
        <time>2011-06-12T07:11:30Z</time>
      </trkpt>
      <trkpt lat="44.64837" lon="6.59754">
        <ele>1429.14</ele>
        <time>2011-06-12T07:11:33Z</time>
      </trkpt>
      <trkpt lat="44.64856" lon="6.59747">
        <ele>1426.25</ele>
        <time>2011-06-12T07:11:35Z</time>
      </trkpt>
      <trkpt lat="44.64875" lon="6.59746">
        <ele>1423.37</ele>
        <time>2011-06-12T07:11:37Z</time>
      </trkpt>
      <trkpt lat="44.64884" lon="6.59748">
        <ele>1423.37</ele>
        <time>2011-06-12T07:11:38Z</time>
      </trkpt>
      <trkpt lat="44.64907" lon="6.59751">
        <ele>1419.52</ele>
        <time>2011-06-12T07:11:41Z</time>
      </trkpt>
      <trkpt lat="44.64913" lon="6.59752">
        <ele>1417.6</ele>
        <time>2011-06-12T07:11:42Z</time>
      </trkpt>
      <trkpt lat="44.64917" lon="6.59756">
        <ele>1416.64</ele>
        <time>2011-06-12T07:11:43Z</time>
      </trkpt>
      <trkpt lat="44.64919" lon="6.59762">
        <ele>1417.12</ele>
        <time>2011-06-12T07:11:44Z</time>
      </trkpt>
      <trkpt lat="44.64917" lon="6.59785">
        <ele>1416.64</ele>
        <time>2011-06-12T07:11:48Z</time>
      </trkpt>
      <trkpt lat="44.64919" lon="6.59807">
        <ele>1415.2</ele>
        <time>2011-06-12T07:11:52Z</time>
      </trkpt>
      <trkpt lat="44.64902" lon="6.59828">
        <ele>1410.87</ele>
        <time>2011-06-12T07:11:57Z</time>
      </trkpt>
      <trkpt lat="44.64894" lon="6.59836">
        <ele>1407.51</ele>
        <time>2011-06-12T07:11:59Z</time>
      </trkpt>
      <trkpt lat="44.64877" lon="6.59852">
        <ele>1402.22</ele>
        <time>2011-06-12T07:12:03Z</time>
      </trkpt>
      <trkpt lat="44.64873" lon="6.59857">
        <ele>1401.26</ele>
        <time>2011-06-12T07:12:04Z</time>
      </trkpt>
      <trkpt lat="44.64862" lon="6.5987">
        <ele>1398.37</ele>
        <time>2011-06-12T07:12:07Z</time>
      </trkpt>
      <trkpt lat="44.6486" lon="6.59876">
        <ele>1397.41</ele>
        <time>2011-06-12T07:12:08Z</time>
      </trkpt>
      <trkpt lat="44.6485" lon="6.59907">
        <ele>1393.09</ele>
        <time>2011-06-12T07:12:14Z</time>
      </trkpt>
      <trkpt lat="44.64856" lon="6.59926">
        <ele>1388.28</ele>
        <time>2011-06-12T07:12:18Z</time>
      </trkpt>
      <trkpt lat="44.64863" lon="6.59938">
        <ele>1384.44</ele>
        <time>2011-06-12T07:12:21Z</time>
      </trkpt>
      <trkpt lat="44.64867" lon="6.59946">
        <ele>1381.55</ele>
        <time>2011-06-12T07:12:23Z</time>
      </trkpt>
      <trkpt lat="44.64871" lon="6.59958">
        <ele>1379.15</ele>
        <time>2011-06-12T07:12:26Z</time>
      </trkpt>
      <trkpt lat="44.64869" lon="6.59983">
        <ele>1375.78</ele>
        <time>2011-06-12T07:12:34Z</time>
      </trkpt>
      <trkpt lat="44.64866" lon="6.6">
        <ele>1371.94</ele>
        <time>2011-06-12T07:12:38Z</time>
      </trkpt>
      <trkpt lat="44.64866" lon="6.60006">
        <ele>1370.5</ele>
        <time>2011-06-12T07:12:39Z</time>
      </trkpt>
      <trkpt lat="44.64874" lon="6.60027">
        <ele>1365.21</ele>
        <time>2011-06-12T07:12:45Z</time>
      </trkpt>
      <trkpt lat="44.64865" lon="6.6004">
        <ele>1361.84</ele>
        <time>2011-06-12T07:12:48Z</time>
      </trkpt>
      <trkpt lat="44.64862" lon="6.60044">
        <ele>1361.36</ele>
        <time>2011-06-12T07:12:49Z</time>
      </trkpt>
      <trkpt lat="44.64854" lon="6.60054">
        <ele>1357.52</ele>
        <time>2011-06-12T07:12:52Z</time>
      </trkpt>
      <trkpt lat="44.64855" lon="6.60059">
        <ele>1356.56</ele>
        <time>2011-06-12T07:12:54Z</time>
      </trkpt>
      <trkpt lat="44.64858" lon="6.60064">
        <ele>1355.12</ele>
        <time>2011-06-12T07:12:56Z</time>
      </trkpt>
      <trkpt lat="44.64867" lon="6.60073">
        <ele>1350.31</ele>
        <time>2011-06-12T07:13:01Z</time>
      </trkpt>
      <trkpt lat="44.64865" lon="6.6008">
        <ele>1349.35</ele>
        <time>2011-06-12T07:13:03Z</time>
      </trkpt>
      <trkpt lat="44.64864" lon="6.601">
        <ele>1344.06</ele>
        <time>2011-06-12T07:13:08Z</time>
      </trkpt>
      <trkpt lat="44.64864" lon="6.60103">
        <ele>1342.62</ele>
        <time>2011-06-12T07:13:09Z</time>
      </trkpt>
      <trkpt lat="44.64865" lon="6.60106">
        <ele>1340.7</ele>
        <time>2011-06-12T07:13:10Z</time>
      </trkpt>
      <trkpt lat="44.64872" lon="6.60116">
        <ele>1336.85</ele>
        <time>2011-06-12T07:13:13Z</time>
      </trkpt>
      <trkpt lat="44.64876" lon="6.60119">
        <ele>1334.93</ele>
        <time>2011-06-12T07:13:14Z</time>
      </trkpt>
      <trkpt lat="44.6488" lon="6.60121">
        <ele>1332.04</ele>
        <time>2011-06-12T07:13:15Z</time>
      </trkpt>
      <trkpt lat="44.64889" lon="6.60128">
        <ele>1330.12</ele>
        <time>2011-06-12T07:13:18Z</time>
      </trkpt>
      <trkpt lat="44.64899" lon="6.60125">
        <ele>1326.28</ele>
        <time>2011-06-12T07:13:20Z</time>
      </trkpt>
      <trkpt lat="44.6491" lon="6.60118">
        <ele>1322.43</ele>
        <time>2011-06-12T07:13:22Z</time>
      </trkpt>
      <trkpt lat="44.64922" lon="6.60103">
        <ele>1319.55</ele>
        <time>2011-06-12T07:13:25Z</time>
      </trkpt>
      <trkpt lat="44.64935" lon="6.60084">
        <ele>1314.26</ele>
        <time>2011-06-12T07:13:28Z</time>
      </trkpt>
      <trkpt lat="44.64959" lon="6.60065">
        <ele>1310.9</ele>
        <time>2011-06-12T07:13:32Z</time>
      </trkpt>
      <trkpt lat="44.64968" lon="6.6006">
        <ele>1307.05</ele>
        <time>2011-06-12T07:13:37Z</time>
      </trkpt>
      <trkpt lat="44.64972" lon="6.60058">
        <ele>1303.2</ele>
        <time>2011-06-12T07:13:39Z</time>
      </trkpt>
      <trkpt lat="44.64983" lon="6.60052">
        <ele>1298.88</ele>
        <time>2011-06-12T07:13:43Z</time>
      </trkpt>
      <trkpt lat="44.64997" lon="6.60042">
        <ele>1295.99</ele>
        <time>2011-06-12T07:13:47Z</time>
      </trkpt>
      <trkpt lat="44.65" lon="6.60046">
        <ele>1292.15</ele>
        <time>2011-06-12T07:13:51Z</time>
      </trkpt>
      <trkpt lat="44.64999" lon="6.60052">
        <ele>1287.82</ele>
        <time>2011-06-12T07:13:55Z</time>
      </trkpt>
      <trkpt lat="44.64996" lon="6.60064">
        <ele>1283.02</ele>
        <time>2011-06-12T07:13:57Z</time>
      </trkpt>
      <trkpt lat="44.64997" lon="6.60069">
        <ele>1282.06</ele>
        <time>2011-06-12T07:13:58Z</time>
      </trkpt>
      <trkpt lat="44.64996" lon="6.60075">
        <ele>1280.13</ele>
        <time>2011-06-12T07:13:59Z</time>
      </trkpt>
      <trkpt lat="44.64993" lon="6.6009">
        <ele>1277.25</ele>
        <time>2011-06-12T07:14:01Z</time>
      </trkpt>
      <trkpt lat="44.64992" lon="6.60098">
        <ele>1275.33</ele>
        <time>2011-06-12T07:14:02Z</time>
      </trkpt>
      <trkpt lat="44.6499" lon="6.60108">
        <ele>1273.88</ele>
        <time>2011-06-12T07:14:03Z</time>
      </trkpt>
      <trkpt lat="44.64985" lon="6.60131">
        <ele>1270.52</ele>
        <time>2011-06-12T07:14:07Z</time>
      </trkpt>
      <trkpt lat="44.64988" lon="6.6013">
        <ele>1267.64</ele>
        <time>2011-06-12T07:14:10Z</time>
      </trkpt>
      <trkpt lat="44.64997" lon="6.60129">
        <ele>1264.27</ele>
        <time>2011-06-12T07:14:14Z</time>
      </trkpt>
      <trkpt lat="44.65001" lon="6.60132">
        <ele>1261.39</ele>
        <time>2011-06-12T07:14:17Z</time>
      </trkpt>
      <trkpt lat="44.65003" lon="6.60134">
        <ele>1259.46</ele>
        <time>2011-06-12T07:14:18Z</time>
      </trkpt>
      <trkpt lat="44.65005" lon="6.60137">
        <ele>1257.54</ele>
        <time>2011-06-12T07:14:19Z</time>
      </trkpt>
      <trkpt lat="44.65006" lon="6.60144">
        <ele>1255.14</ele>
        <time>2011-06-12T07:14:20Z</time>
      </trkpt>
      <trkpt lat="44.65008" lon="6.60152">
        <ele>1253.22</ele>
        <time>2011-06-12T07:14:21Z</time>
      </trkpt>
      <trkpt lat="44.65015" lon="6.60182">
        <ele>1248.41</ele>
        <time>2011-06-12T07:14:24Z</time>
      </trkpt>
      <trkpt lat="44.65019" lon="6.60187">
        <ele>1246.49</ele>
        <time>2011-06-12T07:14:25Z</time>
      </trkpt>
      <trkpt lat="44.65024" lon="6.60189">
        <ele>1242.64</ele>
        <time>2011-06-12T07:14:26Z</time>
      </trkpt>
      <trkpt lat="44.65028" lon="6.60189">
        <ele>1242.64</ele>
        <time>2011-06-12T07:14:27Z</time>
      </trkpt>
      <trkpt lat="44.6504" lon="6.60192">
        <ele>1238.8</ele>
        <time>2011-06-12T07:14:29Z</time>
      </trkpt>
      <trkpt lat="44.65046" lon="6.60191">
        <ele>1238.8</ele>
        <time>2011-06-12T07:14:30Z</time>
      </trkpt>
      <trkpt lat="44.65062" lon="6.60185">
        <ele>1234.95</ele>
        <time>2011-06-12T07:14:32Z</time>
      </trkpt>
      <trkpt lat="44.65065" lon="6.60189">
        <ele>1233.03</ele>
        <time>2011-06-12T07:14:33Z</time>
      </trkpt>
      <trkpt lat="44.6507" lon="6.60189">
        <ele>1232.07</ele>
        <time>2011-06-12T07:14:34Z</time>
      </trkpt>
      <trkpt lat="44.65074" lon="6.60194">
        <ele>1230.14</ele>
        <time>2011-06-12T07:14:36Z</time>
      </trkpt>
      <trkpt lat="44.65074" lon="6.602">
        <ele>1227.74</ele>
        <time>2011-06-12T07:14:37Z</time>
      </trkpt>
      <trkpt lat="44.65071" lon="6.60207">
        <ele>1225.34</ele>
        <time>2011-06-12T07:14:38Z</time>
      </trkpt>
      <trkpt lat="44.65066" lon="6.60222">
        <ele>1221.01</ele>
        <time>2011-06-12T07:14:40Z</time>
      </trkpt>
      <trkpt lat="44.6506" lon="6.6023">
        <ele>1221.01</ele>
        <time>2011-06-12T07:14:41Z</time>
      </trkpt>
      <trkpt lat="44.65056" lon="6.60238">
        <ele>1218.61</ele>
        <time>2011-06-12T07:14:42Z</time>
      </trkpt>
      <trkpt lat="44.65051" lon="6.60245">
        <ele>1216.69</ele>
        <time>2011-06-12T07:14:43Z</time>
      </trkpt>
      <trkpt lat="44.65049" lon="6.6025">
        <ele>1214.76</ele>
        <time>2011-06-12T07:14:44Z</time>
      </trkpt>
      <trkpt lat="44.65046" lon="6.60299">
        <ele>1210.92</ele>
        <time>2011-06-12T07:14:51Z</time>
      </trkpt>
      <trkpt lat="44.65046" lon="6.60307">
        <ele>1210.44</ele>
        <time>2011-06-12T07:14:52Z</time>
      </trkpt>
      <trkpt lat="44.65057" lon="6.60328">
        <ele>1207.55</ele>
        <time>2011-06-12T07:14:57Z</time>
      </trkpt>
      <trkpt lat="44.65062" lon="6.60336">
        <ele>1205.63</ele>
        <time>2011-06-12T07:14:59Z</time>
      </trkpt>
      <trkpt lat="44.65064" lon="6.60343">
        <ele>1203.71</ele>
        <time>2011-06-12T07:15:00Z</time>
      </trkpt>
      <trkpt lat="44.65083" lon="6.60356">
        <ele>1200.34</ele>
        <time>2011-06-12T07:15:02Z</time>
      </trkpt>
      <trkpt lat="44.651" lon="6.60363">
        <ele>1196.98</ele>
        <time>2011-06-12T07:15:04Z</time>
      </trkpt>
      <trkpt lat="44.65125" lon="6.60384">
        <ele>1193.61</ele>
        <time>2011-06-12T07:15:07Z</time>
      </trkpt>
      <trkpt lat="44.65131" lon="6.60386">
        <ele>1192.65</ele>
        <time>2011-06-12T07:15:08Z</time>
      </trkpt>
      <trkpt lat="44.65138" lon="6.60387">
        <ele>1190.73</ele>
        <time>2011-06-12T07:15:09Z</time>
      </trkpt>
      <trkpt lat="44.65143" lon="6.60392">
        <ele>1190.25</ele>
        <time>2011-06-12T07:15:10Z</time>
      </trkpt>
      <trkpt lat="44.65147" lon="6.60396">
        <ele>1187.85</ele>
        <time>2011-06-12T07:15:11Z</time>
      </trkpt>
      <trkpt lat="44.65148" lon="6.60402">
        <ele>1185.92</ele>
        <time>2011-06-12T07:15:12Z</time>
      </trkpt>
      <trkpt lat="44.65151" lon="6.60409">
        <ele>1184.48</ele>
        <time>2011-06-12T07:15:13Z</time>
      </trkpt>
      <trkpt lat="44.65154" lon="6.60413">
        <ele>1183.52</ele>
        <time>2011-06-12T07:15:14Z</time>
      </trkpt>
      <trkpt lat="44.65159" lon="6.60418">
        <ele>1182.08</ele>
        <time>2011-06-12T07:15:15Z</time>
      </trkpt>
      <trkpt lat="44.65163" lon="6.60422">
        <ele>1181.12</ele>
        <time>2011-06-12T07:15:16Z</time>
      </trkpt>
      <trkpt lat="44.65168" lon="6.60424">
        <ele>1178.71</ele>
        <time>2011-06-12T07:15:17Z</time>
      </trkpt>
      <trkpt lat="44.65173" lon="6.60425">
        <ele>1177.27</ele>
        <time>2011-06-12T07:15:18Z</time>
      </trkpt>
      <trkpt lat="44.65179" lon="6.60426">
        <ele>1175.83</ele>
        <time>2011-06-12T07:15:19Z</time>
      </trkpt>
      <trkpt lat="44.65184" lon="6.60427">
        <ele>1173.91</ele>
        <time>2011-06-12T07:15:20Z</time>
      </trkpt>
      <trkpt lat="44.65196" lon="6.6043">
        <ele>1171.98</ele>
        <time>2011-06-12T07:15:22Z</time>
      </trkpt>
      <trkpt lat="44.65202" lon="6.6043">
        <ele>1169.58</ele>
        <time>2011-06-12T07:15:23Z</time>
      </trkpt>
      <trkpt lat="44.65208" lon="6.60435">
        <ele>1168.62</ele>
        <time>2011-06-12T07:15:24Z</time>
      </trkpt>
      <trkpt lat="44.65213" lon="6.60443">
        <ele>1166.7</ele>
        <time>2011-06-12T07:15:25Z</time>
      </trkpt>
      <trkpt lat="44.65218" lon="6.60451">
        <ele>1165.26</ele>
        <time>2011-06-12T07:15:26Z</time>
      </trkpt>
      <trkpt lat="44.65228" lon="6.60466">
        <ele>1162.37</ele>
        <time>2011-06-12T07:15:28Z</time>
      </trkpt>
      <trkpt lat="44.65233" lon="6.60472">
        <ele>1160.93</ele>
        <time>2011-06-12T07:15:29Z</time>
      </trkpt>
      <trkpt lat="44.65239" lon="6.60477">
        <ele>1159.97</ele>
        <time>2011-06-12T07:15:30Z</time>
      </trkpt>
      <trkpt lat="44.6525" lon="6.60484">
        <ele>1157.56</ele>
        <time>2011-06-12T07:15:32Z</time>
      </trkpt>
      <trkpt lat="44.65255" lon="6.6049">
        <ele>1156.12</ele>
        <time>2011-06-12T07:15:33Z</time>
      </trkpt>
      <trkpt lat="44.65259" lon="6.60497">
        <ele>1156.6</ele>
        <time>2011-06-12T07:15:34Z</time>
      </trkpt>
      <trkpt lat="44.65262" lon="6.60503">
        <ele>1157.08</ele>
        <time>2011-06-12T07:15:35Z</time>
      </trkpt>
      <trkpt lat="44.65265" lon="6.60512">
        <ele>1156.6</ele>
        <time>2011-06-12T07:15:36Z</time>
      </trkpt>
      <trkpt lat="44.65278" lon="6.60562">
        <ele>1159.01</ele>
        <time>2011-06-12T07:15:43Z</time>
      </trkpt>
      <trkpt lat="44.65282" lon="6.60598">
        <ele>1159.97</ele>
        <time>2011-06-12T07:15:48Z</time>
      </trkpt>
      <trkpt lat="44.65284" lon="6.60612">
        <ele>1160.45</ele>
        <time>2011-06-12T07:15:50Z</time>
      </trkpt>
      <trkpt lat="44.65284" lon="6.60621">
        <ele>1161.41</ele>
        <time>2011-06-12T07:15:51Z</time>
      </trkpt>
      <trkpt lat="44.65284" lon="6.60644">
        <ele>1162.37</ele>
        <time>2011-06-12T07:15:55Z</time>
      </trkpt>
      <trkpt lat="44.65282" lon="6.60654">
        <ele>1162.37</ele>
        <time>2011-06-12T07:15:57Z</time>
      </trkpt>
      <trkpt lat="44.65282" lon="6.6066">
        <ele>1162.37</ele>
        <time>2011-06-12T07:15:58Z</time>
      </trkpt>
      <trkpt lat="44.6528" lon="6.607">
        <ele>1163.33</ele>
        <time>2011-06-12T07:16:04Z</time>
      </trkpt>
      <trkpt lat="44.65281" lon="6.60706">
        <ele>1163.81</ele>
        <time>2011-06-12T07:16:05Z</time>
      </trkpt>
      <trkpt lat="44.65284" lon="6.60725">
        <ele>1164.77</ele>
        <time>2011-06-12T07:16:08Z</time>
      </trkpt>
      <trkpt lat="44.65284" lon="6.60731">
        <ele>1164.29</ele>
        <time>2011-06-12T07:16:09Z</time>
      </trkpt>
      <trkpt lat="44.65283" lon="6.60738">
        <ele>1164.77</ele>
        <time>2011-06-12T07:16:10Z</time>
      </trkpt>
      <trkpt lat="44.65282" lon="6.60745">
        <ele>1166.22</ele>
        <time>2011-06-12T07:16:11Z</time>
      </trkpt>
      <trkpt lat="44.6528" lon="6.60751">
        <ele>1164.77</ele>
        <time>2011-06-12T07:16:12Z</time>
      </trkpt>
      <trkpt lat="44.65277" lon="6.60757">
        <ele>1164.77</ele>
        <time>2011-06-12T07:16:13Z</time>
      </trkpt>
      <trkpt lat="44.65274" lon="6.60763">
        <ele>1164.77</ele>
        <time>2011-06-12T07:16:14Z</time>
      </trkpt>
      <trkpt lat="44.65272" lon="6.60769">
        <ele>1164.77</ele>
        <time>2011-06-12T07:16:15Z</time>
      </trkpt>
      <trkpt lat="44.6527" lon="6.60775">
        <ele>1165.74</ele>
        <time>2011-06-12T07:16:16Z</time>
      </trkpt>
      <trkpt lat="44.65267" lon="6.60787">
        <ele>1157.56</ele>
        <time>2011-06-12T07:16:18Z</time>
      </trkpt>
      <trkpt lat="44.65267" lon="6.60795">
        <ele>1166.22</ele>
        <time>2011-06-12T07:16:19Z</time>
      </trkpt>
      <trkpt lat="44.65266" lon="6.60801">
        <ele>1173.43</ele>
        <time>2011-06-12T07:16:20Z</time>
      </trkpt>
      <trkpt lat="44.65265" lon="6.60806">
        <ele>1162.85</ele>
        <time>2011-06-12T07:16:21Z</time>
      </trkpt>
      <trkpt lat="44.65262" lon="6.60811">
        <ele>1166.22</ele>
        <time>2011-06-12T07:16:22Z</time>
      </trkpt>
      <trkpt lat="44.65255" lon="6.6082">
        <ele>1165.26</ele>
        <time>2011-06-12T07:16:24Z</time>
      </trkpt>
      <trkpt lat="44.65251" lon="6.60825">
        <ele>1165.26</ele>
        <time>2011-06-12T07:16:25Z</time>
      </trkpt>
      <trkpt lat="44.65248" lon="6.6083">
        <ele>1165.26</ele>
        <time>2011-06-12T07:16:26Z</time>
      </trkpt>
      <trkpt lat="44.65244" lon="6.60837">
        <ele>1165.26</ele>
        <time>2011-06-12T07:16:27Z</time>
      </trkpt>
      <trkpt lat="44.65241" lon="6.60843">
        <ele>1165.74</ele>
        <time>2011-06-12T07:16:28Z</time>
      </trkpt>
      <trkpt lat="44.65239" lon="6.60849">
        <ele>1165.26</ele>
        <time>2011-06-12T07:16:29Z</time>
      </trkpt>
      <trkpt lat="44.65238" lon="6.60857">
        <ele>1165.74</ele>
        <time>2011-06-12T07:16:30Z</time>
      </trkpt>
      <trkpt lat="44.65234" lon="6.60897">
        <ele>1165.74</ele>
        <time>2011-06-12T07:16:35Z</time>
      </trkpt>
      <trkpt lat="44.6522" lon="6.61031">
        <ele>1163.81</ele>
        <time>2011-06-12T07:16:51Z</time>
      </trkpt>
      <trkpt lat="44.65219" lon="6.61064">
        <ele>1162.37</ele>
        <time>2011-06-12T07:16:54Z</time>
      </trkpt>
      <trkpt lat="44.65218" lon="6.61075">
        <ele>1161.89</ele>
        <time>2011-06-12T07:16:55Z</time>
      </trkpt>
      <trkpt lat="44.65188" lon="6.612">
        <ele>1158.53</ele>
        <time>2011-06-12T07:17:06Z</time>
      </trkpt>
      <trkpt lat="44.65184" lon="6.61212">
        <ele>1158.05</ele>
        <time>2011-06-12T07:17:07Z</time>
      </trkpt>
      <trkpt lat="44.65178" lon="6.61224">
        <ele>1158.05</ele>
        <time>2011-06-12T07:17:08Z</time>
      </trkpt>
      <trkpt lat="44.65126" lon="6.61292">
        <ele>1156.6</ele>
        <time>2011-06-12T07:17:16Z</time>
      </trkpt>
      <trkpt lat="44.65041" lon="6.61415">
        <ele>1155.64</ele>
        <time>2011-06-12T07:17:30Z</time>
      </trkpt>
      <trkpt lat="44.6502" lon="6.6145">
        <ele>1155.64</ele>
        <time>2011-06-12T07:17:34Z</time>
      </trkpt>
      <trkpt lat="44.65014" lon="6.61457">
        <ele>1155.64</ele>
        <time>2011-06-12T07:17:35Z</time>
      </trkpt>
      <trkpt lat="44.65007" lon="6.61463">
        <ele>1155.16</ele>
        <time>2011-06-12T07:17:36Z</time>
      </trkpt>
      <trkpt lat="44.64965" lon="6.6149">
        <ele>1153.24</ele>
        <time>2011-06-12T07:17:41Z</time>
      </trkpt>
      <trkpt lat="44.64956" lon="6.61495">
        <ele>1151.8</ele>
        <time>2011-06-12T07:17:42Z</time>
      </trkpt>
      <trkpt lat="44.64899" lon="6.61529">
        <ele>1148.91</ele>
        <time>2011-06-12T07:17:48Z</time>
      </trkpt>
      <trkpt lat="44.64873" lon="6.61549">
        <ele>1147.95</ele>
        <time>2011-06-12T07:17:51Z</time>
      </trkpt>
      <trkpt lat="44.648" lon="6.6163">
        <ele>1145.55</ele>
        <time>2011-06-12T07:18:01Z</time>
      </trkpt>
      <trkpt lat="44.64784" lon="6.61641">
        <ele>1145.07</ele>
        <time>2011-06-12T07:18:03Z</time>
      </trkpt>
      <trkpt lat="44.64767" lon="6.6165">
        <ele>1145.07</ele>
        <time>2011-06-12T07:18:05Z</time>
      </trkpt>
      <trkpt lat="44.64758" lon="6.61657">
        <ele>1144.59</ele>
        <time>2011-06-12T07:18:06Z</time>
      </trkpt>
      <trkpt lat="44.6475" lon="6.61664">
        <ele>1144.59</ele>
        <time>2011-06-12T07:18:07Z</time>
      </trkpt>
      <trkpt lat="44.64735" lon="6.61691">
        <ele>1145.07</ele>
        <time>2011-06-12T07:18:14Z</time>
      </trkpt>
      <trkpt lat="44.64739" lon="6.61689">
        <ele>1146.03</ele>
        <time>2011-06-12T07:18:24Z</time>
      </trkpt>
      <trkpt lat="44.64731" lon="6.61692">
        <ele>1147.47</ele>
        <time>2011-06-12T07:18:31Z</time>
      </trkpt>
      <trkpt lat="44.64733" lon="6.61697">
        <ele>1150.35</ele>
        <time>2011-06-12T07:18:40Z</time>
      </trkpt>
      <trkpt lat="44.64741" lon="6.61699">
        <ele>1151.8</ele>
        <time>2011-06-12T07:18:45Z</time>
      </trkpt>
      <trkpt lat="44.64747" lon="6.617">
        <ele>1152.76</ele>
        <time>2011-06-12T07:18:49Z</time>
      </trkpt>
      <trkpt lat="44.64766" lon="6.61702">
        <ele>1155.64</ele>
        <time>2011-06-12T07:18:59Z</time>
      </trkpt>
      <trkpt lat="44.64767" lon="6.61702">
        <ele>1156.12</ele>
        <time>2011-06-12T07:19:00Z</time>
      </trkpt>
      <trkpt lat="44.64779" lon="6.61705">
        <ele>1157.08</ele>
        <time>2011-06-12T07:19:10Z</time>
      </trkpt>
      <trkpt lat="44.64779" lon="6.61707">
        <ele>1157.56</ele>
        <time>2011-06-12T07:19:12Z</time>
      </trkpt>
      <trkpt lat="44.64776" lon="6.61711">
        <ele>1159.49</ele>
        <time>2011-06-12T07:19:18Z</time>
      </trkpt>
      <trkpt lat="44.64766" lon="6.61718">
        <ele>1160.93</ele>
        <time>2011-06-12T07:19:32Z</time>
      </trkpt>
      <trkpt lat="44.64763" lon="6.6172">
        <ele>1161.89</ele>
        <time>2011-06-12T07:19:53Z</time>
      </trkpt>
      <trkpt lat="44.64755" lon="6.61723">
        <ele>1163.81</ele>
        <time>2011-06-12T07:20:02Z</time>
      </trkpt>
      <trkpt lat="44.64749" lon="6.6173">
        <ele>1167.18</ele>
        <time>2011-06-12T07:20:12Z</time>
      </trkpt>
      <trkpt lat="44.64749" lon="6.61731">
        <ele>1168.14</ele>
        <time>2011-06-12T07:20:14Z</time>
      </trkpt>
      <trkpt lat="44.64754" lon="6.61735">
        <ele>1169.58</ele>
        <time>2011-06-12T07:20:22Z</time>
      </trkpt>
      <trkpt lat="44.64782" lon="6.61737">
        <ele>1168.14</ele>
        <time>2011-06-12T07:20:35Z</time>
      </trkpt>
      <trkpt lat="44.64802" lon="6.61762">
        <ele>1169.1</ele>
        <time>2011-06-12T07:20:47Z</time>
      </trkpt>
      <trkpt lat="44.64808" lon="6.61772">
        <ele>1171.5</ele>
        <time>2011-06-12T07:21:01Z</time>
      </trkpt>
      <trkpt lat="44.64811" lon="6.61773">
        <ele>1171.02</ele>
        <time>2011-06-12T07:21:04Z</time>
      </trkpt>
      <trkpt lat="44.64815" lon="6.61773">
        <ele>1171.02</ele>
        <time>2011-06-12T07:21:06Z</time>
      </trkpt>
      <trkpt lat="44.64821" lon="6.61777">
        <ele>1172.95</ele>
        <time>2011-06-12T07:21:10Z</time>
      </trkpt>
      <trkpt lat="44.6482" lon="6.61779">
        <ele>1172.95</ele>
        <time>2011-06-12T07:21:11Z</time>
      </trkpt>
      <trkpt lat="44.64819" lon="6.61784">
        <ele>1174.39</ele>
        <time>2011-06-12T07:21:14Z</time>
      </trkpt>
      <trkpt lat="44.64797" lon="6.61808">
        <ele>1174.39</ele>
        <time>2011-06-12T07:21:24Z</time>
      </trkpt>
      <trkpt lat="44.64786" lon="6.61841">
        <ele>1176.79</ele>
        <time>2011-06-12T07:21:33Z</time>
      </trkpt>
      <trkpt lat="44.64775" lon="6.61872">
        <ele>1178.71</ele>
        <time>2011-06-12T07:21:44Z</time>
      </trkpt>
      <trkpt lat="44.64799" lon="6.61892">
        <ele>1182.08</ele>
        <time>2011-06-12T07:21:55Z</time>
      </trkpt>
      <trkpt lat="44.64801" lon="6.61902">
        <ele>1183.04</ele>
        <time>2011-06-12T07:22:02Z</time>
      </trkpt>
      <trkpt lat="44.64784" lon="6.61911">
        <ele>1184</ele>
        <time>2011-06-12T07:22:07Z</time>
      </trkpt>
      <trkpt lat="44.64754" lon="6.61961">
        <ele>1185.44</ele>
        <time>2011-06-12T07:22:20Z</time>
      </trkpt>
      <trkpt lat="44.64751" lon="6.62017">
        <ele>1188.33</ele>
        <time>2011-06-12T07:22:34Z</time>
      </trkpt>
      <trkpt lat="44.64748" lon="6.62045">
        <ele>1190.25</ele>
        <time>2011-06-12T07:22:44Z</time>
      </trkpt>
      <trkpt lat="44.64753" lon="6.62052">
        <ele>1190.73</ele>
        <time>2011-06-12T07:22:52Z</time>
      </trkpt>
      <trkpt lat="44.64753" lon="6.6205">
        <ele>1190.25</ele>
        <time>2011-06-12T07:23:07Z</time>
      </trkpt>
      <trkpt lat="44.6476" lon="6.62056">
        <ele>1192.65</ele>
        <time>2011-06-12T07:23:16Z</time>
      </trkpt>
      <trkpt lat="44.64765" lon="6.62061">
        <ele>1194.58</ele>
        <time>2011-06-12T07:23:20Z</time>
      </trkpt>
      <trkpt lat="44.64768" lon="6.62064">
        <ele>1195.06</ele>
        <time>2011-06-12T07:23:22Z</time>
      </trkpt>
      <trkpt lat="44.64777" lon="6.6208">
        <ele>1197.94</ele>
        <time>2011-06-12T07:23:30Z</time>
      </trkpt>
      <trkpt lat="44.64782" lon="6.62098">
        <ele>1201.3</ele>
        <time>2011-06-12T07:23:39Z</time>
      </trkpt>
      <trkpt lat="44.6478" lon="6.62113">
        <ele>1203.71</ele>
        <time>2011-06-12T07:23:47Z</time>
      </trkpt>
      <trkpt lat="44.64778" lon="6.62151">
        <ele>1206.59</ele>
        <time>2011-06-12T07:24:02Z</time>
      </trkpt>
      <trkpt lat="44.64779" lon="6.62178">
        <ele>1209.96</ele>
        <time>2011-06-12T07:24:11Z</time>
      </trkpt>
      <trkpt lat="44.64771" lon="6.62207">
        <ele>1212.84</ele>
        <time>2011-06-12T07:24:23Z</time>
      </trkpt>
      <trkpt lat="44.64766" lon="6.62221">
        <ele>1215.24</ele>
        <time>2011-06-12T07:24:31Z</time>
      </trkpt>
      <trkpt lat="44.64754" lon="6.62226">
        <ele>1217.17</ele>
        <time>2011-06-12T07:24:43Z</time>
      </trkpt>
      <trkpt lat="44.64745" lon="6.62227">
        <ele>1220.53</ele>
        <time>2011-06-12T07:24:52Z</time>
      </trkpt>
      <trkpt lat="44.64736" lon="6.62227">
        <ele>1223.9</ele>
        <time>2011-06-12T07:25:04Z</time>
      </trkpt>
      <trkpt lat="44.64736" lon="6.62227">
        <ele>1223.9</ele>
        <time>2011-06-12T07:25:05Z</time>
      </trkpt>
      <trkpt lat="44.64731" lon="6.62226">
        <ele>1225.82</ele>
        <time>2011-06-12T07:25:12Z</time>
      </trkpt>
      <trkpt lat="44.6472" lon="6.6222">
        <ele>1228.7</ele>
        <time>2011-06-12T07:25:24Z</time>
      </trkpt>
      <trkpt lat="44.64713" lon="6.62218">
        <ele>1230.14</ele>
        <time>2011-06-12T07:25:31Z</time>
      </trkpt>
      <trkpt lat="44.647" lon="6.62212">
        <ele>1233.03</ele>
        <time>2011-06-12T07:25:45Z</time>
      </trkpt>
      <trkpt lat="44.64686" lon="6.62208">
        <ele>1234.95</ele>
        <time>2011-06-12T07:25:57Z</time>
      </trkpt>
      <trkpt lat="44.64672" lon="6.62197">
        <ele>1238.8</ele>
        <time>2011-06-12T07:26:10Z</time>
      </trkpt>
      <trkpt lat="44.64657" lon="6.62186">
        <ele>1241.68</ele>
        <time>2011-06-12T07:26:23Z</time>
      </trkpt>
      <trkpt lat="44.64646" lon="6.62177">
        <ele>1244.56</ele>
        <time>2011-06-12T07:26:35Z</time>
      </trkpt>
      <trkpt lat="44.64644" lon="6.62176">
        <ele>1245.04</ele>
        <time>2011-06-12T07:26:37Z</time>
      </trkpt>
      <trkpt lat="44.64643" lon="6.62174">
        <ele>1245.53</ele>
        <time>2011-06-12T07:26:39Z</time>
      </trkpt>
      <trkpt lat="44.6464" lon="6.62175">
        <ele>1246.01</ele>
        <time>2011-06-12T07:26:42Z</time>
      </trkpt>
      <trkpt lat="44.6463" lon="6.62174">
        <ele>1248.89</ele>
        <time>2011-06-12T07:26:52Z</time>
      </trkpt>
      <trkpt lat="44.64614" lon="6.62175">
        <ele>1251.29</ele>
        <time>2011-06-12T07:27:06Z</time>
      </trkpt>
      <trkpt lat="44.64612" lon="6.62175">
        <ele>1251.77</ele>
        <time>2011-06-12T07:27:08Z</time>
      </trkpt>
      <trkpt lat="44.64611" lon="6.62175">
        <ele>1252.74</ele>
        <time>2011-06-12T07:27:10Z</time>
      </trkpt>
      <trkpt lat="44.64601" lon="6.62178">
        <ele>1255.14</ele>
        <time>2011-06-12T07:27:22Z</time>
      </trkpt>
      <trkpt lat="44.64589" lon="6.62184">
        <ele>1258.5</ele>
        <time>2011-06-12T07:27:36Z</time>
      </trkpt>
      <trkpt lat="44.64581" lon="6.6219">
        <ele>1261.87</ele>
        <time>2011-06-12T07:27:49Z</time>
      </trkpt>
      <trkpt lat="44.64579" lon="6.62197">
        <ele>1263.79</ele>
        <time>2011-06-12T07:28:00Z</time>
      </trkpt>
      <trkpt lat="44.64598" lon="6.62202">
        <ele>1263.79</ele>
        <time>2011-06-12T07:28:13Z</time>
      </trkpt>
      <trkpt lat="44.64612" lon="6.62233">
        <ele>1265.23</ele>
        <time>2011-06-12T07:28:24Z</time>
      </trkpt>
      <trkpt lat="44.64607" lon="6.62265">
        <ele>1268.6</ele>
        <time>2011-06-12T07:28:36Z</time>
      </trkpt>
      <trkpt lat="44.64601" lon="6.62286">
        <ele>1271.96</ele>
        <time>2011-06-12T07:28:45Z</time>
      </trkpt>
      <trkpt lat="44.64592" lon="6.62312">
        <ele>1274.36</ele>
        <time>2011-06-12T07:28:56Z</time>
      </trkpt>
      <trkpt lat="44.64587" lon="6.62336">
        <ele>1277.25</ele>
        <time>2011-06-12T07:29:08Z</time>
      </trkpt>
      <trkpt lat="44.64578" lon="6.62354">
        <ele>1280.61</ele>
        <time>2011-06-12T07:29:19Z</time>
      </trkpt>
      <trkpt lat="44.64566" lon="6.62377">
        <ele>1283.98</ele>
        <time>2011-06-12T07:29:31Z</time>
      </trkpt>
      <trkpt lat="44.64553" lon="6.62413">
        <ele>1283.02</ele>
        <time>2011-06-12T07:29:44Z</time>
      </trkpt>
      <trkpt lat="44.64528" lon="6.62484">
        <ele>1281.57</ele>
        <time>2011-06-12T07:29:58Z</time>
      </trkpt>
      <trkpt lat="44.64494" lon="6.62565">
        <ele>1280.61</ele>
        <time>2011-06-12T07:30:13Z</time>
      </trkpt>
      <trkpt lat="44.64458" lon="6.6262">
        <ele>1282.06</ele>
        <time>2011-06-12T07:30:27Z</time>
      </trkpt>
      <trkpt lat="44.64414" lon="6.62667">
        <ele>1281.57</ele>
        <time>2011-06-12T07:30:37Z</time>
      </trkpt>
      <trkpt lat="44.64394" lon="6.6268">
        <ele>1284.94</ele>
        <time>2011-06-12T07:30:43Z</time>
      </trkpt>
      <trkpt lat="44.64371" lon="6.62717">
        <ele>1287.82</ele>
        <time>2011-06-12T07:30:57Z</time>
      </trkpt>
      <trkpt lat="44.64351" lon="6.62757">
        <ele>1289.75</ele>
        <time>2011-06-12T07:31:10Z</time>
      </trkpt>
      <trkpt lat="44.64352" lon="6.62816">
        <ele>1287.82</ele>
        <time>2011-06-12T07:31:23Z</time>
      </trkpt>
      <trkpt lat="44.64331" lon="6.62857">
        <ele>1284.46</ele>
        <time>2011-06-12T07:31:31Z</time>
      </trkpt>
      <trkpt lat="44.64326" lon="6.62876">
        <ele>1281.09</ele>
        <time>2011-06-12T07:31:34Z</time>
      </trkpt>
      <trkpt lat="44.64323" lon="6.62888">
        <ele>1279.17</ele>
        <time>2011-06-12T07:31:36Z</time>
      </trkpt>
      <trkpt lat="44.64318" lon="6.62915">
        <ele>1274.85</ele>
        <time>2011-06-12T07:31:39Z</time>
      </trkpt>
      <trkpt lat="44.64318" lon="6.62922">
        <ele>1273.4</ele>
        <time>2011-06-12T07:31:40Z</time>
      </trkpt>
      <trkpt lat="44.6433" lon="6.62948">
        <ele>1270.04</ele>
        <time>2011-06-12T07:31:44Z</time>
      </trkpt>
      <trkpt lat="44.64317" lon="6.62983">
        <ele>1273.4</ele>
        <time>2011-06-12T07:31:54Z</time>
      </trkpt>
      <trkpt lat="44.64311" lon="6.63018">
        <ele>1276.29</ele>
        <time>2011-06-12T07:32:04Z</time>
      </trkpt>
      <trkpt lat="44.6433" lon="6.63029">
        <ele>1277.25</ele>
        <time>2011-06-12T07:32:09Z</time>
      </trkpt>
      <trkpt lat="44.64374" lon="6.63037">
        <ele>1281.57</ele>
        <time>2011-06-12T07:32:23Z</time>
      </trkpt>
      <trkpt lat="44.64404" lon="6.63065">
        <ele>1283.98</ele>
        <time>2011-06-12T07:32:36Z</time>
      </trkpt>
      <trkpt lat="44.64419" lon="6.63109">
        <ele>1287.34</ele>
        <time>2011-06-12T07:32:49Z</time>
      </trkpt>
      <trkpt lat="44.644" lon="6.63153">
        <ele>1290.23</ele>
        <time>2011-06-12T07:33:02Z</time>
      </trkpt>
      <trkpt lat="44.6439" lon="6.63194">
        <ele>1293.11</ele>
        <time>2011-06-12T07:33:13Z</time>
      </trkpt>
      <trkpt lat="44.6437" lon="6.63241">
        <ele>1296.48</ele>
        <time>2011-06-12T07:33:27Z</time>
      </trkpt>
      <trkpt lat="44.64341" lon="6.63276">
        <ele>1299.36</ele>
        <time>2011-06-12T07:33:41Z</time>
      </trkpt>
      <trkpt lat="44.64321" lon="6.63264">
        <ele>1302.24</ele>
        <time>2011-06-12T07:33:52Z</time>
      </trkpt>
      <trkpt lat="44.64306" lon="6.63231">
        <ele>1303.2</ele>
        <time>2011-06-12T07:34:05Z</time>
      </trkpt>
      <trkpt lat="44.64305" lon="6.63231">
        <ele>1303.2</ele>
        <time>2011-06-12T07:34:44Z</time>
      </trkpt>
      <trkpt lat="44.64303" lon="6.6323">
        <ele>1302.72</ele>
        <time>2011-06-12T07:35:49Z</time>
      </trkpt>
      <trkpt lat="44.64303" lon="6.63229">
        <ele>1303.2</ele>
        <time>2011-06-12T07:36:43Z</time>
      </trkpt>
      <trkpt lat="44.64291" lon="6.6323">
        <ele>1303.69</ele>
        <time>2011-06-12T07:36:49Z</time>
      </trkpt>
      <trkpt lat="44.64276" lon="6.63257">
        <ele>1307.05</ele>
        <time>2011-06-12T07:36:59Z</time>
      </trkpt>
      <trkpt lat="44.64261" lon="6.63287">
        <ele>1310.41</ele>
        <time>2011-06-12T07:37:10Z</time>
      </trkpt>
      <trkpt lat="44.64251" lon="6.63315">
        <ele>1313.78</ele>
        <time>2011-06-12T07:37:20Z</time>
      </trkpt>
      <trkpt lat="44.64249" lon="6.6332">
        <ele>1314.74</ele>
        <time>2011-06-12T07:37:22Z</time>
      </trkpt>
      <trkpt lat="44.64237" lon="6.63349">
        <ele>1317.62</ele>
        <time>2011-06-12T07:37:33Z</time>
      </trkpt>
      <trkpt lat="44.64212" lon="6.63387">
        <ele>1320.03</ele>
        <time>2011-06-12T07:37:48Z</time>
      </trkpt>
      <trkpt lat="44.6419" lon="6.63428">
        <ele>1322.43</ele>
        <time>2011-06-12T07:38:03Z</time>
      </trkpt>
      <trkpt lat="44.64175" lon="6.63451">
        <ele>1325.8</ele>
        <time>2011-06-12T07:38:13Z</time>
      </trkpt>
      <trkpt lat="44.64154" lon="6.63482">
        <ele>1328.2</ele>
        <time>2011-06-12T07:38:27Z</time>
      </trkpt>
      <trkpt lat="44.64129" lon="6.63476">
        <ele>1331.56</ele>
        <time>2011-06-12T07:38:39Z</time>
      </trkpt>
      <trkpt lat="44.641" lon="6.63456">
        <ele>1334.93</ele>
        <time>2011-06-12T07:38:54Z</time>
      </trkpt>
      <trkpt lat="44.64073" lon="6.63439">
        <ele>1337.81</ele>
        <time>2011-06-12T07:39:08Z</time>
      </trkpt>
      <trkpt lat="44.64044" lon="6.63428">
        <ele>1340.7</ele>
        <time>2011-06-12T07:39:20Z</time>
      </trkpt>
      <trkpt lat="44.64014" lon="6.63423">
        <ele>1344.06</ele>
        <time>2011-06-12T07:39:34Z</time>
      </trkpt>
      <trkpt lat="44.63993" lon="6.63417">
        <ele>1347.43</ele>
        <time>2011-06-12T07:39:46Z</time>
      </trkpt>
      <trkpt lat="44.63971" lon="6.63414">
        <ele>1349.83</ele>
        <time>2011-06-12T07:39:59Z</time>
      </trkpt>
      <trkpt lat="44.63957" lon="6.63415">
        <ele>1352.71</ele>
        <time>2011-06-12T07:40:08Z</time>
      </trkpt>
      <trkpt lat="44.63935" lon="6.63397">
        <ele>1355.6</ele>
        <time>2011-06-12T07:40:24Z</time>
      </trkpt>
      <trkpt lat="44.63929" lon="6.63369">
        <ele>1358.48</ele>
        <time>2011-06-12T07:40:38Z</time>
      </trkpt>
      <trkpt lat="44.63934" lon="6.63334">
        <ele>1361.36</ele>
        <time>2011-06-12T07:40:53Z</time>
      </trkpt>
      <trkpt lat="44.63936" lon="6.63302">
        <ele>1363.29</ele>
        <time>2011-06-12T07:41:06Z</time>
      </trkpt>
      <trkpt lat="44.63933" lon="6.633">
        <ele>1364.25</ele>
        <time>2011-06-12T07:41:09Z</time>
      </trkpt>
      <trkpt lat="44.63923" lon="6.6332">
        <ele>1365.69</ele>
        <time>2011-06-12T07:41:16Z</time>
      </trkpt>
      <trkpt lat="44.639" lon="6.63354">
        <ele>1368.09</ele>
        <time>2011-06-12T07:41:33Z</time>
      </trkpt>
      <trkpt lat="44.63874" lon="6.63377">
        <ele>1370.02</ele>
        <time>2011-06-12T07:41:47Z</time>
      </trkpt>
      <trkpt lat="44.63845" lon="6.63391">
        <ele>1372.9</ele>
        <time>2011-06-12T07:42:01Z</time>
      </trkpt>
      <trkpt lat="44.63823" lon="6.63406">
        <ele>1374.34</ele>
        <time>2011-06-12T07:42:13Z</time>
      </trkpt>
      <trkpt lat="44.63805" lon="6.63428">
        <ele>1376.26</ele>
        <time>2011-06-12T07:42:25Z</time>
      </trkpt>
      <trkpt lat="44.63779" lon="6.63449">
        <ele>1379.15</ele>
        <time>2011-06-12T07:42:40Z</time>
      </trkpt>
      <trkpt lat="44.63762" lon="6.63486">
        <ele>1382.03</ele>
        <time>2011-06-12T07:42:55Z</time>
      </trkpt>
      <trkpt lat="44.63762" lon="6.63506">
        <ele>1382.99</ele>
        <time>2011-06-12T07:43:04Z</time>
      </trkpt>
      <trkpt lat="44.63775" lon="6.63509">
        <ele>1384.44</ele>
        <time>2011-06-12T07:43:11Z</time>
      </trkpt>
      <trkpt lat="44.63805" lon="6.63513">
        <ele>1387.32</ele>
        <time>2011-06-12T07:43:26Z</time>
      </trkpt>
      <trkpt lat="44.63828" lon="6.63552">
        <ele>1388.28</ele>
        <time>2011-06-12T07:43:39Z</time>
      </trkpt>
      <trkpt lat="44.63829" lon="6.63599">
        <ele>1389.72</ele>
        <time>2011-06-12T07:43:53Z</time>
      </trkpt>
      <trkpt lat="44.63816" lon="6.63631">
        <ele>1391.65</ele>
        <time>2011-06-12T07:44:04Z</time>
      </trkpt>
      <trkpt lat="44.63807" lon="6.6366">
        <ele>1395.01</ele>
        <time>2011-06-12T07:44:15Z</time>
      </trkpt>
      <trkpt lat="44.63793" lon="6.63689">
        <ele>1398.37</ele>
        <time>2011-06-12T07:44:29Z</time>
      </trkpt>
      <trkpt lat="44.63788" lon="6.63706">
        <ele>1399.34</ele>
        <time>2011-06-12T07:44:36Z</time>
      </trkpt>
      <trkpt lat="44.63784" lon="6.63708">
        <ele>1400.3</ele>
        <time>2011-06-12T07:44:39Z</time>
      </trkpt>
      <trkpt lat="44.63782" lon="6.63706">
        <ele>1400.78</ele>
        <time>2011-06-12T07:44:41Z</time>
      </trkpt>
      <trkpt lat="44.63783" lon="6.63692">
        <ele>1401.74</ele>
        <time>2011-06-12T07:44:47Z</time>
      </trkpt>
      <trkpt lat="44.63789" lon="6.63641">
        <ele>1402.7</ele>
        <time>2011-06-12T07:45:03Z</time>
      </trkpt>
      <trkpt lat="44.63787" lon="6.63617">
        <ele>1404.62</ele>
        <time>2011-06-12T07:45:12Z</time>
      </trkpt>
      <trkpt lat="44.63783" lon="6.63635">
        <ele>1406.55</ele>
        <time>2011-06-12T07:45:21Z</time>
      </trkpt>
      <trkpt lat="44.63765" lon="6.63694">
        <ele>1409.43</ele>
        <time>2011-06-12T07:45:34Z</time>
      </trkpt>
      <trkpt lat="44.63753" lon="6.63737">
        <ele>1412.31</ele>
        <time>2011-06-12T07:45:47Z</time>
      </trkpt>
      <trkpt lat="44.63746" lon="6.63784">
        <ele>1415.2</ele>
        <time>2011-06-12T07:46:01Z</time>
      </trkpt>
      <trkpt lat="44.63718" lon="6.63793">
        <ele>1417.6</ele>
        <time>2011-06-12T07:46:13Z</time>
      </trkpt>
      <trkpt lat="44.63692" lon="6.63813">
        <ele>1419.52</ele>
        <time>2011-06-12T07:46:26Z</time>
      </trkpt>
      <trkpt lat="44.63699" lon="6.63856">
        <ele>1421.93</ele>
        <time>2011-06-12T07:46:37Z</time>
      </trkpt>
      <trkpt lat="44.63685" lon="6.63895">
        <ele>1424.81</ele>
        <time>2011-06-12T07:46:50Z</time>
      </trkpt>
      <trkpt lat="44.63672" lon="6.63934">
        <ele>1428.18</ele>
        <time>2011-06-12T07:47:03Z</time>
      </trkpt>
      <trkpt lat="44.63659" lon="6.63969">
        <ele>1431.54</ele>
        <time>2011-06-12T07:47:16Z</time>
      </trkpt>
      <trkpt lat="44.63642" lon="6.6401">
        <ele>1434.91</ele>
        <time>2011-06-12T07:47:32Z</time>
      </trkpt>
      <trkpt lat="44.63636" lon="6.64017">
        <ele>1435.87</ele>
        <time>2011-06-12T07:47:36Z</time>
      </trkpt>
      <trkpt lat="44.63611" lon="6.63999">
        <ele>1439.71</ele>
        <time>2011-06-12T07:47:51Z</time>
      </trkpt>
      <trkpt lat="44.63591" lon="6.63985">
        <ele>1443.08</ele>
        <time>2011-06-12T07:48:03Z</time>
      </trkpt>
      <trkpt lat="44.6357" lon="6.63977">
        <ele>1445.96</ele>
        <time>2011-06-12T07:48:16Z</time>
      </trkpt>
      <trkpt lat="44.63564" lon="6.63975">
        <ele>1446.44</ele>
        <time>2011-06-12T07:48:20Z</time>
      </trkpt>
      <trkpt lat="44.63543" lon="6.63965">
        <ele>1449.81</ele>
        <time>2011-06-12T07:48:33Z</time>
      </trkpt>
      <trkpt lat="44.63536" lon="6.63973">
        <ele>1450.29</ele>
        <time>2011-06-12T07:48:38Z</time>
      </trkpt>
      <trkpt lat="44.63536" lon="6.63988">
        <ele>1451.25</ele>
        <time>2011-06-12T07:48:44Z</time>
      </trkpt>
      <trkpt lat="44.63562" lon="6.64026">
        <ele>1454.61</ele>
        <time>2011-06-12T07:49:01Z</time>
      </trkpt>
      <trkpt lat="44.63587" lon="6.64062">
        <ele>1456.05</ele>
        <time>2011-06-12T07:49:14Z</time>
      </trkpt>
      <trkpt lat="44.63624" lon="6.64109">
        <ele>1459.42</ele>
        <time>2011-06-12T07:49:31Z</time>
      </trkpt>
      <trkpt lat="44.63637" lon="6.64151">
        <ele>1459.9</ele>
        <time>2011-06-12T07:49:44Z</time>
      </trkpt>
      <trkpt lat="44.63615" lon="6.64214">
        <ele>1460.86</ele>
        <time>2011-06-12T07:49:56Z</time>
      </trkpt>
      <trkpt lat="44.63621" lon="6.64261">
        <ele>1462.78</ele>
        <time>2011-06-12T07:50:07Z</time>
      </trkpt>
      <trkpt lat="44.6365" lon="6.64289">
        <ele>1466.15</ele>
        <time>2011-06-12T07:50:19Z</time>
      </trkpt>
      <trkpt lat="44.63665" lon="6.64327">
        <ele>1468.55</ele>
        <time>2011-06-12T07:50:31Z</time>
      </trkpt>
      <trkpt lat="44.63662" lon="6.6437">
        <ele>1471.92</ele>
        <time>2011-06-12T07:50:43Z</time>
      </trkpt>
      <trkpt lat="44.63652" lon="6.64409">
        <ele>1475.28</ele>
        <time>2011-06-12T07:50:57Z</time>
      </trkpt>
      <trkpt lat="44.63644" lon="6.64435">
        <ele>1477.68</ele>
        <time>2011-06-12T07:51:06Z</time>
      </trkpt>
      <trkpt lat="44.63628" lon="6.64466">
        <ele>1480.57</ele>
        <time>2011-06-12T07:51:19Z</time>
      </trkpt>
      <trkpt lat="44.63611" lon="6.64494">
        <ele>1483.45</ele>
        <time>2011-06-12T07:51:31Z</time>
      </trkpt>
      <trkpt lat="44.63604" lon="6.64534">
        <ele>1485.85</ele>
        <time>2011-06-12T07:51:44Z</time>
      </trkpt>
      <trkpt lat="44.63578" lon="6.64578">
        <ele>1488.74</ele>
        <time>2011-06-12T07:52:01Z</time>
      </trkpt>
      <trkpt lat="44.63575" lon="6.64606">
        <ele>1490.66</ele>
        <time>2011-06-12T07:52:11Z</time>
      </trkpt>
      <trkpt lat="44.6358" lon="6.64616">
        <ele>1491.14</ele>
        <time>2011-06-12T07:52:15Z</time>
      </trkpt>
      <trkpt lat="44.6362" lon="6.64623">
        <ele>1492.1</ele>
        <time>2011-06-12T07:52:27Z</time>
      </trkpt>
      <trkpt lat="44.63656" lon="6.64651">
        <ele>1493.55</ele>
        <time>2011-06-12T07:52:40Z</time>
      </trkpt>
      <trkpt lat="44.6369" lon="6.6467">
        <ele>1496.91</ele>
        <time>2011-06-12T07:52:53Z</time>
      </trkpt>
      <trkpt lat="44.63725" lon="6.64691">
        <ele>1500.27</ele>
        <time>2011-06-12T07:53:06Z</time>
      </trkpt>
      <trkpt lat="44.6375" lon="6.64672">
        <ele>1502.68</ele>
        <time>2011-06-12T07:53:18Z</time>
      </trkpt>
      <trkpt lat="44.63771" lon="6.64655">
        <ele>1505.08</ele>
        <time>2011-06-12T07:53:31Z</time>
      </trkpt>
      <trkpt lat="44.63771" lon="6.64693">
        <ele>1507.48</ele>
        <time>2011-06-12T07:53:42Z</time>
      </trkpt>
      <trkpt lat="44.63745" lon="6.64714">
        <ele>1509.89</ele>
        <time>2011-06-12T07:53:55Z</time>
      </trkpt>
      <trkpt lat="44.63711" lon="6.64719">
        <ele>1512.77</ele>
        <time>2011-06-12T07:54:09Z</time>
      </trkpt>
      <trkpt lat="44.63679" lon="6.64718">
        <ele>1515.18</ele>
        <time>2011-06-12T07:54:22Z</time>
      </trkpt>
      <trkpt lat="44.63642" lon="6.64703">
        <ele>1518.06</ele>
        <time>2011-06-12T07:54:37Z</time>
      </trkpt>
      <trkpt lat="44.63618" lon="6.64724">
        <ele>1519.98</ele>
        <time>2011-06-12T07:54:49Z</time>
      </trkpt>
      <trkpt lat="44.63617" lon="6.64781">
        <ele>1522.39</ele>
        <time>2011-06-12T07:55:05Z</time>
      </trkpt>
      <trkpt lat="44.63588" lon="6.64802">
        <ele>1524.31</ele>
        <time>2011-06-12T07:55:19Z</time>
      </trkpt>
      <trkpt lat="44.63544" lon="6.64808">
        <ele>1527.19</ele>
        <time>2011-06-12T07:55:34Z</time>
      </trkpt>
      <trkpt lat="44.63519" lon="6.64845">
        <ele>1529.59</ele>
        <time>2011-06-12T07:55:48Z</time>
      </trkpt>
      <trkpt lat="44.63523" lon="6.64906">
        <ele>1530.56</ele>
        <time>2011-06-12T07:56:02Z</time>
      </trkpt>
      <trkpt lat="44.63535" lon="6.64954">
        <ele>1529.11</ele>
        <time>2011-06-12T07:56:10Z</time>
      </trkpt>
      <trkpt lat="44.63538" lon="6.6496">
        <ele>1529.11</ele>
        <time>2011-06-12T07:56:11Z</time>
      </trkpt>
      <trkpt lat="44.63557" lon="6.64991">
        <ele>1528.15</ele>
        <time>2011-06-12T07:56:16Z</time>
      </trkpt>
      <trkpt lat="44.6356" lon="6.64999">
        <ele>1527.67</ele>
        <time>2011-06-12T07:56:17Z</time>
      </trkpt>
      <trkpt lat="44.63563" lon="6.65006">
        <ele>1527.19</ele>
        <time>2011-06-12T07:56:18Z</time>
      </trkpt>
      <trkpt lat="44.63576" lon="6.65029">
        <ele>1523.35</ele>
        <time>2011-06-12T07:56:23Z</time>
      </trkpt>
      <trkpt lat="44.63584" lon="6.65034">
        <ele>1519.02</ele>
        <time>2011-06-12T07:56:29Z</time>
      </trkpt>
      <trkpt lat="44.63587" lon="6.65052">
        <ele>1517.1</ele>
        <time>2011-06-12T07:56:33Z</time>
      </trkpt>
      <trkpt lat="44.63588" lon="6.65059">
        <ele>1516.14</ele>
        <time>2011-06-12T07:56:34Z</time>
      </trkpt>
      <trkpt lat="44.63588" lon="6.65064">
        <ele>1515.66</ele>
        <time>2011-06-12T07:56:35Z</time>
      </trkpt>
      <trkpt lat="44.63589" lon="6.65065">
        <ele>1514.69</ele>
        <time>2011-06-12T07:56:36Z</time>
      </trkpt>
      <trkpt lat="44.6359" lon="6.65065">
        <ele>1514.69</ele>
        <time>2011-06-12T07:56:37Z</time>
      </trkpt>
      <trkpt lat="44.63593" lon="6.65064">
        <ele>1513.73</ele>
        <time>2011-06-12T07:56:38Z</time>
      </trkpt>
      <trkpt lat="44.63594" lon="6.65061">
        <ele>1513.25</ele>
        <time>2011-06-12T07:56:39Z</time>
      </trkpt>
      <trkpt lat="44.63596" lon="6.65056">
        <ele>1512.29</ele>
        <time>2011-06-12T07:56:40Z</time>
      </trkpt>
      <trkpt lat="44.63598" lon="6.6505">
        <ele>1511.33</ele>
        <time>2011-06-12T07:56:41Z</time>
      </trkpt>
      <trkpt lat="44.63601" lon="6.65045">
        <ele>1510.37</ele>
        <time>2011-06-12T07:56:42Z</time>
      </trkpt>
      <trkpt lat="44.63613" lon="6.65028">
        <ele>1506.52</ele>
        <time>2011-06-12T07:56:46Z</time>
      </trkpt>
      <trkpt lat="44.63615" lon="6.65022">
        <ele>1505.56</ele>
        <time>2011-06-12T07:56:47Z</time>
      </trkpt>
      <trkpt lat="44.63617" lon="6.65016">
        <ele>1505.08</ele>
        <time>2011-06-12T07:56:48Z</time>
      </trkpt>
      <trkpt lat="44.63619" lon="6.6501">
        <ele>1504.12</ele>
        <time>2011-06-12T07:56:49Z</time>
      </trkpt>
      <trkpt lat="44.63622" lon="6.65003">
        <ele>1502.68</ele>
        <time>2011-06-12T07:56:50Z</time>
      </trkpt>
      <trkpt lat="44.63628" lon="6.64993">
        <ele>1501.24</ele>
        <time>2011-06-12T07:56:52Z</time>
      </trkpt>
      <trkpt lat="44.63651" lon="6.64969">
        <ele>1497.39</ele>
        <time>2011-06-12T07:56:57Z</time>
      </trkpt>
      <trkpt lat="44.63655" lon="6.64965">
        <ele>1496.43</ele>
        <time>2011-06-12T07:56:58Z</time>
      </trkpt>
      <trkpt lat="44.63672" lon="6.64945">
        <ele>1492.58</ele>
        <time>2011-06-12T07:57:03Z</time>
      </trkpt>
      <trkpt lat="44.63676" lon="6.64944">
        <ele>1491.14</ele>
        <time>2011-06-12T07:57:05Z</time>
      </trkpt>
      <trkpt lat="44.63673" lon="6.64953">
        <ele>1489.7</ele>
        <time>2011-06-12T07:57:08Z</time>
      </trkpt>
      <trkpt lat="44.63669" lon="6.64966">
        <ele>1487.78</ele>
        <time>2011-06-12T07:57:10Z</time>
      </trkpt>
      <trkpt lat="44.63659" lon="6.64986">
        <ele>1485.37</ele>
        <time>2011-06-12T07:57:13Z</time>
      </trkpt>
      <trkpt lat="44.63653" lon="6.65012">
        <ele>1480.57</ele>
        <time>2011-06-12T07:57:17Z</time>
      </trkpt>
      <trkpt lat="44.63653" lon="6.65027">
        <ele>1478.16</ele>
        <time>2011-06-12T07:57:19Z</time>
      </trkpt>
      <trkpt lat="44.63654" lon="6.65046">
        <ele>1473.84</ele>
        <time>2011-06-12T07:57:22Z</time>
      </trkpt>
      <trkpt lat="44.63662" lon="6.65047">
        <ele>1470.95</ele>
        <time>2011-06-12T07:57:27Z</time>
      </trkpt>
      <trkpt lat="44.63668" lon="6.65033">
        <ele>1467.59</ele>
        <time>2011-06-12T07:57:31Z</time>
      </trkpt>
      <trkpt lat="44.63683" lon="6.65014">
        <ele>1463.74</ele>
        <time>2011-06-12T07:57:35Z</time>
      </trkpt>
      <trkpt lat="44.63686" lon="6.65011">
        <ele>1462.78</ele>
        <time>2011-06-12T07:57:36Z</time>
      </trkpt>
      <trkpt lat="44.63702" lon="6.64987">
        <ele>1458.46</ele>
        <time>2011-06-12T07:57:40Z</time>
      </trkpt>
      <trkpt lat="44.63711" lon="6.64975">
        <ele>1456.53</ele>
        <time>2011-06-12T07:57:42Z</time>
      </trkpt>
      <trkpt lat="44.63722" lon="6.64954">
        <ele>1454.61</ele>
        <time>2011-06-12T07:57:45Z</time>
      </trkpt>
      <trkpt lat="44.63732" lon="6.64931">
        <ele>1452.21</ele>
        <time>2011-06-12T07:57:49Z</time>
      </trkpt>
      <trkpt lat="44.6375" lon="6.64924">
        <ele>1448.36</ele>
        <time>2011-06-12T07:57:53Z</time>
      </trkpt>
      <trkpt lat="44.63775" lon="6.64924">
        <ele>1444.52</ele>
        <time>2011-06-12T07:57:57Z</time>
      </trkpt>
      <trkpt lat="44.63801" lon="6.64927">
        <ele>1439.71</ele>
        <time>2011-06-12T07:58:01Z</time>
      </trkpt>
      <trkpt lat="44.63814" lon="6.64928">
        <ele>1437.31</ele>
        <time>2011-06-12T07:58:03Z</time>
      </trkpt>
      <trkpt lat="44.63827" lon="6.64933">
        <ele>1435.39</ele>
        <time>2011-06-12T07:58:05Z</time>
      </trkpt>
      <trkpt lat="44.63849" lon="6.64946">
        <ele>1429.14</ele>
        <time>2011-06-12T07:58:09Z</time>
      </trkpt>
      <trkpt lat="44.63862" lon="6.64953">
        <ele>1425.77</ele>
        <time>2011-06-12T07:58:11Z</time>
      </trkpt>
      <trkpt lat="44.63876" lon="6.64961">
        <ele>1424.33</ele>
        <time>2011-06-12T07:58:13Z</time>
      </trkpt>
      <trkpt lat="44.63889" lon="6.64971">
        <ele>1421.45</ele>
        <time>2011-06-12T07:58:15Z</time>
      </trkpt>
      <trkpt lat="44.63903" lon="6.64992">
        <ele>1418.08</ele>
        <time>2011-06-12T07:58:18Z</time>
      </trkpt>
      <trkpt lat="44.63915" lon="6.65002">
        <ele>1415.2</ele>
        <time>2011-06-12T07:58:21Z</time>
      </trkpt>
      <trkpt lat="44.63923" lon="6.65003">
        <ele>1414.72</ele>
        <time>2011-06-12T07:58:23Z</time>
      </trkpt>
      <trkpt lat="44.63931" lon="6.64989">
        <ele>1413.28</ele>
        <time>2011-06-12T07:58:26Z</time>
      </trkpt>
      <trkpt lat="44.63942" lon="6.6495">
        <ele>1410.39</ele>
        <time>2011-06-12T07:58:32Z</time>
      </trkpt>
      <trkpt lat="44.63942" lon="6.64934">
        <ele>1409.43</ele>
        <time>2011-06-12T07:58:35Z</time>
      </trkpt>
      <trkpt lat="44.63942" lon="6.6489">
        <ele>1406.07</ele>
        <time>2011-06-12T07:58:42Z</time>
      </trkpt>
      <trkpt lat="44.63951" lon="6.64881">
        <ele>1403.66</ele>
        <time>2011-06-12T07:58:45Z</time>
      </trkpt>
      <trkpt lat="44.63957" lon="6.64877">
        <ele>1403.18</ele>
        <time>2011-06-12T07:58:47Z</time>
      </trkpt>
      <trkpt lat="44.63963" lon="6.64877">
        <ele>1401.74</ele>
        <time>2011-06-12T07:58:49Z</time>
      </trkpt>
      <trkpt lat="44.63969" lon="6.64851">
        <ele>1397.41</ele>
        <time>2011-06-12T07:58:55Z</time>
      </trkpt>
      <trkpt lat="44.63976" lon="6.64838">
        <ele>1395.01</ele>
        <time>2011-06-12T07:58:58Z</time>
      </trkpt>
      <trkpt lat="44.63984" lon="6.64834">
        <ele>1391.65</ele>
        <time>2011-06-12T07:59:00Z</time>
      </trkpt>
      <trkpt lat="44.63993" lon="6.64834">
        <ele>1388.28</ele>
        <time>2011-06-12T07:59:02Z</time>
      </trkpt>
      <trkpt lat="44.64004" lon="6.6483">
        <ele>1384.44</ele>
        <time>2011-06-12T07:59:06Z</time>
      </trkpt>
      <trkpt lat="44.64004" lon="6.64826">
        <ele>1383.47</ele>
        <time>2011-06-12T07:59:07Z</time>
      </trkpt>
      <trkpt lat="44.64004" lon="6.64806">
        <ele>1382.99</ele>
        <time>2011-06-12T07:59:10Z</time>
      </trkpt>
      <trkpt lat="44.64012" lon="6.64784">
        <ele>1379.15</ele>
        <time>2011-06-12T07:59:15Z</time>
      </trkpt>
      <trkpt lat="44.64015" lon="6.64781">
        <ele>1377.71</ele>
        <time>2011-06-12T07:59:17Z</time>
      </trkpt>
      <trkpt lat="44.64017" lon="6.6478">
        <ele>1376.75</ele>
        <time>2011-06-12T07:59:18Z</time>
      </trkpt>
      <trkpt lat="44.6402" lon="6.64779">
        <ele>1374.82</ele>
        <time>2011-06-12T07:59:20Z</time>
      </trkpt>
      <trkpt lat="44.64022" lon="6.64782">
        <ele>1373.38</ele>
        <time>2011-06-12T07:59:21Z</time>
      </trkpt>
      <trkpt lat="44.64023" lon="6.64785">
        <ele>1370.02</ele>
        <time>2011-06-12T07:59:22Z</time>
      </trkpt>
      <trkpt lat="44.64024" lon="6.64788">
        <ele>1370.02</ele>
        <time>2011-06-12T07:59:23Z</time>
      </trkpt>
      <trkpt lat="44.64047" lon="6.64795">
        <ele>1367.13</ele>
        <time>2011-06-12T07:59:29Z</time>
      </trkpt>
      <trkpt lat="44.64058" lon="6.64798">
        <ele>1365.69</ele>
        <time>2011-06-12T07:59:32Z</time>
      </trkpt>
      <trkpt lat="44.64068" lon="6.64806">
        <ele>1364.25</ele>
        <time>2011-06-12T07:59:35Z</time>
      </trkpt>
      <trkpt lat="44.64087" lon="6.64822">
        <ele>1361.84</ele>
        <time>2011-06-12T07:59:45Z</time>
      </trkpt>
      <trkpt lat="44.64109" lon="6.6482">
        <ele>1360.4</ele>
        <time>2011-06-12T07:59:50Z</time>
      </trkpt>
      <trkpt lat="44.64129" lon="6.64832">
        <ele>1356.56</ele>
        <time>2011-06-12T07:59:55Z</time>
      </trkpt>
      <trkpt lat="44.64137" lon="6.64836">
        <ele>1355.6</ele>
        <time>2011-06-12T07:59:57Z</time>
      </trkpt>
      <trkpt lat="44.64176" lon="6.64844">
        <ele>1351.27</ele>
        <time>2011-06-12T08:00:05Z</time>
      </trkpt>
      <trkpt lat="44.6419" lon="6.64845">
        <ele>1349.83</ele>
        <time>2011-06-12T08:00:07Z</time>
      </trkpt>
      <trkpt lat="44.64202" lon="6.64844">
        <ele>1348.87</ele>
        <time>2011-06-12T08:00:09Z</time>
      </trkpt>
      <trkpt lat="44.64207" lon="6.64842">
        <ele>1348.39</ele>
        <time>2011-06-12T08:00:10Z</time>
      </trkpt>
      <trkpt lat="44.64213" lon="6.64819">
        <ele>1346.46</ele>
        <time>2011-06-12T08:00:15Z</time>
      </trkpt>
      <trkpt lat="44.64236" lon="6.648">
        <ele>1344.54</ele>
        <time>2011-06-12T08:00:24Z</time>
      </trkpt>
      <trkpt lat="44.64242" lon="6.648">
        <ele>1344.54</ele>
        <time>2011-06-12T08:00:26Z</time>
      </trkpt>
      <trkpt lat="44.6427" lon="6.64772">
        <ele>1343.1</ele>
        <time>2011-06-12T08:00:34Z</time>
      </trkpt>
      <trkpt lat="44.64276" lon="6.64768">
        <ele>1342.62</ele>
        <time>2011-06-12T08:00:35Z</time>
      </trkpt>
      <trkpt lat="44.64282" lon="6.64767">
        <ele>1342.14</ele>
        <time>2011-06-12T08:00:36Z</time>
      </trkpt>
      <trkpt lat="44.64287" lon="6.64768">
        <ele>1341.18</ele>
        <time>2011-06-12T08:00:37Z</time>
      </trkpt>
      <trkpt lat="44.64291" lon="6.64767">
        <ele>1340.7</ele>
        <time>2011-06-12T08:00:38Z</time>
      </trkpt>
      <trkpt lat="44.64295" lon="6.64766">
        <ele>1340.7</ele>
        <time>2011-06-12T08:00:39Z</time>
      </trkpt>
      <trkpt lat="44.6432" lon="6.64738">
        <ele>1337.33</ele>
        <time>2011-06-12T08:00:48Z</time>
      </trkpt>
      <trkpt lat="44.64336" lon="6.64744">
        <ele>1333.01</ele>
        <time>2011-06-12T08:00:53Z</time>
      </trkpt>
      <trkpt lat="44.64339" lon="6.64739">
        <ele>1331.56</ele>
        <time>2011-06-12T08:00:55Z</time>
      </trkpt>
      <trkpt lat="44.64352" lon="6.64728">
        <ele>1328.2</ele>
        <time>2011-06-12T08:00:59Z</time>
      </trkpt>
      <trkpt lat="44.64359" lon="6.64701">
        <ele>1325.31</ele>
        <time>2011-06-12T08:01:05Z</time>
      </trkpt>
      <trkpt lat="44.64363" lon="6.64698">
        <ele>1324.83</ele>
        <time>2011-06-12T08:01:06Z</time>
      </trkpt>
      <trkpt lat="44.64369" lon="6.64693">
        <ele>1323.39</ele>
        <time>2011-06-12T08:01:08Z</time>
      </trkpt>
      <trkpt lat="44.64386" lon="6.64661">
        <ele>1319.07</ele>
        <time>2011-06-12T08:01:13Z</time>
      </trkpt>
      <trkpt lat="44.64388" lon="6.64638">
        <ele>1317.62</ele>
        <time>2011-06-12T08:01:16Z</time>
      </trkpt>
      <trkpt lat="44.6441" lon="6.646">
        <ele>1313.3</ele>
        <time>2011-06-12T08:01:22Z</time>
      </trkpt>
      <trkpt lat="44.64445" lon="6.64597">
        <ele>1308.97</ele>
        <time>2011-06-12T08:01:27Z</time>
      </trkpt>
      <trkpt lat="44.64451" lon="6.64598">
        <ele>1307.53</ele>
        <time>2011-06-12T08:01:28Z</time>
      </trkpt>
      <trkpt lat="44.6446" lon="6.64602">
        <ele>1305.13</ele>
        <time>2011-06-12T08:01:30Z</time>
      </trkpt>
      <trkpt lat="44.64467" lon="6.64604">
        <ele>1304.17</ele>
        <time>2011-06-12T08:01:32Z</time>
      </trkpt>
      <trkpt lat="44.64487" lon="6.64613">
        <ele>1300.8</ele>
        <time>2011-06-12T08:01:36Z</time>
      </trkpt>
      <trkpt lat="44.64499" lon="6.64617">
        <ele>1299.36</ele>
        <time>2011-06-12T08:01:38Z</time>
      </trkpt>
      <trkpt lat="44.64511" lon="6.6462">
        <ele>1295.99</ele>
        <time>2011-06-12T08:01:40Z</time>
      </trkpt>
      <trkpt lat="44.64542" lon="6.64617">
        <ele>1289.75</ele>
        <time>2011-06-12T08:01:45Z</time>
      </trkpt>
      <trkpt lat="44.64564" lon="6.64608">
        <ele>1284.94</ele>
        <time>2011-06-12T08:01:49Z</time>
      </trkpt>
      <trkpt lat="44.64557" lon="6.64619">
        <ele>1283.02</ele>
        <time>2011-06-12T08:01:54Z</time>
      </trkpt>
      <trkpt lat="44.6455" lon="6.64626">
        <ele>1283.02</ele>
        <time>2011-06-12T08:01:56Z</time>
      </trkpt>
      <trkpt lat="44.64542" lon="6.64631">
        <ele>1282.06</ele>
        <time>2011-06-12T08:01:58Z</time>
      </trkpt>
      <trkpt lat="44.6453" lon="6.64642">
        <ele>1280.61</ele>
        <time>2011-06-12T08:02:01Z</time>
      </trkpt>
      <trkpt lat="44.64526" lon="6.64644">
        <ele>1280.13</ele>
        <time>2011-06-12T08:02:02Z</time>
      </trkpt>
      <trkpt lat="44.6451" lon="6.64651">
        <ele>1278.69</ele>
        <time>2011-06-12T08:02:05Z</time>
      </trkpt>
      <trkpt lat="44.64501" lon="6.64656">
        <ele>1277.73</ele>
        <time>2011-06-12T08:02:07Z</time>
      </trkpt>
      <trkpt lat="44.64489" lon="6.64664">
        <ele>1276.29</ele>
        <time>2011-06-12T08:02:10Z</time>
      </trkpt>
      <trkpt lat="44.64485" lon="6.64667">
        <ele>1275.33</ele>
        <time>2011-06-12T08:02:13Z</time>
      </trkpt>
      <trkpt lat="44.64479" lon="6.64669">
        <ele>1275.81</ele>
        <time>2011-06-12T08:02:17Z</time>
      </trkpt>
      <trkpt lat="44.64469" lon="6.64676">
        <ele>1274.85</ele>
        <time>2011-06-12T08:02:25Z</time>
      </trkpt>
      <trkpt lat="44.64453" lon="6.64671">
        <ele>1273.4</ele>
        <time>2011-06-12T08:02:38Z</time>
      </trkpt>
      <trkpt lat="44.64443" lon="6.64671">
        <ele>1272.92</ele>
        <time>2011-06-12T08:02:44Z</time>
      </trkpt>
      <trkpt lat="44.64437" lon="6.64692">
        <ele>1270.04</ele>
        <time>2011-06-12T08:02:51Z</time>
      </trkpt>
      <trkpt lat="44.64436" lon="6.6473">
        <ele>1269.56</ele>
        <time>2011-06-12T08:03:00Z</time>
      </trkpt>
      <trkpt lat="44.64414" lon="6.64742">
        <ele>1268.6</ele>
        <time>2011-06-12T08:03:07Z</time>
      </trkpt>
      <trkpt lat="44.64387" lon="6.64755">
        <ele>1265.23</ele>
        <time>2011-06-12T08:03:18Z</time>
      </trkpt>
      <trkpt lat="44.64381" lon="6.64801">
        <ele>1261.87</ele>
        <time>2011-06-12T08:03:27Z</time>
      </trkpt>
      <trkpt lat="44.6435" lon="6.64835">
        <ele>1260.91</ele>
        <time>2011-06-12T08:03:38Z</time>
      </trkpt>
      <trkpt lat="44.64305" lon="6.64878">
        <ele>1258.5</ele>
        <time>2011-06-12T08:03:51Z</time>
      </trkpt>
      <trkpt lat="44.64293" lon="6.64884">
        <ele>1258.98</ele>
        <time>2011-06-12T08:03:54Z</time>
      </trkpt>
      <trkpt lat="44.64266" lon="6.64922">
        <ele>1255.14</ele>
        <time>2011-06-12T08:04:04Z</time>
      </trkpt>
      <trkpt lat="44.64262" lon="6.64924">
        <ele>1255.14</ele>
        <time>2011-06-12T08:04:05Z</time>
      </trkpt>
      <trkpt lat="44.64251" lon="6.64932">
        <ele>1253.22</ele>
        <time>2011-06-12T08:04:08Z</time>
      </trkpt>
      <trkpt lat="44.64236" lon="6.64946">
        <ele>1250.33</ele>
        <time>2011-06-12T08:04:12Z</time>
      </trkpt>
      <trkpt lat="44.64218" lon="6.64959">
        <ele>1246.97</ele>
        <time>2011-06-12T08:04:17Z</time>
      </trkpt>
      <trkpt lat="44.64202" lon="6.64982">
        <ele>1243.6</ele>
        <time>2011-06-12T08:04:22Z</time>
      </trkpt>
      <trkpt lat="44.64186" lon="6.65004">
        <ele>1241.2</ele>
        <time>2011-06-12T08:04:28Z</time>
      </trkpt>
      <trkpt lat="44.64181" lon="6.65011">
        <ele>1239.28</ele>
        <time>2011-06-12T08:04:30Z</time>
      </trkpt>
      <trkpt lat="44.64178" lon="6.65018">
        <ele>1237.83</ele>
        <time>2011-06-12T08:04:32Z</time>
      </trkpt>
      <trkpt lat="44.64174" lon="6.6504">
        <ele>1234.47</ele>
        <time>2011-06-12T08:04:38Z</time>
      </trkpt>
      <trkpt lat="44.64176" lon="6.65057">
        <ele>1231.11</ele>
        <time>2011-06-12T08:04:43Z</time>
      </trkpt>
      <trkpt lat="44.6418" lon="6.6506">
        <ele>1227.74</ele>
        <time>2011-06-12T08:04:48Z</time>
      </trkpt>
      <trkpt lat="44.6418" lon="6.65059">
        <ele>1225.82</ele>
        <time>2011-06-12T08:04:49Z</time>
      </trkpt>
      <trkpt lat="44.64187" lon="6.65059">
        <ele>1222.45</ele>
        <time>2011-06-12T08:04:54Z</time>
      </trkpt>
      <trkpt lat="44.64191" lon="6.65058">
        <ele>1221.49</ele>
        <time>2011-06-12T08:04:57Z</time>
      </trkpt>
      <trkpt lat="44.64245" lon="6.64984">
        <ele>1219.57</ele>
        <time>2011-06-12T08:05:01Z</time>
      </trkpt>
      <trkpt lat="44.64271" lon="6.64982">
        <ele>1215.72</ele>
        <time>2011-06-12T08:05:09Z</time>
      </trkpt>
      <trkpt lat="44.64294" lon="6.64979">
        <ele>1213.32</ele>
        <time>2011-06-12T08:05:13Z</time>
      </trkpt>
      <trkpt lat="44.64299" lon="6.64975">
        <ele>1212.84</ele>
        <time>2011-06-12T08:05:14Z</time>
      </trkpt>
      <trkpt lat="44.64303" lon="6.64969">
        <ele>1212.36</ele>
        <time>2011-06-12T08:05:15Z</time>
      </trkpt>
      <trkpt lat="44.64306" lon="6.64962">
        <ele>1212.36</ele>
        <time>2011-06-12T08:05:16Z</time>
      </trkpt>
      <trkpt lat="44.64309" lon="6.64957">
        <ele>1211.4</ele>
        <time>2011-06-12T08:05:17Z</time>
      </trkpt>
      <trkpt lat="44.64311" lon="6.64953">
        <ele>1210.92</ele>
        <time>2011-06-12T08:05:18Z</time>
      </trkpt>
      <trkpt lat="44.64314" lon="6.64951">
        <ele>1209.96</ele>
        <time>2011-06-12T08:05:19Z</time>
      </trkpt>
      <trkpt lat="44.64316" lon="6.6495">
        <ele>1209.96</ele>
        <time>2011-06-12T08:05:20Z</time>
      </trkpt>
      <trkpt lat="44.64319" lon="6.6495">
        <ele>1209.48</ele>
        <time>2011-06-12T08:05:21Z</time>
      </trkpt>
      <trkpt lat="44.64323" lon="6.64951">
        <ele>1208.51</ele>
        <time>2011-06-12T08:05:22Z</time>
      </trkpt>
      <trkpt lat="44.64328" lon="6.64952">
        <ele>1207.07</ele>
        <time>2011-06-12T08:05:23Z</time>
      </trkpt>
      <trkpt lat="44.64332" lon="6.64951">
        <ele>1206.11</ele>
        <time>2011-06-12T08:05:24Z</time>
      </trkpt>
      <trkpt lat="44.64336" lon="6.64948">
        <ele>1205.15</ele>
        <time>2011-06-12T08:05:25Z</time>
      </trkpt>
      <trkpt lat="44.64341" lon="6.64942">
        <ele>1203.71</ele>
        <time>2011-06-12T08:05:26Z</time>
      </trkpt>
      <trkpt lat="44.64346" lon="6.64939">
        <ele>1203.23</ele>
        <time>2011-06-12T08:05:27Z</time>
      </trkpt>
      <trkpt lat="44.64351" lon="6.64937">
        <ele>1201.79</ele>
        <time>2011-06-12T08:05:28Z</time>
      </trkpt>
      <trkpt lat="44.64356" lon="6.64937">
        <ele>1200.34</ele>
        <time>2011-06-12T08:05:29Z</time>
      </trkpt>
      <trkpt lat="44.64362" lon="6.64937">
        <ele>1198.9</ele>
        <time>2011-06-12T08:05:30Z</time>
      </trkpt>
      <trkpt lat="44.64368" lon="6.64938">
        <ele>1197.94</ele>
        <time>2011-06-12T08:05:31Z</time>
      </trkpt>
      <trkpt lat="44.64375" lon="6.64933">
        <ele>1196.98</ele>
        <time>2011-06-12T08:05:32Z</time>
      </trkpt>
      <trkpt lat="44.64378" lon="6.64935">
        <ele>1196.98</ele>
        <time>2011-06-12T08:05:33Z</time>
      </trkpt>
      <trkpt lat="44.6438" lon="6.6494">
        <ele>1195.06</ele>
        <time>2011-06-12T08:05:36Z</time>
      </trkpt>
      <trkpt lat="44.64373" lon="6.64951">
        <ele>1192.17</ele>
        <time>2011-06-12T08:05:39Z</time>
      </trkpt>
      <trkpt lat="44.6437" lon="6.64956">
        <ele>1191.21</ele>
        <time>2011-06-12T08:05:40Z</time>
      </trkpt>
      <trkpt lat="44.64366" lon="6.64961">
        <ele>1190.25</ele>
        <time>2011-06-12T08:05:41Z</time>
      </trkpt>
      <trkpt lat="44.64359" lon="6.64971">
        <ele>1187.37</ele>
        <time>2011-06-12T08:05:43Z</time>
      </trkpt>
      <trkpt lat="44.6435" lon="6.64982">
        <ele>1184</ele>
        <time>2011-06-12T08:05:47Z</time>
      </trkpt>
      <trkpt lat="44.64347" lon="6.64985">
        <ele>1182.56</ele>
        <time>2011-06-12T08:05:49Z</time>
      </trkpt>
      <trkpt lat="44.64346" lon="6.64986">
        <ele>1181.6</ele>
        <time>2011-06-12T08:05:50Z</time>
      </trkpt>
      <trkpt lat="44.64345" lon="6.64988">
        <ele>1181.6</ele>
        <time>2011-06-12T08:05:51Z</time>
      </trkpt>
      <trkpt lat="44.64345" lon="6.6499">
        <ele>1180.16</ele>
        <time>2011-06-12T08:05:52Z</time>
      </trkpt>
      <trkpt lat="44.64344" lon="6.64992">
        <ele>1178.71</ele>
        <time>2011-06-12T08:05:53Z</time>
      </trkpt>
      <trkpt lat="44.64343" lon="6.64995">
        <ele>1176.79</ele>
        <time>2011-06-12T08:05:54Z</time>
      </trkpt>
      <trkpt lat="44.64342" lon="6.65">
        <ele>1175.83</ele>
        <time>2011-06-12T08:05:55Z</time>
      </trkpt>
      <trkpt lat="44.6434" lon="6.65005">
        <ele>1175.35</ele>
        <time>2011-06-12T08:05:56Z</time>
      </trkpt>
      <trkpt lat="44.64338" lon="6.65009">
        <ele>1173.91</ele>
        <time>2011-06-12T08:05:57Z</time>
      </trkpt>
      <trkpt lat="44.64335" lon="6.65014">
        <ele>1173.43</ele>
        <time>2011-06-12T08:05:58Z</time>
      </trkpt>
      <trkpt lat="44.6433" lon="6.65019">
        <ele>1171.98</ele>
        <time>2011-06-12T08:05:59Z</time>
      </trkpt>
      <trkpt lat="44.64326" lon="6.65023">
        <ele>1171.5</ele>
        <time>2011-06-12T08:06:00Z</time>
      </trkpt>
      <trkpt lat="44.6432" lon="6.65024">
        <ele>1170.54</ele>
        <time>2011-06-12T08:06:01Z</time>
      </trkpt>
      <trkpt lat="44.64315" lon="6.65027">
        <ele>1170.06</ele>
        <time>2011-06-12T08:06:02Z</time>
      </trkpt>
      <trkpt lat="44.64309" lon="6.65032">
        <ele>1169.1</ele>
        <time>2011-06-12T08:06:03Z</time>
      </trkpt>
      <trkpt lat="44.64304" lon="6.65036">
        <ele>1168.62</ele>
        <time>2011-06-12T08:06:04Z</time>
      </trkpt>
      <trkpt lat="44.64299" lon="6.65042">
        <ele>1166.22</ele>
        <time>2011-06-12T08:06:05Z</time>
      </trkpt>
      <trkpt lat="44.64294" lon="6.65049">
        <ele>1163.81</ele>
        <time>2011-06-12T08:06:06Z</time>
      </trkpt>
      <trkpt lat="44.64291" lon="6.65056">
        <ele>1161.89</ele>
        <time>2011-06-12T08:06:07Z</time>
      </trkpt>
      <trkpt lat="44.64288" lon="6.65065">
        <ele>1160.45</ele>
        <time>2011-06-12T08:06:08Z</time>
      </trkpt>
      <trkpt lat="44.64285" lon="6.65073">
        <ele>1158.53</ele>
        <time>2011-06-12T08:06:09Z</time>
      </trkpt>
      <trkpt lat="44.64282" lon="6.6508">
        <ele>1157.56</ele>
        <time>2011-06-12T08:06:10Z</time>
      </trkpt>
      <trkpt lat="44.64279" lon="6.65085">
        <ele>1157.56</ele>
        <time>2011-06-12T08:06:11Z</time>
      </trkpt>
      <trkpt lat="44.64275" lon="6.65088">
        <ele>1157.56</ele>
        <time>2011-06-12T08:06:12Z</time>
      </trkpt>
      <trkpt lat="44.64272" lon="6.65092">
        <ele>1158.05</ele>
        <time>2011-06-12T08:06:13Z</time>
      </trkpt>
      <trkpt lat="44.64258" lon="6.65134">
        <ele>1158.53</ele>
        <time>2011-06-12T08:06:21Z</time>
      </trkpt>
      <trkpt lat="44.64254" lon="6.6514">
        <ele>1158.53</ele>
        <time>2011-06-12T08:06:22Z</time>
      </trkpt>
      <trkpt lat="44.6425" lon="6.65142">
        <ele>1158.05</ele>
        <time>2011-06-12T08:06:23Z</time>
      </trkpt>
      <trkpt lat="44.64246" lon="6.65144">
        <ele>1158.05</ele>
        <time>2011-06-12T08:06:24Z</time>
      </trkpt>
      <trkpt lat="44.64243" lon="6.65145">
        <ele>1157.56</ele>
        <time>2011-06-12T08:06:25Z</time>
      </trkpt>
      <trkpt lat="44.6424" lon="6.65147">
        <ele>1157.56</ele>
        <time>2011-06-12T08:06:26Z</time>
      </trkpt>
      <trkpt lat="44.64237" lon="6.65149">
        <ele>1157.08</ele>
        <time>2011-06-12T08:06:27Z</time>
      </trkpt>
      <trkpt lat="44.64236" lon="6.65153">
        <ele>1156.6</ele>
        <time>2011-06-12T08:06:28Z</time>
      </trkpt>
      <trkpt lat="44.64235" lon="6.65156">
        <ele>1156.6</ele>
        <time>2011-06-12T08:06:29Z</time>
      </trkpt>
      <trkpt lat="44.64235" lon="6.65161">
        <ele>1157.56</ele>
        <time>2011-06-12T08:06:31Z</time>
      </trkpt>
      <trkpt lat="44.64235" lon="6.65165">
        <ele>1157.56</ele>
        <time>2011-06-12T08:06:32Z</time>
      </trkpt>
      <trkpt lat="44.64235" lon="6.65169">
        <ele>1157.56</ele>
        <time>2011-06-12T08:06:33Z</time>
      </trkpt>
      <trkpt lat="44.64234" lon="6.65173">
        <ele>1157.56</ele>
        <time>2011-06-12T08:06:34Z</time>
      </trkpt>
      <trkpt lat="44.64232" lon="6.65177">
        <ele>1157.56</ele>
        <time>2011-06-12T08:06:35Z</time>
      </trkpt>
      <trkpt lat="44.6423" lon="6.6518">
        <ele>1157.56</ele>
        <time>2011-06-12T08:06:36Z</time>
      </trkpt>
      <trkpt lat="44.64217" lon="6.65197">
        <ele>1158.53</ele>
        <time>2011-06-12T08:06:41Z</time>
      </trkpt>
      <trkpt lat="44.64208" lon="6.65228">
        <ele>1157.56</ele>
        <time>2011-06-12T08:06:47Z</time>
      </trkpt>
      <trkpt lat="44.64208" lon="6.65255">
        <ele>1158.53</ele>
        <time>2011-06-12T08:06:56Z</time>
      </trkpt>
      <trkpt lat="44.64207" lon="6.65258">
        <ele>1159.01</ele>
        <time>2011-06-12T08:06:58Z</time>
      </trkpt>
      <trkpt lat="44.64207" lon="6.65268">
        <ele>1160.93</ele>
        <time>2011-06-12T08:07:04Z</time>
      </trkpt>
      <trkpt lat="44.64208" lon="6.65271">
        <ele>1160.93</ele>
        <time>2011-06-12T08:07:05Z</time>
      </trkpt>
      <trkpt lat="44.6421" lon="6.65273">
        <ele>1160.93</ele>
        <time>2011-06-12T08:07:06Z</time>
      </trkpt>
      <trkpt lat="44.64216" lon="6.65292">
        <ele>1160.93</ele>
        <time>2011-06-12T08:07:12Z</time>
      </trkpt>
      <trkpt lat="44.64215" lon="6.65295">
        <ele>1161.41</ele>
        <time>2011-06-12T08:07:13Z</time>
      </trkpt>
      <trkpt lat="44.64214" lon="6.65297">
        <ele>1160.93</ele>
        <time>2011-06-12T08:07:14Z</time>
      </trkpt>
      <trkpt lat="44.64212" lon="6.65299">
        <ele>1160.93</ele>
        <time>2011-06-12T08:07:15Z</time>
      </trkpt>
      <trkpt lat="44.64211" lon="6.65301">
        <ele>1161.41</ele>
        <time>2011-06-12T08:07:16Z</time>
      </trkpt>
      <trkpt lat="44.6421" lon="6.65303">
        <ele>1161.89</ele>
        <time>2011-06-12T08:07:17Z</time>
      </trkpt>
      <trkpt lat="44.64209" lon="6.65306">
        <ele>1161.89</ele>
        <time>2011-06-12T08:07:18Z</time>
      </trkpt>
      <trkpt lat="44.64175" lon="6.65321">
        <ele>1162.85</ele>
        <time>2011-06-12T08:07:29Z</time>
      </trkpt>
      <trkpt lat="44.64138" lon="6.65351">
        <ele>1162.37</ele>
        <time>2011-06-12T08:07:41Z</time>
      </trkpt>
      <trkpt lat="44.64113" lon="6.65391">
        <ele>1163.81</ele>
        <time>2011-06-12T08:07:53Z</time>
      </trkpt>
      <trkpt lat="44.64107" lon="6.65403">
        <ele>1161.41</ele>
        <time>2011-06-12T08:07:57Z</time>
      </trkpt>
      <trkpt lat="44.64103" lon="6.65432">
        <ele>1161.89</ele>
        <time>2011-06-12T08:08:04Z</time>
      </trkpt>
      <trkpt lat="44.64093" lon="6.65484">
        <ele>1160.45</ele>
        <time>2011-06-12T08:08:15Z</time>
      </trkpt>
      <trkpt lat="44.6409" lon="6.65495">
        <ele>1162.85</ele>
        <time>2011-06-12T08:08:25Z</time>
      </trkpt>
      <trkpt lat="44.64087" lon="6.65502">
        <ele>1165.26</ele>
        <time>2011-06-12T08:08:35Z</time>
      </trkpt>
      <trkpt lat="44.64087" lon="6.65505">
        <ele>1165.26</ele>
        <time>2011-06-12T08:08:39Z</time>
      </trkpt>
      <trkpt lat="44.64085" lon="6.6551">
        <ele>1165.26</ele>
        <time>2011-06-12T08:08:42Z</time>
      </trkpt>
      <trkpt lat="44.64065" lon="6.65537">
        <ele>1168.14</ele>
        <time>2011-06-12T08:08:55Z</time>
      </trkpt>
      <trkpt lat="44.64067" lon="6.65574">
        <ele>1169.1</ele>
        <time>2011-06-12T08:09:09Z</time>
      </trkpt>
      <trkpt lat="44.64061" lon="6.65621">
        <ele>1165.26</ele>
        <time>2011-06-12T08:09:19Z</time>
      </trkpt>
      <trkpt lat="44.6406" lon="6.65627">
        <ele>1161.41</ele>
        <time>2011-06-12T08:09:21Z</time>
      </trkpt>
      <trkpt lat="44.64059" lon="6.6563">
        <ele>1161.41</ele>
        <time>2011-06-12T08:09:22Z</time>
      </trkpt>
      <trkpt lat="44.64061" lon="6.65636">
        <ele>1158.53</ele>
        <time>2011-06-12T08:09:26Z</time>
      </trkpt>
      <trkpt lat="44.64063" lon="6.65648">
        <ele>1155.16</ele>
        <time>2011-06-12T08:09:29Z</time>
      </trkpt>
      <trkpt lat="44.64084" lon="6.65675">
        <ele>1158.53</ele>
        <time>2011-06-12T08:09:40Z</time>
      </trkpt>
      <trkpt lat="44.64085" lon="6.65678">
        <ele>1158.53</ele>
        <time>2011-06-12T08:09:41Z</time>
      </trkpt>
      <trkpt lat="44.641" lon="6.65659">
        <ele>1161.89</ele>
        <time>2011-06-12T08:09:52Z</time>
      </trkpt>
      <trkpt lat="44.64094" lon="6.6565">
        <ele>1165.26</ele>
        <time>2011-06-12T08:10:02Z</time>
      </trkpt>
      <trkpt lat="44.64093" lon="6.65658">
        <ele>1166.22</ele>
        <time>2011-06-12T08:10:07Z</time>
      </trkpt>
      <trkpt lat="44.64086" lon="6.65686">
        <ele>1168.62</ele>
        <time>2011-06-12T08:10:23Z</time>
      </trkpt>
      <trkpt lat="44.64085" lon="6.6569">
        <ele>1169.1</ele>
        <time>2011-06-12T08:10:25Z</time>
      </trkpt>
      <trkpt lat="44.64072" lon="6.6571">
        <ele>1171.98</ele>
        <time>2011-06-12T08:10:38Z</time>
      </trkpt>
      <trkpt lat="44.64064" lon="6.65725">
        <ele>1175.35</ele>
        <time>2011-06-12T08:10:51Z</time>
      </trkpt>
      <trkpt lat="44.64064" lon="6.65735">
        <ele>1175.83</ele>
        <time>2011-06-12T08:10:58Z</time>
      </trkpt>
      <trkpt lat="44.64066" lon="6.65753">
        <ele>1173.91</ele>
        <time>2011-06-12T08:11:04Z</time>
      </trkpt>
      <trkpt lat="44.64065" lon="6.6576">
        <ele>1173.43</ele>
        <time>2011-06-12T08:11:06Z</time>
      </trkpt>
      <trkpt lat="44.64068" lon="6.65768">
        <ele>1171.98</ele>
        <time>2011-06-12T08:11:08Z</time>
      </trkpt>
      <trkpt lat="44.64074" lon="6.65783">
        <ele>1169.1</ele>
        <time>2011-06-12T08:11:13Z</time>
      </trkpt>
      <trkpt lat="44.64078" lon="6.65795">
        <ele>1165.74</ele>
        <time>2011-06-12T08:11:17Z</time>
      </trkpt>
      <trkpt lat="44.64084" lon="6.65808">
        <ele>1162.37</ele>
        <time>2011-06-12T08:11:21Z</time>
      </trkpt>
      <trkpt lat="44.64091" lon="6.65811">
        <ele>1159.97</ele>
        <time>2011-06-12T08:11:24Z</time>
      </trkpt>
      <trkpt lat="44.641" lon="6.65808">
        <ele>1158.53</ele>
        <time>2011-06-12T08:11:27Z</time>
      </trkpt>
      <trkpt lat="44.64109" lon="6.65818">
        <ele>1154.2</ele>
        <time>2011-06-12T08:11:31Z</time>
      </trkpt>
      <trkpt lat="44.64116" lon="6.65827">
        <ele>1150.84</ele>
        <time>2011-06-12T08:11:35Z</time>
      </trkpt>
      <trkpt lat="44.64122" lon="6.65829">
        <ele>1148.91</ele>
        <time>2011-06-12T08:11:38Z</time>
      </trkpt>
      <trkpt lat="44.64124" lon="6.65826">
        <ele>1149.39</ele>
        <time>2011-06-12T08:11:41Z</time>
      </trkpt>
      <trkpt lat="44.64129" lon="6.65815">
        <ele>1150.84</ele>
        <time>2011-06-12T08:11:46Z</time>
      </trkpt>
      <trkpt lat="44.64134" lon="6.65807">
        <ele>1151.8</ele>
        <time>2011-06-12T08:11:53Z</time>
      </trkpt>
      <trkpt lat="44.64136" lon="6.65807">
        <ele>1152.76</ele>
        <time>2011-06-12T08:11:55Z</time>
      </trkpt>
      <trkpt lat="44.6414" lon="6.65811">
        <ele>1155.64</ele>
        <time>2011-06-12T08:12:04Z</time>
      </trkpt>
      <trkpt lat="44.64137" lon="6.65813">
        <ele>1156.6</ele>
        <time>2011-06-12T08:12:06Z</time>
      </trkpt>
      <trkpt lat="44.64135" lon="6.65816">
        <ele>1158.05</ele>
        <time>2011-06-12T08:12:11Z</time>
      </trkpt>
      <trkpt lat="44.64145" lon="6.65819">
        <ele>1158.53</ele>
        <time>2011-06-12T08:12:24Z</time>
      </trkpt>
      <trkpt lat="44.64161" lon="6.6581">
        <ele>1161.89</ele>
        <time>2011-06-12T08:12:35Z</time>
      </trkpt>
      <trkpt lat="44.64162" lon="6.65809">
        <ele>1161.89</ele>
        <time>2011-06-12T08:12:36Z</time>
      </trkpt>
      <trkpt lat="44.64182" lon="6.65795">
        <ele>1165.26</ele>
        <time>2011-06-12T08:12:49Z</time>
      </trkpt>
      <trkpt lat="44.64197" lon="6.6579">
        <ele>1168.62</ele>
        <time>2011-06-12T08:13:01Z</time>
      </trkpt>
      <trkpt lat="44.64205" lon="6.65779">
        <ele>1170.06</ele>
        <time>2011-06-12T08:13:08Z</time>
      </trkpt>
      <trkpt lat="44.64208" lon="6.65782">
        <ele>1172.47</ele>
        <time>2011-06-12T08:13:18Z</time>
      </trkpt>
      <trkpt lat="44.6421" lon="6.65799">
        <ele>1175.83</ele>
        <time>2011-06-12T08:13:32Z</time>
      </trkpt>
      <trkpt lat="44.64215" lon="6.65792">
        <ele>1178.71</ele>
        <time>2011-06-12T08:13:45Z</time>
      </trkpt>
      <trkpt lat="44.64216" lon="6.65791">
        <ele>1179.19</ele>
        <time>2011-06-12T08:13:47Z</time>
      </trkpt>
      <trkpt lat="44.64218" lon="6.65783">
        <ele>1180.16</ele>
        <time>2011-06-12T08:13:51Z</time>
      </trkpt>
      <trkpt lat="44.64219" lon="6.65777">
        <ele>1180.16</ele>
        <time>2011-06-12T08:13:56Z</time>
      </trkpt>
      <trkpt lat="44.64208" lon="6.65755">
        <ele>1177.27</ele>
        <time>2011-06-12T08:14:05Z</time>
      </trkpt>
      <trkpt lat="44.64199" lon="6.65724">
        <ele>1174.87</ele>
        <time>2011-06-12T08:14:10Z</time>
      </trkpt>
      <trkpt lat="44.64199" lon="6.6569">
        <ele>1171.5</ele>
        <time>2011-06-12T08:14:16Z</time>
      </trkpt>
      <trkpt lat="44.64208" lon="6.65668">
        <ele>1167.66</ele>
        <time>2011-06-12T08:14:20Z</time>
      </trkpt>
      <trkpt lat="44.64214" lon="6.65654">
        <ele>1166.7</ele>
        <time>2011-06-12T08:14:22Z</time>
      </trkpt>
      <trkpt lat="44.6423" lon="6.65603">
        <ele>1163.81</ele>
        <time>2011-06-12T08:14:33Z</time>
      </trkpt>
      <trkpt lat="44.64228" lon="6.65591">
        <ele>1163.81</ele>
        <time>2011-06-12T08:14:35Z</time>
      </trkpt>
      <trkpt lat="44.64218" lon="6.65564">
        <ele>1160.45</ele>
        <time>2011-06-12T08:14:39Z</time>
      </trkpt>
      <trkpt lat="44.64222" lon="6.6553">
        <ele>1156.12</ele>
        <time>2011-06-12T08:14:44Z</time>
      </trkpt>
      <trkpt lat="44.64229" lon="6.65504">
        <ele>1151.8</ele>
        <time>2011-06-12T08:14:48Z</time>
      </trkpt>
      <trkpt lat="44.64236" lon="6.6548">
        <ele>1147.47</ele>
        <time>2011-06-12T08:14:51Z</time>
      </trkpt>
      <trkpt lat="44.64237" lon="6.65473">
        <ele>1147.47</ele>
        <time>2011-06-12T08:14:52Z</time>
      </trkpt>
      <trkpt lat="44.64238" lon="6.65467">
        <ele>1146.03</ele>
        <time>2011-06-12T08:14:53Z</time>
      </trkpt>
      <trkpt lat="44.64255" lon="6.6544">
        <ele>1142.18</ele>
        <time>2011-06-12T08:14:57Z</time>
      </trkpt>
      <trkpt lat="44.64262" lon="6.65432">
        <ele>1141.7</ele>
        <time>2011-06-12T08:14:58Z</time>
      </trkpt>
      <trkpt lat="44.64277" lon="6.65416">
        <ele>1137.86</ele>
        <time>2011-06-12T08:15:01Z</time>
      </trkpt>
      <trkpt lat="44.64292" lon="6.65413">
        <ele>1134.49</ele>
        <time>2011-06-12T08:15:03Z</time>
      </trkpt>
      <trkpt lat="44.64296" lon="6.6541">
        <ele>1133.53</ele>
        <time>2011-06-12T08:15:04Z</time>
      </trkpt>
      <trkpt lat="44.64307" lon="6.65405">
        <ele>1130.17</ele>
        <time>2011-06-12T08:15:08Z</time>
      </trkpt>
      <trkpt lat="44.64313" lon="6.65399">
        <ele>1126.32</ele>
        <time>2011-06-12T08:15:12Z</time>
      </trkpt>
      <trkpt lat="44.64316" lon="6.65398">
        <ele>1124.88</ele>
        <time>2011-06-12T08:15:13Z</time>
      </trkpt>
      <trkpt lat="44.64322" lon="6.65398">
        <ele>1123.44</ele>
        <time>2011-06-12T08:15:14Z</time>
      </trkpt>
      <trkpt lat="44.6434" lon="6.65395">
        <ele>1120.07</ele>
        <time>2011-06-12T08:15:19Z</time>
      </trkpt>
      <trkpt lat="44.64344" lon="6.65394">
        <ele>1120.07</ele>
        <time>2011-06-12T08:15:20Z</time>
      </trkpt>
      <trkpt lat="44.64394" lon="6.65341">
        <ele>1118.63</ele>
        <time>2011-06-12T08:15:33Z</time>
      </trkpt>
      <trkpt lat="44.64427" lon="6.65296">
        <ele>1120.07</ele>
        <time>2011-06-12T08:15:48Z</time>
      </trkpt>
      <trkpt lat="44.64439" lon="6.65301">
        <ele>1116.23</ele>
        <time>2011-06-12T08:15:52Z</time>
      </trkpt>
      <trkpt lat="44.64446" lon="6.65308">
        <ele>1116.23</ele>
        <time>2011-06-12T08:15:53Z</time>
      </trkpt>
      <trkpt lat="44.64465" lon="6.65314">
        <ele>1113.34</ele>
        <time>2011-06-12T08:15:58Z</time>
      </trkpt>
      <trkpt lat="44.64505" lon="6.6528">
        <ele>1109.98</ele>
        <time>2011-06-12T08:16:09Z</time>
      </trkpt>
      <trkpt lat="44.64515" lon="6.65279">
        <ele>1107.1</ele>
        <time>2011-06-12T08:16:11Z</time>
      </trkpt>
      <trkpt lat="44.64562" lon="6.6523">
        <ele>1104.21</ele>
        <time>2011-06-12T08:16:20Z</time>
      </trkpt>
      <trkpt lat="44.64594" lon="6.65221">
        <ele>1106.13</ele>
        <time>2011-06-12T08:16:27Z</time>
      </trkpt>
      <trkpt lat="44.64616" lon="6.65217">
        <ele>1106.13</ele>
        <time>2011-06-12T08:16:32Z</time>
      </trkpt>
      <trkpt lat="44.6462" lon="6.65218">
        <ele>1106.13</ele>
        <time>2011-06-12T08:16:33Z</time>
      </trkpt>
      <trkpt lat="44.64645" lon="6.6523">
        <ele>1104.69</ele>
        <time>2011-06-12T08:16:38Z</time>
      </trkpt>
      <trkpt lat="44.64674" lon="6.6523">
        <ele>1101.81</ele>
        <time>2011-06-12T08:16:43Z</time>
      </trkpt>
      <trkpt lat="44.64686" lon="6.65233">
        <ele>1099.89</ele>
        <time>2011-06-12T08:16:45Z</time>
      </trkpt>
      <trkpt lat="44.64698" lon="6.65232">
        <ele>1097.96</ele>
        <time>2011-06-12T08:16:47Z</time>
      </trkpt>
      <trkpt lat="44.64709" lon="6.65229">
        <ele>1096.52</ele>
        <time>2011-06-12T08:16:49Z</time>
      </trkpt>
      <trkpt lat="44.6473" lon="6.65223">
        <ele>1093.64</ele>
        <time>2011-06-12T08:16:53Z</time>
      </trkpt>
      <trkpt lat="44.64736" lon="6.6522">
        <ele>1092.68</ele>
        <time>2011-06-12T08:16:54Z</time>
      </trkpt>
      <trkpt lat="44.64752" lon="6.65209">
        <ele>1092.2</ele>
        <time>2011-06-12T08:16:57Z</time>
      </trkpt>
      <trkpt lat="44.64757" lon="6.65205">
        <ele>1091.23</ele>
        <time>2011-06-12T08:16:58Z</time>
      </trkpt>
      <trkpt lat="44.64761" lon="6.65201">
        <ele>1090.75</ele>
        <time>2011-06-12T08:16:59Z</time>
      </trkpt>
      <trkpt lat="44.64766" lon="6.65196">
        <ele>1090.75</ele>
        <time>2011-06-12T08:17:00Z</time>
      </trkpt>
      <trkpt lat="44.6477" lon="6.65191">
        <ele>1090.27</ele>
        <time>2011-06-12T08:17:01Z</time>
      </trkpt>
      <trkpt lat="44.64772" lon="6.65188">
        <ele>1089.79</ele>
        <time>2011-06-12T08:17:02Z</time>
      </trkpt>
      <trkpt lat="44.64775" lon="6.65187">
        <ele>1089.31</ele>
        <time>2011-06-12T08:17:03Z</time>
      </trkpt>
      <trkpt lat="44.64778" lon="6.65188">
        <ele>1088.35</ele>
        <time>2011-06-12T08:17:04Z</time>
      </trkpt>
      <trkpt lat="44.64785" lon="6.65195">
        <ele>1086.91</ele>
        <time>2011-06-12T08:17:06Z</time>
      </trkpt>
      <trkpt lat="44.64793" lon="6.65203">
        <ele>1084.99</ele>
        <time>2011-06-12T08:17:09Z</time>
      </trkpt>
      <trkpt lat="44.64798" lon="6.65203">
        <ele>1084.02</ele>
        <time>2011-06-12T08:17:11Z</time>
      </trkpt>
      <trkpt lat="44.64814" lon="6.65197">
        <ele>1084.02</ele>
        <time>2011-06-12T08:17:17Z</time>
      </trkpt>
      <trkpt lat="44.6482" lon="6.65197">
        <ele>1083.54</ele>
        <time>2011-06-12T08:17:18Z</time>
      </trkpt>
      <trkpt lat="44.64837" lon="6.65203">
        <ele>1082.58</ele>
        <time>2011-06-12T08:17:22Z</time>
      </trkpt>
      <trkpt lat="44.64844" lon="6.65205">
        <ele>1082.58</ele>
        <time>2011-06-12T08:17:24Z</time>
      </trkpt>
      <trkpt lat="44.64847" lon="6.65204">
        <ele>1082.58</ele>
        <time>2011-06-12T08:17:25Z</time>
      </trkpt>
      <trkpt lat="44.6485" lon="6.65203">
        <ele>1082.58</ele>
        <time>2011-06-12T08:17:26Z</time>
      </trkpt>
      <trkpt lat="44.6488" lon="6.652">
        <ele>1085.47</ele>
        <time>2011-06-12T08:17:36Z</time>
      </trkpt>
      <trkpt lat="44.64892" lon="6.65194">
        <ele>1087.39</ele>
        <time>2011-06-12T08:17:41Z</time>
      </trkpt>
      <trkpt lat="44.64919" lon="6.65187">
        <ele>1090.75</ele>
        <time>2011-06-12T08:17:52Z</time>
      </trkpt>
      <trkpt lat="44.64931" lon="6.65176">
        <ele>1092.2</ele>
        <time>2011-06-12T08:17:58Z</time>
      </trkpt>
      <trkpt lat="44.64934" lon="6.65176">
        <ele>1092.68</ele>
        <time>2011-06-12T08:17:59Z</time>
      </trkpt>
      <trkpt lat="44.64936" lon="6.65176">
        <ele>1092.68</ele>
        <time>2011-06-12T08:18:00Z</time>
      </trkpt>
      <trkpt lat="44.64939" lon="6.65176">
        <ele>1092.68</ele>
        <time>2011-06-12T08:18:01Z</time>
      </trkpt>
      <trkpt lat="44.64941" lon="6.65175">
        <ele>1093.16</ele>
        <time>2011-06-12T08:18:02Z</time>
      </trkpt>
      <trkpt lat="44.64965" lon="6.65165">
        <ele>1096.04</ele>
        <time>2011-06-12T08:18:13Z</time>
      </trkpt>
      <trkpt lat="44.64978" lon="6.65158">
        <ele>1097</ele>
        <time>2011-06-12T08:18:20Z</time>
      </trkpt>
      <trkpt lat="44.64978" lon="6.65155">
        <ele>1097</ele>
        <time>2011-06-12T08:18:21Z</time>
      </trkpt>
      <trkpt lat="44.64978" lon="6.65153">
        <ele>1097.48</ele>
        <time>2011-06-12T08:18:22Z</time>
      </trkpt>
      <trkpt lat="44.64978" lon="6.6515">
        <ele>1097.48</ele>
        <time>2011-06-12T08:18:23Z</time>
      </trkpt>
      <trkpt lat="44.64979" lon="6.65147">
        <ele>1097.48</ele>
        <time>2011-06-12T08:18:24Z</time>
      </trkpt>
      <trkpt lat="44.64979" lon="6.65144">
        <ele>1097.96</ele>
        <time>2011-06-12T08:18:25Z</time>
      </trkpt>
      <trkpt lat="44.6498" lon="6.65141">
        <ele>1098.44</ele>
        <time>2011-06-12T08:18:26Z</time>
      </trkpt>
      <trkpt lat="44.64979" lon="6.65138">
        <ele>1098.44</ele>
        <time>2011-06-12T08:18:27Z</time>
      </trkpt>
      <trkpt lat="44.64979" lon="6.65135">
        <ele>1098.92</ele>
        <time>2011-06-12T08:18:28Z</time>
      </trkpt>
      <trkpt lat="44.64978" lon="6.6513">
        <ele>1099.4</ele>
        <time>2011-06-12T08:18:30Z</time>
      </trkpt>
      <trkpt lat="44.64981" lon="6.65121">
        <ele>1099.89</ele>
        <time>2011-06-12T08:18:33Z</time>
      </trkpt>
      <trkpt lat="44.64983" lon="6.65119">
        <ele>1100.37</ele>
        <time>2011-06-12T08:18:34Z</time>
      </trkpt>
      <trkpt lat="44.65004" lon="6.65093">
        <ele>1102.77</ele>
        <time>2011-06-12T08:18:47Z</time>
      </trkpt>
      <trkpt lat="44.65005" lon="6.6509">
        <ele>1103.25</ele>
        <time>2011-06-12T08:18:48Z</time>
      </trkpt>
      <trkpt lat="44.65005" lon="6.65088">
        <ele>1103.25</ele>
        <time>2011-06-12T08:18:49Z</time>
      </trkpt>
      <trkpt lat="44.65005" lon="6.65085">
        <ele>1103.73</ele>
        <time>2011-06-12T08:18:50Z</time>
      </trkpt>
      <trkpt lat="44.65005" lon="6.65082">
        <ele>1103.73</ele>
        <time>2011-06-12T08:18:51Z</time>
      </trkpt>
      <trkpt lat="44.65004" lon="6.65079">
        <ele>1103.73</ele>
        <time>2011-06-12T08:18:52Z</time>
      </trkpt>
      <trkpt lat="44.65004" lon="6.65075">
        <ele>1104.21</ele>
        <time>2011-06-12T08:18:53Z</time>
      </trkpt>
      <trkpt lat="44.65004" lon="6.65071">
        <ele>1104.21</ele>
        <time>2011-06-12T08:18:54Z</time>
      </trkpt>
      <trkpt lat="44.65007" lon="6.65051">
        <ele>1106.13</ele>
        <time>2011-06-12T08:19:02Z</time>
      </trkpt>
      <trkpt lat="44.6503" lon="6.65033">
        <ele>1109.02</ele>
        <time>2011-06-12T08:19:16Z</time>
      </trkpt>
      <trkpt lat="44.6505" lon="6.64992">
        <ele>1110.94</ele>
        <time>2011-06-12T08:19:29Z</time>
      </trkpt>
      <trkpt lat="44.65071" lon="6.64985">
        <ele>1108.54</ele>
        <time>2011-06-12T08:19:35Z</time>
      </trkpt>
      <trkpt lat="44.65081" lon="6.64988">
        <ele>1108.54</ele>
        <time>2011-06-12T08:19:37Z</time>
      </trkpt>
      <trkpt lat="44.65087" lon="6.6499">
        <ele>1107.58</ele>
        <time>2011-06-12T08:19:38Z</time>
      </trkpt>
      <trkpt lat="44.65098" lon="6.64989">
        <ele>1107.1</ele>
        <time>2011-06-12T08:19:40Z</time>
      </trkpt>
      <trkpt lat="44.65103" lon="6.64991">
        <ele>1107.1</ele>
        <time>2011-06-12T08:19:41Z</time>
      </trkpt>
      <trkpt lat="44.65115" lon="6.64995">
        <ele>1106.61</ele>
        <time>2011-06-12T08:19:43Z</time>
      </trkpt>
      <trkpt lat="44.65121" lon="6.64997">
        <ele>1106.13</ele>
        <time>2011-06-12T08:19:44Z</time>
      </trkpt>
      <trkpt lat="44.65126" lon="6.64997">
        <ele>1105.65</ele>
        <time>2011-06-12T08:19:45Z</time>
      </trkpt>
      <trkpt lat="44.65132" lon="6.64996">
        <ele>1105.17</ele>
        <time>2011-06-12T08:19:46Z</time>
      </trkpt>
      <trkpt lat="44.65145" lon="6.64993">
        <ele>1104.21</ele>
        <time>2011-06-12T08:19:48Z</time>
      </trkpt>
      <trkpt lat="44.65151" lon="6.64989">
        <ele>1103.73</ele>
        <time>2011-06-12T08:19:49Z</time>
      </trkpt>
      <trkpt lat="44.65162" lon="6.64983">
        <ele>1103.25</ele>
        <time>2011-06-12T08:19:51Z</time>
      </trkpt>
      <trkpt lat="44.65167" lon="6.64981">
        <ele>1102.77</ele>
        <time>2011-06-12T08:19:52Z</time>
      </trkpt>
      <trkpt lat="44.65172" lon="6.64981">
        <ele>1102.77</ele>
        <time>2011-06-12T08:19:53Z</time>
      </trkpt>
      <trkpt lat="44.65177" lon="6.64982">
        <ele>1102.29</ele>
        <time>2011-06-12T08:19:54Z</time>
      </trkpt>
      <trkpt lat="44.65181" lon="6.64983">
        <ele>1101.33</ele>
        <time>2011-06-12T08:19:55Z</time>
      </trkpt>
      <trkpt lat="44.65187" lon="6.64983">
        <ele>1101.33</ele>
        <time>2011-06-12T08:19:56Z</time>
      </trkpt>
      <trkpt lat="44.65192" lon="6.64981">
        <ele>1101.33</ele>
        <time>2011-06-12T08:19:57Z</time>
      </trkpt>
      <trkpt lat="44.65198" lon="6.64978">
        <ele>1100.85</ele>
        <time>2011-06-12T08:19:58Z</time>
      </trkpt>
      <trkpt lat="44.6521" lon="6.64972">
        <ele>1099.89</ele>
        <time>2011-06-12T08:20:00Z</time>
      </trkpt>
      <trkpt lat="44.65234" lon="6.64954">
        <ele>1097.96</ele>
        <time>2011-06-12T08:20:07Z</time>
      </trkpt>
      <trkpt lat="44.65239" lon="6.64954">
        <ele>1097.96</ele>
        <time>2011-06-12T08:20:08Z</time>
      </trkpt>
      <trkpt lat="44.65244" lon="6.64954">
        <ele>1097.48</ele>
        <time>2011-06-12T08:20:09Z</time>
      </trkpt>
      <trkpt lat="44.65248" lon="6.64952">
        <ele>1097.48</ele>
        <time>2011-06-12T08:20:10Z</time>
      </trkpt>
      <trkpt lat="44.65252" lon="6.64947">
        <ele>1097.48</ele>
        <time>2011-06-12T08:20:11Z</time>
      </trkpt>
      <trkpt lat="44.65255" lon="6.64944">
        <ele>1096.52</ele>
        <time>2011-06-12T08:20:12Z</time>
      </trkpt>
      <trkpt lat="44.65259" lon="6.64942">
        <ele>1096.04</ele>
        <time>2011-06-12T08:20:13Z</time>
      </trkpt>
      <trkpt lat="44.65263" lon="6.64941">
        <ele>1096.52</ele>
        <time>2011-06-12T08:20:14Z</time>
      </trkpt>
      <trkpt lat="44.65268" lon="6.64941">
        <ele>1096.04</ele>
        <time>2011-06-12T08:20:15Z</time>
      </trkpt>
      <trkpt lat="44.65273" lon="6.64941">
        <ele>1096.04</ele>
        <time>2011-06-12T08:20:16Z</time>
      </trkpt>
      <trkpt lat="44.65279" lon="6.64939">
        <ele>1095.56</ele>
        <time>2011-06-12T08:20:17Z</time>
      </trkpt>
      <trkpt lat="44.65284" lon="6.64936">
        <ele>1094.6</ele>
        <time>2011-06-12T08:20:18Z</time>
      </trkpt>
      <trkpt lat="44.6529" lon="6.64933">
        <ele>1094.6</ele>
        <time>2011-06-12T08:20:19Z</time>
      </trkpt>
      <trkpt lat="44.65295" lon="6.64931">
        <ele>1094.12</ele>
        <time>2011-06-12T08:20:20Z</time>
      </trkpt>
      <trkpt lat="44.653" lon="6.64931">
        <ele>1093.64</ele>
        <time>2011-06-12T08:20:21Z</time>
      </trkpt>
      <trkpt lat="44.65305" lon="6.64931">
        <ele>1093.16</ele>
        <time>2011-06-12T08:20:22Z</time>
      </trkpt>
      <trkpt lat="44.65311" lon="6.64933">
        <ele>1093.16</ele>
        <time>2011-06-12T08:20:23Z</time>
      </trkpt>
      <trkpt lat="44.65317" lon="6.64935">
        <ele>1092.68</ele>
        <time>2011-06-12T08:20:24Z</time>
      </trkpt>
      <trkpt lat="44.65323" lon="6.64938">
        <ele>1092.68</ele>
        <time>2011-06-12T08:20:25Z</time>
      </trkpt>
      <trkpt lat="44.65329" lon="6.64939">
        <ele>1092.2</ele>
        <time>2011-06-12T08:20:26Z</time>
      </trkpt>
      <trkpt lat="44.65335" lon="6.64938">
        <ele>1092.2</ele>
        <time>2011-06-12T08:20:27Z</time>
      </trkpt>
      <trkpt lat="44.6534" lon="6.64936">
        <ele>1091.71</ele>
        <time>2011-06-12T08:20:28Z</time>
      </trkpt>
      <trkpt lat="44.65344" lon="6.64935">
        <ele>1091.23</ele>
        <time>2011-06-12T08:20:29Z</time>
      </trkpt>
      <trkpt lat="44.65348" lon="6.64934">
        <ele>1090.27</ele>
        <time>2011-06-12T08:20:30Z</time>
      </trkpt>
      <trkpt lat="44.65353" lon="6.64932">
        <ele>1088.83</ele>
        <time>2011-06-12T08:20:31Z</time>
      </trkpt>
      <trkpt lat="44.65357" lon="6.64931">
        <ele>1087.39</ele>
        <time>2011-06-12T08:20:32Z</time>
      </trkpt>
      <trkpt lat="44.65362" lon="6.64931">
        <ele>1086.43</ele>
        <time>2011-06-12T08:20:33Z</time>
      </trkpt>
      <trkpt lat="44.6537" lon="6.64933">
        <ele>1083.06</ele>
        <time>2011-06-12T08:20:35Z</time>
      </trkpt>
      <trkpt lat="44.65373" lon="6.64932">
        <ele>1080.66</ele>
        <time>2011-06-12T08:20:38Z</time>
      </trkpt>
      <trkpt lat="44.65374" lon="6.6493">
        <ele>1079.7</ele>
        <time>2011-06-12T08:20:39Z</time>
      </trkpt>
      <trkpt lat="44.65374" lon="6.64927">
        <ele>1078.74</ele>
        <time>2011-06-12T08:20:40Z</time>
      </trkpt>
      <trkpt lat="44.65374" lon="6.64923">
        <ele>1076.81</ele>
        <time>2011-06-12T08:20:41Z</time>
      </trkpt>
      <trkpt lat="44.65374" lon="6.64919">
        <ele>1074.41</ele>
        <time>2011-06-12T08:20:44Z</time>
      </trkpt>
      <trkpt lat="44.65374" lon="6.64918">
        <ele>1074.41</ele>
        <time>2011-06-12T08:20:45Z</time>
      </trkpt>
      <trkpt lat="44.65375" lon="6.64917">
        <ele>1073.45</ele>
        <time>2011-06-12T08:20:47Z</time>
      </trkpt>
      <trkpt lat="44.65386" lon="6.64912">
        <ele>1070.57</ele>
        <time>2011-06-12T08:20:51Z</time>
      </trkpt>
      <trkpt lat="44.65396" lon="6.64909">
        <ele>1069.6</ele>
        <time>2011-06-12T08:20:54Z</time>
      </trkpt>
      <trkpt lat="44.65399" lon="6.6491">
        <ele>1069.6</ele>
        <time>2011-06-12T08:20:55Z</time>
      </trkpt>
      <trkpt lat="44.65403" lon="6.64913">
        <ele>1070.08</ele>
        <time>2011-06-12T08:20:56Z</time>
      </trkpt>
      <trkpt lat="44.65407" lon="6.64918">
        <ele>1069.6</ele>
        <time>2011-06-12T08:20:57Z</time>
      </trkpt>
      <trkpt lat="44.65411" lon="6.64923">
        <ele>1069.6</ele>
        <time>2011-06-12T08:20:58Z</time>
      </trkpt>
      <trkpt lat="44.65414" lon="6.64928">
        <ele>1070.08</ele>
        <time>2011-06-12T08:20:59Z</time>
      </trkpt>
      <trkpt lat="44.65422" lon="6.64939">
        <ele>1069.6</ele>
        <time>2011-06-12T08:21:01Z</time>
      </trkpt>
      <trkpt lat="44.65432" lon="6.64948">
        <ele>1070.08</ele>
        <time>2011-06-12T08:21:03Z</time>
      </trkpt>
      <trkpt lat="44.65438" lon="6.64951">
        <ele>1070.08</ele>
        <time>2011-06-12T08:21:04Z</time>
      </trkpt>
      <trkpt lat="44.65443" lon="6.64953">
        <ele>1070.57</ele>
        <time>2011-06-12T08:21:05Z</time>
      </trkpt>
      <trkpt lat="44.65448" lon="6.64954">
        <ele>1071.05</ele>
        <time>2011-06-12T08:21:06Z</time>
      </trkpt>
      <trkpt lat="44.65453" lon="6.64955">
        <ele>1071.53</ele>
        <time>2011-06-12T08:21:07Z</time>
      </trkpt>
      <trkpt lat="44.65459" lon="6.64957">
        <ele>1072.01</ele>
        <time>2011-06-12T08:21:08Z</time>
      </trkpt>
      <trkpt lat="44.65472" lon="6.64958">
        <ele>1072.49</ele>
        <time>2011-06-12T08:21:11Z</time>
      </trkpt>
      <trkpt lat="44.65476" lon="6.64955">
        <ele>1072.01</ele>
        <time>2011-06-12T08:21:12Z</time>
      </trkpt>
      <trkpt lat="44.65482" lon="6.64946">
        <ele>1069.12</ele>
        <time>2011-06-12T08:21:14Z</time>
      </trkpt>
      <trkpt lat="44.65486" lon="6.6494">
        <ele>1066.72</ele>
        <time>2011-06-12T08:21:15Z</time>
      </trkpt>
      <trkpt lat="44.6549" lon="6.64934">
        <ele>1064.32</ele>
        <time>2011-06-12T08:21:16Z</time>
      </trkpt>
      <trkpt lat="44.655" lon="6.64919">
        <ele>1060.47</ele>
        <time>2011-06-12T08:21:18Z</time>
      </trkpt>
      <trkpt lat="44.65509" lon="6.64904">
        <ele>1058.07</ele>
        <time>2011-06-12T08:21:20Z</time>
      </trkpt>
      <trkpt lat="44.65517" lon="6.64887">
        <ele>1054.7</ele>
        <time>2011-06-12T08:21:22Z</time>
      </trkpt>
      <trkpt lat="44.65525" lon="6.64869">
        <ele>1050.86</ele>
        <time>2011-06-12T08:21:24Z</time>
      </trkpt>
      <trkpt lat="44.65538" lon="6.64844">
        <ele>1047.01</ele>
        <time>2011-06-12T08:21:27Z</time>
      </trkpt>
      <trkpt lat="44.65552" lon="6.6482">
        <ele>1043.65</ele>
        <time>2011-06-12T08:21:30Z</time>
      </trkpt>
      <trkpt lat="44.65563" lon="6.64803">
        <ele>1042.69</ele>
        <time>2011-06-12T08:21:32Z</time>
      </trkpt>
      <trkpt lat="44.65575" lon="6.64786">
        <ele>1041.25</ele>
        <time>2011-06-12T08:21:34Z</time>
      </trkpt>
      <trkpt lat="44.65581" lon="6.6478">
        <ele>1040.28</ele>
        <time>2011-06-12T08:21:35Z</time>
      </trkpt>
      <trkpt lat="44.65588" lon="6.64777">
        <ele>1039.8</ele>
        <time>2011-06-12T08:21:36Z</time>
      </trkpt>
      <trkpt lat="44.65595" lon="6.64776">
        <ele>1039.32</ele>
        <time>2011-06-12T08:21:37Z</time>
      </trkpt>
      <trkpt lat="44.65603" lon="6.64776">
        <ele>1039.32</ele>
        <time>2011-06-12T08:21:38Z</time>
      </trkpt>
      <trkpt lat="44.65611" lon="6.64776">
        <ele>1038.84</ele>
        <time>2011-06-12T08:21:39Z</time>
      </trkpt>
      <trkpt lat="44.65637" lon="6.64774">
        <ele>1038.84</ele>
        <time>2011-06-12T08:21:43Z</time>
      </trkpt>
      <trkpt lat="44.6566" lon="6.64768">
        <ele>1035</ele>
        <time>2011-06-12T08:21:46Z</time>
      </trkpt>
      <trkpt lat="44.65675" lon="6.64763">
        <ele>1032.59</ele>
        <time>2011-06-12T08:21:48Z</time>
      </trkpt>
      <trkpt lat="44.65682" lon="6.64758">
        <ele>1031.63</ele>
        <time>2011-06-12T08:21:49Z</time>
      </trkpt>
      <trkpt lat="44.65693" lon="6.64749">
        <ele>1030.19</ele>
        <time>2011-06-12T08:21:51Z</time>
      </trkpt>
      <trkpt lat="44.65695" lon="6.64745">
        <ele>1030.19</ele>
        <time>2011-06-12T08:21:52Z</time>
      </trkpt>
      <trkpt lat="44.65695" lon="6.64742">
        <ele>1029.71</ele>
        <time>2011-06-12T08:21:53Z</time>
      </trkpt>
      <trkpt lat="44.65694" lon="6.64733">
        <ele>1027.31</ele>
        <time>2011-06-12T08:21:56Z</time>
      </trkpt>
      <trkpt lat="44.65696" lon="6.64727">
        <ele>1026.34</ele>
        <time>2011-06-12T08:21:58Z</time>
      </trkpt>
      <trkpt lat="44.65705" lon="6.64714">
        <ele>1022.5</ele>
        <time>2011-06-12T08:22:02Z</time>
      </trkpt>
      <trkpt lat="44.65708" lon="6.6471">
        <ele>1022.02</ele>
        <time>2011-06-12T08:22:04Z</time>
      </trkpt>
      <trkpt lat="44.65718" lon="6.64702">
        <ele>1018.65</ele>
        <time>2011-06-12T08:22:09Z</time>
      </trkpt>
      <trkpt lat="44.65724" lon="6.64693">
        <ele>1015.77</ele>
        <time>2011-06-12T08:22:11Z</time>
      </trkpt>
      <trkpt lat="44.65731" lon="6.64679">
        <ele>1014.81</ele>
        <time>2011-06-12T08:22:13Z</time>
      </trkpt>
      <trkpt lat="44.65745" lon="6.64659">
        <ele>1011.44</ele>
        <time>2011-06-12T08:22:17Z</time>
      </trkpt>
      <trkpt lat="44.65752" lon="6.64641">
        <ele>1008.08</ele>
        <time>2011-06-12T08:22:20Z</time>
      </trkpt>
      <trkpt lat="44.65753" lon="6.64632">
        <ele>1006.16</ele>
        <time>2011-06-12T08:22:22Z</time>
      </trkpt>
      <trkpt lat="44.65752" lon="6.64629">
        <ele>1005.68</ele>
        <time>2011-06-12T08:22:23Z</time>
      </trkpt>
      <trkpt lat="44.65751" lon="6.64626">
        <ele>1004.23</ele>
        <time>2011-06-12T08:22:24Z</time>
      </trkpt>
      <trkpt lat="44.6575" lon="6.64623">
        <ele>1003.75</ele>
        <time>2011-06-12T08:22:25Z</time>
      </trkpt>
      <trkpt lat="44.65747" lon="6.6462">
        <ele>1002.79</ele>
        <time>2011-06-12T08:22:26Z</time>
      </trkpt>
      <trkpt lat="44.6574" lon="6.64611">
        <ele>1002.79</ele>
        <time>2011-06-12T08:22:28Z</time>
      </trkpt>
      <trkpt lat="44.65699" lon="6.64607">
        <ele>1002.31</ele>
        <time>2011-06-12T08:22:37Z</time>
      </trkpt>
      <trkpt lat="44.65695" lon="6.64608">
        <ele>1002.31</ele>
        <time>2011-06-12T08:22:38Z</time>
      </trkpt>
      <trkpt lat="44.6569" lon="6.64607">
        <ele>1001.83</ele>
        <time>2011-06-12T08:22:39Z</time>
      </trkpt>
      <trkpt lat="44.65685" lon="6.64605">
        <ele>1002.31</ele>
        <time>2011-06-12T08:22:40Z</time>
      </trkpt>
      <trkpt lat="44.65675" lon="6.6459">
        <ele>1001.83</ele>
        <time>2011-06-12T08:22:43Z</time>
      </trkpt>
      <trkpt lat="44.65675" lon="6.64584">
        <ele>1001.35</ele>
        <time>2011-06-12T08:22:44Z</time>
      </trkpt>
      <trkpt lat="44.65676" lon="6.64579">
        <ele>1000.87</ele>
        <time>2011-06-12T08:22:45Z</time>
      </trkpt>
      <trkpt lat="44.65679" lon="6.64574">
        <ele>1001.35</ele>
        <time>2011-06-12T08:22:46Z</time>
      </trkpt>
      <trkpt lat="44.65682" lon="6.6457">
        <ele>1000.87</ele>
        <time>2011-06-12T08:22:47Z</time>
      </trkpt>
      <trkpt lat="44.65686" lon="6.64566">
        <ele>1000.39</ele>
        <time>2011-06-12T08:22:48Z</time>
      </trkpt>
      <trkpt lat="44.657" lon="6.64552">
        <ele>998.95</ele>
        <time>2011-06-12T08:22:51Z</time>
      </trkpt>
      <trkpt lat="44.65767" lon="6.645">
        <ele>996.54</ele>
        <time>2011-06-12T08:23:00Z</time>
      </trkpt>
      <trkpt lat="44.65773" lon="6.64498">
        <ele>996.54</ele>
        <time>2011-06-12T08:23:01Z</time>
      </trkpt>
      <trkpt lat="44.65777" lon="6.645">
        <ele>996.54</ele>
        <time>2011-06-12T08:23:02Z</time>
      </trkpt>
      <trkpt lat="44.65782" lon="6.64503">
        <ele>997.02</ele>
        <time>2011-06-12T08:23:03Z</time>
      </trkpt>
      <trkpt lat="44.65785" lon="6.64507">
        <ele>997.02</ele>
        <time>2011-06-12T08:23:04Z</time>
      </trkpt>
      <trkpt lat="44.6579" lon="6.6451">
        <ele>997.51</ele>
        <time>2011-06-12T08:23:05Z</time>
      </trkpt>
      <trkpt lat="44.65794" lon="6.64515">
        <ele>997.51</ele>
        <time>2011-06-12T08:23:06Z</time>
      </trkpt>
      <trkpt lat="44.65799" lon="6.64519">
        <ele>997.99</ele>
        <time>2011-06-12T08:23:07Z</time>
      </trkpt>
      <trkpt lat="44.65843" lon="6.64565">
        <ele>998.95</ele>
        <time>2011-06-12T08:23:16Z</time>
      </trkpt>
      <trkpt lat="44.65846" lon="6.6457">
        <ele>998.95</ele>
        <time>2011-06-12T08:23:17Z</time>
      </trkpt>
      <trkpt lat="44.6585" lon="6.64575">
        <ele>999.43</ele>
        <time>2011-06-12T08:23:18Z</time>
      </trkpt>
      <trkpt lat="44.65853" lon="6.64581">
        <ele>999.43</ele>
        <time>2011-06-12T08:23:19Z</time>
      </trkpt>
      <trkpt lat="44.65856" lon="6.64586">
        <ele>999.91</ele>
        <time>2011-06-12T08:23:20Z</time>
      </trkpt>
      <trkpt lat="44.65858" lon="6.64592">
        <ele>999.91</ele>
        <time>2011-06-12T08:23:21Z</time>
      </trkpt>
      <trkpt lat="44.6586" lon="6.64598">
        <ele>1000.39</ele>
        <time>2011-06-12T08:23:22Z</time>
      </trkpt>
      <trkpt lat="44.65862" lon="6.64603">
        <ele>1000.39</ele>
        <time>2011-06-12T08:23:23Z</time>
      </trkpt>
      <trkpt lat="44.65863" lon="6.64609">
        <ele>1000.87</ele>
        <time>2011-06-12T08:23:24Z</time>
      </trkpt>
      <trkpt lat="44.65865" lon="6.64615">
        <ele>1001.35</ele>
        <time>2011-06-12T08:23:25Z</time>
      </trkpt>
      <trkpt lat="44.65881" lon="6.64671">
        <ele>1004.23</ele>
        <time>2011-06-12T08:23:37Z</time>
      </trkpt>
      <trkpt lat="44.65881" lon="6.6472">
        <ele>1007.6</ele>
        <time>2011-06-12T08:23:48Z</time>
      </trkpt>
      <trkpt lat="44.65874" lon="6.6478">
        <ele>1009.52</ele>
        <time>2011-06-12T08:24:00Z</time>
      </trkpt>
      <trkpt lat="44.65876" lon="6.64793">
        <ele>1010.48</ele>
        <time>2011-06-12T08:24:03Z</time>
      </trkpt>
      <trkpt lat="44.65878" lon="6.64795">
        <ele>1010.48</ele>
        <time>2011-06-12T08:24:04Z</time>
      </trkpt>
      <trkpt lat="44.65881" lon="6.64798">
        <ele>1010.48</ele>
        <time>2011-06-12T08:24:05Z</time>
      </trkpt>
      <trkpt lat="44.65883" lon="6.648">
        <ele>1010.96</ele>
        <time>2011-06-12T08:24:06Z</time>
      </trkpt>
      <trkpt lat="44.65886" lon="6.64801">
        <ele>1011.44</ele>
        <time>2011-06-12T08:24:07Z</time>
      </trkpt>
      <trkpt lat="44.65891" lon="6.64809">
        <ele>1011.44</ele>
        <time>2011-06-12T08:24:10Z</time>
      </trkpt>
      <trkpt lat="44.6589" lon="6.64812">
        <ele>1011.44</ele>
        <time>2011-06-12T08:24:11Z</time>
      </trkpt>
      <trkpt lat="44.65888" lon="6.64818">
        <ele>1010.96</ele>
        <time>2011-06-12T08:24:12Z</time>
      </trkpt>
      <trkpt lat="44.65887" lon="6.64822">
        <ele>1010.96</ele>
        <time>2011-06-12T08:24:13Z</time>
      </trkpt>
      <trkpt lat="44.65886" lon="6.64827">
        <ele>1011.44</ele>
        <time>2011-06-12T08:24:14Z</time>
      </trkpt>
      <trkpt lat="44.65885" lon="6.64832">
        <ele>1011.93</ele>
        <time>2011-06-12T08:24:15Z</time>
      </trkpt>
      <trkpt lat="44.6589" lon="6.64862">
        <ele>1015.29</ele>
        <time>2011-06-12T08:24:22Z</time>
      </trkpt>
      <trkpt lat="44.65892" lon="6.64864">
        <ele>1015.29</ele>
        <time>2011-06-12T08:24:23Z</time>
      </trkpt>
      <trkpt lat="44.65909" lon="6.64881">
        <ele>1017.69</ele>
        <time>2011-06-12T08:24:31Z</time>
      </trkpt>
      <trkpt lat="44.65924" lon="6.64896">
        <ele>1021.06</ele>
        <time>2011-06-12T08:24:41Z</time>
      </trkpt>
      <trkpt lat="44.65941" lon="6.64891">
        <ele>1023.94</ele>
        <time>2011-06-12T08:24:53Z</time>
      </trkpt>
      <trkpt lat="44.65947" lon="6.64902">
        <ele>1028.75</ele>
        <time>2011-06-12T08:25:07Z</time>
      </trkpt>
      <trkpt lat="44.65949" lon="6.64904">
        <ele>1027.31</ele>
        <time>2011-06-12T08:25:09Z</time>
      </trkpt>
      <trkpt lat="44.6595" lon="6.64905">
        <ele>1027.31</ele>
        <time>2011-06-12T08:25:10Z</time>
      </trkpt>
      <trkpt lat="44.65951" lon="6.64907">
        <ele>1027.79</ele>
        <time>2011-06-12T08:25:11Z</time>
      </trkpt>
      <trkpt lat="44.6597" lon="6.64944">
        <ele>1027.79</ele>
        <time>2011-06-12T08:25:26Z</time>
      </trkpt>
      <trkpt lat="44.65999" lon="6.64995">
        <ele>1028.75</ele>
        <time>2011-06-12T08:25:39Z</time>
      </trkpt>
      <trkpt lat="44.66019" lon="6.65043">
        <ele>1032.11</ele>
        <time>2011-06-12T08:25:52Z</time>
      </trkpt>
      <trkpt lat="44.66034" lon="6.65075">
        <ele>1034.52</ele>
        <time>2011-06-12T08:26:03Z</time>
      </trkpt>
      <trkpt lat="44.66068" lon="6.6504">
        <ele>1036.44</ele>
        <time>2011-06-12T08:26:16Z</time>
      </trkpt>
      <trkpt lat="44.66074" lon="6.65029">
        <ele>1036.92</ele>
        <time>2011-06-12T08:26:22Z</time>
      </trkpt>
      <trkpt lat="44.66074" lon="6.65025">
        <ele>1037.4</ele>
        <time>2011-06-12T08:26:33Z</time>
      </trkpt>
      <trkpt lat="44.66073" lon="6.65024">
        <ele>1036.92</ele>
        <time>2011-06-12T08:26:34Z</time>
      </trkpt>
      <trkpt lat="44.66073" lon="6.65022">
        <ele>1036.92</ele>
        <time>2011-06-12T08:26:35Z</time>
      </trkpt>
      <trkpt lat="44.66072" lon="6.6502">
        <ele>1036.92</ele>
        <time>2011-06-12T08:26:49Z</time>
      </trkpt>
      <trkpt lat="44.66072" lon="6.65014">
        <ele>1037.4</ele>
        <time>2011-06-12T08:27:42Z</time>
      </trkpt>
      <trkpt lat="44.66074" lon="6.65011">
        <ele>1037.4</ele>
        <time>2011-06-12T08:27:44Z</time>
      </trkpt>
      <trkpt lat="44.66079" lon="6.65004">
        <ele>1038.36</ele>
        <time>2011-06-12T08:27:47Z</time>
      </trkpt>
      <trkpt lat="44.66109" lon="6.64968">
        <ele>1041.25</ele>
        <time>2011-06-12T08:27:59Z</time>
      </trkpt>
      <trkpt lat="44.66132" lon="6.64954">
        <ele>1044.61</ele>
        <time>2011-06-12T08:28:10Z</time>
      </trkpt>
      <trkpt lat="44.66153" lon="6.64933">
        <ele>1047.49</ele>
        <time>2011-06-12T08:28:22Z</time>
      </trkpt>
      <trkpt lat="44.66177" lon="6.64905">
        <ele>1050.38</ele>
        <time>2011-06-12T08:28:37Z</time>
      </trkpt>
      <trkpt lat="44.66192" lon="6.64881">
        <ele>1053.74</ele>
        <time>2011-06-12T08:28:49Z</time>
      </trkpt>
      <trkpt lat="44.66199" lon="6.64847">
        <ele>1056.63</ele>
        <time>2011-06-12T08:29:01Z</time>
      </trkpt>
      <trkpt lat="44.66213" lon="6.64819">
        <ele>1059.99</ele>
        <time>2011-06-12T08:29:14Z</time>
      </trkpt>
      <trkpt lat="44.66225" lon="6.64804">
        <ele>1062.87</ele>
        <time>2011-06-12T08:29:22Z</time>
      </trkpt>
      <trkpt lat="44.66247" lon="6.64782">
        <ele>1066.24</ele>
        <time>2011-06-12T08:29:36Z</time>
      </trkpt>
      <trkpt lat="44.66268" lon="6.64756">
        <ele>1069.12</ele>
        <time>2011-06-12T08:29:50Z</time>
      </trkpt>
      <trkpt lat="44.66292" lon="6.64726">
        <ele>1072.01</ele>
        <time>2011-06-12T08:30:04Z</time>
      </trkpt>
      <trkpt lat="44.6632" lon="6.64706">
        <ele>1074.89</ele>
        <time>2011-06-12T08:30:18Z</time>
      </trkpt>
      <trkpt lat="44.66359" lon="6.64684">
        <ele>1075.85</ele>
        <time>2011-06-12T08:30:30Z</time>
      </trkpt>
      <trkpt lat="44.66413" lon="6.64673">
        <ele>1075.85</ele>
        <time>2011-06-12T08:30:42Z</time>
      </trkpt>
      <trkpt lat="44.66419" lon="6.64673">
        <ele>1075.85</ele>
        <time>2011-06-12T08:30:43Z</time>
      </trkpt>
      <trkpt lat="44.66424" lon="6.64674">
        <ele>1075.85</ele>
        <time>2011-06-12T08:30:44Z</time>
      </trkpt>
      <trkpt lat="44.66491" lon="6.6468">
        <ele>1072.49</ele>
        <time>2011-06-12T08:30:54Z</time>
      </trkpt>
      <trkpt lat="44.66562" lon="6.64669">
        <ele>1071.05</ele>
        <time>2011-06-12T08:31:03Z</time>
      </trkpt>
      <trkpt lat="44.6657" lon="6.64666">
        <ele>1071.05</ele>
        <time>2011-06-12T08:31:04Z</time>
      </trkpt>
      <trkpt lat="44.66583" lon="6.64657">
        <ele>1070.57</ele>
        <time>2011-06-12T08:31:06Z</time>
      </trkpt>
      <trkpt lat="44.66623" lon="6.64619">
        <ele>1070.08</ele>
        <time>2011-06-12T08:31:13Z</time>
      </trkpt>
      <trkpt lat="44.6663" lon="6.64615">
        <ele>1070.08</ele>
        <time>2011-06-12T08:31:14Z</time>
      </trkpt>
      <trkpt lat="44.66636" lon="6.64611">
        <ele>1070.08</ele>
        <time>2011-06-12T08:31:15Z</time>
      </trkpt>
      <trkpt lat="44.66725" lon="6.6458">
        <ele>1070.08</ele>
        <time>2011-06-12T08:31:28Z</time>
      </trkpt>
      <trkpt lat="44.66761" lon="6.64561">
        <ele>1070.08</ele>
        <time>2011-06-12T08:31:34Z</time>
      </trkpt>
      <trkpt lat="44.66822" lon="6.64498">
        <ele>1072.01</ele>
        <time>2011-06-12T08:31:47Z</time>
      </trkpt>
      <trkpt lat="44.66832" lon="6.64487">
        <ele>1072.01</ele>
        <time>2011-06-12T08:31:50Z</time>
      </trkpt>
      <trkpt lat="44.66835" lon="6.64482">
        <ele>1072.49</ele>
        <time>2011-06-12T08:31:51Z</time>
      </trkpt>
      <trkpt lat="44.66838" lon="6.64477">
        <ele>1072.97</ele>
        <time>2011-06-12T08:31:52Z</time>
      </trkpt>
      <trkpt lat="44.6684" lon="6.64471">
        <ele>1072.49</ele>
        <time>2011-06-12T08:31:53Z</time>
      </trkpt>
      <trkpt lat="44.66841" lon="6.64465">
        <ele>1072.49</ele>
        <time>2011-06-12T08:31:54Z</time>
      </trkpt>
      <trkpt lat="44.66843" lon="6.6446">
        <ele>1072.49</ele>
        <time>2011-06-12T08:31:55Z</time>
      </trkpt>
      <trkpt lat="44.66845" lon="6.64457">
        <ele>1072.97</ele>
        <time>2011-06-12T08:31:56Z</time>
      </trkpt>
      <trkpt lat="44.66846" lon="6.64454">
        <ele>1072.97</ele>
        <time>2011-06-12T08:31:57Z</time>
      </trkpt>
      <trkpt lat="44.66846" lon="6.64452">
        <ele>1072.97</ele>
        <time>2011-06-12T08:31:58Z</time>
      </trkpt>
      <trkpt lat="44.66846" lon="6.64449">
        <ele>1072.97</ele>
        <time>2011-06-12T08:31:59Z</time>
      </trkpt>
      <trkpt lat="44.66847" lon="6.64448">
        <ele>1072.97</ele>
        <time>2011-06-12T08:32:00Z</time>
      </trkpt>
      <trkpt lat="44.66849" lon="6.64447">
        <ele>1073.93</ele>
        <time>2011-06-12T08:32:01Z</time>
      </trkpt>
      <trkpt lat="44.6685" lon="6.64446">
        <ele>1073.45</ele>
        <time>2011-06-12T08:32:02Z</time>
      </trkpt>
      <trkpt lat="44.66851" lon="6.64445">
        <ele>1073.93</ele>
        <time>2011-06-12T08:32:03Z</time>
      </trkpt>
      <trkpt lat="44.66852" lon="6.64444">
        <ele>1073.93</ele>
        <time>2011-06-12T08:32:04Z</time>
      </trkpt>
      <trkpt lat="44.66854" lon="6.64442">
        <ele>1074.41</ele>
        <time>2011-06-12T08:32:05Z</time>
      </trkpt>
      <trkpt lat="44.66861" lon="6.64426">
        <ele>1073.93</ele>
        <time>2011-06-12T08:32:11Z</time>
      </trkpt>
      <trkpt lat="44.66869" lon="6.64413">
        <ele>1072.01</ele>
        <time>2011-06-12T08:32:18Z</time>
      </trkpt>
      <trkpt lat="44.66871" lon="6.64411">
        <ele>1071.53</ele>
        <time>2011-06-12T08:32:19Z</time>
      </trkpt>
      <trkpt lat="44.66873" lon="6.64412">
        <ele>1071.05</ele>
        <time>2011-06-12T08:32:20Z</time>
      </trkpt>
      <trkpt lat="44.66874" lon="6.64414">
        <ele>1070.57</ele>
        <time>2011-06-12T08:32:21Z</time>
      </trkpt>
      <trkpt lat="44.66874" lon="6.64417">
        <ele>1070.08</ele>
        <time>2011-06-12T08:32:22Z</time>
      </trkpt>
      <trkpt lat="44.66874" lon="6.6442">
        <ele>1069.12</ele>
        <time>2011-06-12T08:32:23Z</time>
      </trkpt>
      <trkpt lat="44.66873" lon="6.64423">
        <ele>1068.64</ele>
        <time>2011-06-12T08:32:24Z</time>
      </trkpt>
      <trkpt lat="44.66872" lon="6.64427">
        <ele>1067.2</ele>
        <time>2011-06-12T08:32:25Z</time>
      </trkpt>
      <trkpt lat="44.66871" lon="6.64431">
        <ele>1065.76</ele>
        <time>2011-06-12T08:32:26Z</time>
      </trkpt>
      <trkpt lat="44.6687" lon="6.64433">
        <ele>1064.32</ele>
        <time>2011-06-12T08:32:27Z</time>
      </trkpt>
      <trkpt lat="44.66869" lon="6.64435">
        <ele>1064.8</ele>
        <time>2011-06-12T08:32:28Z</time>
      </trkpt>
      <trkpt lat="44.66867" lon="6.64442">
        <ele>1063.36</ele>
        <time>2011-06-12T08:32:32Z</time>
      </trkpt>
      <trkpt lat="44.66866" lon="6.64447">
        <ele>1061.91</ele>
        <time>2011-06-12T08:32:33Z</time>
      </trkpt>
      <trkpt lat="44.66866" lon="6.64453">
        <ele>1059.99</ele>
        <time>2011-06-12T08:32:34Z</time>
      </trkpt>
      <trkpt lat="44.66866" lon="6.64459">
        <ele>1059.03</ele>
        <time>2011-06-12T08:32:35Z</time>
      </trkpt>
      <trkpt lat="44.66868" lon="6.64462">
        <ele>1055.67</ele>
        <time>2011-06-12T08:32:38Z</time>
      </trkpt>
      <trkpt lat="44.6687" lon="6.64461">
        <ele>1055.67</ele>
        <time>2011-06-12T08:32:39Z</time>
      </trkpt>
      <trkpt lat="44.66873" lon="6.64458">
        <ele>1055.67</ele>
        <time>2011-06-12T08:32:40Z</time>
      </trkpt>
      <trkpt lat="44.66875" lon="6.64455">
        <ele>1055.18</ele>
        <time>2011-06-12T08:32:41Z</time>
      </trkpt>
      <trkpt lat="44.66888" lon="6.64427">
        <ele>1051.82</ele>
        <time>2011-06-12T08:32:46Z</time>
      </trkpt>
      <trkpt lat="44.66898" lon="6.64408">
        <ele>1048.94</ele>
        <time>2011-06-12T08:32:49Z</time>
      </trkpt>
      <trkpt lat="44.66904" lon="6.64392">
        <ele>1049.42</ele>
        <time>2011-06-12T08:32:51Z</time>
      </trkpt>
      <trkpt lat="44.66906" lon="6.64386">
        <ele>1050.38</ele>
        <time>2011-06-12T08:32:52Z</time>
      </trkpt>
      <trkpt lat="44.66907" lon="6.6438">
        <ele>1050.86</ele>
        <time>2011-06-12T08:32:53Z</time>
      </trkpt>
      <trkpt lat="44.66913" lon="6.64343">
        <ele>1054.22</ele>
        <time>2011-06-12T08:33:02Z</time>
      </trkpt>
      <trkpt lat="44.66927" lon="6.64295">
        <ele>1055.18</ele>
        <time>2011-06-12T08:33:12Z</time>
      </trkpt>
      <trkpt lat="44.6693" lon="6.64281">
        <ele>1057.11</ele>
        <time>2011-06-12T08:33:19Z</time>
      </trkpt>
      <trkpt lat="44.66928" lon="6.64276">
        <ele>1057.59</ele>
        <time>2011-06-12T08:33:21Z</time>
      </trkpt>
      <trkpt lat="44.66925" lon="6.64253">
        <ele>1058.55</ele>
        <time>2011-06-12T08:33:29Z</time>
      </trkpt>
      <trkpt lat="44.66923" lon="6.64248">
        <ele>1057.59</ele>
        <time>2011-06-12T08:33:31Z</time>
      </trkpt>
      <trkpt lat="44.66925" lon="6.64245">
        <ele>1056.63</ele>
        <time>2011-06-12T08:33:32Z</time>
      </trkpt>
      <trkpt lat="44.66936" lon="6.64215">
        <ele>1053.26</ele>
        <time>2011-06-12T08:33:36Z</time>
      </trkpt>
      <trkpt lat="44.66954" lon="6.64162">
        <ele>1052.78</ele>
        <time>2011-06-12T08:33:44Z</time>
      </trkpt>
      <trkpt lat="44.66957" lon="6.64149">
        <ele>1052.3</ele>
        <time>2011-06-12T08:33:46Z</time>
      </trkpt>
      <trkpt lat="44.66958" lon="6.64142">
        <ele>1051.82</ele>
        <time>2011-06-12T08:33:47Z</time>
      </trkpt>
      <trkpt lat="44.66945" lon="6.64136">
        <ele>1047.97</ele>
        <time>2011-06-12T08:33:54Z</time>
      </trkpt>
      <trkpt lat="44.66946" lon="6.64131">
        <ele>1047.49</ele>
        <time>2011-06-12T08:33:55Z</time>
      </trkpt>
      <trkpt lat="44.66947" lon="6.64125">
        <ele>1047.49</ele>
        <time>2011-06-12T08:33:56Z</time>
      </trkpt>
      <trkpt lat="44.6696" lon="6.64081">
        <ele>1050.38</ele>
        <time>2011-06-12T08:34:04Z</time>
      </trkpt>
      <trkpt lat="44.66974" lon="6.64057">
        <ele>1053.74</ele>
        <time>2011-06-12T08:34:10Z</time>
      </trkpt>
      <trkpt lat="44.6697" lon="6.64064">
        <ele>1055.67</ele>
        <time>2011-06-12T08:34:19Z</time>
      </trkpt>
      <trkpt lat="44.66958" lon="6.64087">
        <ele>1059.03</ele>
        <time>2011-06-12T08:34:33Z</time>
      </trkpt>
      <trkpt lat="44.66957" lon="6.64087">
        <ele>1059.51</ele>
        <time>2011-06-12T08:34:44Z</time>
      </trkpt>
      <trkpt lat="44.66957" lon="6.64085">
        <ele>1059.03</ele>
        <time>2011-06-12T08:34:45Z</time>
      </trkpt>
      <trkpt lat="44.66958" lon="6.64082">
        <ele>1058.07</ele>
        <time>2011-06-12T08:34:46Z</time>
      </trkpt>
      <trkpt lat="44.66959" lon="6.64078">
        <ele>1056.63</ele>
        <time>2011-06-12T08:34:47Z</time>
      </trkpt>
      <trkpt lat="44.6696" lon="6.64074">
        <ele>1055.67</ele>
        <time>2011-06-12T08:34:48Z</time>
      </trkpt>
      <trkpt lat="44.66961" lon="6.64069">
        <ele>1054.22</ele>
        <time>2011-06-12T08:34:49Z</time>
      </trkpt>
      <trkpt lat="44.66964" lon="6.64058">
        <ele>1052.78</ele>
        <time>2011-06-12T08:34:51Z</time>
      </trkpt>
      <trkpt lat="44.66971" lon="6.64027">
        <ele>1050.38</ele>
        <time>2011-06-12T08:34:57Z</time>
      </trkpt>
      <trkpt lat="44.66973" lon="6.64016">
        <ele>1046.53</ele>
        <time>2011-06-12T08:35:00Z</time>
      </trkpt>
      <trkpt lat="44.66975" lon="6.64009">
        <ele>1043.65</ele>
        <time>2011-06-12T08:35:04Z</time>
      </trkpt>
      <trkpt lat="44.66977" lon="6.64012">
        <ele>1041.73</ele>
        <time>2011-06-12T08:35:07Z</time>
      </trkpt>
      <trkpt lat="44.66979" lon="6.64011">
        <ele>1040.28</ele>
        <time>2011-06-12T08:35:09Z</time>
      </trkpt>
      <trkpt lat="44.6698" lon="6.64008">
        <ele>1039.32</ele>
        <time>2011-06-12T08:35:10Z</time>
      </trkpt>
      <trkpt lat="44.66982" lon="6.64005">
        <ele>1038.36</ele>
        <time>2011-06-12T08:35:11Z</time>
      </trkpt>
      <trkpt lat="44.66984" lon="6.64">
        <ele>1035</ele>
        <time>2011-06-12T08:35:16Z</time>
      </trkpt>
      <trkpt lat="44.66985" lon="6.63999">
        <ele>1035</ele>
        <time>2011-06-12T08:35:17Z</time>
      </trkpt>
      <trkpt lat="44.66987" lon="6.63996">
        <ele>1033.55</ele>
        <time>2011-06-12T08:35:18Z</time>
      </trkpt>
      <trkpt lat="44.66989" lon="6.63994">
        <ele>1032.11</ele>
        <time>2011-06-12T08:35:20Z</time>
      </trkpt>
      <trkpt lat="44.6699" lon="6.63991">
        <ele>1030.67</ele>
        <time>2011-06-12T08:35:22Z</time>
      </trkpt>
      <trkpt lat="44.6699" lon="6.63991">
        <ele>1028.75</ele>
        <time>2011-06-12T08:35:23Z</time>
      </trkpt>
      <trkpt lat="44.66994" lon="6.63983">
        <ele>1025.86</ele>
        <time>2011-06-12T08:35:28Z</time>
      </trkpt>
      <trkpt lat="44.66996" lon="6.63982">
        <ele>1024.9</ele>
        <time>2011-06-12T08:35:29Z</time>
      </trkpt>
      <trkpt lat="44.66999" lon="6.63979">
        <ele>1022.98</ele>
        <time>2011-06-12T08:35:30Z</time>
      </trkpt>
      <trkpt lat="44.67002" lon="6.63973">
        <ele>1022.02</ele>
        <time>2011-06-12T08:35:31Z</time>
      </trkpt>
      <trkpt lat="44.67005" lon="6.63967">
        <ele>1021.06</ele>
        <time>2011-06-12T08:35:32Z</time>
      </trkpt>
      <trkpt lat="44.67008" lon="6.63961">
        <ele>1020.1</ele>
        <time>2011-06-12T08:35:33Z</time>
      </trkpt>
      <trkpt lat="44.67011" lon="6.63952">
        <ele>1018.65</ele>
        <time>2011-06-12T08:35:34Z</time>
      </trkpt>
      <trkpt lat="44.67014" lon="6.63944">
        <ele>1017.69</ele>
        <time>2011-06-12T08:35:35Z</time>
      </trkpt>
      <trkpt lat="44.67017" lon="6.63937">
        <ele>1016.25</ele>
        <time>2011-06-12T08:35:36Z</time>
      </trkpt>
      <trkpt lat="44.6702" lon="6.6393">
        <ele>1015.77</ele>
        <time>2011-06-12T08:35:37Z</time>
      </trkpt>
      <trkpt lat="44.67025" lon="6.63917">
        <ele>1014.81</ele>
        <time>2011-06-12T08:35:39Z</time>
      </trkpt>
      <trkpt lat="44.67033" lon="6.63907">
        <ele>1017.21</ele>
        <time>2011-06-12T08:35:43Z</time>
      </trkpt>
      <trkpt lat="44.6704" lon="6.63892">
        <ele>1018.17</ele>
        <time>2011-06-12T08:35:49Z</time>
      </trkpt>
      <trkpt lat="44.67041" lon="6.63887">
        <ele>1018.65</ele>
        <time>2011-06-12T08:35:50Z</time>
      </trkpt>
      <trkpt lat="44.6704" lon="6.63883">
        <ele>1018.65</ele>
        <time>2011-06-12T08:35:51Z</time>
      </trkpt>
      <trkpt lat="44.67035" lon="6.63838">
        <ele>1020.1</ele>
        <time>2011-06-12T08:36:02Z</time>
      </trkpt>
      <trkpt lat="44.67033" lon="6.63827">
        <ele>1021.54</ele>
        <time>2011-06-12T08:36:07Z</time>
      </trkpt>
      <trkpt lat="44.67036" lon="6.63818">
        <ele>1023.94</ele>
        <time>2011-06-12T08:36:25Z</time>
      </trkpt>
      <trkpt lat="44.67035" lon="6.63814">
        <ele>1024.42</ele>
        <time>2011-06-12T08:36:28Z</time>
      </trkpt>
      <trkpt lat="44.67034" lon="6.63812">
        <ele>1024.42</ele>
        <time>2011-06-12T08:36:29Z</time>
      </trkpt>
      <trkpt lat="44.67032" lon="6.63799">
        <ele>1022.02</ele>
        <time>2011-06-12T08:36:36Z</time>
      </trkpt>
      <trkpt lat="44.67033" lon="6.63794">
        <ele>1020.1</ele>
        <time>2011-06-12T08:36:38Z</time>
      </trkpt>
      <trkpt lat="44.67034" lon="6.63789">
        <ele>1018.65</ele>
        <time>2011-06-12T08:36:44Z</time>
      </trkpt>
      <trkpt lat="44.67024" lon="6.63793">
        <ele>1016.73</ele>
        <time>2011-06-12T08:36:48Z</time>
      </trkpt>
      <trkpt lat="44.67016" lon="6.63796">
        <ele>1013.85</ele>
        <time>2011-06-12T08:36:55Z</time>
      </trkpt>
      <trkpt lat="44.67019" lon="6.63783">
        <ele>1011.93</ele>
        <time>2011-06-12T08:36:59Z</time>
      </trkpt>
      <trkpt lat="44.67025" lon="6.63762">
        <ele>1007.12</ele>
        <time>2011-06-12T08:37:03Z</time>
      </trkpt>
      <trkpt lat="44.67026" lon="6.63741">
        <ele>1004.72</ele>
        <time>2011-06-12T08:37:07Z</time>
      </trkpt>
      <trkpt lat="44.67023" lon="6.63719">
        <ele>1001.35</ele>
        <time>2011-06-12T08:37:11Z</time>
      </trkpt>
      <trkpt lat="44.67018" lon="6.63699">
        <ele>998.47</ele>
        <time>2011-06-12T08:37:16Z</time>
      </trkpt>
      <trkpt lat="44.66992" lon="6.63651">
        <ele>996.54</ele>
        <time>2011-06-12T08:37:30Z</time>
      </trkpt>
      <trkpt lat="44.66986" lon="6.63639">
        <ele>993.18</ele>
        <time>2011-06-12T08:37:34Z</time>
      </trkpt>
      <trkpt lat="44.66975" lon="6.63615">
        <ele>989.81</ele>
        <time>2011-06-12T08:37:38Z</time>
      </trkpt>
      <trkpt lat="44.66971" lon="6.63608">
        <ele>989.81</ele>
        <time>2011-06-12T08:37:39Z</time>
      </trkpt>
      <trkpt lat="44.66947" lon="6.63566">
        <ele>986.93</ele>
        <time>2011-06-12T08:37:51Z</time>
      </trkpt>
      <trkpt lat="44.66954" lon="6.6357">
        <ele>985.49</ele>
        <time>2011-06-12T08:37:55Z</time>
      </trkpt>
      <trkpt lat="44.66954" lon="6.63569">
        <ele>983.57</ele>
        <time>2011-06-12T08:38:01Z</time>
      </trkpt>
      <trkpt lat="44.66956" lon="6.63565">
        <ele>982.12</ele>
        <time>2011-06-12T08:38:06Z</time>
      </trkpt>
      <trkpt lat="44.66965" lon="6.63569">
        <ele>978.28</ele>
        <time>2011-06-12T08:38:10Z</time>
      </trkpt>
      <trkpt lat="44.66968" lon="6.63572">
        <ele>976.36</ele>
        <time>2011-06-12T08:38:11Z</time>
      </trkpt>
      <trkpt lat="44.66987" lon="6.63577">
        <ele>972.51</ele>
        <time>2011-06-12T08:38:17Z</time>
      </trkpt>
      <trkpt lat="44.66992" lon="6.63574">
        <ele>969.63</ele>
        <time>2011-06-12T08:38:20Z</time>
      </trkpt>
      <trkpt lat="44.66995" lon="6.63572">
        <ele>966.74</ele>
        <time>2011-06-12T08:38:23Z</time>
      </trkpt>
      <trkpt lat="44.66981" lon="6.63546">
        <ele>962.9</ele>
        <time>2011-06-12T08:38:29Z</time>
      </trkpt>
      <trkpt lat="44.66976" lon="6.63541">
        <ele>959.53</ele>
        <time>2011-06-12T08:38:31Z</time>
      </trkpt>
      <trkpt lat="44.66971" lon="6.63535">
        <ele>959.05</ele>
        <time>2011-06-12T08:38:32Z</time>
      </trkpt>
      <trkpt lat="44.66953" lon="6.63515">
        <ele>955.69</ele>
        <time>2011-06-12T08:38:36Z</time>
      </trkpt>
      <trkpt lat="44.6694" lon="6.6349">
        <ele>951.84</ele>
        <time>2011-06-12T08:38:41Z</time>
      </trkpt>
      <trkpt lat="44.66936" lon="6.63476">
        <ele>948.96</ele>
        <time>2011-06-12T08:38:44Z</time>
      </trkpt>
      <trkpt lat="44.66934" lon="6.63472">
        <ele>948</ele>
        <time>2011-06-12T08:38:45Z</time>
      </trkpt>
      <trkpt lat="44.66932" lon="6.63469">
        <ele>947.04</ele>
        <time>2011-06-12T08:38:46Z</time>
      </trkpt>
      <trkpt lat="44.66927" lon="6.63452">
        <ele>943.67</ele>
        <time>2011-06-12T08:38:49Z</time>
      </trkpt>
      <trkpt lat="44.66921" lon="6.63439">
        <ele>940.79</ele>
        <time>2011-06-12T08:38:52Z</time>
      </trkpt>
      <trkpt lat="44.6688" lon="6.63383">
        <ele>941.75</ele>
        <time>2011-06-12T08:39:06Z</time>
      </trkpt>
      <trkpt lat="44.66857" lon="6.6332">
        <ele>943.67</ele>
        <time>2011-06-12T08:39:20Z</time>
      </trkpt>
      <trkpt lat="44.66852" lon="6.63264">
        <ele>943.19</ele>
        <time>2011-06-12T08:39:33Z</time>
      </trkpt>
      <trkpt lat="44.66846" lon="6.6321">
        <ele>945.59</ele>
        <time>2011-06-12T08:39:44Z</time>
      </trkpt>
      <trkpt lat="44.66841" lon="6.63188">
        <ele>943.67</ele>
        <time>2011-06-12T08:39:51Z</time>
      </trkpt>
      <trkpt lat="44.66839" lon="6.63169">
        <ele>940.79</ele>
        <time>2011-06-12T08:39:55Z</time>
      </trkpt>
      <trkpt lat="44.6684" lon="6.6316">
        <ele>938.86</ele>
        <time>2011-06-12T08:39:57Z</time>
      </trkpt>
      <trkpt lat="44.6683" lon="6.63125">
        <ele>935.98</ele>
        <time>2011-06-12T08:40:03Z</time>
      </trkpt>
      <trkpt lat="44.66794" lon="6.63087">
        <ele>939.35</ele>
        <time>2011-06-12T08:40:16Z</time>
      </trkpt>
      <trkpt lat="44.66792" lon="6.63086">
        <ele>939.83</ele>
        <time>2011-06-12T08:40:17Z</time>
      </trkpt>
      <trkpt lat="44.66784" lon="6.63079">
        <ele>940.79</ele>
        <time>2011-06-12T08:40:27Z</time>
      </trkpt>
      <trkpt lat="44.66763" lon="6.63071">
        <ele>942.71</ele>
        <time>2011-06-12T08:40:41Z</time>
      </trkpt>
      <trkpt lat="44.66755" lon="6.63066">
        <ele>944.63</ele>
        <time>2011-06-12T08:40:55Z</time>
      </trkpt>
      <trkpt lat="44.6675" lon="6.63056">
        <ele>944.63</ele>
        <time>2011-06-12T08:41:01Z</time>
      </trkpt>
      <trkpt lat="44.66739" lon="6.63048">
        <ele>944.15</ele>
        <time>2011-06-12T08:41:08Z</time>
      </trkpt>
      <trkpt lat="44.66734" lon="6.63034">
        <ele>941.75</ele>
        <time>2011-06-12T08:41:14Z</time>
      </trkpt>
      <trkpt lat="44.66724" lon="6.63023">
        <ele>943.67</ele>
        <time>2011-06-12T08:41:22Z</time>
      </trkpt>
      <trkpt lat="44.66718" lon="6.63023">
        <ele>947.04</ele>
        <time>2011-06-12T08:41:33Z</time>
      </trkpt>
      <trkpt lat="44.66709" lon="6.63018">
        <ele>950.4</ele>
        <time>2011-06-12T08:41:46Z</time>
      </trkpt>
      <trkpt lat="44.66709" lon="6.63016">
        <ele>949.92</ele>
        <time>2011-06-12T08:41:47Z</time>
      </trkpt>
      <trkpt lat="44.66707" lon="6.63015">
        <ele>950.4</ele>
        <time>2011-06-12T08:41:49Z</time>
      </trkpt>
      <trkpt lat="44.66699" lon="6.63011">
        <ele>950.4</ele>
        <time>2011-06-12T08:41:57Z</time>
      </trkpt>
      <trkpt lat="44.66674" lon="6.62969">
        <ele>949.92</ele>
        <time>2011-06-12T08:42:10Z</time>
      </trkpt>
      <trkpt lat="44.66655" lon="6.62946">
        <ele>950.88</ele>
        <time>2011-06-12T08:42:20Z</time>
      </trkpt>
      <trkpt lat="44.66641" lon="6.62916">
        <ele>949.92</ele>
        <time>2011-06-12T08:42:32Z</time>
      </trkpt>
      <trkpt lat="44.66626" lon="6.62888">
        <ele>948.96</ele>
        <time>2011-06-12T08:42:43Z</time>
      </trkpt>
      <trkpt lat="44.6661" lon="6.62867">
        <ele>948</ele>
        <time>2011-06-12T08:42:57Z</time>
      </trkpt>
      <trkpt lat="44.66599" lon="6.62858">
        <ele>949.44</ele>
        <time>2011-06-12T08:43:08Z</time>
      </trkpt>
      <trkpt lat="44.66583" lon="6.62841">
        <ele>952.32</ele>
        <time>2011-06-12T08:43:21Z</time>
      </trkpt>
      <trkpt lat="44.66574" lon="6.62832">
        <ele>953.28</ele>
        <time>2011-06-12T08:43:28Z</time>
      </trkpt>
      <trkpt lat="44.66574" lon="6.62829">
        <ele>951.84</ele>
        <time>2011-06-12T08:43:30Z</time>
      </trkpt>
      <trkpt lat="44.66555" lon="6.62799">
        <ele>952.32</ele>
        <time>2011-06-12T08:43:41Z</time>
      </trkpt>
      <trkpt lat="44.66553" lon="6.62796">
        <ele>952.32</ele>
        <time>2011-06-12T08:43:43Z</time>
      </trkpt>
      <trkpt lat="44.66549" lon="6.62798">
        <ele>953.28</ele>
        <time>2011-06-12T08:43:46Z</time>
      </trkpt>
      <trkpt lat="44.66532" lon="6.62793">
        <ele>957.13</ele>
        <time>2011-06-12T08:44:01Z</time>
      </trkpt>
      <trkpt lat="44.66517" lon="6.62783">
        <ele>958.09</ele>
        <time>2011-06-12T08:44:13Z</time>
      </trkpt>
      <trkpt lat="44.66491" lon="6.62758">
        <ele>960.01</ele>
        <time>2011-06-12T08:44:25Z</time>
      </trkpt>
      <trkpt lat="44.66476" lon="6.62757">
        <ele>956.65</ele>
        <time>2011-06-12T08:44:31Z</time>
      </trkpt>
      <trkpt lat="44.6644" lon="6.62751">
        <ele>955.21</ele>
        <time>2011-06-12T08:44:43Z</time>
      </trkpt>
      <trkpt lat="44.66436" lon="6.62751">
        <ele>953.77</ele>
        <time>2011-06-12T08:44:45Z</time>
      </trkpt>
      <trkpt lat="44.66434" lon="6.6275">
        <ele>952.32</ele>
        <time>2011-06-12T08:44:46Z</time>
      </trkpt>
      <trkpt lat="44.6643" lon="6.62748">
        <ele>950.4</ele>
        <time>2011-06-12T08:44:47Z</time>
      </trkpt>
      <trkpt lat="44.66429" lon="6.62745">
        <ele>947.52</ele>
        <time>2011-06-12T08:44:48Z</time>
      </trkpt>
      <trkpt lat="44.66424" lon="6.62741">
        <ele>947.52</ele>
        <time>2011-06-12T08:44:49Z</time>
      </trkpt>
      <trkpt lat="44.66414" lon="6.62732">
        <ele>944.15</ele>
        <time>2011-06-12T08:44:52Z</time>
      </trkpt>
      <trkpt lat="44.66394" lon="6.6271">
        <ele>940.79</ele>
        <time>2011-06-12T08:44:56Z</time>
      </trkpt>
      <trkpt lat="44.66326" lon="6.6268">
        <ele>936.94</ele>
        <time>2011-06-12T08:45:08Z</time>
      </trkpt>
      <trkpt lat="44.66316" lon="6.62671">
        <ele>934.54</ele>
        <time>2011-06-12T08:45:11Z</time>
      </trkpt>
      <trkpt lat="44.66371" lon="6.62612">
        <ele>933.1</ele>
        <time>2011-06-12T08:45:22Z</time>
      </trkpt>
      <trkpt lat="44.66398" lon="6.62558">
        <ele>931.65</ele>
        <time>2011-06-12T08:45:31Z</time>
      </trkpt>
      <trkpt lat="44.66405" lon="6.62538">
        <ele>932.14</ele>
        <time>2011-06-12T08:45:34Z</time>
      </trkpt>
      <trkpt lat="44.66413" lon="6.6252">
        <ele>932.62</ele>
        <time>2011-06-12T08:45:37Z</time>
      </trkpt>
      <trkpt lat="44.66415" lon="6.62513">
        <ele>932.62</ele>
        <time>2011-06-12T08:45:38Z</time>
      </trkpt>
      <trkpt lat="44.66419" lon="6.62503">
        <ele>932.14</ele>
        <time>2011-06-12T08:45:40Z</time>
      </trkpt>
      <trkpt lat="44.66419" lon="6.62498">
        <ele>933.1</ele>
        <time>2011-06-12T08:45:41Z</time>
      </trkpt>
      <trkpt lat="44.66418" lon="6.62494">
        <ele>933.1</ele>
        <time>2011-06-12T08:45:42Z</time>
      </trkpt>
      <trkpt lat="44.66415" lon="6.6249">
        <ele>933.58</ele>
        <time>2011-06-12T08:45:43Z</time>
      </trkpt>
      <trkpt lat="44.66412" lon="6.62486">
        <ele>933.1</ele>
        <time>2011-06-12T08:45:44Z</time>
      </trkpt>
      <trkpt lat="44.66408" lon="6.62482">
        <ele>933.1</ele>
        <time>2011-06-12T08:45:45Z</time>
      </trkpt>
      <trkpt lat="44.66404" lon="6.62477">
        <ele>933.1</ele>
        <time>2011-06-12T08:45:46Z</time>
      </trkpt>
      <trkpt lat="44.66396" lon="6.62465">
        <ele>933.58</ele>
        <time>2011-06-12T08:45:48Z</time>
      </trkpt>
      <trkpt lat="44.66381" lon="6.6243">
        <ele>932.14</ele>
        <time>2011-06-12T08:45:53Z</time>
      </trkpt>
      <trkpt lat="44.6638" lon="6.62422">
        <ele>932.62</ele>
        <time>2011-06-12T08:45:54Z</time>
      </trkpt>
      <trkpt lat="44.66379" lon="6.62412">
        <ele>932.62</ele>
        <time>2011-06-12T08:45:55Z</time>
      </trkpt>
      <trkpt lat="44.66379" lon="6.62403">
        <ele>932.14</ele>
        <time>2011-06-12T08:45:56Z</time>
      </trkpt>
      <trkpt lat="44.6638" lon="6.62393">
        <ele>932.14</ele>
        <time>2011-06-12T08:45:57Z</time>
      </trkpt>
      <trkpt lat="44.66381" lon="6.62384">
        <ele>931.65</ele>
        <time>2011-06-12T08:45:58Z</time>
      </trkpt>
      <trkpt lat="44.66387" lon="6.62356">
        <ele>930.69</ele>
        <time>2011-06-12T08:46:01Z</time>
      </trkpt>
      <trkpt lat="44.66395" lon="6.62329">
        <ele>930.21</ele>
        <time>2011-06-12T08:46:04Z</time>
      </trkpt>
      <trkpt lat="44.66398" lon="6.62321">
        <ele>929.73</ele>
        <time>2011-06-12T08:46:05Z</time>
      </trkpt>
      <trkpt lat="44.66404" lon="6.62304">
        <ele>915.79</ele>
        <time>2011-06-12T08:46:07Z</time>
      </trkpt>
      <trkpt lat="44.66406" lon="6.62296">
        <ele>929.25</ele>
        <time>2011-06-12T08:46:08Z</time>
      </trkpt>
      <trkpt lat="44.66441" lon="6.62204">
        <ele>925.89</ele>
        <time>2011-06-12T08:46:18Z</time>
      </trkpt>
      <trkpt lat="44.66493" lon="6.62097">
        <ele>924.45</ele>
        <time>2011-06-12T08:46:31Z</time>
      </trkpt>
      <trkpt lat="44.66535" lon="6.62053">
        <ele>923.48</ele>
        <time>2011-06-12T08:46:38Z</time>
      </trkpt>
      <trkpt lat="44.66618" lon="6.6198">
        <ele>922.04</ele>
        <time>2011-06-12T08:46:51Z</time>
      </trkpt>
      <trkpt lat="44.66699" lon="6.61933">
        <ele>921.08</ele>
        <time>2011-06-12T08:47:03Z</time>
      </trkpt>
      <trkpt lat="44.6677" lon="6.61921">
        <ele>920.12</ele>
        <time>2011-06-12T08:47:13Z</time>
      </trkpt>
      <trkpt lat="44.66868" lon="6.61895">
        <ele>919.16</ele>
        <time>2011-06-12T08:47:27Z</time>
      </trkpt>
      <trkpt lat="44.66886" lon="6.6189">
        <ele>919.16</ele>
        <time>2011-06-12T08:47:30Z</time>
      </trkpt>
      <trkpt lat="44.66892" lon="6.61891">
        <ele>919.16</ele>
        <time>2011-06-12T08:47:31Z</time>
      </trkpt>
      <trkpt lat="44.66896" lon="6.61894">
        <ele>919.64</ele>
        <time>2011-06-12T08:47:32Z</time>
      </trkpt>
      <trkpt lat="44.66901" lon="6.61897">
        <ele>919.16</ele>
        <time>2011-06-12T08:47:33Z</time>
      </trkpt>
      <trkpt lat="44.66905" lon="6.61898">
        <ele>919.64</ele>
        <time>2011-06-12T08:47:34Z</time>
      </trkpt>
      <trkpt lat="44.66911" lon="6.61897">
        <ele>920.12</ele>
        <time>2011-06-12T08:47:35Z</time>
      </trkpt>
      <trkpt lat="44.66916" lon="6.61896">
        <ele>919.64</ele>
        <time>2011-06-12T08:47:36Z</time>
      </trkpt>
      <trkpt lat="44.6692" lon="6.61895">
        <ele>920.12</ele>
        <time>2011-06-12T08:47:37Z</time>
      </trkpt>
      <trkpt lat="44.6698" lon="6.61886">
        <ele>919.64</ele>
        <time>2011-06-12T08:47:48Z</time>
      </trkpt>
      <trkpt lat="44.66985" lon="6.61887">
        <ele>920.12</ele>
        <time>2011-06-12T08:47:49Z</time>
      </trkpt>
      <trkpt lat="44.6699" lon="6.61889">
        <ele>920.6</ele>
        <time>2011-06-12T08:47:50Z</time>
      </trkpt>
      <trkpt lat="44.67" lon="6.61896">
        <ele>920.12</ele>
        <time>2011-06-12T08:47:52Z</time>
      </trkpt>
      <trkpt lat="44.67005" lon="6.619">
        <ele>920.12</ele>
        <time>2011-06-12T08:47:53Z</time>
      </trkpt>
      <trkpt lat="44.67009" lon="6.61903">
        <ele>920.6</ele>
        <time>2011-06-12T08:47:54Z</time>
      </trkpt>
      <trkpt lat="44.67014" lon="6.61906">
        <ele>920.12</ele>
        <time>2011-06-12T08:47:55Z</time>
      </trkpt>
      <trkpt lat="44.67019" lon="6.61908">
        <ele>920.12</ele>
        <time>2011-06-12T08:47:56Z</time>
      </trkpt>
      <trkpt lat="44.67023" lon="6.6191">
        <ele>920.6</ele>
        <time>2011-06-12T08:47:57Z</time>
      </trkpt>
      <trkpt lat="44.67028" lon="6.61912">
        <ele>920.6</ele>
        <time>2011-06-12T08:47:58Z</time>
      </trkpt>
      <trkpt lat="44.67033" lon="6.61914">
        <ele>920.6</ele>
        <time>2011-06-12T08:47:59Z</time>
      </trkpt>
      <trkpt lat="44.67039" lon="6.61915">
        <ele>921.08</ele>
        <time>2011-06-12T08:48:00Z</time>
      </trkpt>
      <trkpt lat="44.67045" lon="6.61916">
        <ele>921.08</ele>
        <time>2011-06-12T08:48:01Z</time>
      </trkpt>
      <trkpt lat="44.67061" lon="6.61918">
        <ele>921.08</ele>
        <time>2011-06-12T08:48:04Z</time>
      </trkpt>
      <trkpt lat="44.67066" lon="6.6192">
        <ele>920.6</ele>
        <time>2011-06-12T08:48:05Z</time>
      </trkpt>
      <trkpt lat="44.67071" lon="6.61924">
        <ele>920.12</ele>
        <time>2011-06-12T08:48:06Z</time>
      </trkpt>
      <trkpt lat="44.67076" lon="6.61926">
        <ele>920.12</ele>
        <time>2011-06-12T08:48:07Z</time>
      </trkpt>
      <trkpt lat="44.67081" lon="6.61927">
        <ele>920.6</ele>
        <time>2011-06-12T08:48:08Z</time>
      </trkpt>
      <trkpt lat="44.67096" lon="6.61931">
        <ele>923</ele>
        <time>2011-06-12T08:48:15Z</time>
      </trkpt>
      <trkpt lat="44.67116" lon="6.61949">
        <ele>923.96</ele>
        <time>2011-06-12T08:48:23Z</time>
      </trkpt>
      <trkpt lat="44.67142" lon="6.6197">
        <ele>923</ele>
        <time>2011-06-12T08:48:30Z</time>
      </trkpt>
      <trkpt lat="44.67147" lon="6.61974">
        <ele>922.04</ele>
        <time>2011-06-12T08:48:31Z</time>
      </trkpt>
      <trkpt lat="44.67152" lon="6.61979">
        <ele>921.08</ele>
        <time>2011-06-12T08:48:32Z</time>
      </trkpt>
      <trkpt lat="44.67158" lon="6.61985">
        <ele>921.56</ele>
        <time>2011-06-12T08:48:33Z</time>
      </trkpt>
      <trkpt lat="44.67162" lon="6.61991">
        <ele>921.08</ele>
        <time>2011-06-12T08:48:34Z</time>
      </trkpt>
      <trkpt lat="44.67166" lon="6.61996">
        <ele>921.08</ele>
        <time>2011-06-12T08:48:35Z</time>
      </trkpt>
      <trkpt lat="44.67174" lon="6.62004">
        <ele>922.52</ele>
        <time>2011-06-12T08:48:37Z</time>
      </trkpt>
      <trkpt lat="44.67178" lon="6.62006">
        <ele>922.52</ele>
        <time>2011-06-12T08:48:38Z</time>
      </trkpt>
      <trkpt lat="44.67185" lon="6.6201">
        <ele>923</ele>
        <time>2011-06-12T08:48:41Z</time>
      </trkpt>
      <trkpt lat="44.67189" lon="6.62022">
        <ele>924.45</ele>
        <time>2011-06-12T08:48:46Z</time>
      </trkpt>
      <trkpt lat="44.67196" lon="6.62033">
        <ele>926.85</ele>
        <time>2011-06-12T08:48:53Z</time>
      </trkpt>
      <trkpt lat="44.672" lon="6.62037">
        <ele>928.77</ele>
        <time>2011-06-12T08:48:57Z</time>
      </trkpt>
      <trkpt lat="44.67201" lon="6.62039">
        <ele>929.25</ele>
        <time>2011-06-12T08:48:59Z</time>
      </trkpt>
      <trkpt lat="44.67214" lon="6.62054">
        <ele>931.17</ele>
        <time>2011-06-12T08:49:13Z</time>
      </trkpt>
      <trkpt lat="44.67222" lon="6.62064">
        <ele>933.1</ele>
        <time>2011-06-12T08:49:25Z</time>
      </trkpt>
      <trkpt lat="44.67231" lon="6.62082">
        <ele>935.98</ele>
        <time>2011-06-12T08:49:35Z</time>
      </trkpt>
      <trkpt lat="44.67232" lon="6.62084">
        <ele>936.46</ele>
        <time>2011-06-12T08:49:36Z</time>
      </trkpt>
      <trkpt lat="44.6724" lon="6.62101">
        <ele>939.83</ele>
        <time>2011-06-12T08:49:46Z</time>
      </trkpt>
      <trkpt lat="44.67249" lon="6.62129">
        <ele>942.23</ele>
        <time>2011-06-12T08:49:59Z</time>
      </trkpt>
      <trkpt lat="44.67267" lon="6.62149">
        <ele>944.63</ele>
        <time>2011-06-12T08:50:11Z</time>
      </trkpt>
      <trkpt lat="44.67302" lon="6.62174">
        <ele>944.15</ele>
        <time>2011-06-12T08:50:25Z</time>
      </trkpt>
      <trkpt lat="44.67334" lon="6.6219">
        <ele>945.59</ele>
        <time>2011-06-12T08:50:37Z</time>
      </trkpt>
      <trkpt lat="44.6734" lon="6.62195">
        <ele>948</ele>
        <time>2011-06-12T08:50:41Z</time>
      </trkpt>
      <trkpt lat="44.67359" lon="6.62211">
        <ele>949.44</ele>
        <time>2011-06-12T08:50:52Z</time>
      </trkpt>
      <trkpt lat="44.67362" lon="6.62234">
        <ele>952.8</ele>
        <time>2011-06-12T08:51:01Z</time>
      </trkpt>
      <trkpt lat="44.67362" lon="6.62237">
        <ele>952.8</ele>
        <time>2011-06-12T08:51:04Z</time>
      </trkpt>
      <trkpt lat="44.67348" lon="6.62234">
        <ele>953.28</ele>
        <time>2011-06-12T08:51:10Z</time>
      </trkpt>
      <trkpt lat="44.67305" lon="6.62216">
        <ele>953.77</ele>
        <time>2011-06-12T08:51:26Z</time>
      </trkpt>
      <trkpt lat="44.67282" lon="6.62211">
        <ele>955.69</ele>
        <time>2011-06-12T08:51:37Z</time>
      </trkpt>
      <trkpt lat="44.67275" lon="6.62216">
        <ele>958.57</ele>
        <time>2011-06-12T08:51:46Z</time>
      </trkpt>
      <trkpt lat="44.67275" lon="6.62217">
        <ele>959.05</ele>
        <time>2011-06-12T08:51:47Z</time>
      </trkpt>
      <trkpt lat="44.67276" lon="6.62224">
        <ele>960.49</ele>
        <time>2011-06-12T08:51:58Z</time>
      </trkpt>
      <trkpt lat="44.67293" lon="6.62241">
        <ele>961.94</ele>
        <time>2011-06-12T08:52:07Z</time>
      </trkpt>
      <trkpt lat="44.6732" lon="6.62273">
        <ele>963.86</ele>
        <time>2011-06-12T08:52:21Z</time>
      </trkpt>
      <trkpt lat="44.67342" lon="6.62293">
        <ele>966.74</ele>
        <time>2011-06-12T08:52:34Z</time>
      </trkpt>
      <trkpt lat="44.67356" lon="6.62302">
        <ele>968.67</ele>
        <time>2011-06-12T08:52:42Z</time>
      </trkpt>
      <trkpt lat="44.67368" lon="6.6231">
        <ele>972.03</ele>
        <time>2011-06-12T08:52:52Z</time>
      </trkpt>
      <trkpt lat="44.67369" lon="6.62311">
        <ele>972.51</ele>
        <time>2011-06-12T08:52:53Z</time>
      </trkpt>
      <trkpt lat="44.6738" lon="6.6233">
        <ele>975.39</ele>
        <time>2011-06-12T08:53:05Z</time>
      </trkpt>
      <trkpt lat="44.67382" lon="6.62335">
        <ele>976.36</ele>
        <time>2011-06-12T08:53:08Z</time>
      </trkpt>
      <trkpt lat="44.67384" lon="6.62337">
        <ele>977.8</ele>
        <time>2011-06-12T08:53:11Z</time>
      </trkpt>
      <trkpt lat="44.67409" lon="6.62351">
        <ele>980.2</ele>
        <time>2011-06-12T08:53:26Z</time>
      </trkpt>
      <trkpt lat="44.67433" lon="6.62361">
        <ele>981.16</ele>
        <time>2011-06-12T08:53:37Z</time>
      </trkpt>
      <trkpt lat="44.67451" lon="6.62381">
        <ele>983.09</ele>
        <time>2011-06-12T08:53:49Z</time>
      </trkpt>
      <trkpt lat="44.67448" lon="6.62385">
        <ele>985.01</ele>
        <time>2011-06-12T08:53:55Z</time>
      </trkpt>
      <trkpt lat="44.67423" lon="6.62372">
        <ele>987.41</ele>
        <time>2011-06-12T08:54:10Z</time>
      </trkpt>
      <trkpt lat="44.67417" lon="6.62382">
        <ele>989.33</ele>
        <time>2011-06-12T08:54:16Z</time>
      </trkpt>
      <trkpt lat="44.67401" lon="6.62375">
        <ele>990.3</ele>
        <time>2011-06-12T08:54:28Z</time>
      </trkpt>
      <trkpt lat="44.67395" lon="6.62382">
        <ele>994.14</ele>
        <time>2011-06-12T08:54:37Z</time>
      </trkpt>
      <trkpt lat="44.67398" lon="6.62385">
        <ele>993.18</ele>
        <time>2011-06-12T08:54:41Z</time>
      </trkpt>
      <trkpt lat="44.67416" lon="6.62403">
        <ele>996.54</ele>
        <time>2011-06-12T08:54:55Z</time>
      </trkpt>
      <trkpt lat="44.67426" lon="6.62417">
        <ele>998.95</ele>
        <time>2011-06-12T08:55:06Z</time>
      </trkpt>
      <trkpt lat="44.6743" lon="6.62427">
        <ele>1000.39</ele>
        <time>2011-06-12T08:55:11Z</time>
      </trkpt>
      <trkpt lat="44.67431" lon="6.62434">
        <ele>1002.31</ele>
        <time>2011-06-12T08:55:16Z</time>
      </trkpt>
      <trkpt lat="44.67441" lon="6.62453">
        <ele>1004.72</ele>
        <time>2011-06-12T08:55:29Z</time>
      </trkpt>
      <trkpt lat="44.67457" lon="6.62484">
        <ele>1008.08</ele>
        <time>2011-06-12T08:55:46Z</time>
      </trkpt>
      <trkpt lat="44.67464" lon="6.62505">
        <ele>1010.96</ele>
        <time>2011-06-12T08:55:57Z</time>
      </trkpt>
      <trkpt lat="44.67468" lon="6.6253">
        <ele>1013.85</ele>
        <time>2011-06-12T08:56:09Z</time>
      </trkpt>
      <trkpt lat="44.67468" lon="6.62532">
        <ele>1014.81</ele>
        <time>2011-06-12T08:56:13Z</time>
      </trkpt>
      <trkpt lat="44.67462" lon="6.62523">
        <ele>1016.25</ele>
        <time>2011-06-12T08:56:19Z</time>
      </trkpt>
      <trkpt lat="44.67449" lon="6.62512">
        <ele>1020.1</ele>
        <time>2011-06-12T08:56:30Z</time>
      </trkpt>
      <trkpt lat="44.6743" lon="6.62494">
        <ele>1022.5</ele>
        <time>2011-06-12T08:56:45Z</time>
      </trkpt>
      <trkpt lat="44.67397" lon="6.62484">
        <ele>1022.02</ele>
        <time>2011-06-12T08:56:57Z</time>
      </trkpt>
      <trkpt lat="44.67389" lon="6.62485">
        <ele>1022.5</ele>
        <time>2011-06-12T08:56:59Z</time>
      </trkpt>
      <trkpt lat="44.67385" lon="6.62486">
        <ele>1022.02</ele>
        <time>2011-06-12T08:57:00Z</time>
      </trkpt>
      <trkpt lat="44.67368" lon="6.62491">
        <ele>1022.98</ele>
        <time>2011-06-12T08:57:04Z</time>
      </trkpt>
      <trkpt lat="44.67349" lon="6.62513">
        <ele>1025.86</ele>
        <time>2011-06-12T08:57:14Z</time>
      </trkpt>
      <trkpt lat="44.67344" lon="6.62526">
        <ele>1027.31</ele>
        <time>2011-06-12T08:57:19Z</time>
      </trkpt>
      <trkpt lat="44.67345" lon="6.62533">
        <ele>1027.79</ele>
        <time>2011-06-12T08:57:22Z</time>
      </trkpt>
      <trkpt lat="44.67342" lon="6.62558">
        <ele>1029.71</ele>
        <time>2011-06-12T08:57:35Z</time>
      </trkpt>
      <trkpt lat="44.67338" lon="6.62562">
        <ele>1032.11</ele>
        <time>2011-06-12T08:57:43Z</time>
      </trkpt>
      <trkpt lat="44.67333" lon="6.62554">
        <ele>1033.55</ele>
        <time>2011-06-12T08:57:50Z</time>
      </trkpt>
      <trkpt lat="44.67332" lon="6.62552">
        <ele>1033.55</ele>
        <time>2011-06-12T08:57:51Z</time>
      </trkpt>
      <trkpt lat="44.67331" lon="6.62541">
        <ele>1034.52</ele>
        <time>2011-06-12T08:57:57Z</time>
      </trkpt>
      <trkpt lat="44.67332" lon="6.62523">
        <ele>1035.96</ele>
        <time>2011-06-12T08:58:05Z</time>
      </trkpt>
      <trkpt lat="44.67332" lon="6.62521">
        <ele>1035.96</ele>
        <time>2011-06-12T08:58:06Z</time>
      </trkpt>
      <trkpt lat="44.67332" lon="6.62519">
        <ele>1035.96</ele>
        <time>2011-06-12T08:58:07Z</time>
      </trkpt>
      <trkpt lat="44.67331" lon="6.62517">
        <ele>1035.48</ele>
        <time>2011-06-12T08:58:08Z</time>
      </trkpt>
      <trkpt lat="44.67328" lon="6.62514">
        <ele>1036.92</ele>
        <time>2011-06-12T08:58:13Z</time>
      </trkpt>
      <trkpt lat="44.67326" lon="6.62525">
        <ele>1037.4</ele>
        <time>2011-06-12T08:58:18Z</time>
      </trkpt>
      <trkpt lat="44.67326" lon="6.62528">
        <ele>1037.4</ele>
        <time>2011-06-12T08:58:19Z</time>
      </trkpt>
      <trkpt lat="44.67325" lon="6.6253">
        <ele>1037.88</ele>
        <time>2011-06-12T08:58:20Z</time>
      </trkpt>
      <trkpt lat="44.67325" lon="6.62533">
        <ele>1037.88</ele>
        <time>2011-06-12T08:58:21Z</time>
      </trkpt>
      <trkpt lat="44.67325" lon="6.62535">
        <ele>1037.4</ele>
        <time>2011-06-12T08:58:22Z</time>
      </trkpt>
      <trkpt lat="44.67324" lon="6.62538">
        <ele>1037.4</ele>
        <time>2011-06-12T08:58:23Z</time>
      </trkpt>
      <trkpt lat="44.67323" lon="6.6254">
        <ele>1037.4</ele>
        <time>2011-06-12T08:58:24Z</time>
      </trkpt>
      <trkpt lat="44.67321" lon="6.62542">
        <ele>1037.4</ele>
        <time>2011-06-12T08:58:25Z</time>
      </trkpt>
      <trkpt lat="44.67321" lon="6.62543">
        <ele>1037.88</ele>
        <time>2011-06-12T08:58:26Z</time>
      </trkpt>
      <trkpt lat="44.6732" lon="6.62545">
        <ele>1038.36</ele>
        <time>2011-06-12T08:58:27Z</time>
      </trkpt>
      <trkpt lat="44.6732" lon="6.62547">
        <ele>1038.36</ele>
        <time>2011-06-12T08:58:28Z</time>
      </trkpt>
      <trkpt lat="44.67319" lon="6.6255">
        <ele>1038.36</ele>
        <time>2011-06-12T08:58:29Z</time>
      </trkpt>
      <trkpt lat="44.67319" lon="6.62552">
        <ele>1038.84</ele>
        <time>2011-06-12T08:58:30Z</time>
      </trkpt>
      <trkpt lat="44.67319" lon="6.62554">
        <ele>1038.36</ele>
        <time>2011-06-12T08:58:31Z</time>
      </trkpt>
      <trkpt lat="44.67318" lon="6.62556">
        <ele>1038.36</ele>
        <time>2011-06-12T08:58:32Z</time>
      </trkpt>
      <trkpt lat="44.67318" lon="6.62559">
        <ele>1038.84</ele>
        <time>2011-06-12T08:58:33Z</time>
      </trkpt>
      <trkpt lat="44.67319" lon="6.62569">
        <ele>1039.32</ele>
        <time>2011-06-12T08:58:37Z</time>
      </trkpt>
      <trkpt lat="44.6732" lon="6.62572">
        <ele>1039.32</ele>
        <time>2011-06-12T08:58:38Z</time>
      </trkpt>
      <trkpt lat="44.67321" lon="6.62574">
        <ele>1039.32</ele>
        <time>2011-06-12T08:58:39Z</time>
      </trkpt>
      <trkpt lat="44.67321" lon="6.62577">
        <ele>1038.84</ele>
        <time>2011-06-12T08:58:40Z</time>
      </trkpt>
      <trkpt lat="44.67322" lon="6.62581">
        <ele>1038.84</ele>
        <time>2011-06-12T08:58:41Z</time>
      </trkpt>
      <trkpt lat="44.67323" lon="6.62585">
        <ele>1039.32</ele>
        <time>2011-06-12T08:58:42Z</time>
      </trkpt>
      <trkpt lat="44.67324" lon="6.62588">
        <ele>1039.32</ele>
        <time>2011-06-12T08:58:43Z</time>
      </trkpt>
      <trkpt lat="44.67324" lon="6.62591">
        <ele>1039.32</ele>
        <time>2011-06-12T08:58:44Z</time>
      </trkpt>
      <trkpt lat="44.67325" lon="6.62595">
        <ele>1039.32</ele>
        <time>2011-06-12T08:58:45Z</time>
      </trkpt>
      <trkpt lat="44.67326" lon="6.62617">
        <ele>1042.69</ele>
        <time>2011-06-12T08:58:55Z</time>
      </trkpt>
      <trkpt lat="44.67324" lon="6.62628">
        <ele>1044.61</ele>
        <time>2011-06-12T08:59:09Z</time>
      </trkpt>
      <trkpt lat="44.67321" lon="6.62623">
        <ele>1044.61</ele>
        <time>2011-06-12T08:59:12Z</time>
      </trkpt>
      <trkpt lat="44.67315" lon="6.62614">
        <ele>1046.53</ele>
        <time>2011-06-12T08:59:25Z</time>
      </trkpt>
      <trkpt lat="44.67315" lon="6.62615">
        <ele>1047.49</ele>
        <time>2011-06-12T08:59:26Z</time>
      </trkpt>
      <trkpt lat="44.67315" lon="6.62617">
        <ele>1047.97</ele>
        <time>2011-06-12T08:59:27Z</time>
      </trkpt>
      <trkpt lat="44.6731" lon="6.62637">
        <ele>1050.38</ele>
        <time>2011-06-12T08:59:39Z</time>
      </trkpt>
      <trkpt lat="44.6731" lon="6.62639">
        <ele>1050.38</ele>
        <time>2011-06-12T08:59:40Z</time>
      </trkpt>
      <trkpt lat="44.67309" lon="6.62641">
        <ele>1050.86</ele>
        <time>2011-06-12T08:59:41Z</time>
      </trkpt>
      <trkpt lat="44.67309" lon="6.62643">
        <ele>1050.86</ele>
        <time>2011-06-12T08:59:42Z</time>
      </trkpt>
      <trkpt lat="44.67308" lon="6.62644">
        <ele>1050.86</ele>
        <time>2011-06-12T08:59:43Z</time>
      </trkpt>
      <trkpt lat="44.67295" lon="6.62671">
        <ele>1052.3</ele>
        <time>2011-06-12T08:59:57Z</time>
      </trkpt>
      <trkpt lat="44.67285" lon="6.62689">
        <ele>1055.18</ele>
        <time>2011-06-12T09:00:10Z</time>
      </trkpt>
      <trkpt lat="44.67281" lon="6.62695">
        <ele>1055.18</ele>
        <time>2011-06-12T09:00:16Z</time>
      </trkpt>
      <trkpt lat="44.67268" lon="6.62711">
        <ele>1058.07</ele>
        <time>2011-06-12T09:00:27Z</time>
      </trkpt>
      <trkpt lat="44.67256" lon="6.62707">
        <ele>1059.99</ele>
        <time>2011-06-12T09:00:35Z</time>
      </trkpt>
      <trkpt lat="44.67246" lon="6.6273">
        <ele>1061.91</ele>
        <time>2011-06-12T09:00:47Z</time>
      </trkpt>
      <trkpt lat="44.67238" lon="6.62726">
        <ele>1063.84</ele>
        <time>2011-06-12T09:00:54Z</time>
      </trkpt>
      <trkpt lat="44.67234" lon="6.62715">
        <ele>1064.32</ele>
        <time>2011-06-12T09:01:01Z</time>
      </trkpt>
      <trkpt lat="44.67224" lon="6.62692">
        <ele>1067.68</ele>
        <time>2011-06-12T09:01:17Z</time>
      </trkpt>
      <trkpt lat="44.67212" lon="6.62659">
        <ele>1069.12</ele>
        <time>2011-06-12T09:01:28Z</time>
      </trkpt>
      <trkpt lat="44.6719" lon="6.6264">
        <ele>1069.12</ele>
        <time>2011-06-12T09:01:35Z</time>
      </trkpt>
      <trkpt lat="44.67144" lon="6.62623">
        <ele>1071.05</ele>
        <time>2011-06-12T09:01:48Z</time>
      </trkpt>
      <trkpt lat="44.67133" lon="6.62573">
        <ele>1072.01</ele>
        <time>2011-06-12T09:01:58Z</time>
      </trkpt>
      <trkpt lat="44.67122" lon="6.62511">
        <ele>1072.49</ele>
        <time>2011-06-12T09:02:10Z</time>
      </trkpt>
      <trkpt lat="44.67119" lon="6.62506">
        <ele>1072.97</ele>
        <time>2011-06-12T09:02:11Z</time>
      </trkpt>
      <trkpt lat="44.67117" lon="6.62502">
        <ele>1072.97</ele>
        <time>2011-06-12T09:02:12Z</time>
      </trkpt>
      <trkpt lat="44.67113" lon="6.62498">
        <ele>1072.97</ele>
        <time>2011-06-12T09:02:13Z</time>
      </trkpt>
      <trkpt lat="44.6711" lon="6.62495">
        <ele>1072.49</ele>
        <time>2011-06-12T09:02:14Z</time>
      </trkpt>
      <trkpt lat="44.67102" lon="6.62488">
        <ele>1072.49</ele>
        <time>2011-06-12T09:02:16Z</time>
      </trkpt>
      <trkpt lat="44.67097" lon="6.62486">
        <ele>1072.49</ele>
        <time>2011-06-12T09:02:17Z</time>
      </trkpt>
      <trkpt lat="44.67093" lon="6.62484">
        <ele>1072.49</ele>
        <time>2011-06-12T09:02:18Z</time>
      </trkpt>
      <trkpt lat="44.67054" lon="6.62466">
        <ele>1073.45</ele>
        <time>2011-06-12T09:02:31Z</time>
      </trkpt>
      <trkpt lat="44.67037" lon="6.62453">
        <ele>1072.97</ele>
        <time>2011-06-12T09:02:45Z</time>
      </trkpt>
      <trkpt lat="44.6704" lon="6.62448">
        <ele>1072.97</ele>
        <time>2011-06-12T09:02:46Z</time>
      </trkpt>
      <trkpt lat="44.67042" lon="6.62444">
        <ele>1072.97</ele>
        <time>2011-06-12T09:02:47Z</time>
      </trkpt>
      <trkpt lat="44.67047" lon="6.62437">
        <ele>1073.45</ele>
        <time>2011-06-12T09:02:48Z</time>
      </trkpt>
      <trkpt lat="44.67048" lon="6.62432">
        <ele>1074.41</ele>
        <time>2011-06-12T09:02:49Z</time>
      </trkpt>
      <trkpt lat="44.6705" lon="6.62425">
        <ele>1075.37</ele>
        <time>2011-06-12T09:02:50Z</time>
      </trkpt>
      <trkpt lat="44.67067" lon="6.6239">
        <ele>1077.78</ele>
        <time>2011-06-12T09:02:58Z</time>
      </trkpt>
      <trkpt lat="44.67113" lon="6.62364">
        <ele>1075.85</ele>
        <time>2011-06-12T09:03:10Z</time>
      </trkpt>
      <trkpt lat="44.67108" lon="6.62302">
        <ele>1072.49</ele>
        <time>2011-06-12T09:03:20Z</time>
      </trkpt>
      <trkpt lat="44.6708" lon="6.62254">
        <ele>1070.57</ele>
        <time>2011-06-12T09:03:27Z</time>
      </trkpt>
      <trkpt lat="44.67074" lon="6.6227">
        <ele>1069.12</ele>
        <time>2011-06-12T09:03:30Z</time>
      </trkpt>
      <trkpt lat="44.67062" lon="6.62282">
        <ele>1065.76</ele>
        <time>2011-06-12T09:03:34Z</time>
      </trkpt>
      <trkpt lat="44.67109" lon="6.62321">
        <ele>1064.32</ele>
        <time>2011-06-12T09:03:50Z</time>
      </trkpt>
      <trkpt lat="44.67142" lon="6.62342">
        <ele>1064.8</ele>
        <time>2011-06-12T09:03:55Z</time>
      </trkpt>
      <trkpt lat="44.67147" lon="6.6235">
        <ele>1064.8</ele>
        <time>2011-06-12T09:03:56Z</time>
      </trkpt>
      <trkpt lat="44.67148" lon="6.62355">
        <ele>1066.24</ele>
        <time>2011-06-12T09:03:57Z</time>
      </trkpt>
      <trkpt lat="44.67148" lon="6.62361">
        <ele>1066.72</ele>
        <time>2011-06-12T09:03:58Z</time>
      </trkpt>
      <trkpt lat="44.67148" lon="6.62367">
        <ele>1066.72</ele>
        <time>2011-06-12T09:03:59Z</time>
      </trkpt>
      <trkpt lat="44.67147" lon="6.62372">
        <ele>1067.2</ele>
        <time>2011-06-12T09:04:00Z</time>
      </trkpt>
      <trkpt lat="44.67145" lon="6.62377">
        <ele>1066.72</ele>
        <time>2011-06-12T09:04:01Z</time>
      </trkpt>
      <trkpt lat="44.67142" lon="6.62381">
        <ele>1066.72</ele>
        <time>2011-06-12T09:04:02Z</time>
      </trkpt>
      <trkpt lat="44.6714" lon="6.62386">
        <ele>1066.72</ele>
        <time>2011-06-12T09:04:03Z</time>
      </trkpt>
      <trkpt lat="44.67137" lon="6.62391">
        <ele>1066.72</ele>
        <time>2011-06-12T09:04:04Z</time>
      </trkpt>
      <trkpt lat="44.67135" lon="6.62396">
        <ele>1066.24</ele>
        <time>2011-06-12T09:04:05Z</time>
      </trkpt>
      <trkpt lat="44.67133" lon="6.62401">
        <ele>1066.24</ele>
        <time>2011-06-12T09:04:06Z</time>
      </trkpt>
      <trkpt lat="44.671" lon="6.6248">
        <ele>1066.72</ele>
        <time>2011-06-12T09:04:22Z</time>
      </trkpt>
      <trkpt lat="44.6709" lon="6.6249">
        <ele>1066.24</ele>
        <time>2011-06-12T09:04:36Z</time>
      </trkpt>
      <trkpt lat="44.67093" lon="6.62485">
        <ele>1066.24</ele>
        <time>2011-06-12T09:07:08Z</time>
      </trkpt>
      <trkpt lat="44.67093" lon="6.62484">
        <ele>1065.76</ele>
        <time>2011-06-12T09:09:04Z</time>
      </trkpt>
      <trkpt lat="44.67094" lon="6.62482">
        <ele>1065.76</ele>
        <time>2011-06-12T09:10:47Z</time>
      </trkpt>
      <trkpt lat="44.67095" lon="6.62481">
        <ele>1064.32</ele>
        <time>2011-06-12T09:12:16Z</time>
      </trkpt>
      <trkpt lat="44.67095" lon="6.62481">
        <ele>1063.84</ele>
        <time>2011-06-12T09:12:17Z</time>
      </trkpt>
      <trkpt lat="44.67096" lon="6.62478">
        <ele>1065.76</ele>
        <time>2011-06-12T09:13:06Z</time>
      </trkpt>
      <trkpt lat="44.67097" lon="6.6248">
        <ele>1066.72</ele>
        <time>2011-06-12T09:13:50Z</time>
      </trkpt>
      <trkpt lat="44.67093" lon="6.62531">
        <ele>1065.76</ele>
        <time>2011-06-12T09:14:03Z</time>
      </trkpt>
      <trkpt lat="44.67086" lon="6.62618">
        <ele>1066.72</ele>
        <time>2011-06-12T09:14:18Z</time>
      </trkpt>
      <trkpt lat="44.67085" lon="6.62637">
        <ele>1067.2</ele>
        <time>2011-06-12T09:14:23Z</time>
      </trkpt>
      <trkpt lat="44.67085" lon="6.6264">
        <ele>1066.72</ele>
        <time>2011-06-12T09:14:24Z</time>
      </trkpt>
      <trkpt lat="44.67083" lon="6.62641">
        <ele>1066.72</ele>
        <time>2011-06-12T09:14:26Z</time>
      </trkpt>
      <trkpt lat="44.6708" lon="6.62642">
        <ele>1067.2</ele>
        <time>2011-06-12T09:14:29Z</time>
      </trkpt>
      <trkpt lat="44.67053" lon="6.62642">
        <ele>1067.68</ele>
        <time>2011-06-12T09:14:40Z</time>
      </trkpt>
      <trkpt lat="44.66996" lon="6.62655">
        <ele>1066.72</ele>
        <time>2011-06-12T09:14:51Z</time>
      </trkpt>
      <trkpt lat="44.66951" lon="6.62679">
        <ele>1066.24</ele>
        <time>2011-06-12T09:15:00Z</time>
      </trkpt>
      <trkpt lat="44.66941" lon="6.62688">
        <ele>1065.76</ele>
        <time>2011-06-12T09:15:02Z</time>
      </trkpt>
      <trkpt lat="44.66915" lon="6.62711">
        <ele>1063.84</ele>
        <time>2011-06-12T09:15:07Z</time>
      </trkpt>
      <trkpt lat="44.66898" lon="6.62724">
        <ele>1063.36</ele>
        <time>2011-06-12T09:15:10Z</time>
      </trkpt>
      <trkpt lat="44.6689" lon="6.62732">
        <ele>1063.84</ele>
        <time>2011-06-12T09:15:12Z</time>
      </trkpt>
      <trkpt lat="44.66887" lon="6.62737">
        <ele>1063.36</ele>
        <time>2011-06-12T09:15:13Z</time>
      </trkpt>
      <trkpt lat="44.66886" lon="6.62742">
        <ele>1063.36</ele>
        <time>2011-06-12T09:15:14Z</time>
      </trkpt>
      <trkpt lat="44.66886" lon="6.62749">
        <ele>1062.87</ele>
        <time>2011-06-12T09:15:16Z</time>
      </trkpt>
      <trkpt lat="44.66889" lon="6.6277">
        <ele>1062.39</ele>
        <time>2011-06-12T09:15:23Z</time>
      </trkpt>
      <trkpt lat="44.66899" lon="6.62771">
        <ele>1062.87</ele>
        <time>2011-06-12T09:15:26Z</time>
      </trkpt>
      <trkpt lat="44.66909" lon="6.62766">
        <ele>1065.76</ele>
        <time>2011-06-12T09:15:38Z</time>
      </trkpt>
      <trkpt lat="44.66913" lon="6.62767">
        <ele>1067.2</ele>
        <time>2011-06-12T09:15:53Z</time>
      </trkpt>
      <trkpt lat="44.66914" lon="6.62767">
        <ele>1066.24</ele>
        <time>2011-06-12T09:16:45Z</time>
      </trkpt>
      <trkpt lat="44.6692" lon="6.62772">
        <ele>1066.24</ele>
        <time>2011-06-12T09:16:49Z</time>
      </trkpt>
      <trkpt lat="44.66939" lon="6.62768">
        <ele>1067.2</ele>
        <time>2011-06-12T09:16:58Z</time>
      </trkpt>
      <trkpt lat="44.66939" lon="6.62768">
        <ele>1067.2</ele>
        <time>2011-06-12T09:17:01Z</time>
      </trkpt>
      <trkpt lat="44.66951" lon="6.62767">
        <ele>1066.24</ele>
        <time>2011-06-12T09:17:06Z</time>
      </trkpt>
      <trkpt lat="44.66973" lon="6.62783">
        <ele>1067.2</ele>
        <time>2011-06-12T09:17:14Z</time>
      </trkpt>
      <trkpt lat="44.66973" lon="6.62784">
        <ele>1067.68</ele>
        <time>2011-06-12T09:17:15Z</time>
      </trkpt>
      <trkpt lat="44.66976" lon="6.62785">
        <ele>1068.64</ele>
        <time>2011-06-12T09:17:18Z</time>
      </trkpt>
      <trkpt lat="44.67003" lon="6.62805">
        <ele>1069.12</ele>
        <time>2011-06-12T09:17:31Z</time>
      </trkpt>
      <trkpt lat="44.67057" lon="6.62836">
        <ele>1071.53</ele>
        <time>2011-06-12T09:17:46Z</time>
      </trkpt>
      <trkpt lat="44.6708" lon="6.62846">
        <ele>1070.57</ele>
        <time>2011-06-12T09:17:52Z</time>
      </trkpt>
      <trkpt lat="44.67088" lon="6.62849">
        <ele>1071.05</ele>
        <time>2011-06-12T09:17:54Z</time>
      </trkpt>
      <trkpt lat="44.67092" lon="6.62851">
        <ele>1071.53</ele>
        <time>2011-06-12T09:17:55Z</time>
      </trkpt>
      <trkpt lat="44.67096" lon="6.62854">
        <ele>1071.05</ele>
        <time>2011-06-12T09:17:56Z</time>
      </trkpt>
      <trkpt lat="44.67145" lon="6.62893">
        <ele>1067.68</ele>
        <time>2011-06-12T09:18:07Z</time>
      </trkpt>
      <trkpt lat="44.67151" lon="6.62898">
        <ele>1067.2</ele>
        <time>2011-06-12T09:18:08Z</time>
      </trkpt>
      <trkpt lat="44.67157" lon="6.62904">
        <ele>1067.2</ele>
        <time>2011-06-12T09:18:09Z</time>
      </trkpt>
      <trkpt lat="44.67172" lon="6.62922">
        <ele>1066.72</ele>
        <time>2011-06-12T09:18:12Z</time>
      </trkpt>
      <trkpt lat="44.67215" lon="6.62984">
        <ele>1066.24</ele>
        <time>2011-06-12T09:18:22Z</time>
      </trkpt>
      <trkpt lat="44.67217" lon="6.62991">
        <ele>1066.24</ele>
        <time>2011-06-12T09:18:23Z</time>
      </trkpt>
      <trkpt lat="44.6722" lon="6.62998">
        <ele>1065.28</ele>
        <time>2011-06-12T09:18:24Z</time>
      </trkpt>
      <trkpt lat="44.67224" lon="6.6301">
        <ele>1063.36</ele>
        <time>2011-06-12T09:18:26Z</time>
      </trkpt>
      <trkpt lat="44.67229" lon="6.63016">
        <ele>1062.39</ele>
        <time>2011-06-12T09:18:27Z</time>
      </trkpt>
      <trkpt lat="44.67234" lon="6.63022">
        <ele>1061.43</ele>
        <time>2011-06-12T09:18:28Z</time>
      </trkpt>
      <trkpt lat="44.67238" lon="6.63026">
        <ele>1060.47</ele>
        <time>2011-06-12T09:18:29Z</time>
      </trkpt>
      <trkpt lat="44.6724" lon="6.6303">
        <ele>1060.47</ele>
        <time>2011-06-12T09:18:30Z</time>
      </trkpt>
      <trkpt lat="44.67242" lon="6.63036">
        <ele>1059.51</ele>
        <time>2011-06-12T09:18:31Z</time>
      </trkpt>
      <trkpt lat="44.67245" lon="6.63042">
        <ele>1058.55</ele>
        <time>2011-06-12T09:18:32Z</time>
      </trkpt>
      <trkpt lat="44.67248" lon="6.63048">
        <ele>1057.59</ele>
        <time>2011-06-12T09:18:33Z</time>
      </trkpt>
      <trkpt lat="44.67252" lon="6.63053">
        <ele>1057.59</ele>
        <time>2011-06-12T09:18:34Z</time>
      </trkpt>
      <trkpt lat="44.67269" lon="6.6308">
        <ele>1058.55</ele>
        <time>2011-06-12T09:18:39Z</time>
      </trkpt>
      <trkpt lat="44.67293" lon="6.63112">
        <ele>1056.15</ele>
        <time>2011-06-12T09:18:44Z</time>
      </trkpt>
      <trkpt lat="44.67301" lon="6.63126">
        <ele>1056.15</ele>
        <time>2011-06-12T09:18:46Z</time>
      </trkpt>
      <trkpt lat="44.67305" lon="6.63133">
        <ele>1056.15</ele>
        <time>2011-06-12T09:18:47Z</time>
      </trkpt>
      <trkpt lat="44.67317" lon="6.63152">
        <ele>1056.63</ele>
        <time>2011-06-12T09:18:50Z</time>
      </trkpt>
      <trkpt lat="44.67341" lon="6.63189">
        <ele>1055.67</ele>
        <time>2011-06-12T09:18:56Z</time>
      </trkpt>
      <trkpt lat="44.67347" lon="6.63195">
        <ele>1055.18</ele>
        <time>2011-06-12T09:18:57Z</time>
      </trkpt>
      <trkpt lat="44.6736" lon="6.63205">
        <ele>1053.74</ele>
        <time>2011-06-12T09:18:59Z</time>
      </trkpt>
      <trkpt lat="44.67398" lon="6.63228">
        <ele>1050.86</ele>
        <time>2011-06-12T09:19:04Z</time>
      </trkpt>
      <trkpt lat="44.67415" lon="6.63238">
        <ele>1049.9</ele>
        <time>2011-06-12T09:19:06Z</time>
      </trkpt>
      <trkpt lat="44.67484" lon="6.63277">
        <ele>1048.45</ele>
        <time>2011-06-12T09:19:14Z</time>
      </trkpt>
      <trkpt lat="44.67491" lon="6.63284">
        <ele>1048.94</ele>
        <time>2011-06-12T09:19:15Z</time>
      </trkpt>
      <trkpt lat="44.67572" lon="6.63371">
        <ele>1049.42</ele>
        <time>2011-06-12T09:19:29Z</time>
      </trkpt>
      <trkpt lat="44.67616" lon="6.63405">
        <ele>1052.78</ele>
        <time>2011-06-12T09:19:38Z</time>
      </trkpt>
      <trkpt lat="44.67636" lon="6.63414">
        <ele>1055.18</ele>
        <time>2011-06-12T09:19:44Z</time>
      </trkpt>
      <trkpt lat="44.67641" lon="6.63417">
        <ele>1054.7</ele>
        <time>2011-06-12T09:19:46Z</time>
      </trkpt>
      <trkpt lat="44.67664" lon="6.63441">
        <ele>1058.07</ele>
        <time>2011-06-12T09:19:56Z</time>
      </trkpt>
      <trkpt lat="44.67688" lon="6.63477">
        <ele>1060.95</ele>
        <time>2011-06-12T09:20:10Z</time>
      </trkpt>
      <trkpt lat="44.67715" lon="6.63514">
        <ele>1064.32</ele>
        <time>2011-06-12T09:20:25Z</time>
      </trkpt>
      <trkpt lat="44.67737" lon="6.63536">
        <ele>1068.16</ele>
        <time>2011-06-12T09:20:37Z</time>
      </trkpt>
      <trkpt lat="44.67739" lon="6.63537">
        <ele>1062.39</ele>
        <time>2011-06-12T09:20:38Z</time>
      </trkpt>
      <trkpt lat="44.67741" lon="6.63538">
        <ele>1063.84</ele>
        <time>2011-06-12T09:20:39Z</time>
      </trkpt>
      <trkpt lat="44.67744" lon="6.63541">
        <ele>1070.08</ele>
        <time>2011-06-12T09:20:41Z</time>
      </trkpt>
      <trkpt lat="44.67746" lon="6.63542">
        <ele>1069.6</ele>
        <time>2011-06-12T09:20:42Z</time>
      </trkpt>
      <trkpt lat="44.6775" lon="6.63545">
        <ele>1068.16</ele>
        <time>2011-06-12T09:20:44Z</time>
      </trkpt>
      <trkpt lat="44.67767" lon="6.63584">
        <ele>1071.05</ele>
        <time>2011-06-12T09:20:58Z</time>
      </trkpt>
      <trkpt lat="44.67769" lon="6.63614">
        <ele>1073.93</ele>
        <time>2011-06-12T09:21:10Z</time>
      </trkpt>
      <trkpt lat="44.67772" lon="6.63614">
        <ele>1073.93</ele>
        <time>2011-06-12T09:21:11Z</time>
      </trkpt>
      <trkpt lat="44.67815" lon="6.63618">
        <ele>1074.41</ele>
        <time>2011-06-12T09:21:25Z</time>
      </trkpt>
      <trkpt lat="44.67824" lon="6.63616">
        <ele>1074.41</ele>
        <time>2011-06-12T09:21:27Z</time>
      </trkpt>
      <trkpt lat="44.67828" lon="6.63615">
        <ele>1074.41</ele>
        <time>2011-06-12T09:21:28Z</time>
      </trkpt>
      <trkpt lat="44.67878" lon="6.63594">
        <ele>1076.81</ele>
        <time>2011-06-12T09:21:42Z</time>
      </trkpt>
      <trkpt lat="44.67912" lon="6.63622">
        <ele>1075.85</ele>
        <time>2011-06-12T09:21:54Z</time>
      </trkpt>
      <trkpt lat="44.67934" lon="6.6361">
        <ele>1079.22</ele>
        <time>2011-06-12T09:22:01Z</time>
      </trkpt>
      <trkpt lat="44.67937" lon="6.63607">
        <ele>1080.18</ele>
        <time>2011-06-12T09:22:03Z</time>
      </trkpt>
      <trkpt lat="44.67949" lon="6.63588">
        <ele>1082.58</ele>
        <time>2011-06-12T09:22:13Z</time>
      </trkpt>
      <trkpt lat="44.67975" lon="6.63567">
        <ele>1084.02</ele>
        <time>2011-06-12T09:22:26Z</time>
      </trkpt>
      <trkpt lat="44.68" lon="6.63556">
        <ele>1087.39</ele>
        <time>2011-06-12T09:22:38Z</time>
      </trkpt>
      <trkpt lat="44.68021" lon="6.63555">
        <ele>1090.75</ele>
        <time>2011-06-12T09:22:50Z</time>
      </trkpt>
      <trkpt lat="44.68051" lon="6.63541">
        <ele>1092.68</ele>
        <time>2011-06-12T09:23:04Z</time>
      </trkpt>
      <trkpt lat="44.68082" lon="6.63498">
        <ele>1093.64</ele>
        <time>2011-06-12T09:23:19Z</time>
      </trkpt>
      <trkpt lat="44.68122" lon="6.6345">
        <ele>1093.16</ele>
        <time>2011-06-12T09:23:32Z</time>
      </trkpt>
      <trkpt lat="44.6816" lon="6.6339">
        <ele>1094.12</ele>
        <time>2011-06-12T09:23:45Z</time>
      </trkpt>
      <trkpt lat="44.68167" lon="6.63375">
        <ele>1093.64</ele>
        <time>2011-06-12T09:23:48Z</time>
      </trkpt>
      <trkpt lat="44.68185" lon="6.63334">
        <ele>1092.2</ele>
        <time>2011-06-12T09:23:55Z</time>
      </trkpt>
      <trkpt lat="44.68193" lon="6.63317">
        <ele>1090.27</ele>
        <time>2011-06-12T09:23:57Z</time>
      </trkpt>
      <trkpt lat="44.68197" lon="6.63308">
        <ele>1089.31</ele>
        <time>2011-06-12T09:23:58Z</time>
      </trkpt>
      <trkpt lat="44.68203" lon="6.633">
        <ele>1089.79</ele>
        <time>2011-06-12T09:23:59Z</time>
      </trkpt>
      <trkpt lat="44.68229" lon="6.63261">
        <ele>1088.35</ele>
        <time>2011-06-12T09:24:04Z</time>
      </trkpt>
      <trkpt lat="44.68266" lon="6.63211">
        <ele>1084.5</ele>
        <time>2011-06-12T09:24:11Z</time>
      </trkpt>
      <trkpt lat="44.68276" lon="6.63195">
        <ele>1084.02</ele>
        <time>2011-06-12T09:24:13Z</time>
      </trkpt>
      <trkpt lat="44.68278" lon="6.63188">
        <ele>1084.5</ele>
        <time>2011-06-12T09:24:14Z</time>
      </trkpt>
      <trkpt lat="44.6828" lon="6.63178">
        <ele>1082.1</ele>
        <time>2011-06-12T09:24:17Z</time>
      </trkpt>
      <trkpt lat="44.68285" lon="6.63172">
        <ele>1079.7</ele>
        <time>2011-06-12T09:24:21Z</time>
      </trkpt>
      <trkpt lat="44.68289" lon="6.63171">
        <ele>1077.78</ele>
        <time>2011-06-12T09:24:22Z</time>
      </trkpt>
      <trkpt lat="44.68293" lon="6.63168">
        <ele>1077.29</ele>
        <time>2011-06-12T09:24:23Z</time>
      </trkpt>
      <trkpt lat="44.68297" lon="6.63165">
        <ele>1075.37</ele>
        <time>2011-06-12T09:24:24Z</time>
      </trkpt>
      <trkpt lat="44.683" lon="6.63163">
        <ele>1074.89</ele>
        <time>2011-06-12T09:24:25Z</time>
      </trkpt>
      <trkpt lat="44.68305" lon="6.63162">
        <ele>1072.97</ele>
        <time>2011-06-12T09:24:26Z</time>
      </trkpt>
      <trkpt lat="44.68313" lon="6.63162">
        <ele>1072.01</ele>
        <time>2011-06-12T09:24:28Z</time>
      </trkpt>
      <trkpt lat="44.68317" lon="6.63161">
        <ele>1071.05</ele>
        <time>2011-06-12T09:24:29Z</time>
      </trkpt>
      <trkpt lat="44.68321" lon="6.6316">
        <ele>1070.57</ele>
        <time>2011-06-12T09:24:30Z</time>
      </trkpt>
      <trkpt lat="44.68325" lon="6.63159">
        <ele>1068.64</ele>
        <time>2011-06-12T09:24:31Z</time>
      </trkpt>
      <trkpt lat="44.68335" lon="6.63158">
        <ele>1065.76</ele>
        <time>2011-06-12T09:24:33Z</time>
      </trkpt>
      <trkpt lat="44.68339" lon="6.63155">
        <ele>1063.36</ele>
        <time>2011-06-12T09:24:34Z</time>
      </trkpt>
      <trkpt lat="44.68344" lon="6.63153">
        <ele>1062.39</ele>
        <time>2011-06-12T09:24:35Z</time>
      </trkpt>
      <trkpt lat="44.6835" lon="6.63154">
        <ele>1061.91</ele>
        <time>2011-06-12T09:24:36Z</time>
      </trkpt>
      <trkpt lat="44.68355" lon="6.63155">
        <ele>1061.91</ele>
        <time>2011-06-12T09:24:37Z</time>
      </trkpt>
      <trkpt lat="44.68385" lon="6.63163">
        <ele>1060.95</ele>
        <time>2011-06-12T09:24:42Z</time>
      </trkpt>
      <trkpt lat="44.68391" lon="6.63167">
        <ele>1060.95</ele>
        <time>2011-06-12T09:24:43Z</time>
      </trkpt>
      <trkpt lat="44.68397" lon="6.63173">
        <ele>1060.47</ele>
        <time>2011-06-12T09:24:44Z</time>
      </trkpt>
      <trkpt lat="44.68416" lon="6.63195">
        <ele>1060.47</ele>
        <time>2011-06-12T09:24:48Z</time>
      </trkpt>
      <trkpt lat="44.68431" lon="6.63206">
        <ele>1062.39</ele>
        <time>2011-06-12T09:24:52Z</time>
      </trkpt>
      <trkpt lat="44.68435" lon="6.63205">
        <ele>1062.39</ele>
        <time>2011-06-12T09:24:54Z</time>
      </trkpt>
      <trkpt lat="44.68436" lon="6.63204">
        <ele>1062.39</ele>
        <time>2011-06-12T09:24:55Z</time>
      </trkpt>
      <trkpt lat="44.68438" lon="6.63202">
        <ele>1062.87</ele>
        <time>2011-06-12T09:24:56Z</time>
      </trkpt>
      <trkpt lat="44.6844" lon="6.63198">
        <ele>1063.36</ele>
        <time>2011-06-12T09:24:58Z</time>
      </trkpt>
      <trkpt lat="44.6844" lon="6.63195">
        <ele>1064.32</ele>
        <time>2011-06-12T09:24:59Z</time>
      </trkpt>
      <trkpt lat="44.6844" lon="6.63193">
        <ele>1064.32</ele>
        <time>2011-06-12T09:25:00Z</time>
      </trkpt>
      <trkpt lat="44.68441" lon="6.63182">
        <ele>1065.76</ele>
        <time>2011-06-12T09:25:05Z</time>
      </trkpt>
      <trkpt lat="44.68437" lon="6.63163">
        <ele>1066.24</ele>
        <time>2011-06-12T09:25:11Z</time>
      </trkpt>
      <trkpt lat="44.68435" lon="6.63159">
        <ele>1065.28</ele>
        <time>2011-06-12T09:25:12Z</time>
      </trkpt>
      <trkpt lat="44.68434" lon="6.63154">
        <ele>1065.28</ele>
        <time>2011-06-12T09:25:13Z</time>
      </trkpt>
      <trkpt lat="44.68433" lon="6.6315">
        <ele>1065.28</ele>
        <time>2011-06-12T09:25:14Z</time>
      </trkpt>
      <trkpt lat="44.68433" lon="6.63145">
        <ele>1065.28</ele>
        <time>2011-06-12T09:25:15Z</time>
      </trkpt>
      <trkpt lat="44.68433" lon="6.6314">
        <ele>1065.28</ele>
        <time>2011-06-12T09:25:16Z</time>
      </trkpt>
      <trkpt lat="44.68432" lon="6.63134">
        <ele>1064.8</ele>
        <time>2011-06-12T09:25:17Z</time>
      </trkpt>
      <trkpt lat="44.68431" lon="6.63129">
        <ele>1064.8</ele>
        <time>2011-06-12T09:25:18Z</time>
      </trkpt>
      <trkpt lat="44.68429" lon="6.63124">
        <ele>1064.8</ele>
        <time>2011-06-12T09:25:19Z</time>
      </trkpt>
      <trkpt lat="44.68426" lon="6.63119">
        <ele>1064.8</ele>
        <time>2011-06-12T09:25:20Z</time>
      </trkpt>
      <trkpt lat="44.68425" lon="6.63113">
        <ele>1065.28</ele>
        <time>2011-06-12T09:25:21Z</time>
      </trkpt>
      <trkpt lat="44.68418" lon="6.63098">
        <ele>1063.84</ele>
        <time>2011-06-12T09:25:24Z</time>
      </trkpt>
      <trkpt lat="44.68415" lon="6.63093">
        <ele>1064.8</ele>
        <time>2011-06-12T09:25:25Z</time>
      </trkpt>
      <trkpt lat="44.68411" lon="6.63089">
        <ele>1064.32</ele>
        <time>2011-06-12T09:25:26Z</time>
      </trkpt>
      <trkpt lat="44.68401" lon="6.63079">
        <ele>1064.32</ele>
        <time>2011-06-12T09:25:29Z</time>
      </trkpt>
      <trkpt lat="44.68398" lon="6.63076">
        <ele>1064.8</ele>
        <time>2011-06-12T09:25:30Z</time>
      </trkpt>
      <trkpt lat="44.6837" lon="6.63048">
        <ele>1064.32</ele>
        <time>2011-06-12T09:25:39Z</time>
      </trkpt>
      <trkpt lat="44.6836" lon="6.63041">
        <ele>1063.36</ele>
        <time>2011-06-12T09:25:42Z</time>
      </trkpt>
      <trkpt lat="44.68355" lon="6.6304">
        <ele>1063.36</ele>
        <time>2011-06-12T09:25:43Z</time>
      </trkpt>
      <trkpt lat="44.6835" lon="6.63038">
        <ele>1062.87</ele>
        <time>2011-06-12T09:25:44Z</time>
      </trkpt>
      <trkpt lat="44.68345" lon="6.63035">
        <ele>1062.39</ele>
        <time>2011-06-12T09:25:45Z</time>
      </trkpt>
      <trkpt lat="44.68341" lon="6.63032">
        <ele>1062.39</ele>
        <time>2011-06-12T09:25:46Z</time>
      </trkpt>
      <trkpt lat="44.68337" lon="6.63027">
        <ele>1062.39</ele>
        <time>2011-06-12T09:25:47Z</time>
      </trkpt>
      <trkpt lat="44.68332" lon="6.63022">
        <ele>1062.39</ele>
        <time>2011-06-12T09:25:48Z</time>
      </trkpt>
      <trkpt lat="44.68326" lon="6.63016">
        <ele>1062.39</ele>
        <time>2011-06-12T09:25:49Z</time>
      </trkpt>
      <trkpt lat="44.6832" lon="6.63009">
        <ele>1061.91</ele>
        <time>2011-06-12T09:25:50Z</time>
      </trkpt>
      <trkpt lat="44.68316" lon="6.63003">
        <ele>1061.43</ele>
        <time>2011-06-12T09:25:51Z</time>
      </trkpt>
      <trkpt lat="44.68312" lon="6.62997">
        <ele>1060.95</ele>
        <time>2011-06-12T09:25:52Z</time>
      </trkpt>
      <trkpt lat="44.6831" lon="6.62992">
        <ele>1061.43</ele>
        <time>2011-06-12T09:25:53Z</time>
      </trkpt>
      <trkpt lat="44.68307" lon="6.62988">
        <ele>1060.95</ele>
        <time>2011-06-12T09:25:54Z</time>
      </trkpt>
      <trkpt lat="44.68305" lon="6.62984">
        <ele>1060.47</ele>
        <time>2011-06-12T09:25:55Z</time>
      </trkpt>
      <trkpt lat="44.68301" lon="6.62971">
        <ele>1060.95</ele>
        <time>2011-06-12T09:25:58Z</time>
      </trkpt>
      <trkpt lat="44.68313" lon="6.62949">
        <ele>1060.47</ele>
        <time>2011-06-12T09:26:03Z</time>
      </trkpt>
      <trkpt lat="44.68322" lon="6.62934">
        <ele>1060.47</ele>
        <time>2011-06-12T09:26:06Z</time>
      </trkpt>
      <trkpt lat="44.68324" lon="6.62929">
        <ele>1059.99</ele>
        <time>2011-06-12T09:26:07Z</time>
      </trkpt>
      <trkpt lat="44.68335" lon="6.62904">
        <ele>1059.99</ele>
        <time>2011-06-12T09:26:11Z</time>
      </trkpt>
      <trkpt lat="44.68338" lon="6.62898">
        <ele>1059.99</ele>
        <time>2011-06-12T09:26:12Z</time>
      </trkpt>
      <trkpt lat="44.68346" lon="6.62889">
        <ele>1059.99</ele>
        <time>2011-06-12T09:26:14Z</time>
      </trkpt>
      <trkpt lat="44.68353" lon="6.62879">
        <ele>1059.51</ele>
        <time>2011-06-12T09:26:16Z</time>
      </trkpt>
      <trkpt lat="44.68354" lon="6.62846">
        <ele>1059.03</ele>
        <time>2011-06-12T09:26:21Z</time>
      </trkpt>
      <trkpt lat="44.68353" lon="6.62839">
        <ele>1058.55</ele>
        <time>2011-06-12T09:26:22Z</time>
      </trkpt>
      <trkpt lat="44.68352" lon="6.6281">
        <ele>1059.03</ele>
        <time>2011-06-12T09:26:26Z</time>
      </trkpt>
      <trkpt lat="44.68353" lon="6.62804">
        <ele>1058.07</ele>
        <time>2011-06-12T09:26:27Z</time>
      </trkpt>
      <trkpt lat="44.68355" lon="6.62799">
        <ele>1058.07</ele>
        <time>2011-06-12T09:26:28Z</time>
      </trkpt>
      <trkpt lat="44.68357" lon="6.62794">
        <ele>1058.07</ele>
        <time>2011-06-12T09:26:29Z</time>
      </trkpt>
      <trkpt lat="44.68358" lon="6.6279">
        <ele>1058.07</ele>
        <time>2011-06-12T09:26:30Z</time>
      </trkpt>
      <trkpt lat="44.68361" lon="6.62788">
        <ele>1057.11</ele>
        <time>2011-06-12T09:26:31Z</time>
      </trkpt>
      <trkpt lat="44.68364" lon="6.62787">
        <ele>1057.11</ele>
        <time>2011-06-12T09:26:32Z</time>
      </trkpt>
      <trkpt lat="44.68367" lon="6.62787">
        <ele>1058.07</ele>
        <time>2011-06-12T09:26:33Z</time>
      </trkpt>
      <trkpt lat="44.6838" lon="6.62786">
        <ele>1059.51</ele>
        <time>2011-06-12T09:26:37Z</time>
      </trkpt>
      <trkpt lat="44.68406" lon="6.62774">
        <ele>1062.39</ele>
        <time>2011-06-12T09:26:50Z</time>
      </trkpt>
      <trkpt lat="44.68431" lon="6.62753">
        <ele>1065.28</ele>
        <time>2011-06-12T09:27:03Z</time>
      </trkpt>
      <trkpt lat="44.68462" lon="6.62732">
        <ele>1065.76</ele>
        <time>2011-06-12T09:27:16Z</time>
      </trkpt>
      <trkpt lat="44.68482" lon="6.62728">
        <ele>1066.24</ele>
        <time>2011-06-12T09:27:23Z</time>
      </trkpt>
      <trkpt lat="44.68501" lon="6.62754">
        <ele>1069.12</ele>
        <time>2011-06-12T09:27:34Z</time>
      </trkpt>
      <trkpt lat="44.68525" lon="6.6278">
        <ele>1072.01</ele>
        <time>2011-06-12T09:27:49Z</time>
      </trkpt>
      <trkpt lat="44.68529" lon="6.62782">
        <ele>1072.97</ele>
        <time>2011-06-12T09:27:51Z</time>
      </trkpt>
      <trkpt lat="44.68532" lon="6.62784">
        <ele>1072.97</ele>
        <time>2011-06-12T09:27:53Z</time>
      </trkpt>
      <trkpt lat="44.68539" lon="6.62783">
        <ele>1074.41</ele>
        <time>2011-06-12T09:27:57Z</time>
      </trkpt>
      <trkpt lat="44.6855" lon="6.62776">
        <ele>1075.37</ele>
        <time>2011-06-12T09:28:03Z</time>
      </trkpt>
      <trkpt lat="44.68566" lon="6.62761">
        <ele>1078.74</ele>
        <time>2011-06-12T09:28:15Z</time>
      </trkpt>
      <trkpt lat="44.68593" lon="6.62752">
        <ele>1081.62</ele>
        <time>2011-06-12T09:28:31Z</time>
      </trkpt>
      <trkpt lat="44.68601" lon="6.6275">
        <ele>1075.85</ele>
        <time>2011-06-12T09:28:35Z</time>
      </trkpt>
      <trkpt lat="44.68602" lon="6.6275">
        <ele>1081.14</ele>
        <time>2011-06-12T09:28:36Z</time>
      </trkpt>
      <trkpt lat="44.68614" lon="6.62746">
        <ele>1084.02</ele>
        <time>2011-06-12T09:28:44Z</time>
      </trkpt>
      <trkpt lat="44.68629" lon="6.62755">
        <ele>1087.39</ele>
        <time>2011-06-12T09:28:57Z</time>
      </trkpt>
      <trkpt lat="44.68617" lon="6.62782">
        <ele>1089.79</ele>
        <time>2011-06-12T09:29:10Z</time>
      </trkpt>
      <trkpt lat="44.68622" lon="6.62813">
        <ele>1092.68</ele>
        <time>2011-06-12T09:29:25Z</time>
      </trkpt>
      <trkpt lat="44.68638" lon="6.62825">
        <ele>1096.04</ele>
        <time>2011-06-12T09:29:36Z</time>
      </trkpt>
      <trkpt lat="44.6864" lon="6.62826">
        <ele>1096.52</ele>
        <time>2011-06-12T09:29:37Z</time>
      </trkpt>
      <trkpt lat="44.68661" lon="6.62847">
        <ele>1098.92</ele>
        <time>2011-06-12T09:29:53Z</time>
      </trkpt>
      <trkpt lat="44.68679" lon="6.62852">
        <ele>1101.81</ele>
        <time>2011-06-12T09:30:06Z</time>
      </trkpt>
      <trkpt lat="44.68698" lon="6.62827">
        <ele>1099.4</ele>
        <time>2011-06-12T09:30:17Z</time>
      </trkpt>
      <trkpt lat="44.68709" lon="6.62817">
        <ele>1098.44</ele>
        <time>2011-06-12T09:30:22Z</time>
      </trkpt>
      <trkpt lat="44.6873" lon="6.62802">
        <ele>1094.6</ele>
        <time>2011-06-12T09:30:29Z</time>
      </trkpt>
      <trkpt lat="44.68746" lon="6.62793">
        <ele>1091.71</ele>
        <time>2011-06-12T09:30:33Z</time>
      </trkpt>
      <trkpt lat="44.68758" lon="6.62787">
        <ele>1089.79</ele>
        <time>2011-06-12T09:30:37Z</time>
      </trkpt>
      <trkpt lat="44.68762" lon="6.62796">
        <ele>1085.95</ele>
        <time>2011-06-12T09:30:40Z</time>
      </trkpt>
      <trkpt lat="44.68764" lon="6.62809">
        <ele>1082.58</ele>
        <time>2011-06-12T09:30:42Z</time>
      </trkpt>
      <trkpt lat="44.68765" lon="6.62823">
        <ele>1079.22</ele>
        <time>2011-06-12T09:30:44Z</time>
      </trkpt>
      <trkpt lat="44.68764" lon="6.62832">
        <ele>1079.22</ele>
        <time>2011-06-12T09:30:45Z</time>
      </trkpt>
      <trkpt lat="44.68762" lon="6.62853">
        <ele>1076.33</ele>
        <time>2011-06-12T09:30:47Z</time>
      </trkpt>
      <trkpt lat="44.68763" lon="6.62872">
        <ele>1074.41</ele>
        <time>2011-06-12T09:30:49Z</time>
      </trkpt>
      <trkpt lat="44.68764" lon="6.6291">
        <ele>1070.08</ele>
        <time>2011-06-12T09:30:53Z</time>
      </trkpt>
      <trkpt lat="44.68768" lon="6.62917">
        <ele>1066.72</ele>
        <time>2011-06-12T09:30:56Z</time>
      </trkpt>
      <trkpt lat="44.68777" lon="6.62921">
        <ele>1063.36</ele>
        <time>2011-06-12T09:31:00Z</time>
      </trkpt>
      <trkpt lat="44.68801" lon="6.62938">
        <ele>1066.72</ele>
        <time>2011-06-12T09:31:13Z</time>
      </trkpt>
      <trkpt lat="44.68817" lon="6.62964">
        <ele>1069.6</ele>
        <time>2011-06-12T09:31:27Z</time>
      </trkpt>
      <trkpt lat="44.68819" lon="6.62966">
        <ele>1070.08</ele>
        <time>2011-06-12T09:31:28Z</time>
      </trkpt>
      <trkpt lat="44.68823" lon="6.62965">
        <ele>1070.57</ele>
        <time>2011-06-12T09:31:32Z</time>
      </trkpt>
      <trkpt lat="44.68829" lon="6.62955">
        <ele>1070.57</ele>
        <time>2011-06-12T09:31:39Z</time>
      </trkpt>
      <trkpt lat="44.68834" lon="6.62942">
        <ele>1067.68</ele>
        <time>2011-06-12T09:31:45Z</time>
      </trkpt>
      <trkpt lat="44.68865" lon="6.6292">
        <ele>1070.57</ele>
        <time>2011-06-12T09:31:54Z</time>
      </trkpt>
      <trkpt lat="44.68894" lon="6.629">
        <ele>1073.45</ele>
        <time>2011-06-12T09:32:04Z</time>
      </trkpt>
      <trkpt lat="44.68924" lon="6.6288">
        <ele>1076.33</ele>
        <time>2011-06-12T09:32:19Z</time>
      </trkpt>
      <trkpt lat="44.68952" lon="6.6284">
        <ele>1078.74</ele>
        <time>2011-06-12T09:32:36Z</time>
      </trkpt>
      <trkpt lat="44.68958" lon="6.62812">
        <ele>1081.62</ele>
        <time>2011-06-12T09:32:48Z</time>
      </trkpt>
      <trkpt lat="44.68959" lon="6.62805">
        <ele>1082.58</ele>
        <time>2011-06-12T09:32:51Z</time>
      </trkpt>
      <trkpt lat="44.68964" lon="6.62773">
        <ele>1085.47</ele>
        <time>2011-06-12T09:33:05Z</time>
      </trkpt>
      <trkpt lat="44.68976" lon="6.62743">
        <ele>1088.35</ele>
        <time>2011-06-12T09:33:20Z</time>
      </trkpt>
      <trkpt lat="44.68983" lon="6.62695">
        <ele>1084.99</ele>
        <time>2011-06-12T09:33:31Z</time>
      </trkpt>
      <trkpt lat="44.68983" lon="6.62688">
        <ele>1084.5</ele>
        <time>2011-06-12T09:33:32Z</time>
      </trkpt>
      <trkpt lat="44.6901" lon="6.6266">
        <ele>1085.47</ele>
        <time>2011-06-12T09:33:44Z</time>
      </trkpt>
      <trkpt lat="44.69062" lon="6.62646">
        <ele>1086.91</ele>
        <time>2011-06-12T09:33:56Z</time>
      </trkpt>
      <trkpt lat="44.69069" lon="6.62638">
        <ele>1086.91</ele>
        <time>2011-06-12T09:33:58Z</time>
      </trkpt>
      <trkpt lat="44.69084" lon="6.62621">
        <ele>1086.43</ele>
        <time>2011-06-12T09:34:02Z</time>
      </trkpt>
      <trkpt lat="44.69088" lon="6.62618">
        <ele>1085.95</ele>
        <time>2011-06-12T09:34:03Z</time>
      </trkpt>
      <trkpt lat="44.69152" lon="6.62578">
        <ele>1084.5</ele>
        <time>2011-06-12T09:34:14Z</time>
      </trkpt>
      <trkpt lat="44.69177" lon="6.62563">
        <ele>1084.5</ele>
        <time>2011-06-12T09:34:18Z</time>
      </trkpt>
      <trkpt lat="44.69183" lon="6.62561">
        <ele>1084.5</ele>
        <time>2011-06-12T09:34:19Z</time>
      </trkpt>
      <trkpt lat="44.69189" lon="6.62561">
        <ele>1084.5</ele>
        <time>2011-06-12T09:34:20Z</time>
      </trkpt>
      <trkpt lat="44.69194" lon="6.62562">
        <ele>1085.47</ele>
        <time>2011-06-12T09:34:21Z</time>
      </trkpt>
      <trkpt lat="44.69198" lon="6.62563">
        <ele>1086.43</ele>
        <time>2011-06-12T09:34:22Z</time>
      </trkpt>
      <trkpt lat="44.69203" lon="6.62565">
        <ele>1086.43</ele>
        <time>2011-06-12T09:34:23Z</time>
      </trkpt>
      <trkpt lat="44.69217" lon="6.62573">
        <ele>1088.35</ele>
        <time>2011-06-12T09:34:27Z</time>
      </trkpt>
      <trkpt lat="44.69249" lon="6.6259">
        <ele>1091.71</ele>
        <time>2011-06-12T09:34:40Z</time>
      </trkpt>
      <trkpt lat="44.69253" lon="6.62593">
        <ele>1092.68</ele>
        <time>2011-06-12T09:34:42Z</time>
      </trkpt>
      <trkpt lat="44.69274" lon="6.6263">
        <ele>1094.6</ele>
        <time>2011-06-12T09:34:55Z</time>
      </trkpt>
      <trkpt lat="44.69302" lon="6.62681">
        <ele>1095.08</ele>
        <time>2011-06-12T09:35:08Z</time>
      </trkpt>
      <trkpt lat="44.69321" lon="6.62713">
        <ele>1095.56</ele>
        <time>2011-06-12T09:35:16Z</time>
      </trkpt>
      <trkpt lat="44.69336" lon="6.62728">
        <ele>1096.04</ele>
        <time>2011-06-12T09:35:20Z</time>
      </trkpt>
      <trkpt lat="44.6934" lon="6.62731">
        <ele>1096.52</ele>
        <time>2011-06-12T09:35:21Z</time>
      </trkpt>
      <trkpt lat="44.69401" lon="6.62761">
        <ele>1095.56</ele>
        <time>2011-06-12T09:35:36Z</time>
      </trkpt>
      <trkpt lat="44.69413" lon="6.62764">
        <ele>1081.62</ele>
        <time>2011-06-12T09:35:40Z</time>
      </trkpt>
      <trkpt lat="44.69415" lon="6.62765">
        <ele>1095.56</ele>
        <time>2011-06-12T09:35:41Z</time>
      </trkpt>
      <trkpt lat="44.69415" lon="6.62767">
        <ele>1102.77</ele>
        <time>2011-06-12T09:35:43Z</time>
      </trkpt>
      <trkpt lat="44.69414" lon="6.62768">
        <ele>1097.96</ele>
        <time>2011-06-12T09:35:44Z</time>
      </trkpt>
      <trkpt lat="44.69404" lon="6.62771">
        <ele>1097.96</ele>
        <time>2011-06-12T09:35:49Z</time>
      </trkpt>
      <trkpt lat="44.69403" lon="6.62771">
        <ele>1098.44</ele>
        <time>2011-06-12T09:35:50Z</time>
      </trkpt>
      <trkpt lat="44.694" lon="6.62774">
        <ele>1099.4</ele>
        <time>2011-06-12T09:35:55Z</time>
      </trkpt>
      <trkpt lat="44.69401" lon="6.62775">
        <ele>1099.89</ele>
        <time>2011-06-12T09:35:56Z</time>
      </trkpt>
      <trkpt lat="44.69402" lon="6.62776">
        <ele>1099.89</ele>
        <time>2011-06-12T09:35:57Z</time>
      </trkpt>
      <trkpt lat="44.69402" lon="6.62777">
        <ele>1099.89</ele>
        <time>2011-06-12T09:35:58Z</time>
      </trkpt>
      <trkpt lat="44.69403" lon="6.62778">
        <ele>1100.37</ele>
        <time>2011-06-12T09:35:59Z</time>
      </trkpt>
      <trkpt lat="44.69407" lon="6.62784">
        <ele>1102.29</ele>
        <time>2011-06-12T09:36:06Z</time>
      </trkpt>
      <trkpt lat="44.69415" lon="6.62797">
        <ele>1105.17</ele>
        <time>2011-06-12T09:36:18Z</time>
      </trkpt>
      <trkpt lat="44.69426" lon="6.62819">
        <ele>1108.54</ele>
        <time>2011-06-12T09:36:33Z</time>
      </trkpt>
      <trkpt lat="44.69433" lon="6.62839">
        <ele>1111.9</ele>
        <time>2011-06-12T09:36:48Z</time>
      </trkpt>
      <trkpt lat="44.69445" lon="6.62852">
        <ele>1114.31</ele>
        <time>2011-06-12T09:37:03Z</time>
      </trkpt>
      <trkpt lat="44.6945" lon="6.62868">
        <ele>1117.67</ele>
        <time>2011-06-12T09:37:17Z</time>
      </trkpt>
      <trkpt lat="44.69457" lon="6.6288">
        <ele>1119.11</ele>
        <time>2011-06-12T09:37:34Z</time>
      </trkpt>
      <trkpt lat="44.69464" lon="6.62889">
        <ele>1121.03</ele>
        <time>2011-06-12T09:37:44Z</time>
      </trkpt>
      <trkpt lat="44.69481" lon="6.629">
        <ele>1122</ele>
        <time>2011-06-12T09:37:56Z</time>
      </trkpt>
      <trkpt lat="44.6949" lon="6.62901">
        <ele>1123.44</ele>
        <time>2011-06-12T09:38:01Z</time>
      </trkpt>
      <trkpt lat="44.69516" lon="6.62905">
        <ele>1124.4</ele>
        <time>2011-06-12T09:38:14Z</time>
      </trkpt>
      <trkpt lat="44.6954" lon="6.62924">
        <ele>1125.84</ele>
        <time>2011-06-12T09:38:28Z</time>
      </trkpt>
      <trkpt lat="44.69542" lon="6.62926">
        <ele>1125.84</ele>
        <time>2011-06-12T09:38:29Z</time>
      </trkpt>
      <trkpt lat="44.69543" lon="6.62927">
        <ele>1125.84</ele>
        <time>2011-06-12T09:38:30Z</time>
      </trkpt>
      <trkpt lat="44.69569" lon="6.6294">
        <ele>1127.28</ele>
        <time>2011-06-12T09:38:45Z</time>
      </trkpt>
      <trkpt lat="44.69605" lon="6.62948">
        <ele>1128.24</ele>
        <time>2011-06-12T09:38:59Z</time>
      </trkpt>
      <trkpt lat="44.69638" lon="6.62982">
        <ele>1129.69</ele>
        <time>2011-06-12T09:39:13Z</time>
      </trkpt>
      <trkpt lat="44.69682" lon="6.62972">
        <ele>1128.73</ele>
        <time>2011-06-12T09:39:29Z</time>
      </trkpt>
      <trkpt lat="44.69679" lon="6.62915">
        <ele>1127.28</ele>
        <time>2011-06-12T09:39:42Z</time>
      </trkpt>
      <trkpt lat="44.69676" lon="6.62867">
        <ele>1131.13</ele>
        <time>2011-06-12T09:39:52Z</time>
      </trkpt>
      <trkpt lat="44.69678" lon="6.62833">
        <ele>1134.49</ele>
        <time>2011-06-12T09:40:05Z</time>
      </trkpt>
      <trkpt lat="44.69688" lon="6.62818">
        <ele>1134.01</ele>
        <time>2011-06-12T09:40:14Z</time>
      </trkpt>
      <trkpt lat="44.69686" lon="6.62762">
        <ele>1135.94</ele>
        <time>2011-06-12T09:40:30Z</time>
      </trkpt>
      <trkpt lat="44.69691" lon="6.62744">
        <ele>1139.3</ele>
        <time>2011-06-12T09:40:37Z</time>
      </trkpt>
      <trkpt lat="44.69693" lon="6.62742">
        <ele>1140.26</ele>
        <time>2011-06-12T09:40:38Z</time>
      </trkpt>
      <trkpt lat="44.69712" lon="6.62697">
        <ele>1140.26</ele>
        <time>2011-06-12T09:40:53Z</time>
      </trkpt>
      <trkpt lat="44.69713" lon="6.62639">
        <ele>1139.3</ele>
        <time>2011-06-12T09:41:07Z</time>
      </trkpt>
      <trkpt lat="44.69696" lon="6.62581">
        <ele>1142.18</ele>
        <time>2011-06-12T09:41:21Z</time>
      </trkpt>
      <trkpt lat="44.69716" lon="6.62557">
        <ele>1143.14</ele>
        <time>2011-06-12T09:41:32Z</time>
      </trkpt>
      <trkpt lat="44.69744" lon="6.62537">
        <ele>1143.14</ele>
        <time>2011-06-12T09:41:44Z</time>
      </trkpt>
      <trkpt lat="44.69789" lon="6.62548">
        <ele>1143.63</ele>
        <time>2011-06-12T09:41:58Z</time>
      </trkpt>
      <trkpt lat="44.69838" lon="6.62532">
        <ele>1146.51</ele>
        <time>2011-06-12T09:42:13Z</time>
      </trkpt>
      <trkpt lat="44.69872" lon="6.6253">
        <ele>1149.39</ele>
        <time>2011-06-12T09:42:27Z</time>
      </trkpt>
      <trkpt lat="44.69894" lon="6.62521">
        <ele>1150.35</ele>
        <time>2011-06-12T09:42:39Z</time>
      </trkpt>
      <trkpt lat="44.69918" lon="6.62515">
        <ele>1152.28</ele>
        <time>2011-06-12T09:42:52Z</time>
      </trkpt>
      <trkpt lat="44.69922" lon="6.62515">
        <ele>1153.24</ele>
        <time>2011-06-12T09:42:55Z</time>
      </trkpt>
      <trkpt lat="44.69929" lon="6.62517">
        <ele>1155.16</ele>
        <time>2011-06-12T09:43:00Z</time>
      </trkpt>
      <trkpt lat="44.69931" lon="6.62519">
        <ele>1155.64</ele>
        <time>2011-06-12T09:43:03Z</time>
      </trkpt>
      <trkpt lat="44.69939" lon="6.62519">
        <ele>1157.56</ele>
        <time>2011-06-12T09:43:10Z</time>
      </trkpt>
      <trkpt lat="44.69944" lon="6.62509">
        <ele>1159.01</ele>
        <time>2011-06-12T09:43:18Z</time>
      </trkpt>
      <trkpt lat="44.6996" lon="6.62498">
        <ele>1162.37</ele>
        <time>2011-06-12T09:43:32Z</time>
      </trkpt>
      <trkpt lat="44.69963" lon="6.62496">
        <ele>1163.33</ele>
        <time>2011-06-12T09:43:34Z</time>
      </trkpt>
      <trkpt lat="44.69973" lon="6.62488">
        <ele>1165.26</ele>
        <time>2011-06-12T09:43:47Z</time>
      </trkpt>
      <trkpt lat="44.69984" lon="6.62485">
        <ele>1168.62</ele>
        <time>2011-06-12T09:44:01Z</time>
      </trkpt>
      <trkpt lat="44.69998" lon="6.6248">
        <ele>1171.98</ele>
        <time>2011-06-12T09:44:18Z</time>
      </trkpt>
      <trkpt lat="44.70008" lon="6.62475">
        <ele>1173.43</ele>
        <time>2011-06-12T09:44:33Z</time>
      </trkpt>
      <trkpt lat="44.70024" lon="6.62465">
        <ele>1176.31</ele>
        <time>2011-06-12T09:44:44Z</time>
      </trkpt>
      <trkpt lat="44.70049" lon="6.62452">
        <ele>1179.19</ele>
        <time>2011-06-12T09:45:00Z</time>
      </trkpt>
      <trkpt lat="44.70069" lon="6.62446">
        <ele>1183.04</ele>
        <time>2011-06-12T09:45:13Z</time>
      </trkpt>
      <trkpt lat="44.70077" lon="6.62448">
        <ele>1183.52</ele>
        <time>2011-06-12T09:45:18Z</time>
      </trkpt>
      <trkpt lat="44.70085" lon="6.62437">
        <ele>1184.96</ele>
        <time>2011-06-12T09:45:27Z</time>
      </trkpt>
      <trkpt lat="44.70095" lon="6.62412">
        <ele>1186.4</ele>
        <time>2011-06-12T09:45:37Z</time>
      </trkpt>
      <trkpt lat="44.70121" lon="6.62388">
        <ele>1188.81</ele>
        <time>2011-06-12T09:45:52Z</time>
      </trkpt>
      <trkpt lat="44.70143" lon="6.62374">
        <ele>1192.17</ele>
        <time>2011-06-12T09:46:03Z</time>
      </trkpt>
      <trkpt lat="44.70165" lon="6.62352">
        <ele>1196.02</ele>
        <time>2011-06-12T09:46:17Z</time>
      </trkpt>
      <trkpt lat="44.70167" lon="6.62363">
        <ele>1197.46</ele>
        <time>2011-06-12T09:46:24Z</time>
      </trkpt>
      <trkpt lat="44.70166" lon="6.62364">
        <ele>1196.98</ele>
        <time>2011-06-12T09:46:27Z</time>
      </trkpt>
      <trkpt lat="44.70171" lon="6.62355">
        <ele>1196.02</ele>
        <time>2011-06-12T09:46:31Z</time>
      </trkpt>
      <trkpt lat="44.70193" lon="6.62357">
        <ele>1198.9</ele>
        <time>2011-06-12T09:46:45Z</time>
      </trkpt>
      <trkpt lat="44.70198" lon="6.62357">
        <ele>1200.34</ele>
        <time>2011-06-12T09:46:49Z</time>
      </trkpt>
      <trkpt lat="44.70204" lon="6.62347">
        <ele>1199.38</ele>
        <time>2011-06-12T09:46:54Z</time>
      </trkpt>
      <trkpt lat="44.70251" lon="6.62292">
        <ele>1198.9</ele>
        <time>2011-06-12T09:47:10Z</time>
      </trkpt>
      <trkpt lat="44.70296" lon="6.62262">
        <ele>1198.42</ele>
        <time>2011-06-12T09:47:22Z</time>
      </trkpt>
      <trkpt lat="44.70309" lon="6.62249">
        <ele>1198.9</ele>
        <time>2011-06-12T09:47:25Z</time>
      </trkpt>
      <trkpt lat="44.70332" lon="6.62225">
        <ele>1198.42</ele>
        <time>2011-06-12T09:47:31Z</time>
      </trkpt>
      <trkpt lat="44.70376" lon="6.62184">
        <ele>1198.9</ele>
        <time>2011-06-12T09:47:45Z</time>
      </trkpt>
      <trkpt lat="44.70405" lon="6.62132">
        <ele>1199.38</ele>
        <time>2011-06-12T09:47:56Z</time>
      </trkpt>
      <trkpt lat="44.70452" lon="6.62103">
        <ele>1199.86</ele>
        <time>2011-06-12T09:48:08Z</time>
      </trkpt>
      <trkpt lat="44.70488" lon="6.62065">
        <ele>1199.86</ele>
        <time>2011-06-12T09:48:21Z</time>
      </trkpt>
      <trkpt lat="44.70522" lon="6.62034">
        <ele>1200.82</ele>
        <time>2011-06-12T09:48:34Z</time>
      </trkpt>
      <trkpt lat="44.70557" lon="6.6203">
        <ele>1199.86</ele>
        <time>2011-06-12T09:48:46Z</time>
      </trkpt>
      <trkpt lat="44.70581" lon="6.61973">
        <ele>1200.82</ele>
        <time>2011-06-12T09:48:57Z</time>
      </trkpt>
      <trkpt lat="44.70604" lon="6.61934">
        <ele>1200.34</ele>
        <time>2011-06-12T09:49:05Z</time>
      </trkpt>
      <trkpt lat="44.70619" lon="6.61924">
        <ele>1199.86</ele>
        <time>2011-06-12T09:49:08Z</time>
      </trkpt>
      <trkpt lat="44.70629" lon="6.61919">
        <ele>1200.82</ele>
        <time>2011-06-12T09:49:10Z</time>
      </trkpt>
      <trkpt lat="44.70672" lon="6.61892">
        <ele>1200.82</ele>
        <time>2011-06-12T09:49:24Z</time>
      </trkpt>
      <trkpt lat="44.70688" lon="6.61835">
        <ele>1201.3</ele>
        <time>2011-06-12T09:49:38Z</time>
      </trkpt>
      <trkpt lat="44.70724" lon="6.61787">
        <ele>1201.3</ele>
        <time>2011-06-12T09:49:51Z</time>
      </trkpt>
      <trkpt lat="44.70761" lon="6.61825">
        <ele>1200.82</ele>
        <time>2011-06-12T09:50:04Z</time>
      </trkpt>
      <trkpt lat="44.70822" lon="6.61816">
        <ele>1200.82</ele>
        <time>2011-06-12T09:50:18Z</time>
      </trkpt>
      <trkpt lat="44.70858" lon="6.61806">
        <ele>1200.82</ele>
        <time>2011-06-12T09:50:30Z</time>
      </trkpt>
      <trkpt lat="44.70886" lon="6.61755">
        <ele>1200.82</ele>
        <time>2011-06-12T09:50:44Z</time>
      </trkpt>
      <trkpt lat="44.70878" lon="6.61738">
        <ele>1200.82</ele>
        <time>2011-06-12T09:50:48Z</time>
      </trkpt>
      <trkpt lat="44.70861" lon="6.61672">
        <ele>1200.34</ele>
        <time>2011-06-12T09:51:01Z</time>
      </trkpt>
      <trkpt lat="44.70877" lon="6.61631">
        <ele>1200.34</ele>
        <time>2011-06-12T09:51:08Z</time>
      </trkpt>
      <trkpt lat="44.709" lon="6.61587">
        <ele>1200.34</ele>
        <time>2011-06-12T09:51:20Z</time>
      </trkpt>
      <trkpt lat="44.70933" lon="6.61578">
        <ele>1202.27</ele>
        <time>2011-06-12T09:51:34Z</time>
      </trkpt>
      <trkpt lat="44.70936" lon="6.61568">
        <ele>1202.27</ele>
        <time>2011-06-12T09:51:38Z</time>
      </trkpt>
      <trkpt lat="44.70924" lon="6.61535">
        <ele>1202.75</ele>
        <time>2011-06-12T09:51:44Z</time>
      </trkpt>
      <trkpt lat="44.70937" lon="6.61506">
        <ele>1206.11</ele>
        <time>2011-06-12T09:51:55Z</time>
      </trkpt>
      <trkpt lat="44.70954" lon="6.61492">
        <ele>1209.48</ele>
        <time>2011-06-12T09:52:09Z</time>
      </trkpt>
      <trkpt lat="44.70964" lon="6.61482">
        <ele>1212.36</ele>
        <time>2011-06-12T09:52:19Z</time>
      </trkpt>
      <trkpt lat="44.70964" lon="6.6149">
        <ele>1213.32</ele>
        <time>2011-06-12T09:52:24Z</time>
      </trkpt>
      <trkpt lat="44.70952" lon="6.61527">
        <ele>1215.72</ele>
        <time>2011-06-12T09:52:40Z</time>
      </trkpt>
      <trkpt lat="44.70951" lon="6.6155">
        <ele>1218.61</ele>
        <time>2011-06-12T09:52:53Z</time>
      </trkpt>
      <trkpt lat="44.70954" lon="6.61559">
        <ele>1221.01</ele>
        <time>2011-06-12T09:52:59Z</time>
      </trkpt>
      <trkpt lat="44.70961" lon="6.61572">
        <ele>1222.45</ele>
        <time>2011-06-12T09:53:06Z</time>
      </trkpt>
      <trkpt lat="44.70967" lon="6.61571">
        <ele>1224.38</ele>
        <time>2011-06-12T09:53:12Z</time>
      </trkpt>
      <trkpt lat="44.70967" lon="6.61551">
        <ele>1227.74</ele>
        <time>2011-06-12T09:53:24Z</time>
      </trkpt>
      <trkpt lat="44.7097" lon="6.61545">
        <ele>1229.66</ele>
        <time>2011-06-12T09:53:36Z</time>
      </trkpt>
      <trkpt lat="44.70975" lon="6.61556">
        <ele>1232.55</ele>
        <time>2011-06-12T09:53:51Z</time>
      </trkpt>
      <trkpt lat="44.70977" lon="6.61554">
        <ele>1233.03</ele>
        <time>2011-06-12T09:53:56Z</time>
      </trkpt>
      <trkpt lat="44.70978" lon="6.61551">
        <ele>1234.47</ele>
        <time>2011-06-12T09:53:59Z</time>
      </trkpt>
      <trkpt lat="44.70986" lon="6.6154">
        <ele>1237.35</ele>
        <time>2011-06-12T09:54:15Z</time>
      </trkpt>
      <trkpt lat="44.70985" lon="6.61553">
        <ele>1239.76</ele>
        <time>2011-06-12T09:54:29Z</time>
      </trkpt>
      <trkpt lat="44.70985" lon="6.61554">
        <ele>1239.76</ele>
        <time>2011-06-12T09:54:30Z</time>
      </trkpt>
      <trkpt lat="44.70989" lon="6.61571">
        <ele>1242.64</ele>
        <time>2011-06-12T09:54:46Z</time>
      </trkpt>
      <trkpt lat="44.70994" lon="6.61566">
        <ele>1245.04</ele>
        <time>2011-06-12T09:54:59Z</time>
      </trkpt>
      <trkpt lat="44.70998" lon="6.61554">
        <ele>1247.45</ele>
        <time>2011-06-12T09:55:11Z</time>
      </trkpt>
      <trkpt lat="44.71007" lon="6.61545">
        <ele>1249.37</ele>
        <time>2011-06-12T09:55:24Z</time>
      </trkpt>
      <trkpt lat="44.71012" lon="6.61543">
        <ele>1250.81</ele>
        <time>2011-06-12T09:55:29Z</time>
      </trkpt>
      <trkpt lat="44.71017" lon="6.61552">
        <ele>1253.7</ele>
        <time>2011-06-12T09:55:44Z</time>
      </trkpt>
      <trkpt lat="44.71016" lon="6.61571">
        <ele>1256.58</ele>
        <time>2011-06-12T09:55:57Z</time>
      </trkpt>
      <trkpt lat="44.71014" lon="6.61581">
        <ele>1258.02</ele>
        <time>2011-06-12T09:56:07Z</time>
      </trkpt>
      <trkpt lat="44.71016" lon="6.61584">
        <ele>1259.46</ele>
        <time>2011-06-12T09:56:10Z</time>
      </trkpt>
      <trkpt lat="44.71022" lon="6.61576">
        <ele>1261.39</ele>
        <time>2011-06-12T09:56:22Z</time>
      </trkpt>
      <trkpt lat="44.7103" lon="6.61568">
        <ele>1264.75</ele>
        <time>2011-06-12T09:56:37Z</time>
      </trkpt>
      <trkpt lat="44.71037" lon="6.61565">
        <ele>1266.19</ele>
        <time>2011-06-12T09:56:45Z</time>
      </trkpt>
      <trkpt lat="44.71049" lon="6.61554">
        <ele>1269.56</ele>
        <time>2011-06-12T09:57:01Z</time>
      </trkpt>
      <trkpt lat="44.71053" lon="6.61557">
        <ele>1271.96</ele>
        <time>2011-06-12T09:57:16Z</time>
      </trkpt>
      <trkpt lat="44.71049" lon="6.61559">
        <ele>1272.92</ele>
        <time>2011-06-12T09:57:21Z</time>
      </trkpt>
      <trkpt lat="44.71044" lon="6.61581">
        <ele>1275.81</ele>
        <time>2011-06-12T09:57:38Z</time>
      </trkpt>
      <trkpt lat="44.7105" lon="6.61588">
        <ele>1278.21</ele>
        <time>2011-06-12T09:57:53Z</time>
      </trkpt>
      <trkpt lat="44.7106" lon="6.61581">
        <ele>1281.57</ele>
        <time>2011-06-12T09:58:07Z</time>
      </trkpt>
      <trkpt lat="44.7107" lon="6.61572">
        <ele>1283.5</ele>
        <time>2011-06-12T09:58:21Z</time>
      </trkpt>
      <trkpt lat="44.71075" lon="6.61563">
        <ele>1286.86</ele>
        <time>2011-06-12T09:58:32Z</time>
      </trkpt>
      <trkpt lat="44.71078" lon="6.61555">
        <ele>1286.86</ele>
        <time>2011-06-12T09:58:45Z</time>
      </trkpt>
      <trkpt lat="44.7108" lon="6.61549">
        <ele>1287.34</ele>
        <time>2011-06-12T09:58:49Z</time>
      </trkpt>
      <trkpt lat="44.71086" lon="6.61531">
        <ele>1289.27</ele>
        <time>2011-06-12T09:58:58Z</time>
      </trkpt>
      <trkpt lat="44.71091" lon="6.61533">
        <ele>1290.71</ele>
        <time>2011-06-12T09:59:07Z</time>
      </trkpt>
      <trkpt lat="44.71091" lon="6.61555">
        <ele>1294.07</ele>
        <time>2011-06-12T09:59:23Z</time>
      </trkpt>
      <trkpt lat="44.71089" lon="6.61564">
        <ele>1297.44</ele>
        <time>2011-06-12T09:59:35Z</time>
      </trkpt>
      <trkpt lat="44.71089" lon="6.61565">
        <ele>1297.92</ele>
        <time>2011-06-12T09:59:36Z</time>
      </trkpt>
      <trkpt lat="44.71089" lon="6.61573">
        <ele>1298.4</ele>
        <time>2011-06-12T09:59:42Z</time>
      </trkpt>
      <trkpt lat="44.71094" lon="6.61591">
        <ele>1301.76</ele>
        <time>2011-06-12T09:59:55Z</time>
      </trkpt>
      <trkpt lat="44.711" lon="6.61591">
        <ele>1302.72</ele>
        <time>2011-06-12T10:00:04Z</time>
      </trkpt>
      <trkpt lat="44.71102" lon="6.61577">
        <ele>1305.61</ele>
        <time>2011-06-12T10:00:17Z</time>
      </trkpt>
      <trkpt lat="44.71107" lon="6.61568">
        <ele>1308.49</ele>
        <time>2011-06-12T10:00:32Z</time>
      </trkpt>
      <trkpt lat="44.71111" lon="6.61573">
        <ele>1310.41</ele>
        <time>2011-06-12T10:00:46Z</time>
      </trkpt>
      <trkpt lat="44.71111" lon="6.6157">
        <ele>1311.86</ele>
        <time>2011-06-12T10:00:49Z</time>
      </trkpt>
      <trkpt lat="44.71116" lon="6.61562">
        <ele>1312.82</ele>
        <time>2011-06-12T10:00:58Z</time>
      </trkpt>
      <trkpt lat="44.71124" lon="6.61567">
        <ele>1315.7</ele>
        <time>2011-06-12T10:01:13Z</time>
      </trkpt>
      <trkpt lat="44.71122" lon="6.61581">
        <ele>1319.07</ele>
        <time>2011-06-12T10:01:27Z</time>
      </trkpt>
      <trkpt lat="44.71121" lon="6.61586">
        <ele>1320.03</ele>
        <time>2011-06-12T10:01:33Z</time>
      </trkpt>
      <trkpt lat="44.71123" lon="6.61602">
        <ele>1321.95</ele>
        <time>2011-06-12T10:01:48Z</time>
      </trkpt>
      <trkpt lat="44.71129" lon="6.6162">
        <ele>1324.83</ele>
        <time>2011-06-12T10:02:05Z</time>
      </trkpt>
      <trkpt lat="44.7113" lon="6.61623">
        <ele>1324.83</ele>
        <time>2011-06-12T10:02:08Z</time>
      </trkpt>
      <trkpt lat="44.71139" lon="6.61646">
        <ele>1323.39</ele>
        <time>2011-06-12T10:02:18Z</time>
      </trkpt>
      <trkpt lat="44.71163" lon="6.61672">
        <ele>1324.83</ele>
        <time>2011-06-12T10:02:32Z</time>
      </trkpt>
      <trkpt lat="44.71173" lon="6.61693">
        <ele>1327.72</ele>
        <time>2011-06-12T10:02:43Z</time>
      </trkpt>
      <trkpt lat="44.71181" lon="6.61712">
        <ele>1331.08</ele>
        <time>2011-06-12T10:02:57Z</time>
      </trkpt>
      <trkpt lat="44.71183" lon="6.61716">
        <ele>1332.52</ele>
        <time>2011-06-12T10:03:01Z</time>
      </trkpt>
      <trkpt lat="44.71191" lon="6.61736">
        <ele>1335.41</ele>
        <time>2011-06-12T10:03:19Z</time>
      </trkpt>
      <trkpt lat="44.71199" lon="6.61749">
        <ele>1338.29</ele>
        <time>2011-06-12T10:03:35Z</time>
      </trkpt>
      <trkpt lat="44.71203" lon="6.61759">
        <ele>1341.18</ele>
        <time>2011-06-12T10:03:49Z</time>
      </trkpt>
      <trkpt lat="44.71203" lon="6.61774">
        <ele>1344.06</ele>
        <time>2011-06-12T10:04:03Z</time>
      </trkpt>
      <trkpt lat="44.71201" lon="6.61786">
        <ele>1345.5</ele>
        <time>2011-06-12T10:04:18Z</time>
      </trkpt>
      <trkpt lat="44.71202" lon="6.61791">
        <ele>1345.5</ele>
        <time>2011-06-12T10:04:22Z</time>
      </trkpt>
      <trkpt lat="44.71192" lon="6.61824">
        <ele>1346.46</ele>
        <time>2011-06-12T10:04:36Z</time>
      </trkpt>
      <trkpt lat="44.71193" lon="6.61859">
        <ele>1349.83</ele>
        <time>2011-06-12T10:04:49Z</time>
      </trkpt>
      <trkpt lat="44.71183" lon="6.61887">
        <ele>1352.23</ele>
        <time>2011-06-12T10:05:03Z</time>
      </trkpt>
      <trkpt lat="44.71157" lon="6.61894">
        <ele>1354.15</ele>
        <time>2011-06-12T10:05:16Z</time>
      </trkpt>
      <trkpt lat="44.71132" lon="6.61923">
        <ele>1357.52</ele>
        <time>2011-06-12T10:05:33Z</time>
      </trkpt>
      <trkpt lat="44.71136" lon="6.61931">
        <ele>1358.48</ele>
        <time>2011-06-12T10:05:40Z</time>
      </trkpt>
      <trkpt lat="44.71166" lon="6.61913">
        <ele>1360.88</ele>
        <time>2011-06-12T10:05:55Z</time>
      </trkpt>
      <trkpt lat="44.71169" lon="6.61916">
        <ele>1361.84</ele>
        <time>2011-06-12T10:05:57Z</time>
      </trkpt>
      <trkpt lat="44.71167" lon="6.61926">
        <ele>1362.81</ele>
        <time>2011-06-12T10:06:02Z</time>
      </trkpt>
      <trkpt lat="44.71149" lon="6.61962">
        <ele>1366.17</ele>
        <time>2011-06-12T10:06:18Z</time>
      </trkpt>
      <trkpt lat="44.71141" lon="6.61995">
        <ele>1368.57</ele>
        <time>2011-06-12T10:06:33Z</time>
      </trkpt>
      <trkpt lat="44.71145" lon="6.62006">
        <ele>1370.98</ele>
        <time>2011-06-12T10:06:40Z</time>
      </trkpt>
      <trkpt lat="44.71155" lon="6.61992">
        <ele>1371.94</ele>
        <time>2011-06-12T10:06:47Z</time>
      </trkpt>
      <trkpt lat="44.71177" lon="6.61978">
        <ele>1374.82</ele>
        <time>2011-06-12T10:07:01Z</time>
      </trkpt>
      <trkpt lat="44.712" lon="6.61979">
        <ele>1378.19</ele>
        <time>2011-06-12T10:07:16Z</time>
      </trkpt>
      <trkpt lat="44.71222" lon="6.61976">
        <ele>1379.15</ele>
        <time>2011-06-12T10:07:28Z</time>
      </trkpt>
      <trkpt lat="44.71237" lon="6.61966">
        <ele>1379.15</ele>
        <time>2011-06-12T10:07:42Z</time>
      </trkpt>
      <trkpt lat="44.71242" lon="6.61962">
        <ele>1380.11</ele>
        <time>2011-06-12T10:07:56Z</time>
      </trkpt>
      <trkpt lat="44.7124" lon="6.61962">
        <ele>1379.15</ele>
        <time>2011-06-12T10:13:13Z</time>
      </trkpt>
      <trkpt lat="44.71239" lon="6.61961">
        <ele>1379.63</ele>
        <time>2011-06-12T10:15:58Z</time>
      </trkpt>
      <trkpt lat="44.71239" lon="6.61961">
        <ele>1379.15</ele>
        <time>2011-06-12T10:17:53Z</time>
      </trkpt>
      <trkpt lat="44.71243" lon="6.61955">
        <ele>1379.63</ele>
        <time>2011-06-12T10:19:00Z</time>
      </trkpt>
      <trkpt lat="44.71245" lon="6.61954">
        <ele>1379.63</ele>
        <time>2011-06-12T10:19:02Z</time>
      </trkpt>
      <trkpt lat="44.7125" lon="6.61948">
        <ele>1380.11</ele>
        <time>2011-06-12T10:19:06Z</time>
      </trkpt>
      <trkpt lat="44.71265" lon="6.61933">
        <ele>1379.63</ele>
        <time>2011-06-12T10:19:21Z</time>
      </trkpt>
      <trkpt lat="44.71279" lon="6.61914">
        <ele>1379.15</ele>
        <time>2011-06-12T10:20:35Z</time>
      </trkpt>
      <trkpt lat="44.71314" lon="6.6189">
        <ele>1380.59</ele>
        <time>2011-06-12T10:20:48Z</time>
      </trkpt>
      <trkpt lat="44.71359" lon="6.61858">
        <ele>1382.03</ele>
        <time>2011-06-12T10:21:01Z</time>
      </trkpt>
      <trkpt lat="44.7141" lon="6.61819">
        <ele>1383.47</ele>
        <time>2011-06-12T10:21:16Z</time>
      </trkpt>
      <trkpt lat="44.7145" lon="6.61782">
        <ele>1384.92</ele>
        <time>2011-06-12T10:21:29Z</time>
      </trkpt>
      <trkpt lat="44.71459" lon="6.61772">
        <ele>1384.92</ele>
        <time>2011-06-12T10:21:32Z</time>
      </trkpt>
      <trkpt lat="44.71517" lon="6.6172">
        <ele>1386.36</ele>
        <time>2011-06-12T10:21:49Z</time>
      </trkpt>
      <trkpt lat="44.71552" lon="6.61671">
        <ele>1388.28</ele>
        <time>2011-06-12T10:22:03Z</time>
      </trkpt>
      <trkpt lat="44.71587" lon="6.61654">
        <ele>1388.28</ele>
        <time>2011-06-12T10:22:15Z</time>
      </trkpt>
      <trkpt lat="44.71616" lon="6.61658">
        <ele>1386.36</ele>
        <time>2011-06-12T10:22:22Z</time>
      </trkpt>
      <trkpt lat="44.71623" lon="6.61656">
        <ele>1382.99</ele>
        <time>2011-06-12T10:22:26Z</time>
      </trkpt>
      <trkpt lat="44.71623" lon="6.61546">
        <ele>1381.55</ele>
        <time>2011-06-12T10:22:38Z</time>
      </trkpt>
      <trkpt lat="44.71623" lon="6.61538">
        <ele>1380.59</ele>
        <time>2011-06-12T10:22:39Z</time>
      </trkpt>
      <trkpt lat="44.71623" lon="6.61531">
        <ele>1380.59</ele>
        <time>2011-06-12T10:22:40Z</time>
      </trkpt>
      <trkpt lat="44.71623" lon="6.61501">
        <ele>1381.55</ele>
        <time>2011-06-12T10:22:44Z</time>
      </trkpt>
      <trkpt lat="44.71624" lon="6.61494">
        <ele>1382.03</ele>
        <time>2011-06-12T10:22:45Z</time>
      </trkpt>
      <trkpt lat="44.71626" lon="6.61489">
        <ele>1382.03</ele>
        <time>2011-06-12T10:22:46Z</time>
      </trkpt>
      <trkpt lat="44.71654" lon="6.61451">
        <ele>1379.15</ele>
        <time>2011-06-12T10:22:52Z</time>
      </trkpt>
      <trkpt lat="44.71668" lon="6.61435">
        <ele>1377.71</ele>
        <time>2011-06-12T10:22:54Z</time>
      </trkpt>
      <trkpt lat="44.71689" lon="6.61409">
        <ele>1376.26</ele>
        <time>2011-06-12T10:22:57Z</time>
      </trkpt>
      <trkpt lat="44.71735" lon="6.61351">
        <ele>1374.82</ele>
        <time>2011-06-12T10:23:04Z</time>
      </trkpt>
      <trkpt lat="44.71745" lon="6.61333">
        <ele>1374.82</ele>
        <time>2011-06-12T10:23:06Z</time>
      </trkpt>
      <trkpt lat="44.71789" lon="6.61262">
        <ele>1372.9</ele>
        <time>2011-06-12T10:23:14Z</time>
      </trkpt>
      <trkpt lat="44.71802" lon="6.61245">
        <ele>1372.9</ele>
        <time>2011-06-12T10:23:16Z</time>
      </trkpt>
      <trkpt lat="44.71807" lon="6.61236">
        <ele>1372.42</ele>
        <time>2011-06-12T10:23:17Z</time>
      </trkpt>
      <trkpt lat="44.71811" lon="6.61225">
        <ele>1372.42</ele>
        <time>2011-06-12T10:23:18Z</time>
      </trkpt>
      <trkpt lat="44.71814" lon="6.61215">
        <ele>1371.94</ele>
        <time>2011-06-12T10:23:19Z</time>
      </trkpt>
      <trkpt lat="44.71816" lon="6.61204">
        <ele>1372.42</ele>
        <time>2011-06-12T10:23:20Z</time>
      </trkpt>
      <trkpt lat="44.71837" lon="6.61126">
        <ele>1375.3</ele>
        <time>2011-06-12T10:23:29Z</time>
      </trkpt>
      <trkpt lat="44.71838" lon="6.6112">
        <ele>1375.78</ele>
        <time>2011-06-12T10:23:30Z</time>
      </trkpt>
      <trkpt lat="44.7184" lon="6.61114">
        <ele>1376.75</ele>
        <time>2011-06-12T10:23:31Z</time>
      </trkpt>
      <trkpt lat="44.71842" lon="6.6111">
        <ele>1377.23</ele>
        <time>2011-06-12T10:23:32Z</time>
      </trkpt>
      <trkpt lat="44.71845" lon="6.611">
        <ele>1378.19</ele>
        <time>2011-06-12T10:23:34Z</time>
      </trkpt>
      <trkpt lat="44.71856" lon="6.61066">
        <ele>1381.55</ele>
        <time>2011-06-12T10:23:44Z</time>
      </trkpt>
      <trkpt lat="44.71858" lon="6.61043">
        <ele>1383.96</ele>
        <time>2011-06-12T10:23:53Z</time>
      </trkpt>
      <trkpt lat="44.71865" lon="6.61013">
        <ele>1386.36</ele>
        <time>2011-06-12T10:24:05Z</time>
      </trkpt>
      <trkpt lat="44.71871" lon="6.60985">
        <ele>1389.72</ele>
        <time>2011-06-12T10:24:15Z</time>
      </trkpt>
      <trkpt lat="44.71879" lon="6.60956">
        <ele>1393.09</ele>
        <time>2011-06-12T10:24:26Z</time>
      </trkpt>
      <trkpt lat="44.71884" lon="6.60951">
        <ele>1393.57</ele>
        <time>2011-06-12T10:24:29Z</time>
      </trkpt>
      <trkpt lat="44.71886" lon="6.6095">
        <ele>1394.05</ele>
        <time>2011-06-12T10:24:30Z</time>
      </trkpt>
      <trkpt lat="44.71888" lon="6.60949">
        <ele>1394.05</ele>
        <time>2011-06-12T10:24:31Z</time>
      </trkpt>
      <trkpt lat="44.7189" lon="6.60948">
        <ele>1394.05</ele>
        <time>2011-06-12T10:24:32Z</time>
      </trkpt>
      <trkpt lat="44.71892" lon="6.60947">
        <ele>1394.05</ele>
        <time>2011-06-12T10:24:33Z</time>
      </trkpt>
      <trkpt lat="44.71918" lon="6.60932">
        <ele>1395.97</ele>
        <time>2011-06-12T10:24:47Z</time>
      </trkpt>
      <trkpt lat="44.71946" lon="6.60905">
        <ele>1399.34</ele>
        <time>2011-06-12T10:25:04Z</time>
      </trkpt>
      <trkpt lat="44.71965" lon="6.60875">
        <ele>1401.26</ele>
        <time>2011-06-12T10:25:19Z</time>
      </trkpt>
      <trkpt lat="44.71979" lon="6.60853">
        <ele>1404.62</ele>
        <time>2011-06-12T10:25:30Z</time>
      </trkpt>
      <trkpt lat="44.72004" lon="6.60835">
        <ele>1407.51</ele>
        <time>2011-06-12T10:25:45Z</time>
      </trkpt>
      <trkpt lat="44.72034" lon="6.60831">
        <ele>1409.43</ele>
        <time>2011-06-12T10:26:00Z</time>
      </trkpt>
      <trkpt lat="44.72063" lon="6.60833">
        <ele>1412.79</ele>
        <time>2011-06-12T10:26:15Z</time>
      </trkpt>
      <trkpt lat="44.72078" lon="6.60834">
        <ele>1406.07</ele>
        <time>2011-06-12T10:26:22Z</time>
      </trkpt>
      <trkpt lat="44.7208" lon="6.60834">
        <ele>1411.35</ele>
        <time>2011-06-12T10:26:23Z</time>
      </trkpt>
      <trkpt lat="44.72085" lon="6.60839">
        <ele>1414.72</ele>
        <time>2011-06-12T10:26:26Z</time>
      </trkpt>
      <trkpt lat="44.72087" lon="6.60841">
        <ele>1414.24</ele>
        <time>2011-06-12T10:26:27Z</time>
      </trkpt>
      <trkpt lat="44.7212" lon="6.60847">
        <ele>1416.16</ele>
        <time>2011-06-12T10:26:42Z</time>
      </trkpt>
      <trkpt lat="44.72153" lon="6.60861">
        <ele>1418.56</ele>
        <time>2011-06-12T10:26:56Z</time>
      </trkpt>
      <trkpt lat="44.72144" lon="6.60868">
        <ele>1420</ele>
        <time>2011-06-12T10:27:05Z</time>
      </trkpt>
      <trkpt lat="44.72128" lon="6.60861">
        <ele>1420.97</ele>
        <time>2011-06-12T10:27:10Z</time>
      </trkpt>
      <trkpt lat="44.7209" lon="6.60877">
        <ele>1423.37</ele>
        <time>2011-06-12T10:27:26Z</time>
      </trkpt>
      <trkpt lat="44.72054" lon="6.60896">
        <ele>1426.73</ele>
        <time>2011-06-12T10:27:44Z</time>
      </trkpt>
      <trkpt lat="44.72024" lon="6.60916">
        <ele>1429.62</ele>
        <time>2011-06-12T10:27:59Z</time>
      </trkpt>
      <trkpt lat="44.72006" lon="6.6096">
        <ele>1431.54</ele>
        <time>2011-06-12T10:28:14Z</time>
      </trkpt>
      <trkpt lat="44.71992" lon="6.60985">
        <ele>1432.98</ele>
        <time>2011-06-12T10:28:27Z</time>
      </trkpt>
      <trkpt lat="44.71999" lon="6.61018">
        <ele>1436.35</ele>
        <time>2011-06-12T10:28:41Z</time>
      </trkpt>
      <trkpt lat="44.7199" lon="6.61056">
        <ele>1437.31</ele>
        <time>2011-06-12T10:28:56Z</time>
      </trkpt>
      <trkpt lat="44.71976" lon="6.61075">
        <ele>1441.15</ele>
        <time>2011-06-12T10:29:06Z</time>
      </trkpt>
      <trkpt lat="44.71975" lon="6.61077">
        <ele>1441.15</ele>
        <time>2011-06-12T10:29:07Z</time>
      </trkpt>
      <trkpt lat="44.71977" lon="6.61089">
        <ele>1440.19</ele>
        <time>2011-06-12T10:29:11Z</time>
      </trkpt>
      <trkpt lat="44.71999" lon="6.61126">
        <ele>1441.63</ele>
        <time>2011-06-12T10:29:28Z</time>
      </trkpt>
      <trkpt lat="44.72007" lon="6.61133">
        <ele>1443.56</ele>
        <time>2011-06-12T10:29:32Z</time>
      </trkpt>
      <trkpt lat="44.72028" lon="6.61165">
        <ele>1446.92</ele>
        <time>2011-06-12T10:29:47Z</time>
      </trkpt>
      <trkpt lat="44.72011" lon="6.61192">
        <ele>1448.84</ele>
        <time>2011-06-12T10:29:59Z</time>
      </trkpt>
      <trkpt lat="44.7198" lon="6.61214">
        <ele>1452.21</ele>
        <time>2011-06-12T10:30:15Z</time>
      </trkpt>
      <trkpt lat="44.71965" lon="6.61244">
        <ele>1454.13</ele>
        <time>2011-06-12T10:30:28Z</time>
      </trkpt>
      <trkpt lat="44.71971" lon="6.61265">
        <ele>1454.61</ele>
        <time>2011-06-12T10:30:39Z</time>
      </trkpt>
      <trkpt lat="44.71987" lon="6.61273">
        <ele>1458.94</ele>
        <time>2011-06-12T10:30:55Z</time>
      </trkpt>
      <trkpt lat="44.71989" lon="6.61273">
        <ele>1459.42</ele>
        <time>2011-06-12T10:30:57Z</time>
      </trkpt>
      <trkpt lat="44.71991" lon="6.61274">
        <ele>1461.82</ele>
        <time>2011-06-12T10:31:02Z</time>
      </trkpt>
      <trkpt lat="44.71994" lon="6.61273">
        <ele>1462.78</ele>
        <time>2011-06-12T10:31:06Z</time>
      </trkpt>
      <trkpt lat="44.72013" lon="6.61259">
        <ele>1464.23</ele>
        <time>2011-06-12T10:31:20Z</time>
      </trkpt>
      <trkpt lat="44.72043" lon="6.61252">
        <ele>1467.11</ele>
        <time>2011-06-12T10:31:36Z</time>
      </trkpt>
      <trkpt lat="44.72066" lon="6.61255">
        <ele>1469.51</ele>
        <time>2011-06-12T10:31:48Z</time>
      </trkpt>
      <trkpt lat="44.72095" lon="6.6126">
        <ele>1471.44</ele>
        <time>2011-06-12T10:32:03Z</time>
      </trkpt>
      <trkpt lat="44.72125" lon="6.61269">
        <ele>1473.84</ele>
        <time>2011-06-12T10:32:18Z</time>
      </trkpt>
      <trkpt lat="44.72147" lon="6.61283">
        <ele>1477.2</ele>
        <time>2011-06-12T10:32:31Z</time>
      </trkpt>
      <trkpt lat="44.72174" lon="6.61283">
        <ele>1482.49</ele>
        <time>2011-06-12T10:32:46Z</time>
      </trkpt>
      <trkpt lat="44.72205" lon="6.61278">
        <ele>1482.49</ele>
        <time>2011-06-12T10:33:01Z</time>
      </trkpt>
      <trkpt lat="44.72229" lon="6.61271">
        <ele>1485.85</ele>
        <time>2011-06-12T10:33:15Z</time>
      </trkpt>
      <trkpt lat="44.72242" lon="6.61276">
        <ele>1487.3</ele>
        <time>2011-06-12T10:33:24Z</time>
      </trkpt>
      <trkpt lat="44.72234" lon="6.61288">
        <ele>1489.22</ele>
        <time>2011-06-12T10:33:31Z</time>
      </trkpt>
      <trkpt lat="44.72206" lon="6.613">
        <ele>1491.62</ele>
        <time>2011-06-12T10:33:48Z</time>
      </trkpt>
      <trkpt lat="44.72187" lon="6.61317">
        <ele>1494.51</ele>
        <time>2011-06-12T10:34:01Z</time>
      </trkpt>
      <trkpt lat="44.72169" lon="6.61338">
        <ele>1497.87</ele>
        <time>2011-06-12T10:34:16Z</time>
      </trkpt>
      <trkpt lat="44.72155" lon="6.61363">
        <ele>1499.31</ele>
        <time>2011-06-12T10:34:29Z</time>
      </trkpt>
      <trkpt lat="44.72147" lon="6.61396">
        <ele>1500.76</ele>
        <time>2011-06-12T10:34:43Z</time>
      </trkpt>
      <trkpt lat="44.72136" lon="6.61424">
        <ele>1503.16</ele>
        <time>2011-06-12T10:34:58Z</time>
      </trkpt>
      <trkpt lat="44.7214" lon="6.61433">
        <ele>1504.6</ele>
        <time>2011-06-12T10:35:03Z</time>
      </trkpt>
      <trkpt lat="44.72143" lon="6.61435">
        <ele>1505.08</ele>
        <time>2011-06-12T10:35:05Z</time>
      </trkpt>
      <trkpt lat="44.7217" lon="6.61435">
        <ele>1507.48</ele>
        <time>2011-06-12T10:35:22Z</time>
      </trkpt>
      <trkpt lat="44.72183" lon="6.61407">
        <ele>1510.85</ele>
        <time>2011-06-12T10:35:37Z</time>
      </trkpt>
      <trkpt lat="44.72191" lon="6.61382">
        <ele>1514.21</ele>
        <time>2011-06-12T10:35:50Z</time>
      </trkpt>
      <trkpt lat="44.72209" lon="6.61375">
        <ele>1517.1</ele>
        <time>2011-06-12T10:36:03Z</time>
      </trkpt>
      <trkpt lat="44.72232" lon="6.61398">
        <ele>1519.02</ele>
        <time>2011-06-12T10:36:17Z</time>
      </trkpt>
      <trkpt lat="44.7225" lon="6.61418">
        <ele>1521.42</ele>
        <time>2011-06-12T10:36:28Z</time>
      </trkpt>
      <trkpt lat="44.7226" lon="6.61453">
        <ele>1522.87</ele>
        <time>2011-06-12T10:36:44Z</time>
      </trkpt>
      <trkpt lat="44.72257" lon="6.61486">
        <ele>1523.83</ele>
        <time>2011-06-12T10:36:58Z</time>
      </trkpt>
      <trkpt lat="44.72255" lon="6.61505">
        <ele>1526.71</ele>
        <time>2011-06-12T10:37:06Z</time>
      </trkpt>
      <trkpt lat="44.72264" lon="6.6151">
        <ele>1528.15</ele>
        <time>2011-06-12T10:37:11Z</time>
      </trkpt>
      <trkpt lat="44.7227" lon="6.61503">
        <ele>1528.15</ele>
        <time>2011-06-12T10:37:15Z</time>
      </trkpt>
      <trkpt lat="44.7229" lon="6.61469">
        <ele>1530.56</ele>
        <time>2011-06-12T10:37:33Z</time>
      </trkpt>
      <trkpt lat="44.72293" lon="6.61465">
        <ele>1531.52</ele>
        <time>2011-06-12T10:37:35Z</time>
      </trkpt>
      <trkpt lat="44.72302" lon="6.61452">
        <ele>1532.48</ele>
        <time>2011-06-12T10:37:43Z</time>
      </trkpt>
      <trkpt lat="44.72313" lon="6.61452">
        <ele>1533.92</ele>
        <time>2011-06-12T10:37:50Z</time>
      </trkpt>
      <trkpt lat="44.7231" lon="6.6147">
        <ele>1534.4</ele>
        <time>2011-06-12T10:37:57Z</time>
      </trkpt>
      <trkpt lat="44.72307" lon="6.61498">
        <ele>1541.13</ele>
        <time>2011-06-12T10:38:09Z</time>
      </trkpt>
      <trkpt lat="44.72307" lon="6.61501">
        <ele>1539.69</ele>
        <time>2011-06-12T10:38:10Z</time>
      </trkpt>
      <trkpt lat="44.72308" lon="6.61505">
        <ele>1538.73</ele>
        <time>2011-06-12T10:38:12Z</time>
      </trkpt>
      <trkpt lat="44.72311" lon="6.61551">
        <ele>1541.13</ele>
        <time>2011-06-12T10:38:30Z</time>
      </trkpt>
      <trkpt lat="44.72296" lon="6.61586">
        <ele>1542.57</ele>
        <time>2011-06-12T10:38:45Z</time>
      </trkpt>
      <trkpt lat="44.72276" lon="6.61615">
        <ele>1544.01</ele>
        <time>2011-06-12T10:39:00Z</time>
      </trkpt>
      <trkpt lat="44.72282" lon="6.61621">
        <ele>1544.98</ele>
        <time>2011-06-12T10:39:05Z</time>
      </trkpt>
      <trkpt lat="44.72308" lon="6.61604">
        <ele>1547.38</ele>
        <time>2011-06-12T10:39:18Z</time>
      </trkpt>
      <trkpt lat="44.7231" lon="6.61601">
        <ele>1547.38</ele>
        <time>2011-06-12T10:39:19Z</time>
      </trkpt>
      <trkpt lat="44.72334" lon="6.61589">
        <ele>1549.78</ele>
        <time>2011-06-12T10:39:34Z</time>
      </trkpt>
      <trkpt lat="44.72362" lon="6.61585">
        <ele>1551.71</ele>
        <time>2011-06-12T10:39:49Z</time>
      </trkpt>
      <trkpt lat="44.7239" lon="6.61583">
        <ele>1554.11</ele>
        <time>2011-06-12T10:40:04Z</time>
      </trkpt>
      <trkpt lat="44.72417" lon="6.61573">
        <ele>1556.99</ele>
        <time>2011-06-12T10:40:19Z</time>
      </trkpt>
      <trkpt lat="44.72442" lon="6.61571">
        <ele>1558.92</ele>
        <time>2011-06-12T10:40:33Z</time>
      </trkpt>
      <trkpt lat="44.72443" lon="6.61573">
        <ele>1558.92</ele>
        <time>2011-06-12T10:40:34Z</time>
      </trkpt>
      <trkpt lat="44.72442" lon="6.61584">
        <ele>1559.4</ele>
        <time>2011-06-12T10:40:38Z</time>
      </trkpt>
      <trkpt lat="44.72424" lon="6.61611">
        <ele>1562.28</ele>
        <time>2011-06-12T10:40:53Z</time>
      </trkpt>
      <trkpt lat="44.72404" lon="6.61634">
        <ele>1565.16</ele>
        <time>2011-06-12T10:41:08Z</time>
      </trkpt>
      <trkpt lat="44.72372" lon="6.61649">
        <ele>1568.05</ele>
        <time>2011-06-12T10:41:25Z</time>
      </trkpt>
      <trkpt lat="44.72353" lon="6.61661">
        <ele>1571.41</ele>
        <time>2011-06-12T10:41:38Z</time>
      </trkpt>
      <trkpt lat="44.72321" lon="6.61684">
        <ele>1573.82</ele>
        <time>2011-06-12T10:41:58Z</time>
      </trkpt>
      <trkpt lat="44.72312" lon="6.61691">
        <ele>1573.82</ele>
        <time>2011-06-12T10:42:04Z</time>
      </trkpt>
      <trkpt lat="44.72293" lon="6.61706">
        <ele>1575.74</ele>
        <time>2011-06-12T10:42:18Z</time>
      </trkpt>
      <trkpt lat="44.72276" lon="6.61726">
        <ele>1578.14</ele>
        <time>2011-06-12T10:42:34Z</time>
      </trkpt>
      <trkpt lat="44.72258" lon="6.61739">
        <ele>1580.54</ele>
        <time>2011-06-12T10:42:50Z</time>
      </trkpt>
      <trkpt lat="44.72236" lon="6.6174">
        <ele>1583.43</ele>
        <time>2011-06-12T10:43:05Z</time>
      </trkpt>
      <trkpt lat="44.72228" lon="6.61745">
        <ele>1586.79</ele>
        <time>2011-06-12T10:43:16Z</time>
      </trkpt>
      <trkpt lat="44.72229" lon="6.61752">
        <ele>1588.24</ele>
        <time>2011-06-12T10:43:22Z</time>
      </trkpt>
      <trkpt lat="44.72248" lon="6.61765">
        <ele>1590.64</ele>
        <time>2011-06-12T10:43:39Z</time>
      </trkpt>
      <trkpt lat="44.7227" lon="6.61776">
        <ele>1592.08</ele>
        <time>2011-06-12T10:43:55Z</time>
      </trkpt>
      <trkpt lat="44.72296" lon="6.61771">
        <ele>1594.48</ele>
        <time>2011-06-12T10:44:12Z</time>
      </trkpt>
      <trkpt lat="44.72315" lon="6.61761">
        <ele>1596.89</ele>
        <time>2011-06-12T10:44:28Z</time>
      </trkpt>
      <trkpt lat="44.72334" lon="6.61754">
        <ele>1599.29</ele>
        <time>2011-06-12T10:44:43Z</time>
      </trkpt>
      <trkpt lat="44.72357" lon="6.6175">
        <ele>1602.17</ele>
        <time>2011-06-12T10:44:59Z</time>
      </trkpt>
      <trkpt lat="44.7238" lon="6.61747">
        <ele>1604.58</ele>
        <time>2011-06-12T10:45:16Z</time>
      </trkpt>
      <trkpt lat="44.72402" lon="6.61752">
        <ele>1607.46</ele>
        <time>2011-06-12T10:45:34Z</time>
      </trkpt>
      <trkpt lat="44.72415" lon="6.61768">
        <ele>1609.86</ele>
        <time>2011-06-12T10:45:48Z</time>
      </trkpt>
      <trkpt lat="44.72437" lon="6.61793">
        <ele>1612.75</ele>
        <time>2011-06-12T10:46:03Z</time>
      </trkpt>
      <trkpt lat="44.72448" lon="6.61801">
        <ele>1614.19</ele>
        <time>2011-06-12T10:46:10Z</time>
      </trkpt>
      <trkpt lat="44.72442" lon="6.61813">
        <ele>1615.15</ele>
        <time>2011-06-12T10:46:17Z</time>
      </trkpt>
      <trkpt lat="44.72418" lon="6.61822">
        <ele>1617.07</ele>
        <time>2011-06-12T10:46:31Z</time>
      </trkpt>
      <trkpt lat="44.72398" lon="6.61843">
        <ele>1618.52</ele>
        <time>2011-06-12T10:46:46Z</time>
      </trkpt>
      <trkpt lat="44.72376" lon="6.6186">
        <ele>1621.88</ele>
        <time>2011-06-12T10:47:00Z</time>
      </trkpt>
      <trkpt lat="44.72365" lon="6.61869">
        <ele>1622.84</ele>
        <time>2011-06-12T10:47:07Z</time>
      </trkpt>
      <trkpt lat="44.72348" lon="6.61887">
        <ele>1624.77</ele>
        <time>2011-06-12T10:47:20Z</time>
      </trkpt>
      <trkpt lat="44.72329" lon="6.61897">
        <ele>1627.17</ele>
        <time>2011-06-12T10:47:34Z</time>
      </trkpt>
      <trkpt lat="44.72312" lon="6.61911">
        <ele>1630.53</ele>
        <time>2011-06-12T10:47:47Z</time>
      </trkpt>
      <trkpt lat="44.72293" lon="6.61924">
        <ele>1633.42</ele>
        <time>2011-06-12T10:48:01Z</time>
      </trkpt>
      <trkpt lat="44.72271" lon="6.61937">
        <ele>1634.86</ele>
        <time>2011-06-12T10:48:14Z</time>
      </trkpt>
      <trkpt lat="44.72245" lon="6.61965">
        <ele>1636.78</ele>
        <time>2011-06-12T10:48:30Z</time>
      </trkpt>
      <trkpt lat="44.72236" lon="6.61981">
        <ele>1639.19</ele>
        <time>2011-06-12T10:48:42Z</time>
      </trkpt>
      <trkpt lat="44.72239" lon="6.61982">
        <ele>1640.15</ele>
        <time>2011-06-12T10:48:44Z</time>
      </trkpt>
      <trkpt lat="44.72257" lon="6.61985">
        <ele>1640.63</ele>
        <time>2011-06-12T10:48:53Z</time>
      </trkpt>
      <trkpt lat="44.72278" lon="6.61993">
        <ele>1643.03</ele>
        <time>2011-06-12T10:49:07Z</time>
      </trkpt>
      <trkpt lat="44.72301" lon="6.61995">
        <ele>1645.91</ele>
        <time>2011-06-12T10:49:20Z</time>
      </trkpt>
      <trkpt lat="44.72321" lon="6.61995">
        <ele>1648.32</ele>
        <time>2011-06-12T10:49:34Z</time>
      </trkpt>
      <trkpt lat="44.72346" lon="6.61989">
        <ele>1650.24</ele>
        <time>2011-06-12T10:49:49Z</time>
      </trkpt>
      <trkpt lat="44.72366" lon="6.6198">
        <ele>1653.12</ele>
        <time>2011-06-12T10:50:04Z</time>
      </trkpt>
      <trkpt lat="44.72376" lon="6.61977">
        <ele>1655.05</ele>
        <time>2011-06-12T10:50:12Z</time>
      </trkpt>
      <trkpt lat="44.724" lon="6.61971">
        <ele>1657.93</ele>
        <time>2011-06-12T10:50:28Z</time>
      </trkpt>
      <trkpt lat="44.72408" lon="6.61968">
        <ele>1658.41</ele>
        <time>2011-06-12T10:50:33Z</time>
      </trkpt>
      <trkpt lat="44.72412" lon="6.6198">
        <ele>1660.81</ele>
        <time>2011-06-12T10:50:44Z</time>
      </trkpt>
      <trkpt lat="44.72394" lon="6.62">
        <ele>1662.74</ele>
        <time>2011-06-12T10:51:01Z</time>
      </trkpt>
      <trkpt lat="44.72377" lon="6.62024">
        <ele>1665.14</ele>
        <time>2011-06-12T10:51:16Z</time>
      </trkpt>
      <trkpt lat="44.72356" lon="6.6204">
        <ele>1667.54</ele>
        <time>2011-06-12T10:51:30Z</time>
      </trkpt>
      <trkpt lat="44.72355" lon="6.62046">
        <ele>1668.51</ele>
        <time>2011-06-12T10:51:34Z</time>
      </trkpt>
      <trkpt lat="44.72363" lon="6.62049">
        <ele>1669.95</ele>
        <time>2011-06-12T10:51:39Z</time>
      </trkpt>
      <trkpt lat="44.72387" lon="6.6204">
        <ele>1671.39</ele>
        <time>2011-06-12T10:51:54Z</time>
      </trkpt>
      <trkpt lat="44.72408" lon="6.62035">
        <ele>1674.27</ele>
        <time>2011-06-12T10:52:08Z</time>
      </trkpt>
      <trkpt lat="44.7243" lon="6.62015">
        <ele>1677.64</ele>
        <time>2011-06-12T10:52:25Z</time>
      </trkpt>
      <trkpt lat="44.72431" lon="6.62014">
        <ele>1677.16</ele>
        <time>2011-06-12T10:52:26Z</time>
      </trkpt>
      <trkpt lat="44.72434" lon="6.62014">
        <ele>1679.56</ele>
        <time>2011-06-12T10:52:28Z</time>
      </trkpt>
      <trkpt lat="44.72438" lon="6.62016">
        <ele>1677.16</ele>
        <time>2011-06-12T10:52:30Z</time>
      </trkpt>
      <trkpt lat="44.72438" lon="6.62031">
        <ele>1679.08</ele>
        <time>2011-06-12T10:52:38Z</time>
      </trkpt>
      <trkpt lat="44.7242" lon="6.62047">
        <ele>1681</ele>
        <time>2011-06-12T10:52:51Z</time>
      </trkpt>
      <trkpt lat="44.724" lon="6.6207">
        <ele>1683.41</ele>
        <time>2011-06-12T10:53:07Z</time>
      </trkpt>
      <trkpt lat="44.7238" lon="6.6209">
        <ele>1685.33</ele>
        <time>2011-06-12T10:53:22Z</time>
      </trkpt>
      <trkpt lat="44.72379" lon="6.6209">
        <ele>1685.81</ele>
        <time>2011-06-12T10:53:23Z</time>
      </trkpt>
      <trkpt lat="44.72359" lon="6.62103">
        <ele>1688.21</ele>
        <time>2011-06-12T10:53:38Z</time>
      </trkpt>
      <trkpt lat="44.72344" lon="6.62121">
        <ele>1690.62</ele>
        <time>2011-06-12T10:53:53Z</time>
      </trkpt>
      <trkpt lat="44.72336" lon="6.62135">
        <ele>1692.06</ele>
        <time>2011-06-12T10:54:02Z</time>
      </trkpt>
      <trkpt lat="44.72331" lon="6.62139">
        <ele>1693.02</ele>
        <time>2011-06-12T10:54:06Z</time>
      </trkpt>
      <trkpt lat="44.72307" lon="6.62148">
        <ele>1695.9</ele>
        <time>2011-06-12T10:54:23Z</time>
      </trkpt>
      <trkpt lat="44.72285" lon="6.62156">
        <ele>1699.27</ele>
        <time>2011-06-12T10:54:39Z</time>
      </trkpt>
      <trkpt lat="44.7228" lon="6.62159">
        <ele>1702.63</ele>
        <time>2011-06-12T10:54:42Z</time>
      </trkpt>
      <trkpt lat="44.72279" lon="6.6216">
        <ele>1699.75</ele>
        <time>2011-06-12T10:54:43Z</time>
      </trkpt>
      <trkpt lat="44.72263" lon="6.62181">
        <ele>1701.67</ele>
        <time>2011-06-12T10:54:57Z</time>
      </trkpt>
      <trkpt lat="44.72258" lon="6.62184">
        <ele>1702.63</ele>
        <time>2011-06-12T10:55:01Z</time>
      </trkpt>
      <trkpt lat="44.72255" lon="6.62187">
        <ele>1702.15</ele>
        <time>2011-06-12T10:55:03Z</time>
      </trkpt>
      <trkpt lat="44.72248" lon="6.62194">
        <ele>1703.11</ele>
        <time>2011-06-12T10:55:09Z</time>
      </trkpt>
      <trkpt lat="44.72237" lon="6.62201">
        <ele>1704.07</ele>
        <time>2011-06-12T10:55:17Z</time>
      </trkpt>
      <trkpt lat="44.72219" lon="6.62217">
        <ele>1706.48</ele>
        <time>2011-06-12T10:55:32Z</time>
      </trkpt>
      <trkpt lat="44.72202" lon="6.62239">
        <ele>1708.88</ele>
        <time>2011-06-12T10:55:49Z</time>
      </trkpt>
      <trkpt lat="44.72186" lon="6.62256">
        <ele>1711.28</ele>
        <time>2011-06-12T10:56:05Z</time>
      </trkpt>
      <trkpt lat="44.72166" lon="6.62271">
        <ele>1714.17</ele>
        <time>2011-06-12T10:56:21Z</time>
      </trkpt>
      <trkpt lat="44.72147" lon="6.62281">
        <ele>1716.09</ele>
        <time>2011-06-12T10:56:35Z</time>
      </trkpt>
      <trkpt lat="44.72133" lon="6.62306">
        <ele>1718.97</ele>
        <time>2011-06-12T10:56:50Z</time>
      </trkpt>
      <trkpt lat="44.72117" lon="6.62333">
        <ele>1720.9</ele>
        <time>2011-06-12T10:57:07Z</time>
      </trkpt>
      <trkpt lat="44.72095" lon="6.62354">
        <ele>1722.82</ele>
        <time>2011-06-12T10:57:22Z</time>
      </trkpt>
      <trkpt lat="44.72081" lon="6.62383">
        <ele>1724.74</ele>
        <time>2011-06-12T10:57:38Z</time>
      </trkpt>
      <trkpt lat="44.7207" lon="6.62412">
        <ele>1728.11</ele>
        <time>2011-06-12T10:57:53Z</time>
      </trkpt>
      <trkpt lat="44.7206" lon="6.62438">
        <ele>1730.51</ele>
        <time>2011-06-12T10:58:08Z</time>
      </trkpt>
      <trkpt lat="44.72051" lon="6.62467">
        <ele>1733.39</ele>
        <time>2011-06-12T10:58:23Z</time>
      </trkpt>
      <trkpt lat="44.72048" lon="6.62496">
        <ele>1735.32</ele>
        <time>2011-06-12T10:58:37Z</time>
      </trkpt>
      <trkpt lat="44.72047" lon="6.62522">
        <ele>1737.24</ele>
        <time>2011-06-12T10:58:52Z</time>
      </trkpt>
      <trkpt lat="44.72049" lon="6.62524">
        <ele>1737.24</ele>
        <time>2011-06-12T10:58:55Z</time>
      </trkpt>
      <trkpt lat="44.72053" lon="6.62522">
        <ele>1737.72</ele>
        <time>2011-06-12T10:58:59Z</time>
      </trkpt>
      <trkpt lat="44.72063" lon="6.62491">
        <ele>1739.64</ele>
        <time>2011-06-12T10:59:16Z</time>
      </trkpt>
      <trkpt lat="44.72075" lon="6.62461">
        <ele>1741.57</ele>
        <time>2011-06-12T10:59:34Z</time>
      </trkpt>
      <trkpt lat="44.72089" lon="6.62438">
        <ele>1743.49</ele>
        <time>2011-06-12T10:59:51Z</time>
      </trkpt>
      <trkpt lat="44.72104" lon="6.62419">
        <ele>1745.41</ele>
        <time>2011-06-12T11:00:08Z</time>
      </trkpt>
      <trkpt lat="44.7212" lon="6.62406">
        <ele>1747.81</ele>
        <time>2011-06-12T11:00:25Z</time>
      </trkpt>
      <trkpt lat="44.72141" lon="6.62393">
        <ele>1750.7</ele>
        <time>2011-06-12T11:00:43Z</time>
      </trkpt>
      <trkpt lat="44.72154" lon="6.62385">
        <ele>1752.14</ele>
        <time>2011-06-12T11:00:54Z</time>
      </trkpt>
      <trkpt lat="44.72168" lon="6.62384">
        <ele>1752.62</ele>
        <time>2011-06-12T11:01:09Z</time>
      </trkpt>
      <trkpt lat="44.72196" lon="6.6238">
        <ele>1755.5</ele>
        <time>2011-06-12T11:01:23Z</time>
      </trkpt>
      <trkpt lat="44.72208" lon="6.6238">
        <ele>1756.47</ele>
        <time>2011-06-12T11:01:28Z</time>
      </trkpt>
      <trkpt lat="44.72239" lon="6.62378">
        <ele>1758.39</ele>
        <time>2011-06-12T11:01:44Z</time>
      </trkpt>
      <trkpt lat="44.7227" lon="6.62382">
        <ele>1760.31</ele>
        <time>2011-06-12T11:01:59Z</time>
      </trkpt>
      <trkpt lat="44.72301" lon="6.62388">
        <ele>1762.23</ele>
        <time>2011-06-12T11:02:14Z</time>
      </trkpt>
      <trkpt lat="44.72343" lon="6.62399">
        <ele>1764.64</ele>
        <time>2011-06-12T11:02:32Z</time>
      </trkpt>
      <trkpt lat="44.72373" lon="6.62407">
        <ele>1769.44</ele>
        <time>2011-06-12T11:02:45Z</time>
      </trkpt>
      <trkpt lat="44.72404" lon="6.62407">
        <ele>1768.96</ele>
        <time>2011-06-12T11:03:01Z</time>
      </trkpt>
      <trkpt lat="44.72427" lon="6.62404">
        <ele>1771.85</ele>
        <time>2011-06-12T11:03:15Z</time>
      </trkpt>
      <trkpt lat="44.72447" lon="6.624">
        <ele>1775.21</ele>
        <time>2011-06-12T11:03:28Z</time>
      </trkpt>
      <trkpt lat="44.72461" lon="6.62388">
        <ele>1778.1</ele>
        <time>2011-06-12T11:03:44Z</time>
      </trkpt>
      <trkpt lat="44.72476" lon="6.6238">
        <ele>1780.02</ele>
        <time>2011-06-12T11:03:57Z</time>
      </trkpt>
      <trkpt lat="44.72495" lon="6.62371">
        <ele>1782.42</ele>
        <time>2011-06-12T11:04:11Z</time>
      </trkpt>
      <trkpt lat="44.72518" lon="6.62367">
        <ele>1784.82</ele>
        <time>2011-06-12T11:04:28Z</time>
      </trkpt>
      <trkpt lat="44.72534" lon="6.62383">
        <ele>1787.23</ele>
        <time>2011-06-12T11:04:45Z</time>
      </trkpt>
      <trkpt lat="44.72553" lon="6.62391">
        <ele>1789.63</ele>
        <time>2011-06-12T11:05:02Z</time>
      </trkpt>
      <trkpt lat="44.72562" lon="6.62391">
        <ele>1790.11</ele>
        <time>2011-06-12T11:05:10Z</time>
      </trkpt>
      <trkpt lat="44.72563" lon="6.62405">
        <ele>1791.55</ele>
        <time>2011-06-12T11:05:19Z</time>
      </trkpt>
      <trkpt lat="44.72545" lon="6.62411">
        <ele>1792.52</ele>
        <time>2011-06-12T11:05:35Z</time>
      </trkpt>
      <trkpt lat="44.72523" lon="6.62414">
        <ele>1794.44</ele>
        <time>2011-06-12T11:05:51Z</time>
      </trkpt>
      <trkpt lat="44.725" lon="6.62423">
        <ele>1796.84</ele>
        <time>2011-06-12T11:06:10Z</time>
      </trkpt>
      <trkpt lat="44.72476" lon="6.62443">
        <ele>1797.8</ele>
        <time>2011-06-12T11:06:28Z</time>
      </trkpt>
      <trkpt lat="44.72466" lon="6.6245">
        <ele>1802.13</ele>
        <time>2011-06-12T11:06:36Z</time>
      </trkpt>
      <trkpt lat="44.72464" lon="6.62451">
        <ele>1798.76</ele>
        <time>2011-06-12T11:06:38Z</time>
      </trkpt>
      <trkpt lat="44.7245" lon="6.62461">
        <ele>1802.13</ele>
        <time>2011-06-12T11:06:50Z</time>
      </trkpt>
      <trkpt lat="44.72428" lon="6.62472">
        <ele>1804.53</ele>
        <time>2011-06-12T11:07:07Z</time>
      </trkpt>
      <trkpt lat="44.72407" lon="6.62487">
        <ele>1806.45</ele>
        <time>2011-06-12T11:07:25Z</time>
      </trkpt>
      <trkpt lat="44.72388" lon="6.62498">
        <ele>1809.82</ele>
        <time>2011-06-12T11:07:43Z</time>
      </trkpt>
      <trkpt lat="44.72366" lon="6.62508">
        <ele>1811.26</ele>
        <time>2011-06-12T11:08:01Z</time>
      </trkpt>
      <trkpt lat="44.72357" lon="6.62504">
        <ele>1812.7</ele>
        <time>2011-06-12T11:08:14Z</time>
      </trkpt>
      <trkpt lat="44.72337" lon="6.62505">
        <ele>1814.63</ele>
        <time>2011-06-12T11:08:30Z</time>
      </trkpt>
      <trkpt lat="44.72322" lon="6.62511">
        <ele>1817.51</ele>
        <time>2011-06-12T11:08:44Z</time>
      </trkpt>
      <trkpt lat="44.72303" lon="6.62525">
        <ele>1820.39</ele>
        <time>2011-06-12T11:09:02Z</time>
      </trkpt>
      <trkpt lat="44.72287" lon="6.62534">
        <ele>1823.76</ele>
        <time>2011-06-12T11:09:15Z</time>
      </trkpt>
      <trkpt lat="44.7228" lon="6.62543">
        <ele>1818.95</ele>
        <time>2011-06-12T11:09:22Z</time>
      </trkpt>
      <trkpt lat="44.7228" lon="6.62544">
        <ele>1822.8</ele>
        <time>2011-06-12T11:09:23Z</time>
      </trkpt>
      <trkpt lat="44.72278" lon="6.62547">
        <ele>1823.76</ele>
        <time>2011-06-12T11:09:25Z</time>
      </trkpt>
      <trkpt lat="44.72277" lon="6.6255">
        <ele>1828.08</ele>
        <time>2011-06-12T11:09:30Z</time>
      </trkpt>
      <trkpt lat="44.72277" lon="6.6255">
        <ele>1824.72</ele>
        <time>2011-06-12T11:09:31Z</time>
      </trkpt>
      <trkpt lat="44.72276" lon="6.6255">
        <ele>1815.59</ele>
        <time>2011-06-12T11:09:34Z</time>
      </trkpt>
      <trkpt lat="44.72276" lon="6.6255">
        <ele>1824.24</ele>
        <time>2011-06-12T11:09:35Z</time>
      </trkpt>
      <trkpt lat="44.72276" lon="6.6255">
        <ele>1823.28</ele>
        <time>2011-06-12T11:09:40Z</time>
      </trkpt>
      <trkpt lat="44.72276" lon="6.6255">
        <ele>1818.47</ele>
        <time>2011-06-12T11:09:42Z</time>
      </trkpt>
      <trkpt lat="44.72276" lon="6.6255">
        <ele>1823.28</ele>
        <time>2011-06-12T11:09:43Z</time>
      </trkpt>
      <trkpt lat="44.72276" lon="6.6255">
        <ele>1824.72</ele>
        <time>2011-06-12T11:09:50Z</time>
      </trkpt>
      <trkpt lat="44.72276" lon="6.6255">
        <ele>1819.43</ele>
        <time>2011-06-12T11:09:56Z</time>
      </trkpt>
      <trkpt lat="44.72276" lon="6.6255">
        <ele>1820.39</ele>
        <time>2011-06-12T11:09:57Z</time>
      </trkpt>
      <trkpt lat="44.72276" lon="6.6255">
        <ele>1824.72</ele>
        <time>2011-06-12T11:09:58Z</time>
      </trkpt>
      <trkpt lat="44.72276" lon="6.6255">
        <ele>1820.87</ele>
        <time>2011-06-12T11:10:05Z</time>
      </trkpt>
      <trkpt lat="44.72276" lon="6.6255">
        <ele>1823.76</ele>
        <time>2011-06-12T11:10:09Z</time>
      </trkpt>
      <trkpt lat="44.72272" lon="6.6256">
        <ele>1824.24</ele>
        <time>2011-06-12T11:10:30Z</time>
      </trkpt>
      <trkpt lat="44.72263" lon="6.62578">
        <ele>1825.68</ele>
        <time>2011-06-12T11:10:42Z</time>
      </trkpt>
      <trkpt lat="44.72245" lon="6.626">
        <ele>1828.56</ele>
        <time>2011-06-12T11:10:55Z</time>
      </trkpt>
      <trkpt lat="44.72232" lon="6.62627">
        <ele>1830.97</ele>
        <time>2011-06-12T11:11:09Z</time>
      </trkpt>
      <trkpt lat="44.72234" lon="6.62674">
        <ele>1829.05</ele>
        <time>2011-06-12T11:11:26Z</time>
      </trkpt>
      <trkpt lat="44.72235" lon="6.62676">
        <ele>1829.05</ele>
        <time>2011-06-12T11:11:27Z</time>
      </trkpt>
      <trkpt lat="44.72248" lon="6.62696">
        <ele>1832.41</ele>
        <time>2011-06-12T11:11:38Z</time>
      </trkpt>
      <trkpt lat="44.72256" lon="6.62725">
        <ele>1835.29</ele>
        <time>2011-06-12T11:11:52Z</time>
      </trkpt>
      <trkpt lat="44.72268" lon="6.62729">
        <ele>1836.74</ele>
        <time>2011-06-12T11:12:02Z</time>
      </trkpt>
      <trkpt lat="44.72286" lon="6.62712">
        <ele>1840.1</ele>
        <time>2011-06-12T11:12:17Z</time>
      </trkpt>
      <trkpt lat="44.72304" lon="6.62703">
        <ele>1844.91</ele>
        <time>2011-06-12T11:12:29Z</time>
      </trkpt>
      <trkpt lat="44.72307" lon="6.62703">
        <ele>1837.7</ele>
        <time>2011-06-12T11:12:31Z</time>
      </trkpt>
      <trkpt lat="44.72308" lon="6.62703">
        <ele>1842.5</ele>
        <time>2011-06-12T11:12:32Z</time>
      </trkpt>
      <trkpt lat="44.72336" lon="6.62704">
        <ele>1843.95</ele>
        <time>2011-06-12T11:12:47Z</time>
      </trkpt>
      <trkpt lat="44.72366" lon="6.62715">
        <ele>1846.83</ele>
        <time>2011-06-12T11:13:03Z</time>
      </trkpt>
      <trkpt lat="44.72402" lon="6.62743">
        <ele>1849.23</ele>
        <time>2011-06-12T11:13:23Z</time>
      </trkpt>
      <trkpt lat="44.72398" lon="6.62751">
        <ele>1850.19</ele>
        <time>2011-06-12T11:13:27Z</time>
      </trkpt>
      <trkpt lat="44.7239" lon="6.62753">
        <ele>1851.16</ele>
        <time>2011-06-12T11:13:31Z</time>
      </trkpt>
      <trkpt lat="44.72361" lon="6.6275">
        <ele>1852.6</ele>
        <time>2011-06-12T11:13:47Z</time>
      </trkpt>
      <trkpt lat="44.72342" lon="6.62753">
        <ele>1855</ele>
        <time>2011-06-12T11:13:58Z</time>
      </trkpt>
      <trkpt lat="44.72319" lon="6.62776">
        <ele>1857.4</ele>
        <time>2011-06-12T11:14:14Z</time>
      </trkpt>
      <trkpt lat="44.72295" lon="6.62797">
        <ele>1858.37</ele>
        <time>2011-06-12T11:14:30Z</time>
      </trkpt>
      <trkpt lat="44.72286" lon="6.62803">
        <ele>1859.81</ele>
        <time>2011-06-12T11:14:36Z</time>
      </trkpt>
      <trkpt lat="44.72291" lon="6.62815">
        <ele>1861.73</ele>
        <time>2011-06-12T11:14:45Z</time>
      </trkpt>
      <trkpt lat="44.72322" lon="6.62815">
        <ele>1863.17</ele>
        <time>2011-06-12T11:15:01Z</time>
      </trkpt>
      <trkpt lat="44.72347" lon="6.62828">
        <ele>1864.13</ele>
        <time>2011-06-12T11:15:16Z</time>
      </trkpt>
      <trkpt lat="44.72347" lon="6.6283">
        <ele>1865.09</ele>
        <time>2011-06-12T11:15:17Z</time>
      </trkpt>
      <trkpt lat="44.72343" lon="6.62837">
        <ele>1866.54</ele>
        <time>2011-06-12T11:15:21Z</time>
      </trkpt>
      <trkpt lat="44.72323" lon="6.62859">
        <ele>1867.5</ele>
        <time>2011-06-12T11:15:36Z</time>
      </trkpt>
      <trkpt lat="44.72313" lon="6.62882">
        <ele>1871.82</ele>
        <time>2011-06-12T11:15:48Z</time>
      </trkpt>
      <trkpt lat="44.72302" lon="6.62908">
        <ele>1868.46</ele>
        <time>2011-06-12T11:15:58Z</time>
      </trkpt>
      <trkpt lat="44.72298" lon="6.62924">
        <ele>1868.94</ele>
        <time>2011-06-12T11:16:09Z</time>
      </trkpt>
      <trkpt lat="44.72299" lon="6.62931">
        <ele>1869.9</ele>
        <time>2011-06-12T11:16:24Z</time>
      </trkpt>
      <trkpt lat="44.723" lon="6.62936">
        <ele>1869.42</ele>
        <time>2011-06-12T11:16:28Z</time>
      </trkpt>
      <trkpt lat="44.72297" lon="6.62943">
        <ele>1870.38</ele>
        <time>2011-06-12T11:16:32Z</time>
      </trkpt>
      <trkpt lat="44.72285" lon="6.62972">
        <ele>1871.82</ele>
        <time>2011-06-12T11:16:47Z</time>
      </trkpt>
      <trkpt lat="44.7228" lon="6.62991">
        <ele>1875.19</ele>
        <time>2011-06-12T11:17:01Z</time>
      </trkpt>
      <trkpt lat="44.72273" lon="6.6302">
        <ele>1878.07</ele>
        <time>2011-06-12T11:17:18Z</time>
      </trkpt>
      <trkpt lat="44.72268" lon="6.63042">
        <ele>1879.03</ele>
        <time>2011-06-12T11:17:34Z</time>
      </trkpt>
      <trkpt lat="44.72257" lon="6.63064">
        <ele>1882.4</ele>
        <time>2011-06-12T11:17:48Z</time>
      </trkpt>
      <trkpt lat="44.72248" lon="6.6308">
        <ele>1885.76</ele>
        <time>2011-06-12T11:18:02Z</time>
      </trkpt>
      <trkpt lat="44.72248" lon="6.63084">
        <ele>1885.76</ele>
        <time>2011-06-12T11:18:05Z</time>
      </trkpt>
      <trkpt lat="44.72244" lon="6.63111">
        <ele>1889.13</ele>
        <time>2011-06-12T11:18:23Z</time>
      </trkpt>
      <trkpt lat="44.72237" lon="6.63133">
        <ele>1891.05</ele>
        <time>2011-06-12T11:18:36Z</time>
      </trkpt>
      <trkpt lat="44.72223" lon="6.63151">
        <ele>1892.97</ele>
        <time>2011-06-12T11:18:52Z</time>
      </trkpt>
      <trkpt lat="44.72207" lon="6.63161">
        <ele>1895.38</ele>
        <time>2011-06-12T11:19:07Z</time>
      </trkpt>
      <trkpt lat="44.72194" lon="6.63177">
        <ele>1896.82</ele>
        <time>2011-06-12T11:19:23Z</time>
      </trkpt>
      <trkpt lat="44.72171" lon="6.63182">
        <ele>1899.22</ele>
        <time>2011-06-12T11:19:41Z</time>
      </trkpt>
      <trkpt lat="44.7215" lon="6.63182">
        <ele>1901.63</ele>
        <time>2011-06-12T11:19:57Z</time>
      </trkpt>
      <trkpt lat="44.72132" lon="6.6319">
        <ele>1902.59</ele>
        <time>2011-06-12T11:20:14Z</time>
      </trkpt>
      <trkpt lat="44.72109" lon="6.63196">
        <ele>1905.95</ele>
        <time>2011-06-12T11:20:30Z</time>
      </trkpt>
      <trkpt lat="44.72096" lon="6.63206">
        <ele>1908.83</ele>
        <time>2011-06-12T11:20:45Z</time>
      </trkpt>
      <trkpt lat="44.72077" lon="6.63213">
        <ele>1906.43</ele>
        <time>2011-06-12T11:21:00Z</time>
      </trkpt>
      <trkpt lat="44.72075" lon="6.63214">
        <ele>1911.24</ele>
        <time>2011-06-12T11:21:01Z</time>
      </trkpt>
      <trkpt lat="44.72074" lon="6.63214">
        <ele>1911.24</ele>
        <time>2011-06-12T11:21:02Z</time>
      </trkpt>
      <trkpt lat="44.72054" lon="6.63209">
        <ele>1913.16</ele>
        <time>2011-06-12T11:21:18Z</time>
      </trkpt>
      <trkpt lat="44.72038" lon="6.63206">
        <ele>1914.6</ele>
        <time>2011-06-12T11:21:32Z</time>
      </trkpt>
      <trkpt lat="44.72024" lon="6.63207">
        <ele>1917.01</ele>
        <time>2011-06-12T11:21:44Z</time>
      </trkpt>
      <trkpt lat="44.72004" lon="6.63214">
        <ele>1919.41</ele>
        <time>2011-06-12T11:22:00Z</time>
      </trkpt>
      <trkpt lat="44.7199" lon="6.63207">
        <ele>1920.37</ele>
        <time>2011-06-12T11:22:14Z</time>
      </trkpt>
      <trkpt lat="44.71975" lon="6.63209">
        <ele>1923.74</ele>
        <time>2011-06-12T11:22:28Z</time>
      </trkpt>
      <trkpt lat="44.71957" lon="6.63212">
        <ele>1926.62</ele>
        <time>2011-06-12T11:22:44Z</time>
      </trkpt>
      <trkpt lat="44.71946" lon="6.63215">
        <ele>1927.58</ele>
        <time>2011-06-12T11:22:55Z</time>
      </trkpt>
      <trkpt lat="44.71937" lon="6.63216">
        <ele>1929.02</ele>
        <time>2011-06-12T11:23:10Z</time>
      </trkpt>
      <trkpt lat="44.71935" lon="6.63218">
        <ele>1929.5</ele>
        <time>2011-06-12T11:23:11Z</time>
      </trkpt>
      <trkpt lat="44.71931" lon="6.63219">
        <ele>1930.46</ele>
        <time>2011-06-12T11:23:15Z</time>
      </trkpt>
      <trkpt lat="44.71925" lon="6.63219">
        <ele>1931.43</ele>
        <time>2011-06-12T11:23:21Z</time>
      </trkpt>
      <trkpt lat="44.7191" lon="6.63221">
        <ele>1934.31</ele>
        <time>2011-06-12T11:23:37Z</time>
      </trkpt>
      <trkpt lat="44.71892" lon="6.63227">
        <ele>1937.19</ele>
        <time>2011-06-12T11:23:55Z</time>
      </trkpt>
      <trkpt lat="44.71883" lon="6.63234">
        <ele>1939.6</ele>
        <time>2011-06-12T11:24:10Z</time>
      </trkpt>
      <trkpt lat="44.71866" lon="6.63253">
        <ele>1942</ele>
        <time>2011-06-12T11:24:26Z</time>
      </trkpt>
      <trkpt lat="44.71848" lon="6.63268">
        <ele>1943.92</ele>
        <time>2011-06-12T11:24:43Z</time>
      </trkpt>
      <trkpt lat="44.7183" lon="6.63281">
        <ele>1946.81</ele>
        <time>2011-06-12T11:25:00Z</time>
      </trkpt>
      <trkpt lat="44.71821" lon="6.63306">
        <ele>1949.69</ele>
        <time>2011-06-12T11:25:18Z</time>
      </trkpt>
      <trkpt lat="44.7181" lon="6.6333">
        <ele>1951.61</ele>
        <time>2011-06-12T11:25:36Z</time>
      </trkpt>
      <trkpt lat="44.7181" lon="6.63332">
        <ele>1952.09</ele>
        <time>2011-06-12T11:25:37Z</time>
      </trkpt>
      <trkpt lat="44.71814" lon="6.63337">
        <ele>1952.09</ele>
        <time>2011-06-12T11:25:42Z</time>
      </trkpt>
      <trkpt lat="44.71835" lon="6.63328">
        <ele>1954.98</ele>
        <time>2011-06-12T11:26:01Z</time>
      </trkpt>
      <trkpt lat="44.71848" lon="6.63335">
        <ele>1956.9</ele>
        <time>2011-06-12T11:26:16Z</time>
      </trkpt>
      <trkpt lat="44.71859" lon="6.63346">
        <ele>1958.34</ele>
        <time>2011-06-12T11:26:36Z</time>
      </trkpt>
      <trkpt lat="44.71867" lon="6.63351">
        <ele>1959.78</ele>
        <time>2011-06-12T11:26:52Z</time>
      </trkpt>
      <trkpt lat="44.71886" lon="6.63373">
        <ele>1962.19</ele>
        <time>2011-06-12T11:27:09Z</time>
      </trkpt>
      <trkpt lat="44.71908" lon="6.63385">
        <ele>1965.07</ele>
        <time>2011-06-12T11:27:25Z</time>
      </trkpt>
      <trkpt lat="44.71926" lon="6.63396">
        <ele>1966.99</ele>
        <time>2011-06-12T11:27:39Z</time>
      </trkpt>
      <trkpt lat="44.71942" lon="6.63405">
        <ele>1969.88</ele>
        <time>2011-06-12T11:27:52Z</time>
      </trkpt>
      <trkpt lat="44.71955" lon="6.63413">
        <ele>1971.32</ele>
        <time>2011-06-12T11:28:02Z</time>
      </trkpt>
      <trkpt lat="44.7196" lon="6.63417">
        <ele>1971.32</ele>
        <time>2011-06-12T11:28:06Z</time>
      </trkpt>
      <trkpt lat="44.71968" lon="6.63428">
        <ele>1973.24</ele>
        <time>2011-06-12T11:28:20Z</time>
      </trkpt>
      <trkpt lat="44.71979" lon="6.63444">
        <ele>1974.69</ele>
        <time>2011-06-12T11:28:34Z</time>
      </trkpt>
      <trkpt lat="44.71985" lon="6.63457">
        <ele>1976.13</ele>
        <time>2011-06-12T11:28:44Z</time>
      </trkpt>
      <trkpt lat="44.7199" lon="6.6349">
        <ele>1977.09</ele>
        <time>2011-06-12T11:29:05Z</time>
      </trkpt>
      <trkpt lat="44.71998" lon="6.63506">
        <ele>1978.53</ele>
        <time>2011-06-12T11:29:20Z</time>
      </trkpt>
      <trkpt lat="44.71994" lon="6.63508">
        <ele>1979.97</ele>
        <time>2011-06-12T11:29:45Z</time>
      </trkpt>
      <trkpt lat="44.71986" lon="6.63507">
        <ele>1982.86</ele>
        <time>2011-06-12T11:29:56Z</time>
      </trkpt>
      <trkpt lat="44.71979" lon="6.63507">
        <ele>1984.78</ele>
        <time>2011-06-12T11:30:06Z</time>
      </trkpt>
      <trkpt lat="44.71975" lon="6.63507">
        <ele>1986.7</ele>
        <time>2011-06-12T11:30:14Z</time>
      </trkpt>
      <trkpt lat="44.71967" lon="6.63504">
        <ele>1988.62</ele>
        <time>2011-06-12T11:30:26Z</time>
      </trkpt>
      <trkpt lat="44.71954" lon="6.63508">
        <ele>1989.59</ele>
        <time>2011-06-12T11:30:40Z</time>
      </trkpt>
      <trkpt lat="44.71945" lon="6.63512">
        <ele>1992.47</ele>
        <time>2011-06-12T11:30:51Z</time>
      </trkpt>
      <trkpt lat="44.71938" lon="6.63516">
        <ele>1991.99</ele>
        <time>2011-06-12T11:30:59Z</time>
      </trkpt>
      <trkpt lat="44.7193" lon="6.63517">
        <ele>1992.95</ele>
        <time>2011-06-12T11:31:08Z</time>
      </trkpt>
      <trkpt lat="44.71923" lon="6.63523">
        <ele>1995.35</ele>
        <time>2011-06-12T11:31:21Z</time>
      </trkpt>
      <trkpt lat="44.71915" lon="6.63527">
        <ele>1997.28</ele>
        <time>2011-06-12T11:31:33Z</time>
      </trkpt>
      <trkpt lat="44.71911" lon="6.63531">
        <ele>1998.24</ele>
        <time>2011-06-12T11:31:42Z</time>
      </trkpt>
      <trkpt lat="44.71903" lon="6.63535">
        <ele>1999.68</ele>
        <time>2011-06-12T11:31:55Z</time>
      </trkpt>
      <trkpt lat="44.71895" lon="6.63541">
        <ele>2001.6</ele>
        <time>2011-06-12T11:32:08Z</time>
      </trkpt>
      <trkpt lat="44.71892" lon="6.63544">
        <ele>2002.56</ele>
        <time>2011-06-12T11:32:14Z</time>
      </trkpt>
      <trkpt lat="44.71886" lon="6.63551">
        <ele>2004.49</ele>
        <time>2011-06-12T11:32:28Z</time>
      </trkpt>
      <trkpt lat="44.7188" lon="6.63559">
        <ele>2007.37</ele>
        <time>2011-06-12T11:32:40Z</time>
      </trkpt>
      <trkpt lat="44.71872" lon="6.63564">
        <ele>2009.77</ele>
        <time>2011-06-12T11:32:53Z</time>
      </trkpt>
      <trkpt lat="44.71863" lon="6.63566">
        <ele>2011.7</ele>
        <time>2011-06-12T11:33:06Z</time>
      </trkpt>
      <trkpt lat="44.71859" lon="6.63569">
        <ele>2012.18</ele>
        <time>2011-06-12T11:33:13Z</time>
      </trkpt>
      <trkpt lat="44.71857" lon="6.63576">
        <ele>2014.1</ele>
        <time>2011-06-12T11:33:26Z</time>
      </trkpt>
      <trkpt lat="44.71854" lon="6.63584">
        <ele>2016.02</ele>
        <time>2011-06-12T11:33:40Z</time>
      </trkpt>
      <trkpt lat="44.7185" lon="6.63594">
        <ele>2018.43</ele>
        <time>2011-06-12T11:33:55Z</time>
      </trkpt>
      <trkpt lat="44.71846" lon="6.63601">
        <ele>2020.35</ele>
        <time>2011-06-12T11:34:07Z</time>
      </trkpt>
      <trkpt lat="44.71839" lon="6.63612">
        <ele>2022.75</ele>
        <time>2011-06-12T11:34:24Z</time>
      </trkpt>
      <trkpt lat="44.71834" lon="6.6362">
        <ele>2024.67</ele>
        <time>2011-06-12T11:34:37Z</time>
      </trkpt>
      <trkpt lat="44.71828" lon="6.63631">
        <ele>2026.6</ele>
        <time>2011-06-12T11:34:54Z</time>
      </trkpt>
      <trkpt lat="44.71824" lon="6.63636">
        <ele>2027.56</ele>
        <time>2011-06-12T11:35:03Z</time>
      </trkpt>
      <trkpt lat="44.71821" lon="6.63645">
        <ele>2029.48</ele>
        <time>2011-06-12T11:35:16Z</time>
      </trkpt>
      <trkpt lat="44.71822" lon="6.63649">
        <ele>2030.44</ele>
        <time>2011-06-12T11:35:27Z</time>
      </trkpt>
      <trkpt lat="44.7182" lon="6.63658">
        <ele>2033.33</ele>
        <time>2011-06-12T11:35:42Z</time>
      </trkpt>
      <trkpt lat="44.71816" lon="6.63667">
        <ele>2035.73</ele>
        <time>2011-06-12T11:35:55Z</time>
      </trkpt>
      <trkpt lat="44.71811" lon="6.63673">
        <ele>2036.69</ele>
        <time>2011-06-12T11:36:04Z</time>
      </trkpt>
      <trkpt lat="44.71802" lon="6.63693">
        <ele>2038.61</ele>
        <time>2011-06-12T11:36:22Z</time>
      </trkpt>
      <trkpt lat="44.71794" lon="6.63708">
        <ele>2041.02</ele>
        <time>2011-06-12T11:36:37Z</time>
      </trkpt>
      <trkpt lat="44.7179" lon="6.63717">
        <ele>2042.46</ele>
        <time>2011-06-12T11:36:55Z</time>
      </trkpt>
      <trkpt lat="44.71787" lon="6.63727">
        <ele>2044.38</ele>
        <time>2011-06-12T11:37:10Z</time>
      </trkpt>
      <trkpt lat="44.71786" lon="6.63733">
        <ele>2046.78</ele>
        <time>2011-06-12T11:37:23Z</time>
      </trkpt>
      <trkpt lat="44.71783" lon="6.6374">
        <ele>2048.23</ele>
        <time>2011-06-12T11:37:34Z</time>
      </trkpt>
      <trkpt lat="44.71783" lon="6.63741">
        <ele>2048.23</ele>
        <time>2011-06-12T11:37:48Z</time>
      </trkpt>
      <trkpt lat="44.71779" lon="6.63749">
        <ele>2050.63</ele>
        <time>2011-06-12T11:38:07Z</time>
      </trkpt>
      <trkpt lat="44.71777" lon="6.63756">
        <ele>2051.11</ele>
        <time>2011-06-12T11:38:26Z</time>
      </trkpt>
      <trkpt lat="44.71775" lon="6.63766">
        <ele>2053.51</ele>
        <time>2011-06-12T11:38:42Z</time>
      </trkpt>
      <trkpt lat="44.71773" lon="6.63779">
        <ele>2055.92</ele>
        <time>2011-06-12T11:38:59Z</time>
      </trkpt>
      <trkpt lat="44.7177" lon="6.6379">
        <ele>2058.8</ele>
        <time>2011-06-12T11:39:37Z</time>
      </trkpt>
      <trkpt lat="44.71768" lon="6.63802">
        <ele>2061.2</ele>
        <time>2011-06-12T11:39:56Z</time>
      </trkpt>
      <trkpt lat="44.71765" lon="6.63812">
        <ele>2063.13</ele>
        <time>2011-06-12T11:40:14Z</time>
      </trkpt>
      <trkpt lat="44.71765" lon="6.63819">
        <ele>2064.09</ele>
        <time>2011-06-12T11:40:32Z</time>
      </trkpt>
      <trkpt lat="44.71764" lon="6.6383">
        <ele>2067.45</ele>
        <time>2011-06-12T11:40:46Z</time>
      </trkpt>
      <trkpt lat="44.71765" lon="6.63838">
        <ele>2068.41</ele>
        <time>2011-06-12T11:41:02Z</time>
      </trkpt>
      <trkpt lat="44.71766" lon="6.63856">
        <ele>2071.3</ele>
        <time>2011-06-12T11:41:21Z</time>
      </trkpt>
      <trkpt lat="44.71767" lon="6.63873">
        <ele>2073.7</ele>
        <time>2011-06-12T11:41:41Z</time>
      </trkpt>
      <trkpt lat="44.71768" lon="6.63879">
        <ele>2074.66</ele>
        <time>2011-06-12T11:42:18Z</time>
      </trkpt>
      <trkpt lat="44.7177" lon="6.63901">
        <ele>2077.55</ele>
        <time>2011-06-12T11:42:37Z</time>
      </trkpt>
      <trkpt lat="44.7177" lon="6.63909">
        <ele>2078.03</ele>
        <time>2011-06-12T11:42:52Z</time>
      </trkpt>
      <trkpt lat="44.7177" lon="6.63913">
        <ele>2078.99</ele>
        <time>2011-06-12T11:44:27Z</time>
      </trkpt>
      <trkpt lat="44.71766" lon="6.63947">
        <ele>2075.62</ele>
        <time>2011-06-12T11:44:34Z</time>
      </trkpt>
      <trkpt lat="44.71766" lon="6.63955">
        <ele>2074.18</ele>
        <time>2011-06-12T11:44:35Z</time>
      </trkpt>
      <trkpt lat="44.71767" lon="6.63963">
        <ele>2074.18</ele>
        <time>2011-06-12T11:44:36Z</time>
      </trkpt>
      <trkpt lat="44.71768" lon="6.6398">
        <ele>2072.26</ele>
        <time>2011-06-12T11:44:38Z</time>
      </trkpt>
      <trkpt lat="44.71767" lon="6.63998">
        <ele>2071.3</ele>
        <time>2011-06-12T11:44:40Z</time>
      </trkpt>
      <trkpt lat="44.71766" lon="6.64013">
        <ele>2068.41</ele>
        <time>2011-06-12T11:44:42Z</time>
      </trkpt>
      <trkpt lat="44.71763" lon="6.64038">
        <ele>2065.53</ele>
        <time>2011-06-12T11:44:45Z</time>
      </trkpt>
      <trkpt lat="44.71761" lon="6.64048">
        <ele>2064.57</ele>
        <time>2011-06-12T11:44:46Z</time>
      </trkpt>
      <trkpt lat="44.7176" lon="6.64057">
        <ele>2063.61</ele>
        <time>2011-06-12T11:44:47Z</time>
      </trkpt>
      <trkpt lat="44.71755" lon="6.64073">
        <ele>2062.17</ele>
        <time>2011-06-12T11:44:49Z</time>
      </trkpt>
      <trkpt lat="44.71752" lon="6.64081">
        <ele>2061.2</ele>
        <time>2011-06-12T11:44:50Z</time>
      </trkpt>
      <trkpt lat="44.71745" lon="6.64098">
        <ele>2059.28</ele>
        <time>2011-06-12T11:44:52Z</time>
      </trkpt>
      <trkpt lat="44.71741" lon="6.64105">
        <ele>2058.8</ele>
        <time>2011-06-12T11:44:53Z</time>
      </trkpt>
      <trkpt lat="44.71729" lon="6.64129">
        <ele>2056.4</ele>
        <time>2011-06-12T11:44:56Z</time>
      </trkpt>
      <trkpt lat="44.71722" lon="6.64136">
        <ele>2054.47</ele>
        <time>2011-06-12T11:44:57Z</time>
      </trkpt>
      <trkpt lat="44.71709" lon="6.64149">
        <ele>2052.07</ele>
        <time>2011-06-12T11:44:59Z</time>
      </trkpt>
      <trkpt lat="44.71696" lon="6.64163">
        <ele>2050.63</ele>
        <time>2011-06-12T11:45:01Z</time>
      </trkpt>
      <trkpt lat="44.7169" lon="6.6417">
        <ele>2049.19</ele>
        <time>2011-06-12T11:45:02Z</time>
      </trkpt>
      <trkpt lat="44.71684" lon="6.64175">
        <ele>2048.71</ele>
        <time>2011-06-12T11:45:03Z</time>
      </trkpt>
      <trkpt lat="44.71678" lon="6.64178">
        <ele>2046.3</ele>
        <time>2011-06-12T11:45:04Z</time>
      </trkpt>
      <trkpt lat="44.71671" lon="6.6418">
        <ele>2045.82</ele>
        <time>2011-06-12T11:45:05Z</time>
      </trkpt>
      <trkpt lat="44.71664" lon="6.64181">
        <ele>2045.82</ele>
        <time>2011-06-12T11:45:06Z</time>
      </trkpt>
      <trkpt lat="44.71658" lon="6.64182">
        <ele>2044.38</ele>
        <time>2011-06-12T11:45:07Z</time>
      </trkpt>
      <trkpt lat="44.71652" lon="6.64184">
        <ele>2043.42</ele>
        <time>2011-06-12T11:45:08Z</time>
      </trkpt>
      <trkpt lat="44.71646" lon="6.64187">
        <ele>2042.46</ele>
        <time>2011-06-12T11:45:09Z</time>
      </trkpt>
      <trkpt lat="44.7164" lon="6.6419">
        <ele>2041.02</ele>
        <time>2011-06-12T11:45:10Z</time>
      </trkpt>
      <trkpt lat="44.71622" lon="6.64202">
        <ele>2037.65</ele>
        <time>2011-06-12T11:45:13Z</time>
      </trkpt>
      <trkpt lat="44.7161" lon="6.64212">
        <ele>2035.73</ele>
        <time>2011-06-12T11:45:15Z</time>
      </trkpt>
      <trkpt lat="44.71604" lon="6.64215">
        <ele>2035.25</ele>
        <time>2011-06-12T11:45:16Z</time>
      </trkpt>
      <trkpt lat="44.71598" lon="6.64217">
        <ele>2035.25</ele>
        <time>2011-06-12T11:45:17Z</time>
      </trkpt>
      <trkpt lat="44.71591" lon="6.64217">
        <ele>2033.33</ele>
        <time>2011-06-12T11:45:18Z</time>
      </trkpt>
      <trkpt lat="44.71584" lon="6.64215">
        <ele>2032.36</ele>
        <time>2011-06-12T11:45:19Z</time>
      </trkpt>
      <trkpt lat="44.71578" lon="6.64213">
        <ele>2030.92</ele>
        <time>2011-06-12T11:45:20Z</time>
      </trkpt>
      <trkpt lat="44.71572" lon="6.64211">
        <ele>2030.44</ele>
        <time>2011-06-12T11:45:21Z</time>
      </trkpt>
      <trkpt lat="44.71567" lon="6.64211">
        <ele>2029.48</ele>
        <time>2011-06-12T11:45:22Z</time>
      </trkpt>
      <trkpt lat="44.71547" lon="6.6422">
        <ele>2027.08</ele>
        <time>2011-06-12T11:45:26Z</time>
      </trkpt>
      <trkpt lat="44.71545" lon="6.64225">
        <ele>2026.12</ele>
        <time>2011-06-12T11:45:27Z</time>
      </trkpt>
      <trkpt lat="44.71543" lon="6.64231">
        <ele>2025.15</ele>
        <time>2011-06-12T11:45:28Z</time>
      </trkpt>
      <trkpt lat="44.71544" lon="6.6424">
        <ele>2025.15</ele>
        <time>2011-06-12T11:45:29Z</time>
      </trkpt>
      <trkpt lat="44.71545" lon="6.64248">
        <ele>2024.67</ele>
        <time>2011-06-12T11:45:30Z</time>
      </trkpt>
      <trkpt lat="44.71547" lon="6.64257">
        <ele>2023.71</ele>
        <time>2011-06-12T11:45:31Z</time>
      </trkpt>
      <trkpt lat="44.7155" lon="6.64265">
        <ele>2023.23</ele>
        <time>2011-06-12T11:45:32Z</time>
      </trkpt>
      <trkpt lat="44.71559" lon="6.64292">
        <ele>2020.35</ele>
        <time>2011-06-12T11:45:35Z</time>
      </trkpt>
      <trkpt lat="44.71563" lon="6.643">
        <ele>2019.39</ele>
        <time>2011-06-12T11:45:36Z</time>
      </trkpt>
      <trkpt lat="44.71571" lon="6.64325">
        <ele>2016.02</ele>
        <time>2011-06-12T11:45:39Z</time>
      </trkpt>
      <trkpt lat="44.71574" lon="6.64334">
        <ele>2015.54</ele>
        <time>2011-06-12T11:45:40Z</time>
      </trkpt>
      <trkpt lat="44.71578" lon="6.64343">
        <ele>2014.58</ele>
        <time>2011-06-12T11:45:41Z</time>
      </trkpt>
      <trkpt lat="44.71581" lon="6.64354">
        <ele>2014.1</ele>
        <time>2011-06-12T11:45:42Z</time>
      </trkpt>
      <trkpt lat="44.71583" lon="6.64363">
        <ele>2012.66</ele>
        <time>2011-06-12T11:45:43Z</time>
      </trkpt>
      <trkpt lat="44.71586" lon="6.6437">
        <ele>2011.22</ele>
        <time>2011-06-12T11:45:44Z</time>
      </trkpt>
      <trkpt lat="44.71589" lon="6.64375">
        <ele>2009.77</ele>
        <time>2011-06-12T11:45:45Z</time>
      </trkpt>
      <trkpt lat="44.71591" lon="6.64378">
        <ele>2009.77</ele>
        <time>2011-06-12T11:45:46Z</time>
      </trkpt>
      <trkpt lat="44.71589" lon="6.64381">
        <ele>2009.77</ele>
        <time>2011-06-12T11:45:47Z</time>
      </trkpt>
      <trkpt lat="44.71587" lon="6.64386">
        <ele>2009.29</ele>
        <time>2011-06-12T11:45:48Z</time>
      </trkpt>
      <trkpt lat="44.71586" lon="6.64391">
        <ele>2008.33</ele>
        <time>2011-06-12T11:45:49Z</time>
      </trkpt>
      <trkpt lat="44.71585" lon="6.64398">
        <ele>2007.37</ele>
        <time>2011-06-12T11:45:50Z</time>
      </trkpt>
      <trkpt lat="44.71584" lon="6.64403">
        <ele>2006.89</ele>
        <time>2011-06-12T11:45:51Z</time>
      </trkpt>
      <trkpt lat="44.71584" lon="6.64407">
        <ele>2005.45</ele>
        <time>2011-06-12T11:45:52Z</time>
      </trkpt>
      <trkpt lat="44.71583" lon="6.64407">
        <ele>2005.45</ele>
        <time>2011-06-12T11:45:53Z</time>
      </trkpt>
      <trkpt lat="44.71582" lon="6.64404">
        <ele>2004.49</ele>
        <time>2011-06-12T11:45:54Z</time>
      </trkpt>
      <trkpt lat="44.71581" lon="6.64401">
        <ele>2004.97</ele>
        <time>2011-06-12T11:45:55Z</time>
      </trkpt>
      <trkpt lat="44.71577" lon="6.64395">
        <ele>2003.04</ele>
        <time>2011-06-12T11:45:58Z</time>
      </trkpt>
      <trkpt lat="44.71576" lon="6.64395">
        <ele>2003.04</ele>
        <time>2011-06-12T11:46:10Z</time>
      </trkpt>
      <trkpt lat="44.71574" lon="6.64393">
        <ele>2002.56</ele>
        <time>2011-06-12T11:46:11Z</time>
      </trkpt>
      <trkpt lat="44.71572" lon="6.64389">
        <ele>2001.12</ele>
        <time>2011-06-12T11:46:12Z</time>
      </trkpt>
      <trkpt lat="44.71571" lon="6.64386">
        <ele>2001.12</ele>
        <time>2011-06-12T11:46:13Z</time>
      </trkpt>
      <trkpt lat="44.71569" lon="6.64382">
        <ele>1999.68</ele>
        <time>2011-06-12T11:46:14Z</time>
      </trkpt>
      <trkpt lat="44.71566" lon="6.64379">
        <ele>1999.2</ele>
        <time>2011-06-12T11:46:15Z</time>
      </trkpt>
      <trkpt lat="44.71563" lon="6.64377">
        <ele>1999.2</ele>
        <time>2011-06-12T11:46:16Z</time>
      </trkpt>
      <trkpt lat="44.7156" lon="6.64376">
        <ele>1998.24</ele>
        <time>2011-06-12T11:46:17Z</time>
      </trkpt>
      <trkpt lat="44.71556" lon="6.64374">
        <ele>1997.76</ele>
        <time>2011-06-12T11:46:18Z</time>
      </trkpt>
      <trkpt lat="44.71552" lon="6.64372">
        <ele>1996.8</ele>
        <time>2011-06-12T11:46:19Z</time>
      </trkpt>
      <trkpt lat="44.7155" lon="6.64368">
        <ele>1995.83</ele>
        <time>2011-06-12T11:46:20Z</time>
      </trkpt>
      <trkpt lat="44.71547" lon="6.64365">
        <ele>1995.35</ele>
        <time>2011-06-12T11:46:21Z</time>
      </trkpt>
      <trkpt lat="44.71544" lon="6.64361">
        <ele>1994.87</ele>
        <time>2011-06-12T11:46:22Z</time>
      </trkpt>
      <trkpt lat="44.71533" lon="6.64344">
        <ele>1991.51</ele>
        <time>2011-06-12T11:46:25Z</time>
      </trkpt>
      <trkpt lat="44.71523" lon="6.64331">
        <ele>1989.1</ele>
        <time>2011-06-12T11:46:27Z</time>
      </trkpt>
      <trkpt lat="44.71506" lon="6.64315">
        <ele>1985.74</ele>
        <time>2011-06-12T11:46:30Z</time>
      </trkpt>
      <trkpt lat="44.71487" lon="6.64297">
        <ele>1981.9</ele>
        <time>2011-06-12T11:46:33Z</time>
      </trkpt>
      <trkpt lat="44.71481" lon="6.6429">
        <ele>1980.45</ele>
        <time>2011-06-12T11:46:35Z</time>
      </trkpt>
      <trkpt lat="44.71478" lon="6.64293">
        <ele>1979.49</ele>
        <time>2011-06-12T11:46:36Z</time>
      </trkpt>
      <trkpt lat="44.71478" lon="6.64296">
        <ele>1978.53</ele>
        <time>2011-06-12T11:46:37Z</time>
      </trkpt>
      <trkpt lat="44.71479" lon="6.64299">
        <ele>1978.53</ele>
        <time>2011-06-12T11:46:38Z</time>
      </trkpt>
      <trkpt lat="44.71483" lon="6.6431">
        <ele>1977.57</ele>
        <time>2011-06-12T11:46:40Z</time>
      </trkpt>
      <trkpt lat="44.71485" lon="6.64317">
        <ele>1975.65</ele>
        <time>2011-06-12T11:46:41Z</time>
      </trkpt>
      <trkpt lat="44.71487" lon="6.64325">
        <ele>1975.17</ele>
        <time>2011-06-12T11:46:42Z</time>
      </trkpt>
      <trkpt lat="44.71489" lon="6.64333">
        <ele>1974.2</ele>
        <time>2011-06-12T11:46:43Z</time>
      </trkpt>
      <trkpt lat="44.71491" lon="6.64342">
        <ele>1973.72</ele>
        <time>2011-06-12T11:46:44Z</time>
      </trkpt>
      <trkpt lat="44.71495" lon="6.64362">
        <ele>1971.8</ele>
        <time>2011-06-12T11:46:46Z</time>
      </trkpt>
      <trkpt lat="44.71495" lon="6.6437">
        <ele>1970.36</ele>
        <time>2011-06-12T11:46:47Z</time>
      </trkpt>
      <trkpt lat="44.71495" lon="6.6438">
        <ele>1968.44</ele>
        <time>2011-06-12T11:46:49Z</time>
      </trkpt>
      <trkpt lat="44.71493" lon="6.64383">
        <ele>1967.96</ele>
        <time>2011-06-12T11:46:50Z</time>
      </trkpt>
      <trkpt lat="44.7149" lon="6.64386">
        <ele>1966.99</ele>
        <time>2011-06-12T11:46:51Z</time>
      </trkpt>
      <trkpt lat="44.71486" lon="6.64391">
        <ele>1966.03</ele>
        <time>2011-06-12T11:46:52Z</time>
      </trkpt>
      <trkpt lat="44.71483" lon="6.64397">
        <ele>1965.55</ele>
        <time>2011-06-12T11:46:53Z</time>
      </trkpt>
      <trkpt lat="44.71479" lon="6.64408">
        <ele>1964.11</ele>
        <time>2011-06-12T11:47:03Z</time>
      </trkpt>
      <trkpt lat="44.71473" lon="6.64422">
        <ele>1962.19</ele>
        <time>2011-06-12T11:47:18Z</time>
      </trkpt>
      <trkpt lat="44.71472" lon="6.64438">
        <ele>1960.27</ele>
        <time>2011-06-12T11:47:31Z</time>
      </trkpt>
      <trkpt lat="44.71471" lon="6.64438">
        <ele>1959.78</ele>
        <time>2011-06-12T11:50:27Z</time>
      </trkpt>
      <trkpt lat="44.71473" lon="6.64442">
        <ele>1959.3</ele>
        <time>2011-06-12T11:50:49Z</time>
      </trkpt>
      <trkpt lat="44.71473" lon="6.64445">
        <ele>1959.3</ele>
        <time>2011-06-12T11:50:50Z</time>
      </trkpt>
      <trkpt lat="44.71473" lon="6.64448">
        <ele>1958.82</ele>
        <time>2011-06-12T11:50:51Z</time>
      </trkpt>
      <trkpt lat="44.71471" lon="6.64452">
        <ele>1958.82</ele>
        <time>2011-06-12T11:50:52Z</time>
      </trkpt>
      <trkpt lat="44.7147" lon="6.64456">
        <ele>1957.86</ele>
        <time>2011-06-12T11:50:53Z</time>
      </trkpt>
      <trkpt lat="44.71466" lon="6.64477">
        <ele>1956.9</ele>
        <time>2011-06-12T11:50:57Z</time>
      </trkpt>
      <trkpt lat="44.71463" lon="6.64481">
        <ele>1955.94</ele>
        <time>2011-06-12T11:50:58Z</time>
      </trkpt>
      <trkpt lat="44.7146" lon="6.64486">
        <ele>1955.46</ele>
        <time>2011-06-12T11:50:59Z</time>
      </trkpt>
      <trkpt lat="44.71455" lon="6.64491">
        <ele>1955.46</ele>
        <time>2011-06-12T11:51:00Z</time>
      </trkpt>
      <trkpt lat="44.71451" lon="6.64496">
        <ele>1954.98</ele>
        <time>2011-06-12T11:51:01Z</time>
      </trkpt>
      <trkpt lat="44.71447" lon="6.64502">
        <ele>1954.02</ele>
        <time>2011-06-12T11:51:02Z</time>
      </trkpt>
      <trkpt lat="44.71444" lon="6.6451">
        <ele>1953.54</ele>
        <time>2011-06-12T11:51:03Z</time>
      </trkpt>
      <trkpt lat="44.71441" lon="6.64518">
        <ele>1952.57</ele>
        <time>2011-06-12T11:51:04Z</time>
      </trkpt>
      <trkpt lat="44.71429" lon="6.64552">
        <ele>1949.21</ele>
        <time>2011-06-12T11:51:08Z</time>
      </trkpt>
      <trkpt lat="44.71418" lon="6.64576">
        <ele>1946.33</ele>
        <time>2011-06-12T11:51:11Z</time>
      </trkpt>
      <trkpt lat="44.71415" lon="6.64583">
        <ele>1944.88</ele>
        <time>2011-06-12T11:51:12Z</time>
      </trkpt>
      <trkpt lat="44.71411" lon="6.64589">
        <ele>1944.88</ele>
        <time>2011-06-12T11:51:13Z</time>
      </trkpt>
      <trkpt lat="44.71398" lon="6.64606">
        <ele>1941.52</ele>
        <time>2011-06-12T11:51:16Z</time>
      </trkpt>
      <trkpt lat="44.71386" lon="6.64622">
        <ele>1939.6</ele>
        <time>2011-06-12T11:51:19Z</time>
      </trkpt>
      <trkpt lat="44.71365" lon="6.64646">
        <ele>1936.23</ele>
        <time>2011-06-12T11:51:25Z</time>
      </trkpt>
      <trkpt lat="44.71357" lon="6.64658">
        <ele>1934.79</ele>
        <time>2011-06-12T11:51:27Z</time>
      </trkpt>
      <trkpt lat="44.71353" lon="6.64666">
        <ele>1933.83</ele>
        <time>2011-06-12T11:51:28Z</time>
      </trkpt>
      <trkpt lat="44.71338" lon="6.6469">
        <ele>1930.46</ele>
        <time>2011-06-12T11:51:31Z</time>
      </trkpt>
      <trkpt lat="44.71324" lon="6.64712">
        <ele>1926.62</ele>
        <time>2011-06-12T11:51:34Z</time>
      </trkpt>
      <trkpt lat="44.71318" lon="6.64717">
        <ele>1926.62</ele>
        <time>2011-06-12T11:51:35Z</time>
      </trkpt>
      <trkpt lat="44.71312" lon="6.64721">
        <ele>1926.14</ele>
        <time>2011-06-12T11:51:36Z</time>
      </trkpt>
      <trkpt lat="44.71305" lon="6.64724">
        <ele>1925.66</ele>
        <time>2011-06-12T11:51:37Z</time>
      </trkpt>
      <trkpt lat="44.71296" lon="6.64734">
        <ele>1924.22</ele>
        <time>2011-06-12T11:51:39Z</time>
      </trkpt>
      <trkpt lat="44.71292" lon="6.64734">
        <ele>1923.74</ele>
        <time>2011-06-12T11:51:40Z</time>
      </trkpt>
      <trkpt lat="44.71288" lon="6.64732">
        <ele>1923.25</ele>
        <time>2011-06-12T11:51:41Z</time>
      </trkpt>
      <trkpt lat="44.71282" lon="6.64725">
        <ele>1922.29</ele>
        <time>2011-06-12T11:51:43Z</time>
      </trkpt>
      <trkpt lat="44.71278" lon="6.64724">
        <ele>1921.81</ele>
        <time>2011-06-12T11:51:44Z</time>
      </trkpt>
      <trkpt lat="44.71269" lon="6.64722">
        <ele>1919.89</ele>
        <time>2011-06-12T11:51:46Z</time>
      </trkpt>
      <trkpt lat="44.71268" lon="6.64723">
        <ele>1919.41</ele>
        <time>2011-06-12T11:51:47Z</time>
      </trkpt>
      <trkpt lat="44.71266" lon="6.64724">
        <ele>1918.93</ele>
        <time>2011-06-12T11:51:48Z</time>
      </trkpt>
      <trkpt lat="44.71265" lon="6.64724">
        <ele>1918.45</ele>
        <time>2011-06-12T11:51:49Z</time>
      </trkpt>
      <trkpt lat="44.71266" lon="6.64719">
        <ele>1916.04</ele>
        <time>2011-06-12T11:51:51Z</time>
      </trkpt>
      <trkpt lat="44.71268" lon="6.64714">
        <ele>1915.56</ele>
        <time>2011-06-12T11:51:52Z</time>
      </trkpt>
      <trkpt lat="44.7127" lon="6.6471">
        <ele>1915.56</ele>
        <time>2011-06-12T11:51:53Z</time>
      </trkpt>
      <trkpt lat="44.71272" lon="6.64708">
        <ele>1914.12</ele>
        <time>2011-06-12T11:51:54Z</time>
      </trkpt>
      <trkpt lat="44.71273" lon="6.64706">
        <ele>1912.68</ele>
        <time>2011-06-12T11:51:57Z</time>
      </trkpt>
      <trkpt lat="44.71273" lon="6.64704">
        <ele>1911.72</ele>
        <time>2011-06-12T11:51:58Z</time>
      </trkpt>
      <trkpt lat="44.71274" lon="6.64701">
        <ele>1911.24</ele>
        <time>2011-06-12T11:51:59Z</time>
      </trkpt>
      <trkpt lat="44.71277" lon="6.64699">
        <ele>1909.8</ele>
        <time>2011-06-12T11:52:00Z</time>
      </trkpt>
      <trkpt lat="44.71278" lon="6.64696">
        <ele>1908.83</ele>
        <time>2011-06-12T11:52:01Z</time>
      </trkpt>
      <trkpt lat="44.71277" lon="6.64692">
        <ele>1907.39</ele>
        <time>2011-06-12T11:52:03Z</time>
      </trkpt>
      <trkpt lat="44.71276" lon="6.64691">
        <ele>1906.91</ele>
        <time>2011-06-12T11:52:05Z</time>
      </trkpt>
      <trkpt lat="44.71276" lon="6.64678">
        <ele>1902.11</ele>
        <time>2011-06-12T11:52:12Z</time>
      </trkpt>
      <trkpt lat="44.71278" lon="6.64673">
        <ele>1899.7</ele>
        <time>2011-06-12T11:52:16Z</time>
      </trkpt>
      <trkpt lat="44.71268" lon="6.64661">
        <ele>1895.86</ele>
        <time>2011-06-12T11:52:20Z</time>
      </trkpt>
      <trkpt lat="44.71262" lon="6.64657">
        <ele>1894.42</ele>
        <time>2011-06-12T11:52:22Z</time>
      </trkpt>
      <trkpt lat="44.71261" lon="6.64653">
        <ele>1892.49</ele>
        <time>2011-06-12T11:52:24Z</time>
      </trkpt>
      <trkpt lat="44.71256" lon="6.64642">
        <ele>1889.13</ele>
        <time>2011-06-12T11:52:28Z</time>
      </trkpt>
      <trkpt lat="44.71255" lon="6.64636">
        <ele>1886.24</ele>
        <time>2011-06-12T11:52:30Z</time>
      </trkpt>
      <trkpt lat="44.71255" lon="6.64623">
        <ele>1881.92</ele>
        <time>2011-06-12T11:52:36Z</time>
      </trkpt>
      <trkpt lat="44.71255" lon="6.6462">
        <ele>1880.96</ele>
        <time>2011-06-12T11:52:37Z</time>
      </trkpt>
      <trkpt lat="44.71254" lon="6.64616">
        <ele>1879.03</ele>
        <time>2011-06-12T11:52:40Z</time>
      </trkpt>
      <trkpt lat="44.71252" lon="6.64613">
        <ele>1877.11</ele>
        <time>2011-06-12T11:52:42Z</time>
      </trkpt>
      <trkpt lat="44.7125" lon="6.64611">
        <ele>1876.63</ele>
        <time>2011-06-12T11:52:44Z</time>
      </trkpt>
      <trkpt lat="44.71248" lon="6.64602">
        <ele>1873.27</ele>
        <time>2011-06-12T11:52:48Z</time>
      </trkpt>
      <trkpt lat="44.71243" lon="6.64592">
        <ele>1870.38</ele>
        <time>2011-06-12T11:52:51Z</time>
      </trkpt>
      <trkpt lat="44.71237" lon="6.64582">
        <ele>1867.02</ele>
        <time>2011-06-12T11:52:55Z</time>
      </trkpt>
      <trkpt lat="44.71231" lon="6.64575">
        <ele>1863.65</ele>
        <time>2011-06-12T11:52:58Z</time>
      </trkpt>
      <trkpt lat="44.71225" lon="6.64562">
        <ele>1860.29</ele>
        <time>2011-06-12T11:53:03Z</time>
      </trkpt>
      <trkpt lat="44.71223" lon="6.64559">
        <ele>1859.33</ele>
        <time>2011-06-12T11:53:04Z</time>
      </trkpt>
      <trkpt lat="44.71222" lon="6.64551">
        <ele>1856.44</ele>
        <time>2011-06-12T11:53:07Z</time>
      </trkpt>
      <trkpt lat="44.71211" lon="6.64543">
        <ele>1852.12</ele>
        <time>2011-06-12T11:53:13Z</time>
      </trkpt>
      <trkpt lat="44.71208" lon="6.64542">
        <ele>1851.64</ele>
        <time>2011-06-12T11:53:14Z</time>
      </trkpt>
      <trkpt lat="44.71199" lon="6.64536">
        <ele>1848.27</ele>
        <time>2011-06-12T11:53:18Z</time>
      </trkpt>
      <trkpt lat="44.71196" lon="6.64529">
        <ele>1846.35</ele>
        <time>2011-06-12T11:53:20Z</time>
      </trkpt>
      <trkpt lat="44.71191" lon="6.6452">
        <ele>1843.95</ele>
        <time>2011-06-12T11:53:24Z</time>
      </trkpt>
      <trkpt lat="44.71193" lon="6.6451">
        <ele>1840.58</ele>
        <time>2011-06-12T11:53:29Z</time>
      </trkpt>
      <trkpt lat="44.71188" lon="6.64525">
        <ele>1839.62</ele>
        <time>2011-06-12T11:53:35Z</time>
      </trkpt>
      <trkpt lat="44.7118" lon="6.64549">
        <ele>1836.26</ele>
        <time>2011-06-12T11:53:40Z</time>
      </trkpt>
      <trkpt lat="44.71168" lon="6.64585">
        <ele>1833.37</ele>
        <time>2011-06-12T11:53:47Z</time>
      </trkpt>
      <trkpt lat="44.71169" lon="6.64586">
        <ele>1831.45</ele>
        <time>2011-06-12T11:53:49Z</time>
      </trkpt>
      <trkpt lat="44.71167" lon="6.64575">
        <ele>1828.56</ele>
        <time>2011-06-12T11:53:52Z</time>
      </trkpt>
      <trkpt lat="44.71166" lon="6.64572">
        <ele>1825.2</ele>
        <time>2011-06-12T11:53:53Z</time>
      </trkpt>
      <trkpt lat="44.71164" lon="6.64567">
        <ele>1825.2</ele>
        <time>2011-06-12T11:53:54Z</time>
      </trkpt>
      <trkpt lat="44.71159" lon="6.64558">
        <ele>1822.8</ele>
        <time>2011-06-12T11:53:56Z</time>
      </trkpt>
      <trkpt lat="44.71156" lon="6.64543">
        <ele>1819.43</ele>
        <time>2011-06-12T11:53:58Z</time>
      </trkpt>
      <trkpt lat="44.71156" lon="6.64534">
        <ele>1818.47</ele>
        <time>2011-06-12T11:53:59Z</time>
      </trkpt>
      <trkpt lat="44.71154" lon="6.64511">
        <ele>1815.59</ele>
        <time>2011-06-12T11:54:02Z</time>
      </trkpt>
      <trkpt lat="44.71153" lon="6.64499">
        <ele>1812.22</ele>
        <time>2011-06-12T11:54:05Z</time>
      </trkpt>
      <trkpt lat="44.71149" lon="6.64479">
        <ele>1808.86</ele>
        <time>2011-06-12T11:54:10Z</time>
      </trkpt>
      <trkpt lat="44.71147" lon="6.64466">
        <ele>1805.49</ele>
        <time>2011-06-12T11:54:15Z</time>
      </trkpt>
      <trkpt lat="44.71133" lon="6.64461">
        <ele>1802.13</ele>
        <time>2011-06-12T11:54:19Z</time>
      </trkpt>
      <trkpt lat="44.71124" lon="6.64468">
        <ele>1798.76</ele>
        <time>2011-06-12T11:54:22Z</time>
      </trkpt>
      <trkpt lat="44.71112" lon="6.64487">
        <ele>1795.88</ele>
        <time>2011-06-12T11:54:26Z</time>
      </trkpt>
      <trkpt lat="44.71103" lon="6.64513">
        <ele>1793.96</ele>
        <time>2011-06-12T11:54:29Z</time>
      </trkpt>
      <trkpt lat="44.71096" lon="6.64521">
        <ele>1792.52</ele>
        <time>2011-06-12T11:54:40Z</time>
      </trkpt>
      <trkpt lat="44.7108" lon="6.6452">
        <ele>1788.67</ele>
        <time>2011-06-12T11:54:46Z</time>
      </trkpt>
      <trkpt lat="44.71057" lon="6.64529">
        <ele>1784.82</ele>
        <time>2011-06-12T11:54:51Z</time>
      </trkpt>
      <trkpt lat="44.71051" lon="6.64531">
        <ele>1783.86</ele>
        <time>2011-06-12T11:54:53Z</time>
      </trkpt>
      <trkpt lat="44.7103" lon="6.64533">
        <ele>1786.75</ele>
        <time>2011-06-12T11:55:05Z</time>
      </trkpt>
      <trkpt lat="44.71038" lon="6.64533">
        <ele>1789.15</ele>
        <time>2011-06-12T11:55:19Z</time>
      </trkpt>
      <trkpt lat="44.71039" lon="6.64534">
        <ele>1789.15</ele>
        <time>2011-06-12T11:55:39Z</time>
      </trkpt>
      <trkpt lat="44.71029" lon="6.64529">
        <ele>1785.79</ele>
        <time>2011-06-12T11:55:45Z</time>
      </trkpt>
      <trkpt lat="44.71011" lon="6.64533">
        <ele>1782.42</ele>
        <time>2011-06-12T11:55:49Z</time>
      </trkpt>
      <trkpt lat="44.70992" lon="6.64533">
        <ele>1779.54</ele>
        <time>2011-06-12T11:55:53Z</time>
      </trkpt>
      <trkpt lat="44.70991" lon="6.64521">
        <ele>1776.65</ele>
        <time>2011-06-12T11:56:00Z</time>
      </trkpt>
      <trkpt lat="44.70987" lon="6.64513">
        <ele>1773.29</ele>
        <time>2011-06-12T11:56:07Z</time>
      </trkpt>
      <trkpt lat="44.70978" lon="6.64511">
        <ele>1770.41</ele>
        <time>2011-06-12T11:56:13Z</time>
      </trkpt>
      <trkpt lat="44.70971" lon="6.64515">
        <ele>1768.96</ele>
        <time>2011-06-12T11:56:15Z</time>
      </trkpt>
      <trkpt lat="44.70954" lon="6.64533">
        <ele>1765.6</ele>
        <time>2011-06-12T11:56:18Z</time>
      </trkpt>
      <trkpt lat="44.70946" lon="6.64522">
        <ele>1761.27</ele>
        <time>2011-06-12T11:56:24Z</time>
      </trkpt>
      <trkpt lat="44.70938" lon="6.64516">
        <ele>1757.91</ele>
        <time>2011-06-12T11:56:28Z</time>
      </trkpt>
      <trkpt lat="44.70936" lon="6.64517">
        <ele>1756.95</ele>
        <time>2011-06-12T11:56:29Z</time>
      </trkpt>
      <trkpt lat="44.70939" lon="6.64517">
        <ele>1754.06</ele>
        <time>2011-06-12T11:56:33Z</time>
      </trkpt>
      <trkpt lat="44.70944" lon="6.64529">
        <ele>1750.7</ele>
        <time>2011-06-12T11:56:36Z</time>
      </trkpt>
      <trkpt lat="44.70962" lon="6.64522">
        <ele>1747.33</ele>
        <time>2011-06-12T11:56:40Z</time>
      </trkpt>
      <trkpt lat="44.70976" lon="6.64506">
        <ele>1743.49</ele>
        <time>2011-06-12T11:56:44Z</time>
      </trkpt>
      <trkpt lat="44.70973" lon="6.64498">
        <ele>1741.08</ele>
        <time>2011-06-12T11:56:49Z</time>
      </trkpt>
      <trkpt lat="44.70972" lon="6.64499">
        <ele>1737.72</ele>
        <time>2011-06-12T11:56:53Z</time>
      </trkpt>
      <trkpt lat="44.70971" lon="6.64496">
        <ele>1735.8</ele>
        <time>2011-06-12T11:56:55Z</time>
      </trkpt>
      <trkpt lat="44.7097" lon="6.64494">
        <ele>1734.84</ele>
        <time>2011-06-12T11:56:56Z</time>
      </trkpt>
      <trkpt lat="44.70974" lon="6.64487">
        <ele>1731.47</ele>
        <time>2011-06-12T11:57:00Z</time>
      </trkpt>
      <trkpt lat="44.70969" lon="6.64485">
        <ele>1728.59</ele>
        <time>2011-06-12T11:57:05Z</time>
      </trkpt>
      <trkpt lat="44.70982" lon="6.6448">
        <ele>1728.11</ele>
        <time>2011-06-12T11:57:07Z</time>
      </trkpt>
      <trkpt lat="44.70971" lon="6.64484">
        <ele>1726.18</ele>
        <time>2011-06-12T11:57:10Z</time>
      </trkpt>
      <trkpt lat="44.70974" lon="6.64472">
        <ele>1722.82</ele>
        <time>2011-06-12T11:57:15Z</time>
      </trkpt>
      <trkpt lat="44.70991" lon="6.64464">
        <ele>1719.94</ele>
        <time>2011-06-12T11:57:21Z</time>
      </trkpt>
      <trkpt lat="44.70992" lon="6.64465">
        <ele>1718.97</ele>
        <time>2011-06-12T11:57:22Z</time>
      </trkpt>
      <trkpt lat="44.70992" lon="6.64463">
        <ele>1717.05</ele>
        <time>2011-06-12T11:57:24Z</time>
      </trkpt>
      <trkpt lat="44.70991" lon="6.64462">
        <ele>1716.57</ele>
        <time>2011-06-12T11:57:26Z</time>
      </trkpt>
      <trkpt lat="44.70988" lon="6.64461">
        <ele>1715.61</ele>
        <time>2011-06-12T11:57:28Z</time>
      </trkpt>
      <trkpt lat="44.70983" lon="6.64461">
        <ele>1713.21</ele>
        <time>2011-06-12T11:57:32Z</time>
      </trkpt>
      <trkpt lat="44.70974" lon="6.64463">
        <ele>1709.36</ele>
        <time>2011-06-12T11:57:38Z</time>
      </trkpt>
      <trkpt lat="44.70971" lon="6.64457">
        <ele>1706.48</ele>
        <time>2011-06-12T11:57:43Z</time>
      </trkpt>
      <trkpt lat="44.70965" lon="6.64452">
        <ele>1703.59</ele>
        <time>2011-06-12T11:57:47Z</time>
      </trkpt>
      <trkpt lat="44.70959" lon="6.64447">
        <ele>1701.19</ele>
        <time>2011-06-12T11:57:49Z</time>
      </trkpt>
      <trkpt lat="44.70957" lon="6.64447">
        <ele>1699.75</ele>
        <time>2011-06-12T11:57:50Z</time>
      </trkpt>
      <trkpt lat="44.70935" lon="6.64452">
        <ele>1696.86</ele>
        <time>2011-06-12T11:57:54Z</time>
      </trkpt>
      <trkpt lat="44.70932" lon="6.64454">
        <ele>1693.02</ele>
        <time>2011-06-12T11:57:57Z</time>
      </trkpt>
      <trkpt lat="44.70928" lon="6.64436">
        <ele>1690.14</ele>
        <time>2011-06-12T11:58:02Z</time>
      </trkpt>
      <trkpt lat="44.70919" lon="6.64434">
        <ele>1686.77</ele>
        <time>2011-06-12T11:58:06Z</time>
      </trkpt>
      <trkpt lat="44.70913" lon="6.64423">
        <ele>1682.93</ele>
        <time>2011-06-12T11:58:09Z</time>
      </trkpt>
      <trkpt lat="44.7091" lon="6.64419">
        <ele>1681.96</ele>
        <time>2011-06-12T11:58:10Z</time>
      </trkpt>
      <trkpt lat="44.70898" lon="6.64404">
        <ele>1679.08</ele>
        <time>2011-06-12T11:58:13Z</time>
      </trkpt>
      <trkpt lat="44.70874" lon="6.64393">
        <ele>1675.72</ele>
        <time>2011-06-12T11:58:18Z</time>
      </trkpt>
      <trkpt lat="44.70883" lon="6.64386">
        <ele>1673.79</ele>
        <time>2011-06-12T11:58:20Z</time>
      </trkpt>
      <trkpt lat="44.70883" lon="6.64383">
        <ele>1670.43</ele>
        <time>2011-06-12T11:58:27Z</time>
      </trkpt>
      <trkpt lat="44.7085" lon="6.64366">
        <ele>1668.02</ele>
        <time>2011-06-12T11:58:38Z</time>
      </trkpt>
      <trkpt lat="44.70846" lon="6.64364">
        <ele>1667.06</ele>
        <time>2011-06-12T11:58:39Z</time>
      </trkpt>
      <trkpt lat="44.70832" lon="6.64349">
        <ele>1663.7</ele>
        <time>2011-06-12T11:58:42Z</time>
      </trkpt>
      <trkpt lat="44.70834" lon="6.64307">
        <ele>1660.33</ele>
        <time>2011-06-12T11:58:47Z</time>
      </trkpt>
      <trkpt lat="44.70831" lon="6.643">
        <ele>1659.37</ele>
        <time>2011-06-12T11:58:48Z</time>
      </trkpt>
      <trkpt lat="44.70815" lon="6.64285">
        <ele>1656.01</ele>
        <time>2011-06-12T11:58:53Z</time>
      </trkpt>
      <trkpt lat="44.70794" lon="6.64256">
        <ele>1655.53</ele>
        <time>2011-06-12T11:58:59Z</time>
      </trkpt>
      <trkpt lat="44.70796" lon="6.64244">
        <ele>1655.05</ele>
        <time>2011-06-12T11:59:01Z</time>
      </trkpt>
      <trkpt lat="44.70792" lon="6.64238">
        <ele>1655.05</ele>
        <time>2011-06-12T11:59:02Z</time>
      </trkpt>
      <trkpt lat="44.70787" lon="6.64233">
        <ele>1655.05</ele>
        <time>2011-06-12T11:59:03Z</time>
      </trkpt>
      <trkpt lat="44.70779" lon="6.64223">
        <ele>1654.57</ele>
        <time>2011-06-12T11:59:05Z</time>
      </trkpt>
      <trkpt lat="44.70776" lon="6.64215">
        <ele>1654.09</ele>
        <time>2011-06-12T11:59:07Z</time>
      </trkpt>
      <trkpt lat="44.70758" lon="6.64204">
        <ele>1652.64</ele>
        <time>2011-06-12T11:59:12Z</time>
      </trkpt>
      <trkpt lat="44.70749" lon="6.64197">
        <ele>1650.72</ele>
        <time>2011-06-12T11:59:14Z</time>
      </trkpt>
      <trkpt lat="44.70734" lon="6.6418">
        <ele>1646.4</ele>
        <time>2011-06-12T11:59:17Z</time>
      </trkpt>
      <trkpt lat="44.70724" lon="6.64168">
        <ele>1643.03</ele>
        <time>2011-06-12T11:59:20Z</time>
      </trkpt>
      <trkpt lat="44.70726" lon="6.64168">
        <ele>1642.55</ele>
        <time>2011-06-12T11:59:21Z</time>
      </trkpt>
      <trkpt lat="44.70727" lon="6.64167">
        <ele>1642.07</ele>
        <time>2011-06-12T11:59:22Z</time>
      </trkpt>
      <trkpt lat="44.70731" lon="6.64167">
        <ele>1641.59</ele>
        <time>2011-06-12T11:59:23Z</time>
      </trkpt>
      <trkpt lat="44.70734" lon="6.64168">
        <ele>1640.63</ele>
        <time>2011-06-12T11:59:24Z</time>
      </trkpt>
      <trkpt lat="44.70737" lon="6.64168">
        <ele>1640.15</ele>
        <time>2011-06-12T11:59:25Z</time>
      </trkpt>
      <trkpt lat="44.70741" lon="6.64169">
        <ele>1638.7</ele>
        <time>2011-06-12T11:59:26Z</time>
      </trkpt>
      <trkpt lat="44.70746" lon="6.64169">
        <ele>1638.7</ele>
        <time>2011-06-12T11:59:27Z</time>
      </trkpt>
      <trkpt lat="44.70749" lon="6.64169">
        <ele>1638.22</ele>
        <time>2011-06-12T11:59:28Z</time>
      </trkpt>
      <trkpt lat="44.7075" lon="6.64166">
        <ele>1637.26</ele>
        <time>2011-06-12T11:59:29Z</time>
      </trkpt>
      <trkpt lat="44.70747" lon="6.64164">
        <ele>1637.26</ele>
        <time>2011-06-12T11:59:30Z</time>
      </trkpt>
      <trkpt lat="44.70736" lon="6.64157">
        <ele>1634.86</ele>
        <time>2011-06-12T11:59:33Z</time>
      </trkpt>
      <trkpt lat="44.70733" lon="6.64156">
        <ele>1633.42</ele>
        <time>2011-06-12T11:59:34Z</time>
      </trkpt>
      <trkpt lat="44.70722" lon="6.64148">
        <ele>1630.05</ele>
        <time>2011-06-12T11:59:37Z</time>
      </trkpt>
      <trkpt lat="44.70721" lon="6.64148">
        <ele>1629.57</ele>
        <time>2011-06-12T11:59:38Z</time>
      </trkpt>
      <trkpt lat="44.70722" lon="6.64147">
        <ele>1628.61</ele>
        <time>2011-06-12T11:59:40Z</time>
      </trkpt>
      <trkpt lat="44.70723" lon="6.64148">
        <ele>1627.65</ele>
        <time>2011-06-12T11:59:41Z</time>
      </trkpt>
      <trkpt lat="44.70726" lon="6.64145">
        <ele>1626.69</ele>
        <time>2011-06-12T11:59:42Z</time>
      </trkpt>
      <trkpt lat="44.70729" lon="6.64142">
        <ele>1625.73</ele>
        <time>2011-06-12T11:59:43Z</time>
      </trkpt>
      <trkpt lat="44.70734" lon="6.64141">
        <ele>1625.25</ele>
        <time>2011-06-12T11:59:44Z</time>
      </trkpt>
      <trkpt lat="44.70738" lon="6.64141">
        <ele>1623.8</ele>
        <time>2011-06-12T11:59:45Z</time>
      </trkpt>
      <trkpt lat="44.70742" lon="6.64139">
        <ele>1622.84</ele>
        <time>2011-06-12T11:59:46Z</time>
      </trkpt>
      <trkpt lat="44.70747" lon="6.6414">
        <ele>1620.92</ele>
        <time>2011-06-12T11:59:47Z</time>
      </trkpt>
      <trkpt lat="44.70752" lon="6.64141">
        <ele>1620.44</ele>
        <time>2011-06-12T11:59:48Z</time>
      </trkpt>
      <trkpt lat="44.70754" lon="6.64139">
        <ele>1619.48</ele>
        <time>2011-06-12T11:59:49Z</time>
      </trkpt>
      <trkpt lat="44.70753" lon="6.64135">
        <ele>1619</ele>
        <time>2011-06-12T11:59:50Z</time>
      </trkpt>
      <trkpt lat="44.70752" lon="6.6413">
        <ele>1618.04</ele>
        <time>2011-06-12T11:59:51Z</time>
      </trkpt>
      <trkpt lat="44.70752" lon="6.64128">
        <ele>1616.59</ele>
        <time>2011-06-12T11:59:52Z</time>
      </trkpt>
      <trkpt lat="44.70745" lon="6.64112">
        <ele>1612.27</ele>
        <time>2011-06-12T11:59:55Z</time>
      </trkpt>
      <trkpt lat="44.70741" lon="6.64108">
        <ele>1611.79</ele>
        <time>2011-06-12T11:59:56Z</time>
      </trkpt>
      <trkpt lat="44.70732" lon="6.641">
        <ele>1608.42</ele>
        <time>2011-06-12T11:59:58Z</time>
      </trkpt>
      <trkpt lat="44.70731" lon="6.64094">
        <ele>1606.98</ele>
        <time>2011-06-12T11:59:59Z</time>
      </trkpt>
      <trkpt lat="44.70729" lon="6.64089">
        <ele>1605.54</ele>
        <time>2011-06-12T12:00:00Z</time>
      </trkpt>
      <trkpt lat="44.70726" lon="6.64085">
        <ele>1603.62</ele>
        <time>2011-06-12T12:00:01Z</time>
      </trkpt>
      <trkpt lat="44.70721" lon="6.64082">
        <ele>1602.66</ele>
        <time>2011-06-12T12:00:02Z</time>
      </trkpt>
      <trkpt lat="44.70718" lon="6.6408">
        <ele>1601.69</ele>
        <time>2011-06-12T12:00:03Z</time>
      </trkpt>
      <trkpt lat="44.70717" lon="6.64075">
        <ele>1601.21</ele>
        <time>2011-06-12T12:00:04Z</time>
      </trkpt>
      <trkpt lat="44.70719" lon="6.64073">
        <ele>1600.25</ele>
        <time>2011-06-12T12:00:05Z</time>
      </trkpt>
      <trkpt lat="44.70721" lon="6.64067">
        <ele>1599.29</ele>
        <time>2011-06-12T12:00:06Z</time>
      </trkpt>
      <trkpt lat="44.70723" lon="6.64061">
        <ele>1598.33</ele>
        <time>2011-06-12T12:00:07Z</time>
      </trkpt>
      <trkpt lat="44.70722" lon="6.64055">
        <ele>1597.85</ele>
        <time>2011-06-12T12:00:08Z</time>
      </trkpt>
      <trkpt lat="44.70723" lon="6.64051">
        <ele>1597.85</ele>
        <time>2011-06-12T12:00:09Z</time>
      </trkpt>
      <trkpt lat="44.70722" lon="6.64047">
        <ele>1596.89</ele>
        <time>2011-06-12T12:00:10Z</time>
      </trkpt>
      <trkpt lat="44.70721" lon="6.64044">
        <ele>1596.41</ele>
        <time>2011-06-12T12:00:11Z</time>
      </trkpt>
      <trkpt lat="44.70721" lon="6.64043">
        <ele>1595.93</ele>
        <time>2011-06-12T12:00:12Z</time>
      </trkpt>
      <trkpt lat="44.70722" lon="6.64043">
        <ele>1595.93</ele>
        <time>2011-06-12T12:00:13Z</time>
      </trkpt>
      <trkpt lat="44.70723" lon="6.64045">
        <ele>1595.45</ele>
        <time>2011-06-12T12:00:14Z</time>
      </trkpt>
      <trkpt lat="44.7073" lon="6.64051">
        <ele>1594</ele>
        <time>2011-06-12T12:00:17Z</time>
      </trkpt>
      <trkpt lat="44.70734" lon="6.6405">
        <ele>1592.56</ele>
        <time>2011-06-12T12:00:18Z</time>
      </trkpt>
      <trkpt lat="44.70736" lon="6.64049">
        <ele>1592.08</ele>
        <time>2011-06-12T12:00:19Z</time>
      </trkpt>
      <trkpt lat="44.70739" lon="6.6405">
        <ele>1591.12</ele>
        <time>2011-06-12T12:00:20Z</time>
      </trkpt>
      <trkpt lat="44.70741" lon="6.64053">
        <ele>1590.64</ele>
        <time>2011-06-12T12:00:21Z</time>
      </trkpt>
      <trkpt lat="44.70744" lon="6.64056">
        <ele>1589.68</ele>
        <time>2011-06-12T12:00:22Z</time>
      </trkpt>
      <trkpt lat="44.70747" lon="6.6406">
        <ele>1588.24</ele>
        <time>2011-06-12T12:00:23Z</time>
      </trkpt>
      <trkpt lat="44.70751" lon="6.64062">
        <ele>1586.79</ele>
        <time>2011-06-12T12:00:24Z</time>
      </trkpt>
      <trkpt lat="44.70756" lon="6.64062">
        <ele>1586.31</ele>
        <time>2011-06-12T12:00:25Z</time>
      </trkpt>
      <trkpt lat="44.7076" lon="6.64062">
        <ele>1585.35</ele>
        <time>2011-06-12T12:00:26Z</time>
      </trkpt>
      <trkpt lat="44.70764" lon="6.64062">
        <ele>1584.39</ele>
        <time>2011-06-12T12:00:27Z</time>
      </trkpt>
      <trkpt lat="44.7077" lon="6.64061">
        <ele>1582.95</ele>
        <time>2011-06-12T12:00:29Z</time>
      </trkpt>
      <trkpt lat="44.70771" lon="6.64059">
        <ele>1581.99</ele>
        <time>2011-06-12T12:00:30Z</time>
      </trkpt>
      <trkpt lat="44.7077" lon="6.64054">
        <ele>1581.51</ele>
        <time>2011-06-12T12:00:31Z</time>
      </trkpt>
      <trkpt lat="44.7077" lon="6.6405">
        <ele>1580.54</ele>
        <time>2011-06-12T12:00:32Z</time>
      </trkpt>
      <trkpt lat="44.70767" lon="6.64046">
        <ele>1579.1</ele>
        <time>2011-06-12T12:00:33Z</time>
      </trkpt>
      <trkpt lat="44.70765" lon="6.64041">
        <ele>1578.14</ele>
        <time>2011-06-12T12:00:34Z</time>
      </trkpt>
      <trkpt lat="44.70764" lon="6.64035">
        <ele>1577.18</ele>
        <time>2011-06-12T12:00:35Z</time>
      </trkpt>
      <trkpt lat="44.70762" lon="6.64023">
        <ele>1574.3</ele>
        <time>2011-06-12T12:00:37Z</time>
      </trkpt>
      <trkpt lat="44.70759" lon="6.6401">
        <ele>1572.85</ele>
        <time>2011-06-12T12:00:39Z</time>
      </trkpt>
      <trkpt lat="44.70754" lon="6.63997">
        <ele>1569.01</ele>
        <time>2011-06-12T12:00:41Z</time>
      </trkpt>
      <trkpt lat="44.70751" lon="6.63992">
        <ele>1568.05</ele>
        <time>2011-06-12T12:00:42Z</time>
      </trkpt>
      <trkpt lat="44.70749" lon="6.63987">
        <ele>1567.09</ele>
        <time>2011-06-12T12:00:43Z</time>
      </trkpt>
      <trkpt lat="44.70746" lon="6.63982">
        <ele>1565.16</ele>
        <time>2011-06-12T12:00:44Z</time>
      </trkpt>
      <trkpt lat="44.70739" lon="6.6397">
        <ele>1560.84</ele>
        <time>2011-06-12T12:00:47Z</time>
      </trkpt>
      <trkpt lat="44.70731" lon="6.63963">
        <ele>1557.95</ele>
        <time>2011-06-12T12:00:49Z</time>
      </trkpt>
      <trkpt lat="44.70725" lon="6.6396">
        <ele>1556.99</ele>
        <time>2011-06-12T12:00:50Z</time>
      </trkpt>
      <trkpt lat="44.7071" lon="6.63958">
        <ele>1554.11</ele>
        <time>2011-06-12T12:00:53Z</time>
      </trkpt>
      <trkpt lat="44.70705" lon="6.63957">
        <ele>1553.63</ele>
        <time>2011-06-12T12:00:54Z</time>
      </trkpt>
      <trkpt lat="44.70699" lon="6.63955">
        <ele>1553.15</ele>
        <time>2011-06-12T12:00:55Z</time>
      </trkpt>
      <trkpt lat="44.70685" lon="6.63947">
        <ele>1550.74</ele>
        <time>2011-06-12T12:00:57Z</time>
      </trkpt>
      <trkpt lat="44.70679" lon="6.63939">
        <ele>1550.26</ele>
        <time>2011-06-12T12:00:58Z</time>
      </trkpt>
      <trkpt lat="44.70673" lon="6.63933">
        <ele>1548.34</ele>
        <time>2011-06-12T12:00:59Z</time>
      </trkpt>
      <trkpt lat="44.70667" lon="6.63924">
        <ele>1547.38</ele>
        <time>2011-06-12T12:01:00Z</time>
      </trkpt>
      <trkpt lat="44.70661" lon="6.63915">
        <ele>1546.42</ele>
        <time>2011-06-12T12:01:01Z</time>
      </trkpt>
      <trkpt lat="44.70656" lon="6.63908">
        <ele>1544.5</ele>
        <time>2011-06-12T12:01:02Z</time>
      </trkpt>
      <trkpt lat="44.70646" lon="6.63892">
        <ele>1540.65</ele>
        <time>2011-06-12T12:01:07Z</time>
      </trkpt>
      <trkpt lat="44.70643" lon="6.63882">
        <ele>1538.73</ele>
        <time>2011-06-12T12:01:09Z</time>
      </trkpt>
      <trkpt lat="44.70642" lon="6.63877">
        <ele>1537.29</ele>
        <time>2011-06-12T12:01:10Z</time>
      </trkpt>
      <trkpt lat="44.7064" lon="6.63873">
        <ele>1536.32</ele>
        <time>2011-06-12T12:01:11Z</time>
      </trkpt>
      <trkpt lat="44.70636" lon="6.63869">
        <ele>1534.4</ele>
        <time>2011-06-12T12:01:12Z</time>
      </trkpt>
      <trkpt lat="44.70627" lon="6.63857">
        <ele>1532.48</ele>
        <time>2011-06-12T12:01:15Z</time>
      </trkpt>
      <trkpt lat="44.70622" lon="6.63846">
        <ele>1530.08</ele>
        <time>2011-06-12T12:01:17Z</time>
      </trkpt>
      <trkpt lat="44.70619" lon="6.63842">
        <ele>1529.11</ele>
        <time>2011-06-12T12:01:18Z</time>
      </trkpt>
      <trkpt lat="44.70612" lon="6.6383">
        <ele>1526.71</ele>
        <time>2011-06-12T12:01:20Z</time>
      </trkpt>
      <trkpt lat="44.70608" lon="6.63825">
        <ele>1524.79</ele>
        <time>2011-06-12T12:01:21Z</time>
      </trkpt>
      <trkpt lat="44.70605" lon="6.63821">
        <ele>1522.87</ele>
        <time>2011-06-12T12:01:22Z</time>
      </trkpt>
      <trkpt lat="44.70603" lon="6.63815">
        <ele>1521.9</ele>
        <time>2011-06-12T12:01:23Z</time>
      </trkpt>
      <trkpt lat="44.70599" lon="6.63809">
        <ele>1520.46</ele>
        <time>2011-06-12T12:01:24Z</time>
      </trkpt>
      <trkpt lat="44.70597" lon="6.63804">
        <ele>1519.5</ele>
        <time>2011-06-12T12:01:25Z</time>
      </trkpt>
      <trkpt lat="44.7059" lon="6.63792">
        <ele>1516.14</ele>
        <time>2011-06-12T12:01:27Z</time>
      </trkpt>
      <trkpt lat="44.70579" lon="6.63776">
        <ele>1513.25</ele>
        <time>2011-06-12T12:01:30Z</time>
      </trkpt>
      <trkpt lat="44.70572" lon="6.6377">
        <ele>1511.81</ele>
        <time>2011-06-12T12:01:32Z</time>
      </trkpt>
      <trkpt lat="44.70569" lon="6.63771">
        <ele>1511.33</ele>
        <time>2011-06-12T12:01:33Z</time>
      </trkpt>
      <trkpt lat="44.70545" lon="6.63775">
        <ele>1507.48</ele>
        <time>2011-06-12T12:01:38Z</time>
      </trkpt>
      <trkpt lat="44.70526" lon="6.63765">
        <ele>1503.64</ele>
        <time>2011-06-12T12:01:42Z</time>
      </trkpt>
      <trkpt lat="44.70521" lon="6.6376">
        <ele>1502.68</ele>
        <time>2011-06-12T12:01:43Z</time>
      </trkpt>
      <trkpt lat="44.70515" lon="6.6375">
        <ele>1501.72</ele>
        <time>2011-06-12T12:01:46Z</time>
      </trkpt>
      <trkpt lat="44.70515" lon="6.63753">
        <ele>1498.83</ele>
        <time>2011-06-12T12:01:50Z</time>
      </trkpt>
      <trkpt lat="44.70514" lon="6.6375">
        <ele>1495.95</ele>
        <time>2011-06-12T12:01:53Z</time>
      </trkpt>
      <trkpt lat="44.70513" lon="6.63747">
        <ele>1495.47</ele>
        <time>2011-06-12T12:01:54Z</time>
      </trkpt>
      <trkpt lat="44.70507" lon="6.63733">
        <ele>1491.62</ele>
        <time>2011-06-12T12:01:57Z</time>
      </trkpt>
      <trkpt lat="44.705" lon="6.63709">
        <ele>1487.3</ele>
        <time>2011-06-12T12:02:01Z</time>
      </trkpt>
      <trkpt lat="44.70504" lon="6.63681">
        <ele>1482.97</ele>
        <time>2011-06-12T12:02:06Z</time>
      </trkpt>
      <trkpt lat="44.705" lon="6.63664">
        <ele>1480.57</ele>
        <time>2011-06-12T12:02:09Z</time>
      </trkpt>
      <trkpt lat="44.70498" lon="6.63655">
        <ele>1480.09</ele>
        <time>2011-06-12T12:02:10Z</time>
      </trkpt>
      <trkpt lat="44.70485" lon="6.6365">
        <ele>1478.65</ele>
        <time>2011-06-12T12:02:13Z</time>
      </trkpt>
      <trkpt lat="44.70479" lon="6.63657">
        <ele>1477.2</ele>
        <time>2011-06-12T12:02:15Z</time>
      </trkpt>
      <trkpt lat="44.70463" lon="6.63664">
        <ele>1472.88</ele>
        <time>2011-06-12T12:02:19Z</time>
      </trkpt>
      <trkpt lat="44.70459" lon="6.63666">
        <ele>1471.92</ele>
        <time>2011-06-12T12:02:20Z</time>
      </trkpt>
      <trkpt lat="44.7044" lon="6.63666">
        <ele>1469.03</ele>
        <time>2011-06-12T12:02:24Z</time>
      </trkpt>
      <trkpt lat="44.70435" lon="6.63668">
        <ele>1468.55</ele>
        <time>2011-06-12T12:02:25Z</time>
      </trkpt>
      <trkpt lat="44.70407" lon="6.63657">
        <ele>1464.23</ele>
        <time>2011-06-12T12:02:33Z</time>
      </trkpt>
      <trkpt lat="44.70408" lon="6.63655">
        <ele>1463.74</ele>
        <time>2011-06-12T12:02:35Z</time>
      </trkpt>
      <trkpt lat="44.70412" lon="6.63655">
        <ele>1462.78</ele>
        <time>2011-06-12T12:02:37Z</time>
      </trkpt>
      <trkpt lat="44.70419" lon="6.63644">
        <ele>1460.86</ele>
        <time>2011-06-12T12:02:40Z</time>
      </trkpt>
      <trkpt lat="44.70425" lon="6.63637">
        <ele>1459.9</ele>
        <time>2011-06-12T12:02:42Z</time>
      </trkpt>
      <trkpt lat="44.70429" lon="6.63632">
        <ele>1458.94</ele>
        <time>2011-06-12T12:02:43Z</time>
      </trkpt>
      <trkpt lat="44.70447" lon="6.63606">
        <ele>1455.09</ele>
        <time>2011-06-12T12:02:48Z</time>
      </trkpt>
      <trkpt lat="44.70461" lon="6.63589">
        <ele>1452.69</ele>
        <time>2011-06-12T12:02:51Z</time>
      </trkpt>
      <trkpt lat="44.70465" lon="6.63584">
        <ele>1452.21</ele>
        <time>2011-06-12T12:02:52Z</time>
      </trkpt>
      <trkpt lat="44.70467" lon="6.63578">
        <ele>1449.81</ele>
        <time>2011-06-12T12:02:54Z</time>
      </trkpt>
      <trkpt lat="44.70461" lon="6.63577">
        <ele>1449.81</ele>
        <time>2011-06-12T12:02:57Z</time>
      </trkpt>
      <trkpt lat="44.70454" lon="6.63584">
        <ele>1448.36</ele>
        <time>2011-06-12T12:03:01Z</time>
      </trkpt>
      <trkpt lat="44.70438" lon="6.63587">
        <ele>1443.08</ele>
        <time>2011-06-12T12:03:04Z</time>
      </trkpt>
      <trkpt lat="44.70422" lon="6.63581">
        <ele>1440.19</ele>
        <time>2011-06-12T12:03:09Z</time>
      </trkpt>
      <trkpt lat="44.70417" lon="6.63584">
        <ele>1438.75</ele>
        <time>2011-06-12T12:03:10Z</time>
      </trkpt>
      <trkpt lat="44.70408" lon="6.63592">
        <ele>1435.87</ele>
        <time>2011-06-12T12:03:12Z</time>
      </trkpt>
      <trkpt lat="44.70398" lon="6.63591">
        <ele>1430.58</ele>
        <time>2011-06-12T12:03:18Z</time>
      </trkpt>
      <trkpt lat="44.70396" lon="6.63589">
        <ele>1430.1</ele>
        <time>2011-06-12T12:03:19Z</time>
      </trkpt>
      <trkpt lat="44.70387" lon="6.63587">
        <ele>1428.18</ele>
        <time>2011-06-12T12:03:22Z</time>
      </trkpt>
      <trkpt lat="44.70386" lon="6.63577">
        <ele>1426.25</ele>
        <time>2011-06-12T12:03:26Z</time>
      </trkpt>
      <trkpt lat="44.70382" lon="6.63578">
        <ele>1423.37</ele>
        <time>2011-06-12T12:03:29Z</time>
      </trkpt>
      <trkpt lat="44.70381" lon="6.63578">
        <ele>1422.89</ele>
        <time>2011-06-12T12:03:30Z</time>
      </trkpt>
      <trkpt lat="44.70374" lon="6.63586">
        <ele>1420.49</ele>
        <time>2011-06-12T12:03:34Z</time>
      </trkpt>
      <trkpt lat="44.70363" lon="6.63594">
        <ele>1418.08</ele>
        <time>2011-06-12T12:03:38Z</time>
      </trkpt>
      <trkpt lat="44.70354" lon="6.63597">
        <ele>1414.72</ele>
        <time>2011-06-12T12:03:40Z</time>
      </trkpt>
      <trkpt lat="44.70346" lon="6.63598">
        <ele>1413.28</ele>
        <time>2011-06-12T12:03:41Z</time>
      </trkpt>
      <trkpt lat="44.70339" lon="6.63598">
        <ele>1411.83</ele>
        <time>2011-06-12T12:03:42Z</time>
      </trkpt>
      <trkpt lat="44.70311" lon="6.63583">
        <ele>1407.51</ele>
        <time>2011-06-12T12:03:46Z</time>
      </trkpt>
      <trkpt lat="44.70305" lon="6.63578">
        <ele>1406.07</ele>
        <time>2011-06-12T12:03:47Z</time>
      </trkpt>
      <trkpt lat="44.70292" lon="6.63569">
        <ele>1403.18</ele>
        <time>2011-06-12T12:03:49Z</time>
      </trkpt>
      <trkpt lat="44.7028" lon="6.63561">
        <ele>1401.26</ele>
        <time>2011-06-12T12:03:51Z</time>
      </trkpt>
      <trkpt lat="44.70274" lon="6.63556">
        <ele>1399.34</ele>
        <time>2011-06-12T12:03:52Z</time>
      </trkpt>
      <trkpt lat="44.70263" lon="6.63546">
        <ele>1395.49</ele>
        <time>2011-06-12T12:03:54Z</time>
      </trkpt>
      <trkpt lat="44.70257" lon="6.63539">
        <ele>1393.57</ele>
        <time>2011-06-12T12:03:55Z</time>
      </trkpt>
      <trkpt lat="44.70251" lon="6.63524">
        <ele>1392.13</ele>
        <time>2011-06-12T12:03:57Z</time>
      </trkpt>
      <trkpt lat="44.70245" lon="6.63511">
        <ele>1388.28</ele>
        <time>2011-06-12T12:03:59Z</time>
      </trkpt>
      <trkpt lat="44.7024" lon="6.63507">
        <ele>1388.28</ele>
        <time>2011-06-12T12:04:00Z</time>
      </trkpt>
      <trkpt lat="44.70203" lon="6.63516">
        <ele>1387.8</ele>
        <time>2011-06-12T12:04:07Z</time>
      </trkpt>
      <trkpt lat="44.70197" lon="6.63516">
        <ele>1384.92</ele>
        <time>2011-06-12T12:04:08Z</time>
      </trkpt>
      <trkpt lat="44.7017" lon="6.63511">
        <ele>1381.07</ele>
        <time>2011-06-12T12:04:12Z</time>
      </trkpt>
      <trkpt lat="44.70162" lon="6.63509">
        <ele>1377.71</ele>
        <time>2011-06-12T12:04:13Z</time>
      </trkpt>
      <trkpt lat="44.70148" lon="6.63514">
        <ele>1375.78</ele>
        <time>2011-06-12T12:04:15Z</time>
      </trkpt>
      <trkpt lat="44.70126" lon="6.63535">
        <ele>1372.42</ele>
        <time>2011-06-12T12:04:19Z</time>
      </trkpt>
      <trkpt lat="44.70108" lon="6.63536">
        <ele>1368.57</ele>
        <time>2011-06-12T12:04:22Z</time>
      </trkpt>
      <trkpt lat="44.70103" lon="6.63535">
        <ele>1367.13</ele>
        <time>2011-06-12T12:04:23Z</time>
      </trkpt>
      <trkpt lat="44.70098" lon="6.63527">
        <ele>1365.21</ele>
        <time>2011-06-12T12:04:25Z</time>
      </trkpt>
      <trkpt lat="44.70096" lon="6.63522">
        <ele>1364.25</ele>
        <time>2011-06-12T12:04:26Z</time>
      </trkpt>
      <trkpt lat="44.70097" lon="6.63518">
        <ele>1362.81</ele>
        <time>2011-06-12T12:04:28Z</time>
      </trkpt>
      <trkpt lat="44.70101" lon="6.63511">
        <ele>1359.92</ele>
        <time>2011-06-12T12:04:31Z</time>
      </trkpt>
      <trkpt lat="44.70105" lon="6.63501">
        <ele>1358.96</ele>
        <time>2011-06-12T12:04:33Z</time>
      </trkpt>
      <trkpt lat="44.70108" lon="6.63493">
        <ele>1358</ele>
        <time>2011-06-12T12:04:34Z</time>
      </trkpt>
      <trkpt lat="44.70111" lon="6.63487">
        <ele>1358</ele>
        <time>2011-06-12T12:04:35Z</time>
      </trkpt>
      <trkpt lat="44.70123" lon="6.63463">
        <ele>1354.63</ele>
        <time>2011-06-12T12:04:38Z</time>
      </trkpt>
      <trkpt lat="44.70129" lon="6.63443">
        <ele>1352.71</ele>
        <time>2011-06-12T12:04:40Z</time>
      </trkpt>
      <trkpt lat="44.7013" lon="6.63428">
        <ele>1351.75</ele>
        <time>2011-06-12T12:04:42Z</time>
      </trkpt>
      <trkpt lat="44.70132" lon="6.63422">
        <ele>1350.31</ele>
        <time>2011-06-12T12:04:43Z</time>
      </trkpt>
      <trkpt lat="44.70133" lon="6.63415">
        <ele>1349.35</ele>
        <time>2011-06-12T12:04:45Z</time>
      </trkpt>
      <trkpt lat="44.70131" lon="6.63411">
        <ele>1348.87</ele>
        <time>2011-06-12T12:04:46Z</time>
      </trkpt>
      <trkpt lat="44.70128" lon="6.63409">
        <ele>1348.39</ele>
        <time>2011-06-12T12:04:47Z</time>
      </trkpt>
      <trkpt lat="44.70116" lon="6.6343">
        <ele>1346.94</ele>
        <time>2011-06-12T12:04:52Z</time>
      </trkpt>
      <trkpt lat="44.70101" lon="6.6344">
        <ele>1343.58</ele>
        <time>2011-06-12T12:04:57Z</time>
      </trkpt>
      <trkpt lat="44.70098" lon="6.63443">
        <ele>1342.14</ele>
        <time>2011-06-12T12:04:58Z</time>
      </trkpt>
      <trkpt lat="44.70094" lon="6.63445">
        <ele>1342.14</ele>
        <time>2011-06-12T12:04:59Z</time>
      </trkpt>
      <trkpt lat="44.70088" lon="6.63446">
        <ele>1340.7</ele>
        <time>2011-06-12T12:05:00Z</time>
      </trkpt>
      <trkpt lat="44.70082" lon="6.63448">
        <ele>1340.22</ele>
        <time>2011-06-12T12:05:01Z</time>
      </trkpt>
      <trkpt lat="44.70079" lon="6.63452">
        <ele>1338.77</ele>
        <time>2011-06-12T12:05:02Z</time>
      </trkpt>
      <trkpt lat="44.70075" lon="6.63458">
        <ele>1337.33</ele>
        <time>2011-06-12T12:05:04Z</time>
      </trkpt>
      <trkpt lat="44.70073" lon="6.63458">
        <ele>1336.85</ele>
        <time>2011-06-12T12:05:05Z</time>
      </trkpt>
      <trkpt lat="44.70072" lon="6.63458">
        <ele>1336.37</ele>
        <time>2011-06-12T12:05:06Z</time>
      </trkpt>
      <trkpt lat="44.70071" lon="6.63457">
        <ele>1335.41</ele>
        <time>2011-06-12T12:05:07Z</time>
      </trkpt>
      <trkpt lat="44.70072" lon="6.63453">
        <ele>1334.45</ele>
        <time>2011-06-12T12:05:08Z</time>
      </trkpt>
      <trkpt lat="44.70073" lon="6.63448">
        <ele>1332.52</ele>
        <time>2011-06-12T12:05:09Z</time>
      </trkpt>
      <trkpt lat="44.70074" lon="6.63442">
        <ele>1332.52</ele>
        <time>2011-06-12T12:05:10Z</time>
      </trkpt>
      <trkpt lat="44.70076" lon="6.63428">
        <ele>1328.68</ele>
        <time>2011-06-12T12:05:12Z</time>
      </trkpt>
      <trkpt lat="44.70078" lon="6.63422">
        <ele>1328.68</ele>
        <time>2011-06-12T12:05:13Z</time>
      </trkpt>
      <trkpt lat="44.7008" lon="6.63416">
        <ele>1327.72</ele>
        <time>2011-06-12T12:05:14Z</time>
      </trkpt>
      <trkpt lat="44.7009" lon="6.63403">
        <ele>1326.76</ele>
        <time>2011-06-12T12:05:17Z</time>
      </trkpt>
      <trkpt lat="44.70092" lon="6.63398">
        <ele>1326.28</ele>
        <time>2011-06-12T12:05:18Z</time>
      </trkpt>
      <trkpt lat="44.70096" lon="6.63389">
        <ele>1323.39</ele>
        <time>2011-06-12T12:05:20Z</time>
      </trkpt>
      <trkpt lat="44.70097" lon="6.63383">
        <ele>1320.99</ele>
        <time>2011-06-12T12:05:21Z</time>
      </trkpt>
      <trkpt lat="44.70098" lon="6.63376">
        <ele>1320.03</ele>
        <time>2011-06-12T12:05:22Z</time>
      </trkpt>
      <trkpt lat="44.70099" lon="6.63369">
        <ele>1317.14</ele>
        <time>2011-06-12T12:05:23Z</time>
      </trkpt>
      <trkpt lat="44.70099" lon="6.63362">
        <ele>1316.66</ele>
        <time>2011-06-12T12:05:24Z</time>
      </trkpt>
      <trkpt lat="44.70099" lon="6.63357">
        <ele>1314.74</ele>
        <time>2011-06-12T12:05:25Z</time>
      </trkpt>
      <trkpt lat="44.701" lon="6.6335">
        <ele>1313.3</ele>
        <time>2011-06-12T12:05:26Z</time>
      </trkpt>
      <trkpt lat="44.70098" lon="6.63341">
        <ele>1310.9</ele>
        <time>2011-06-12T12:05:27Z</time>
      </trkpt>
      <trkpt lat="44.70095" lon="6.63334">
        <ele>1309.45</ele>
        <time>2011-06-12T12:05:28Z</time>
      </trkpt>
      <trkpt lat="44.70083" lon="6.63327">
        <ele>1308.97</ele>
        <time>2011-06-12T12:05:30Z</time>
      </trkpt>
      <trkpt lat="44.70081" lon="6.63328">
        <ele>1308.49</ele>
        <time>2011-06-12T12:05:31Z</time>
      </trkpt>
      <trkpt lat="44.70072" lon="6.63334">
        <ele>1306.09</ele>
        <time>2011-06-12T12:05:34Z</time>
      </trkpt>
      <trkpt lat="44.70067" lon="6.63342">
        <ele>1306.57</ele>
        <time>2011-06-12T12:05:36Z</time>
      </trkpt>
      <trkpt lat="44.70061" lon="6.63345">
        <ele>1304.17</ele>
        <time>2011-06-12T12:05:38Z</time>
      </trkpt>
      <trkpt lat="44.70059" lon="6.63346">
        <ele>1302.24</ele>
        <time>2011-06-12T12:05:40Z</time>
      </trkpt>
      <trkpt lat="44.70058" lon="6.63344">
        <ele>1301.28</ele>
        <time>2011-06-12T12:05:41Z</time>
      </trkpt>
      <trkpt lat="44.70041" lon="6.63351">
        <ele>1299.36</ele>
        <time>2011-06-12T12:05:46Z</time>
      </trkpt>
      <trkpt lat="44.70027" lon="6.63359">
        <ele>1296.48</ele>
        <time>2011-06-12T12:05:49Z</time>
      </trkpt>
      <trkpt lat="44.70013" lon="6.63371">
        <ele>1293.11</ele>
        <time>2011-06-12T12:05:53Z</time>
      </trkpt>
      <trkpt lat="44.70003" lon="6.63385">
        <ele>1289.75</ele>
        <time>2011-06-12T12:05:56Z</time>
      </trkpt>
      <trkpt lat="44.70001" lon="6.63387">
        <ele>1289.27</ele>
        <time>2011-06-12T12:05:57Z</time>
      </trkpt>
      <trkpt lat="44.7" lon="6.63386">
        <ele>1288.3</ele>
        <time>2011-06-12T12:05:58Z</time>
      </trkpt>
      <trkpt lat="44.7" lon="6.63384">
        <ele>1287.34</ele>
        <time>2011-06-12T12:05:59Z</time>
      </trkpt>
      <trkpt lat="44.7" lon="6.63371">
        <ele>1284.94</ele>
        <time>2011-06-12T12:06:02Z</time>
      </trkpt>
      <trkpt lat="44.7" lon="6.63363">
        <ele>1284.46</ele>
        <time>2011-06-12T12:06:04Z</time>
      </trkpt>
      <trkpt lat="44.6999" lon="6.63346">
        <ele>1280.61</ele>
        <time>2011-06-12T12:06:09Z</time>
      </trkpt>
      <trkpt lat="44.69986" lon="6.63343">
        <ele>1278.69</ele>
        <time>2011-06-12T12:06:10Z</time>
      </trkpt>
      <trkpt lat="44.6996" lon="6.63365">
        <ele>1276.29</ele>
        <time>2011-06-12T12:06:15Z</time>
      </trkpt>
      <trkpt lat="44.6996" lon="6.63373">
        <ele>1271.48</ele>
        <time>2011-06-12T12:06:21Z</time>
      </trkpt>
      <trkpt lat="44.69958" lon="6.63354">
        <ele>1269.08</ele>
        <time>2011-06-12T12:06:26Z</time>
      </trkpt>
      <trkpt lat="44.69957" lon="6.6336">
        <ele>1264.75</ele>
        <time>2011-06-12T12:06:33Z</time>
      </trkpt>
      <trkpt lat="44.69949" lon="6.63365">
        <ele>1262.35</ele>
        <time>2011-06-12T12:06:36Z</time>
      </trkpt>
      <trkpt lat="44.6994" lon="6.63366">
        <ele>1259.94</ele>
        <time>2011-06-12T12:06:39Z</time>
      </trkpt>
      <trkpt lat="44.69939" lon="6.63362">
        <ele>1258.5</ele>
        <time>2011-06-12T12:06:40Z</time>
      </trkpt>
      <trkpt lat="44.69923" lon="6.63356">
        <ele>1255.14</ele>
        <time>2011-06-12T12:06:42Z</time>
      </trkpt>
      <trkpt lat="44.69912" lon="6.63345">
        <ele>1251.77</ele>
        <time>2011-06-12T12:06:46Z</time>
      </trkpt>
      <trkpt lat="44.69906" lon="6.63341">
        <ele>1248.41</ele>
        <time>2011-06-12T12:06:49Z</time>
      </trkpt>
      <trkpt lat="44.69869" lon="6.63336">
        <ele>1245.04</ele>
        <time>2011-06-12T12:06:54Z</time>
      </trkpt>
      <trkpt lat="44.69865" lon="6.63333">
        <ele>1244.56</ele>
        <time>2011-06-12T12:06:55Z</time>
      </trkpt>
      <trkpt lat="44.69864" lon="6.63327">
        <ele>1241.2</ele>
        <time>2011-06-12T12:06:59Z</time>
      </trkpt>
      <trkpt lat="44.69864" lon="6.63326">
        <ele>1241.2</ele>
        <time>2011-06-12T12:07:00Z</time>
      </trkpt>
      <trkpt lat="44.69865" lon="6.63323">
        <ele>1237.35</ele>
        <time>2011-06-12T12:07:03Z</time>
      </trkpt>
      <trkpt lat="44.6987" lon="6.63316">
        <ele>1234.47</ele>
        <time>2011-06-12T12:07:06Z</time>
      </trkpt>
      <trkpt lat="44.69865" lon="6.6329">
        <ele>1230.14</ele>
        <time>2011-06-12T12:07:11Z</time>
      </trkpt>
      <trkpt lat="44.69871" lon="6.63274">
        <ele>1226.78</ele>
        <time>2011-06-12T12:07:15Z</time>
      </trkpt>
      <trkpt lat="44.69868" lon="6.6327">
        <ele>1223.42</ele>
        <time>2011-06-12T12:07:18Z</time>
      </trkpt>
      <trkpt lat="44.69864" lon="6.63268">
        <ele>1221.97</ele>
        <time>2011-06-12T12:07:19Z</time>
      </trkpt>
      <trkpt lat="44.69835" lon="6.63238">
        <ele>1219.09</ele>
        <time>2011-06-12T12:07:27Z</time>
      </trkpt>
      <trkpt lat="44.6983" lon="6.63215">
        <ele>1215.72</ele>
        <time>2011-06-12T12:07:31Z</time>
      </trkpt>
      <trkpt lat="44.69835" lon="6.63213">
        <ele>1214.28</ele>
        <time>2011-06-12T12:07:33Z</time>
      </trkpt>
      <trkpt lat="44.69821" lon="6.63211">
        <ele>1211.4</ele>
        <time>2011-06-12T12:07:37Z</time>
      </trkpt>
      <trkpt lat="44.69811" lon="6.632">
        <ele>1207.55</ele>
        <time>2011-06-12T12:07:42Z</time>
      </trkpt>
      <trkpt lat="44.69808" lon="6.63196">
        <ele>1206.11</ele>
        <time>2011-06-12T12:07:43Z</time>
      </trkpt>
      <trkpt lat="44.69786" lon="6.63174">
        <ele>1202.75</ele>
        <time>2011-06-12T12:07:48Z</time>
      </trkpt>
      <trkpt lat="44.69784" lon="6.63167">
        <ele>1200.34</ele>
        <time>2011-06-12T12:07:51Z</time>
      </trkpt>
      <trkpt lat="44.69761" lon="6.63142">
        <ele>1197.46</ele>
        <time>2011-06-12T12:07:55Z</time>
      </trkpt>
      <trkpt lat="44.69738" lon="6.6311">
        <ele>1194.09</ele>
        <time>2011-06-12T12:08:00Z</time>
      </trkpt>
      <trkpt lat="44.69714" lon="6.63092">
        <ele>1190.73</ele>
        <time>2011-06-12T12:08:08Z</time>
      </trkpt>
      <trkpt lat="44.6971" lon="6.63086">
        <ele>1187.85</ele>
        <time>2011-06-12T12:08:10Z</time>
      </trkpt>
      <trkpt lat="44.69709" lon="6.63082">
        <ele>1184.96</ele>
        <time>2011-06-12T12:08:13Z</time>
      </trkpt>
      <trkpt lat="44.69705" lon="6.63078">
        <ele>1183.04</ele>
        <time>2011-06-12T12:08:15Z</time>
      </trkpt>
      <trkpt lat="44.69703" lon="6.63089">
        <ele>1180.16</ele>
        <time>2011-06-12T12:08:19Z</time>
      </trkpt>
      <trkpt lat="44.69714" lon="6.63086">
        <ele>1177.27</ele>
        <time>2011-06-12T12:08:23Z</time>
      </trkpt>
      <trkpt lat="44.69725" lon="6.63073">
        <ele>1172.47</ele>
        <time>2011-06-12T12:08:29Z</time>
      </trkpt>
      <trkpt lat="44.69724" lon="6.63069">
        <ele>1170.06</ele>
        <time>2011-06-12T12:08:31Z</time>
      </trkpt>
      <trkpt lat="44.69725" lon="6.63069">
        <ele>1166.7</ele>
        <time>2011-06-12T12:08:33Z</time>
      </trkpt>
      <trkpt lat="44.69735" lon="6.63069">
        <ele>1163.33</ele>
        <time>2011-06-12T12:08:39Z</time>
      </trkpt>
      <trkpt lat="44.69742" lon="6.63069">
        <ele>1162.37</ele>
        <time>2011-06-12T12:08:42Z</time>
      </trkpt>
      <trkpt lat="44.69749" lon="6.63065">
        <ele>1159.01</ele>
        <time>2011-06-12T12:08:48Z</time>
      </trkpt>
      <trkpt lat="44.69749" lon="6.63065">
        <ele>1156.12</ele>
        <time>2011-06-12T12:08:50Z</time>
      </trkpt>
      <trkpt lat="44.69749" lon="6.63065">
        <ele>1152.28</ele>
        <time>2011-06-12T12:08:53Z</time>
      </trkpt>
      <trkpt lat="44.69749" lon="6.63065">
        <ele>1151.8</ele>
        <time>2011-06-12T12:08:54Z</time>
      </trkpt>
      <trkpt lat="44.69749" lon="6.63063">
        <ele>1148.91</ele>
        <time>2011-06-12T12:08:56Z</time>
      </trkpt>
      <trkpt lat="44.69742" lon="6.63032">
        <ele>1144.59</ele>
        <time>2011-06-12T12:09:04Z</time>
      </trkpt>
      <trkpt lat="44.69666" lon="6.62977">
        <ele>1145.07</ele>
        <time>2011-06-12T12:09:18Z</time>
      </trkpt>
      <trkpt lat="44.69612" lon="6.62969">
        <ele>1144.59</ele>
        <time>2011-06-12T12:09:26Z</time>
      </trkpt>
      <trkpt lat="44.69561" lon="6.62963">
        <ele>1144.59</ele>
        <time>2011-06-12T12:09:32Z</time>
      </trkpt>
      <trkpt lat="44.69555" lon="6.62961">
        <ele>1144.59</ele>
        <time>2011-06-12T12:09:33Z</time>
      </trkpt>
      <trkpt lat="44.69549" lon="6.62957">
        <ele>1144.59</ele>
        <time>2011-06-12T12:09:34Z</time>
      </trkpt>
      <trkpt lat="44.69518" lon="6.62949">
        <ele>1144.59</ele>
        <time>2011-06-12T12:09:38Z</time>
      </trkpt>
      <trkpt lat="44.69495" lon="6.6294">
        <ele>1146.03</ele>
        <time>2011-06-12T12:09:42Z</time>
      </trkpt>
      <trkpt lat="44.69469" lon="6.62915">
        <ele>1148.91</ele>
        <time>2011-06-12T12:09:50Z</time>
      </trkpt>
      <trkpt lat="44.69444" lon="6.62902">
        <ele>1152.28</ele>
        <time>2011-06-12T12:09:59Z</time>
      </trkpt>
      <trkpt lat="44.69441" lon="6.62905">
        <ele>1152.76</ele>
        <time>2011-06-12T12:10:01Z</time>
      </trkpt>
      <trkpt lat="44.69434" lon="6.62908">
        <ele>1153.72</ele>
        <time>2011-06-12T12:10:04Z</time>
      </trkpt>
      <trkpt lat="44.69431" lon="6.62908">
        <ele>1153.72</ele>
        <time>2011-06-12T12:10:05Z</time>
      </trkpt>
      <trkpt lat="44.69405" lon="6.62897">
        <ele>1156.12</ele>
        <time>2011-06-12T12:10:16Z</time>
      </trkpt>
      <trkpt lat="44.69387" lon="6.62883">
        <ele>1157.08</ele>
        <time>2011-06-12T12:10:25Z</time>
      </trkpt>
      <trkpt lat="44.69372" lon="6.62875">
        <ele>1158.05</ele>
        <time>2011-06-12T12:10:32Z</time>
      </trkpt>
      <trkpt lat="44.69332" lon="6.62897">
        <ele>1160.45</ele>
        <time>2011-06-12T12:10:47Z</time>
      </trkpt>
      <trkpt lat="44.69302" lon="6.62914">
        <ele>1163.81</ele>
        <time>2011-06-12T12:11:01Z</time>
      </trkpt>
      <trkpt lat="44.69299" lon="6.62917">
        <ele>1164.29</ele>
        <time>2011-06-12T12:11:03Z</time>
      </trkpt>
      <trkpt lat="44.69273" lon="6.62941">
        <ele>1167.18</ele>
        <time>2011-06-12T12:11:18Z</time>
      </trkpt>
      <trkpt lat="44.69268" lon="6.62947">
        <ele>1173.43</ele>
        <time>2011-06-12T12:11:21Z</time>
      </trkpt>
      <trkpt lat="44.69267" lon="6.6295">
        <ele>1169.1</ele>
        <time>2011-06-12T12:11:22Z</time>
      </trkpt>
      <trkpt lat="44.69244" lon="6.62976">
        <ele>1171.02</ele>
        <time>2011-06-12T12:11:37Z</time>
      </trkpt>
      <trkpt lat="44.69234" lon="6.62986">
        <ele>1172.47</ele>
        <time>2011-06-12T12:11:44Z</time>
      </trkpt>
      <trkpt lat="44.69218" lon="6.63004">
        <ele>1174.87</ele>
        <time>2011-06-12T12:11:56Z</time>
      </trkpt>
      <trkpt lat="44.692" lon="6.6303">
        <ele>1177.27</ele>
        <time>2011-06-12T12:12:12Z</time>
      </trkpt>
      <trkpt lat="44.69175" lon="6.6304">
        <ele>1175.35</ele>
        <time>2011-06-12T12:12:22Z</time>
      </trkpt>
      <trkpt lat="44.69143" lon="6.63054">
        <ele>1173.43</ele>
        <time>2011-06-12T12:12:33Z</time>
      </trkpt>
      <trkpt lat="44.69127" lon="6.63087">
        <ele>1173.43</ele>
        <time>2011-06-12T12:12:40Z</time>
      </trkpt>
      <trkpt lat="44.69125" lon="6.63093">
        <ele>1173.43</ele>
        <time>2011-06-12T12:12:41Z</time>
      </trkpt>
      <trkpt lat="44.69125" lon="6.631">
        <ele>1173.91</ele>
        <time>2011-06-12T12:12:42Z</time>
      </trkpt>
      <trkpt lat="44.69124" lon="6.63141">
        <ele>1171.98</ele>
        <time>2011-06-12T12:12:50Z</time>
      </trkpt>
      <trkpt lat="44.69126" lon="6.63153">
        <ele>1170.54</ele>
        <time>2011-06-12T12:12:52Z</time>
      </trkpt>
      <trkpt lat="44.6913" lon="6.63167">
        <ele>1170.06</ele>
        <time>2011-06-12T12:12:54Z</time>
      </trkpt>
      <trkpt lat="44.69132" lon="6.63189">
        <ele>1169.1</ele>
        <time>2011-06-12T12:12:57Z</time>
      </trkpt>
      <trkpt lat="44.69135" lon="6.63197">
        <ele>1168.62</ele>
        <time>2011-06-12T12:12:58Z</time>
      </trkpt>
      <trkpt lat="44.69138" lon="6.63219">
        <ele>1168.14</ele>
        <time>2011-06-12T12:13:01Z</time>
      </trkpt>
      <trkpt lat="44.69144" lon="6.63229">
        <ele>1168.14</ele>
        <time>2011-06-12T12:13:02Z</time>
      </trkpt>
      <trkpt lat="44.6915" lon="6.63238">
        <ele>1168.14</ele>
        <time>2011-06-12T12:13:03Z</time>
      </trkpt>
      <trkpt lat="44.69173" lon="6.63277">
        <ele>1168.62</ele>
        <time>2011-06-12T12:13:08Z</time>
      </trkpt>
      <trkpt lat="44.69191" lon="6.63316">
        <ele>1169.1</ele>
        <time>2011-06-12T12:13:14Z</time>
      </trkpt>
      <trkpt lat="44.69195" lon="6.63375">
        <ele>1170.06</ele>
        <time>2011-06-12T12:13:25Z</time>
      </trkpt>
      <trkpt lat="44.69196" lon="6.63388">
        <ele>1169.58</ele>
        <time>2011-06-12T12:13:27Z</time>
      </trkpt>
      <trkpt lat="44.69196" lon="6.63395">
        <ele>1169.58</ele>
        <time>2011-06-12T12:13:28Z</time>
      </trkpt>
      <trkpt lat="44.69195" lon="6.63402">
        <ele>1169.1</ele>
        <time>2011-06-12T12:13:29Z</time>
      </trkpt>
      <trkpt lat="44.69168" lon="6.63453">
        <ele>1169.1</ele>
        <time>2011-06-12T12:13:39Z</time>
      </trkpt>
      <trkpt lat="44.69166" lon="6.63453">
        <ele>1168.14</ele>
        <time>2011-06-12T12:13:40Z</time>
      </trkpt>
      <trkpt lat="44.69165" lon="6.63451">
        <ele>1168.14</ele>
        <time>2011-06-12T12:13:41Z</time>
      </trkpt>
      <trkpt lat="44.69164" lon="6.63449">
        <ele>1168.14</ele>
        <time>2011-06-12T12:13:42Z</time>
      </trkpt>
      <trkpt lat="44.69164" lon="6.63446">
        <ele>1168.62</ele>
        <time>2011-06-12T12:13:43Z</time>
      </trkpt>
      <trkpt lat="44.69163" lon="6.63442">
        <ele>1167.66</ele>
        <time>2011-06-12T12:13:44Z</time>
      </trkpt>
      <trkpt lat="44.69162" lon="6.63438">
        <ele>1167.18</ele>
        <time>2011-06-12T12:13:45Z</time>
      </trkpt>
      <trkpt lat="44.6916" lon="6.63432">
        <ele>1166.7</ele>
        <time>2011-06-12T12:13:46Z</time>
      </trkpt>
      <trkpt lat="44.69158" lon="6.63427">
        <ele>1166.22</ele>
        <time>2011-06-12T12:13:47Z</time>
      </trkpt>
      <trkpt lat="44.69156" lon="6.63421">
        <ele>1165.74</ele>
        <time>2011-06-12T12:13:48Z</time>
      </trkpt>
      <trkpt lat="44.69151" lon="6.63407">
        <ele>1163.33</ele>
        <time>2011-06-12T12:13:51Z</time>
      </trkpt>
      <trkpt lat="44.69148" lon="6.63402">
        <ele>1162.37</ele>
        <time>2011-06-12T12:13:52Z</time>
      </trkpt>
      <trkpt lat="44.69144" lon="6.63398">
        <ele>1161.41</ele>
        <time>2011-06-12T12:13:53Z</time>
      </trkpt>
      <trkpt lat="44.69139" lon="6.63394">
        <ele>1160.93</ele>
        <time>2011-06-12T12:13:54Z</time>
      </trkpt>
      <trkpt lat="44.69133" lon="6.63389">
        <ele>1160.45</ele>
        <time>2011-06-12T12:13:55Z</time>
      </trkpt>
      <trkpt lat="44.69127" lon="6.63385">
        <ele>1160.93</ele>
        <time>2011-06-12T12:13:56Z</time>
      </trkpt>
      <trkpt lat="44.69115" lon="6.63379">
        <ele>1159.49</ele>
        <time>2011-06-12T12:13:58Z</time>
      </trkpt>
      <trkpt lat="44.69109" lon="6.63378">
        <ele>1158.53</ele>
        <time>2011-06-12T12:13:59Z</time>
      </trkpt>
      <trkpt lat="44.69072" lon="6.63375">
        <ele>1159.01</ele>
        <time>2011-06-12T12:14:06Z</time>
      </trkpt>
      <trkpt lat="44.6906" lon="6.63375">
        <ele>1162.37</ele>
        <time>2011-06-12T12:14:18Z</time>
      </trkpt>
      <trkpt lat="44.6905" lon="6.63376">
        <ele>1165.26</ele>
        <time>2011-06-12T12:14:30Z</time>
      </trkpt>
      <trkpt lat="44.69041" lon="6.63375">
        <ele>1165.74</ele>
        <time>2011-06-12T12:14:40Z</time>
      </trkpt>
      <trkpt lat="44.69038" lon="6.63373">
        <ele>1166.22</ele>
        <time>2011-06-12T12:14:42Z</time>
      </trkpt>
      <trkpt lat="44.69007" lon="6.63368">
        <ele>1167.18</ele>
        <time>2011-06-12T12:14:53Z</time>
      </trkpt>
      <trkpt lat="44.68977" lon="6.63364">
        <ele>1169.1</ele>
        <time>2011-06-12T12:15:03Z</time>
      </trkpt>
      <trkpt lat="44.68942" lon="6.63346">
        <ele>1171.5</ele>
        <time>2011-06-12T12:15:17Z</time>
      </trkpt>
      <trkpt lat="44.68919" lon="6.63311">
        <ele>1171.98</ele>
        <time>2011-06-12T12:15:29Z</time>
      </trkpt>
      <trkpt lat="44.68908" lon="6.63306">
        <ele>1172.95</ele>
        <time>2011-06-12T12:15:40Z</time>
      </trkpt>
      <trkpt lat="44.68909" lon="6.63308">
        <ele>1172.95</ele>
        <time>2011-06-12T12:15:42Z</time>
      </trkpt>
      <trkpt lat="44.68912" lon="6.63313">
        <ele>1173.91</ele>
        <time>2011-06-12T12:15:46Z</time>
      </trkpt>
      <trkpt lat="44.6892" lon="6.63341">
        <ele>1177.27</ele>
        <time>2011-06-12T12:16:04Z</time>
      </trkpt>
      <trkpt lat="44.6893" lon="6.63365">
        <ele>1177.75</ele>
        <time>2011-06-12T12:16:20Z</time>
      </trkpt>
      <trkpt lat="44.68938" lon="6.63373">
        <ele>1181.12</ele>
        <time>2011-06-12T12:16:28Z</time>
      </trkpt>
      <trkpt lat="44.6895" lon="6.63385">
        <ele>1182.08</ele>
        <time>2011-06-12T12:16:42Z</time>
      </trkpt>
      <trkpt lat="44.68981" lon="6.63422">
        <ele>1184.96</ele>
        <time>2011-06-12T12:16:57Z</time>
      </trkpt>
      <trkpt lat="44.68993" lon="6.63441">
        <ele>1186.88</ele>
        <time>2011-06-12T12:17:05Z</time>
      </trkpt>
      <trkpt lat="44.68998" lon="6.63464">
        <ele>1189.77</ele>
        <time>2011-06-12T12:17:15Z</time>
      </trkpt>
      <trkpt lat="44.69" lon="6.63471">
        <ele>1191.21</ele>
        <time>2011-06-12T12:17:21Z</time>
      </trkpt>
      <trkpt lat="44.69001" lon="6.63478">
        <ele>1192.17</ele>
        <time>2011-06-12T12:17:25Z</time>
      </trkpt>
      <trkpt lat="44.68998" lon="6.63492">
        <ele>1194.58</ele>
        <time>2011-06-12T12:17:41Z</time>
      </trkpt>
      <trkpt lat="44.68992" lon="6.63482">
        <ele>1196.02</ele>
        <time>2011-06-12T12:17:49Z</time>
      </trkpt>
      <trkpt lat="44.68988" lon="6.63475">
        <ele>1196.5</ele>
        <time>2011-06-12T12:17:55Z</time>
      </trkpt>
      <trkpt lat="44.68974" lon="6.63456">
        <ele>1200.34</ele>
        <time>2011-06-12T12:18:12Z</time>
      </trkpt>
      <trkpt lat="44.6896" lon="6.63451">
        <ele>1200.82</ele>
        <time>2011-06-12T12:18:30Z</time>
      </trkpt>
      <trkpt lat="44.68957" lon="6.6345">
        <ele>1200.34</ele>
        <time>2011-06-12T12:18:42Z</time>
      </trkpt>
      <trkpt lat="44.68918" lon="6.63479">
        <ele>1200.34</ele>
        <time>2011-06-12T12:18:55Z</time>
      </trkpt>
      <trkpt lat="44.68879" lon="6.63509">
        <ele>1200.34</ele>
        <time>2011-06-12T12:19:07Z</time>
      </trkpt>
      <trkpt lat="44.68825" lon="6.63547">
        <ele>1202.27</ele>
        <time>2011-06-12T12:19:21Z</time>
      </trkpt>
      <trkpt lat="44.68779" lon="6.63578">
        <ele>1202.75</ele>
        <time>2011-06-12T12:19:36Z</time>
      </trkpt>
      <trkpt lat="44.68771" lon="6.63586">
        <ele>1199.86</ele>
        <time>2011-06-12T12:19:44Z</time>
      </trkpt>
      <trkpt lat="44.68764" lon="6.63598">
        <ele>1198.42</ele>
        <time>2011-06-12T12:19:47Z</time>
      </trkpt>
      <trkpt lat="44.68777" lon="6.63662">
        <ele>1200.34</ele>
        <time>2011-06-12T12:19:57Z</time>
      </trkpt>
      <trkpt lat="44.68802" lon="6.63732">
        <ele>1202.75</ele>
        <time>2011-06-12T12:20:09Z</time>
      </trkpt>
      <trkpt lat="44.68784" lon="6.63782">
        <ele>1204.67</ele>
        <time>2011-06-12T12:20:22Z</time>
      </trkpt>
      <trkpt lat="44.68773" lon="6.63822">
        <ele>1206.59</ele>
        <time>2011-06-12T12:20:34Z</time>
      </trkpt>
      <trkpt lat="44.68763" lon="6.63891">
        <ele>1209</ele>
        <time>2011-06-12T12:20:52Z</time>
      </trkpt>
      <trkpt lat="44.68767" lon="6.63933">
        <ele>1210.44</ele>
        <time>2011-06-12T12:21:04Z</time>
      </trkpt>
      <trkpt lat="44.68766" lon="6.63943">
        <ele>1211.4</ele>
        <time>2011-06-12T12:21:07Z</time>
      </trkpt>
      <trkpt lat="44.68764" lon="6.63946">
        <ele>1211.4</ele>
        <time>2011-06-12T12:21:08Z</time>
      </trkpt>
      <trkpt lat="44.68762" lon="6.63949">
        <ele>1211.88</ele>
        <time>2011-06-12T12:21:09Z</time>
      </trkpt>
      <trkpt lat="44.68761" lon="6.63952">
        <ele>1211.88</ele>
        <time>2011-06-12T12:21:10Z</time>
      </trkpt>
      <trkpt lat="44.6876" lon="6.63954">
        <ele>1212.36</ele>
        <time>2011-06-12T12:21:11Z</time>
      </trkpt>
      <trkpt lat="44.68758" lon="6.64">
        <ele>1214.28</ele>
        <time>2011-06-12T12:21:24Z</time>
      </trkpt>
      <trkpt lat="44.68753" lon="6.64006">
        <ele>1215.24</ele>
        <time>2011-06-12T12:21:32Z</time>
      </trkpt>
      <trkpt lat="44.68753" lon="6.64006">
        <ele>1216.21</ele>
        <time>2011-06-12T12:21:34Z</time>
      </trkpt>
      <trkpt lat="44.68753" lon="6.64002">
        <ele>1216.21</ele>
        <time>2011-06-12T12:21:35Z</time>
      </trkpt>
      <trkpt lat="44.68752" lon="6.63998">
        <ele>1216.21</ele>
        <time>2011-06-12T12:21:36Z</time>
      </trkpt>
      <trkpt lat="44.6875" lon="6.63993">
        <ele>1215.72</ele>
        <time>2011-06-12T12:21:37Z</time>
      </trkpt>
      <trkpt lat="44.68748" lon="6.63989">
        <ele>1216.21</ele>
        <time>2011-06-12T12:21:38Z</time>
      </trkpt>
      <trkpt lat="44.68746" lon="6.63985">
        <ele>1216.21</ele>
        <time>2011-06-12T12:21:39Z</time>
      </trkpt>
      <trkpt lat="44.68739" lon="6.63974">
        <ele>1215.72</ele>
        <time>2011-06-12T12:21:41Z</time>
      </trkpt>
      <trkpt lat="44.68734" lon="6.63968">
        <ele>1215.72</ele>
        <time>2011-06-12T12:21:42Z</time>
      </trkpt>
      <trkpt lat="44.68722" lon="6.63957">
        <ele>1215.24</ele>
        <time>2011-06-12T12:21:43Z</time>
      </trkpt>
      <trkpt lat="44.68717" lon="6.63954">
        <ele>1215.24</ele>
        <time>2011-06-12T12:21:44Z</time>
      </trkpt>
      <trkpt lat="44.68711" lon="6.63953">
        <ele>1215.24</ele>
        <time>2011-06-12T12:21:45Z</time>
      </trkpt>
      <trkpt lat="44.68706" lon="6.63953">
        <ele>1214.76</ele>
        <time>2011-06-12T12:21:46Z</time>
      </trkpt>
      <trkpt lat="44.68701" lon="6.63953">
        <ele>1215.24</ele>
        <time>2011-06-12T12:21:47Z</time>
      </trkpt>
      <trkpt lat="44.68697" lon="6.63954">
        <ele>1214.76</ele>
        <time>2011-06-12T12:21:48Z</time>
      </trkpt>
      <trkpt lat="44.6867" lon="6.63981">
        <ele>1216.21</ele>
        <time>2011-06-12T12:21:55Z</time>
      </trkpt>
      <trkpt lat="44.68668" lon="6.63986">
        <ele>1216.69</ele>
        <time>2011-06-12T12:21:56Z</time>
      </trkpt>
      <trkpt lat="44.68666" lon="6.6399">
        <ele>1216.69</ele>
        <time>2011-06-12T12:21:57Z</time>
      </trkpt>
      <trkpt lat="44.68655" lon="6.63999">
        <ele>1217.65</ele>
        <time>2011-06-12T12:22:06Z</time>
      </trkpt>
      <trkpt lat="44.68669" lon="6.64001">
        <ele>1219.57</ele>
        <time>2011-06-12T12:22:31Z</time>
      </trkpt>
      <trkpt lat="44.68682" lon="6.64003">
        <ele>1220.05</ele>
        <time>2011-06-12T12:22:47Z</time>
      </trkpt>
      <trkpt lat="44.68721" lon="6.63997">
        <ele>1221.97</ele>
        <time>2011-06-12T12:23:03Z</time>
      </trkpt>
      <trkpt lat="44.68723" lon="6.63998">
        <ele>1222.45</ele>
        <time>2011-06-12T12:23:04Z</time>
      </trkpt>
      <trkpt lat="44.68724" lon="6.64">
        <ele>1222.45</ele>
        <time>2011-06-12T12:23:05Z</time>
      </trkpt>
      <trkpt lat="44.68726" lon="6.64006">
        <ele>1222.45</ele>
        <time>2011-06-12T12:23:20Z</time>
      </trkpt>
      <trkpt lat="44.68726" lon="6.64006">
        <ele>1223.42</ele>
        <time>2011-06-12T12:27:14Z</time>
      </trkpt>
      <trkpt lat="44.68725" lon="6.64004">
        <ele>1222.93</ele>
        <time>2011-06-12T12:29:49Z</time>
      </trkpt>
      <trkpt lat="44.68725" lon="6.64003">
        <ele>1223.9</ele>
        <time>2011-06-12T12:32:14Z</time>
      </trkpt>
      <trkpt lat="44.68726" lon="6.64007">
        <ele>1223.9</ele>
        <time>2011-06-12T12:32:19Z</time>
      </trkpt>
      <trkpt lat="44.68727" lon="6.64011">
        <ele>1224.38</ele>
        <time>2011-06-12T12:32:21Z</time>
      </trkpt>
      <trkpt lat="44.68727" lon="6.64013">
        <ele>1224.86</ele>
        <time>2011-06-12T12:32:22Z</time>
      </trkpt>
      <trkpt lat="44.68726" lon="6.64019">
        <ele>1225.82</ele>
        <time>2011-06-12T12:32:29Z</time>
      </trkpt>
      <trkpt lat="44.68723" lon="6.64029">
        <ele>1227.26</ele>
        <time>2011-06-12T12:32:37Z</time>
      </trkpt>
      <trkpt lat="44.68722" lon="6.6403">
        <ele>1227.74</ele>
        <time>2011-06-12T12:32:38Z</time>
      </trkpt>
      <trkpt lat="44.68721" lon="6.64031">
        <ele>1227.74</ele>
        <time>2011-06-12T12:32:39Z</time>
      </trkpt>
      <trkpt lat="44.6872" lon="6.64033">
        <ele>1228.22</ele>
        <time>2011-06-12T12:32:40Z</time>
      </trkpt>
      <trkpt lat="44.68717" lon="6.64039">
        <ele>1230.14</ele>
        <time>2011-06-12T12:32:53Z</time>
      </trkpt>
      <trkpt lat="44.68707" lon="6.64049">
        <ele>1232.07</ele>
        <time>2011-06-12T12:33:07Z</time>
      </trkpt>
      <trkpt lat="44.68697" lon="6.64059">
        <ele>1233.51</ele>
        <time>2011-06-12T12:33:21Z</time>
      </trkpt>
      <trkpt lat="44.68695" lon="6.64061">
        <ele>1233.99</ele>
        <time>2011-06-12T12:33:23Z</time>
      </trkpt>
      <trkpt lat="44.68684" lon="6.64066">
        <ele>1234.47</ele>
        <time>2011-06-12T12:33:35Z</time>
      </trkpt>
      <trkpt lat="44.68659" lon="6.64062">
        <ele>1233.51</ele>
        <time>2011-06-12T12:33:48Z</time>
      </trkpt>
      <trkpt lat="44.68619" lon="6.64042">
        <ele>1233.99</ele>
        <time>2011-06-12T12:34:00Z</time>
      </trkpt>
      <trkpt lat="44.68576" lon="6.63973">
        <ele>1233.99</ele>
        <time>2011-06-12T12:34:13Z</time>
      </trkpt>
      <trkpt lat="44.68572" lon="6.63966">
        <ele>1233.99</ele>
        <time>2011-06-12T12:34:14Z</time>
      </trkpt>
      <trkpt lat="44.68568" lon="6.6396">
        <ele>1233.99</ele>
        <time>2011-06-12T12:34:15Z</time>
      </trkpt>
      <trkpt lat="44.68537" lon="6.63938">
        <ele>1236.39</ele>
        <time>2011-06-12T12:34:26Z</time>
      </trkpt>
      <trkpt lat="44.68498" lon="6.63947">
        <ele>1238.32</ele>
        <time>2011-06-12T12:34:39Z</time>
      </trkpt>
      <trkpt lat="44.68496" lon="6.6395">
        <ele>1239.28</ele>
        <time>2011-06-12T12:34:42Z</time>
      </trkpt>
      <trkpt lat="44.685" lon="6.63951">
        <ele>1239.76</ele>
        <time>2011-06-12T12:34:47Z</time>
      </trkpt>
      <trkpt lat="44.68502" lon="6.6395">
        <ele>1240.24</ele>
        <time>2011-06-12T12:34:48Z</time>
      </trkpt>
      <trkpt lat="44.68504" lon="6.63951">
        <ele>1240.24</ele>
        <time>2011-06-12T12:34:49Z</time>
      </trkpt>
      <trkpt lat="44.68506" lon="6.63951">
        <ele>1240.72</ele>
        <time>2011-06-12T12:34:50Z</time>
      </trkpt>
      <trkpt lat="44.68508" lon="6.63951">
        <ele>1240.72</ele>
        <time>2011-06-12T12:34:51Z</time>
      </trkpt>
      <trkpt lat="44.68509" lon="6.63952">
        <ele>1241.2</ele>
        <time>2011-06-12T12:34:52Z</time>
      </trkpt>
      <trkpt lat="44.68511" lon="6.63953">
        <ele>1241.2</ele>
        <time>2011-06-12T12:34:53Z</time>
      </trkpt>
      <trkpt lat="44.68513" lon="6.63954">
        <ele>1241.68</ele>
        <time>2011-06-12T12:34:54Z</time>
      </trkpt>
      <trkpt lat="44.68514" lon="6.63955">
        <ele>1241.68</ele>
        <time>2011-06-12T12:34:55Z</time>
      </trkpt>
      <trkpt lat="44.68523" lon="6.63969">
        <ele>1243.6</ele>
        <time>2011-06-12T12:35:05Z</time>
      </trkpt>
      <trkpt lat="44.68522" lon="6.6397">
        <ele>1243.6</ele>
        <time>2011-06-12T12:35:06Z</time>
      </trkpt>
      <trkpt lat="44.68521" lon="6.63971">
        <ele>1244.08</ele>
        <time>2011-06-12T12:35:07Z</time>
      </trkpt>
      <trkpt lat="44.6852" lon="6.63972">
        <ele>1244.08</ele>
        <time>2011-06-12T12:35:08Z</time>
      </trkpt>
      <trkpt lat="44.68519" lon="6.63973">
        <ele>1244.08</ele>
        <time>2011-06-12T12:35:09Z</time>
      </trkpt>
      <trkpt lat="44.68494" lon="6.63987">
        <ele>1246.01</ele>
        <time>2011-06-12T12:35:23Z</time>
      </trkpt>
      <trkpt lat="44.68473" lon="6.64012">
        <ele>1247.93</ele>
        <time>2011-06-12T12:35:36Z</time>
      </trkpt>
      <trkpt lat="44.68452" lon="6.64059">
        <ele>1251.29</ele>
        <time>2011-06-12T12:35:55Z</time>
      </trkpt>
      <trkpt lat="44.68435" lon="6.64088">
        <ele>1253.7</ele>
        <time>2011-06-12T12:36:08Z</time>
      </trkpt>
      <trkpt lat="44.68439" lon="6.64125">
        <ele>1256.1</ele>
        <time>2011-06-12T12:36:22Z</time>
      </trkpt>
      <trkpt lat="44.68422" lon="6.64156">
        <ele>1254.18</ele>
        <time>2011-06-12T12:36:29Z</time>
      </trkpt>
      <trkpt lat="44.68421" lon="6.64164">
        <ele>1253.7</ele>
        <time>2011-06-12T12:36:30Z</time>
      </trkpt>
      <trkpt lat="44.68419" lon="6.64171">
        <ele>1254.18</ele>
        <time>2011-06-12T12:36:31Z</time>
      </trkpt>
      <trkpt lat="44.68416" lon="6.64177">
        <ele>1253.7</ele>
        <time>2011-06-12T12:36:32Z</time>
      </trkpt>
      <trkpt lat="44.68413" lon="6.64183">
        <ele>1253.22</ele>
        <time>2011-06-12T12:36:33Z</time>
      </trkpt>
      <trkpt lat="44.6841" lon="6.64188">
        <ele>1253.7</ele>
        <time>2011-06-12T12:36:34Z</time>
      </trkpt>
      <trkpt lat="44.68407" lon="6.64192">
        <ele>1254.18</ele>
        <time>2011-06-12T12:36:35Z</time>
      </trkpt>
      <trkpt lat="44.6837" lon="6.64232">
        <ele>1254.18</ele>
        <time>2011-06-12T12:36:48Z</time>
      </trkpt>
      <trkpt lat="44.68359" lon="6.64244">
        <ele>1253.7</ele>
        <time>2011-06-12T12:36:51Z</time>
      </trkpt>
      <trkpt lat="44.68317" lon="6.64269">
        <ele>1251.29</ele>
        <time>2011-06-12T12:36:59Z</time>
      </trkpt>
      <trkpt lat="44.68312" lon="6.64275">
        <ele>1251.29</ele>
        <time>2011-06-12T12:37:00Z</time>
      </trkpt>
      <trkpt lat="44.68308" lon="6.64282">
        <ele>1250.81</ele>
        <time>2011-06-12T12:37:01Z</time>
      </trkpt>
      <trkpt lat="44.68304" lon="6.6429">
        <ele>1250.33</ele>
        <time>2011-06-12T12:37:02Z</time>
      </trkpt>
      <trkpt lat="44.68301" lon="6.64299">
        <ele>1249.85</ele>
        <time>2011-06-12T12:37:03Z</time>
      </trkpt>
      <trkpt lat="44.68289" lon="6.64328">
        <ele>1247.93</ele>
        <time>2011-06-12T12:37:06Z</time>
      </trkpt>
      <trkpt lat="44.68283" lon="6.64338">
        <ele>1246.97</ele>
        <time>2011-06-12T12:37:07Z</time>
      </trkpt>
      <trkpt lat="44.68278" lon="6.64346">
        <ele>1246.97</ele>
        <time>2011-06-12T12:37:08Z</time>
      </trkpt>
      <trkpt lat="44.68271" lon="6.64353">
        <ele>1246.49</ele>
        <time>2011-06-12T12:37:09Z</time>
      </trkpt>
      <trkpt lat="44.68262" lon="6.64357">
        <ele>1246.49</ele>
        <time>2011-06-12T12:37:10Z</time>
      </trkpt>
      <trkpt lat="44.68254" lon="6.64359">
        <ele>1246.97</ele>
        <time>2011-06-12T12:37:11Z</time>
      </trkpt>
      <trkpt lat="44.68247" lon="6.64363">
        <ele>1246.97</ele>
        <time>2011-06-12T12:37:12Z</time>
      </trkpt>
      <trkpt lat="44.68241" lon="6.64369">
        <ele>1246.97</ele>
        <time>2011-06-12T12:37:13Z</time>
      </trkpt>
      <trkpt lat="44.68238" lon="6.64376">
        <ele>1246.97</ele>
        <time>2011-06-12T12:37:14Z</time>
      </trkpt>
      <trkpt lat="44.68237" lon="6.64383">
        <ele>1246.97</ele>
        <time>2011-06-12T12:37:15Z</time>
      </trkpt>
      <trkpt lat="44.68238" lon="6.64391">
        <ele>1246.49</ele>
        <time>2011-06-12T12:37:16Z</time>
      </trkpt>
      <trkpt lat="44.6824" lon="6.64398">
        <ele>1246.49</ele>
        <time>2011-06-12T12:37:17Z</time>
      </trkpt>
      <trkpt lat="44.68244" lon="6.64407">
        <ele>1245.53</ele>
        <time>2011-06-12T12:37:18Z</time>
      </trkpt>
      <trkpt lat="44.68245" lon="6.64414">
        <ele>1245.53</ele>
        <time>2011-06-12T12:37:19Z</time>
      </trkpt>
      <trkpt lat="44.68245" lon="6.64419">
        <ele>1244.08</ele>
        <time>2011-06-12T12:37:20Z</time>
      </trkpt>
      <trkpt lat="44.68244" lon="6.64422">
        <ele>1243.12</ele>
        <time>2011-06-12T12:37:21Z</time>
      </trkpt>
      <trkpt lat="44.68241" lon="6.64427">
        <ele>1243.12</ele>
        <time>2011-06-12T12:37:24Z</time>
      </trkpt>
      <trkpt lat="44.68238" lon="6.64443">
        <ele>1238.8</ele>
        <time>2011-06-12T12:37:28Z</time>
      </trkpt>
      <trkpt lat="44.68242" lon="6.64464">
        <ele>1235.43</ele>
        <time>2011-06-12T12:37:32Z</time>
      </trkpt>
      <trkpt lat="44.68244" lon="6.64469">
        <ele>1233.51</ele>
        <time>2011-06-12T12:37:33Z</time>
      </trkpt>
      <trkpt lat="44.68252" lon="6.64481">
        <ele>1231.11</ele>
        <time>2011-06-12T12:37:35Z</time>
      </trkpt>
      <trkpt lat="44.68256" lon="6.64487">
        <ele>1231.59</ele>
        <time>2011-06-12T12:37:36Z</time>
      </trkpt>
      <trkpt lat="44.6826" lon="6.64491">
        <ele>1231.59</ele>
        <time>2011-06-12T12:37:37Z</time>
      </trkpt>
      <trkpt lat="44.68264" lon="6.64496">
        <ele>1232.55</ele>
        <time>2011-06-12T12:37:38Z</time>
      </trkpt>
      <trkpt lat="44.68267" lon="6.645">
        <ele>1232.07</ele>
        <time>2011-06-12T12:37:39Z</time>
      </trkpt>
      <trkpt lat="44.6828" lon="6.64532">
        <ele>1235.43</ele>
        <time>2011-06-12T12:37:50Z</time>
      </trkpt>
      <trkpt lat="44.68291" lon="6.64564">
        <ele>1238.32</ele>
        <time>2011-06-12T12:38:04Z</time>
      </trkpt>
      <trkpt lat="44.683" lon="6.64598">
        <ele>1240.72</ele>
        <time>2011-06-12T12:38:18Z</time>
      </trkpt>
      <trkpt lat="44.68311" lon="6.64637">
        <ele>1244.08</ele>
        <time>2011-06-12T12:38:34Z</time>
      </trkpt>
      <trkpt lat="44.68316" lon="6.64649">
        <ele>1247.93</ele>
        <time>2011-06-12T12:38:39Z</time>
      </trkpt>
      <trkpt lat="44.68321" lon="6.64656">
        <ele>1245.53</ele>
        <time>2011-06-12T12:38:42Z</time>
      </trkpt>
      <trkpt lat="44.68341" lon="6.64692">
        <ele>1247.45</ele>
        <time>2011-06-12T12:38:57Z</time>
      </trkpt>
      <trkpt lat="44.68346" lon="6.64732">
        <ele>1250.33</ele>
        <time>2011-06-12T12:39:11Z</time>
      </trkpt>
      <trkpt lat="44.68345" lon="6.64777">
        <ele>1253.22</ele>
        <time>2011-06-12T12:39:26Z</time>
      </trkpt>
      <trkpt lat="44.68328" lon="6.64813">
        <ele>1255.14</ele>
        <time>2011-06-12T12:39:40Z</time>
      </trkpt>
      <trkpt lat="44.6833" lon="6.64846">
        <ele>1257.54</ele>
        <time>2011-06-12T12:39:53Z</time>
      </trkpt>
      <trkpt lat="44.68336" lon="6.64882">
        <ele>1259.46</ele>
        <time>2011-06-12T12:40:05Z</time>
      </trkpt>
      <trkpt lat="44.68308" lon="6.64912">
        <ele>1261.39</ele>
        <time>2011-06-12T12:40:19Z</time>
      </trkpt>
      <trkpt lat="44.68285" lon="6.64947">
        <ele>1263.79</ele>
        <time>2011-06-12T12:40:34Z</time>
      </trkpt>
      <trkpt lat="44.68256" lon="6.64975">
        <ele>1266.67</ele>
        <time>2011-06-12T12:40:49Z</time>
      </trkpt>
      <trkpt lat="44.68232" lon="6.65006">
        <ele>1268.6</ele>
        <time>2011-06-12T12:41:04Z</time>
      </trkpt>
      <trkpt lat="44.68229" lon="6.65009">
        <ele>1269.56</ele>
        <time>2011-06-12T12:41:06Z</time>
      </trkpt>
      <trkpt lat="44.68204" lon="6.65036">
        <ele>1271.96</ele>
        <time>2011-06-12T12:41:20Z</time>
      </trkpt>
      <trkpt lat="44.68181" lon="6.65063">
        <ele>1275.33</ele>
        <time>2011-06-12T12:41:33Z</time>
      </trkpt>
      <trkpt lat="44.68169" lon="6.65094">
        <ele>1278.21</ele>
        <time>2011-06-12T12:41:47Z</time>
      </trkpt>
      <trkpt lat="44.6819" lon="6.65131">
        <ele>1280.13</ele>
        <time>2011-06-12T12:42:02Z</time>
      </trkpt>
      <trkpt lat="44.68207" lon="6.65171">
        <ele>1283.02</ele>
        <time>2011-06-12T12:42:18Z</time>
      </trkpt>
      <trkpt lat="44.6819" lon="6.652">
        <ele>1285.42</ele>
        <time>2011-06-12T12:42:31Z</time>
      </trkpt>
      <trkpt lat="44.68168" lon="6.6522">
        <ele>1285.42</ele>
        <time>2011-06-12T12:42:45Z</time>
      </trkpt>
      <trkpt lat="44.68154" lon="6.65228">
        <ele>1281.09</ele>
        <time>2011-06-12T12:42:50Z</time>
      </trkpt>
      <trkpt lat="44.6814" lon="6.65237">
        <ele>1277.73</ele>
        <time>2011-06-12T12:42:54Z</time>
      </trkpt>
      <trkpt lat="44.68122" lon="6.65236">
        <ele>1274.36</ele>
        <time>2011-06-12T12:42:57Z</time>
      </trkpt>
      <trkpt lat="44.68119" lon="6.65227">
        <ele>1271</ele>
        <time>2011-06-12T12:43:01Z</time>
      </trkpt>
      <trkpt lat="44.68127" lon="6.65207">
        <ele>1267.64</ele>
        <time>2011-06-12T12:43:04Z</time>
      </trkpt>
      <trkpt lat="44.68116" lon="6.65192">
        <ele>1263.31</ele>
        <time>2011-06-12T12:43:10Z</time>
      </trkpt>
      <trkpt lat="44.68094" lon="6.65194">
        <ele>1258.98</ele>
        <time>2011-06-12T12:43:14Z</time>
      </trkpt>
      <trkpt lat="44.68085" lon="6.65194">
        <ele>1256.58</ele>
        <time>2011-06-12T12:43:16Z</time>
      </trkpt>
      <trkpt lat="44.68077" lon="6.65199">
        <ele>1253.7</ele>
        <time>2011-06-12T12:43:20Z</time>
      </trkpt>
      <trkpt lat="44.68083" lon="6.65173">
        <ele>1248.89</ele>
        <time>2011-06-12T12:43:24Z</time>
      </trkpt>
      <trkpt lat="44.68084" lon="6.65158">
        <ele>1246.01</ele>
        <time>2011-06-12T12:43:28Z</time>
      </trkpt>
      <trkpt lat="44.68071" lon="6.65163">
        <ele>1243.6</ele>
        <time>2011-06-12T12:43:31Z</time>
      </trkpt>
      <trkpt lat="44.68058" lon="6.65171">
        <ele>1240.24</ele>
        <time>2011-06-12T12:43:33Z</time>
      </trkpt>
      <trkpt lat="44.68053" lon="6.65174">
        <ele>1240.24</ele>
        <time>2011-06-12T12:43:34Z</time>
      </trkpt>
      <trkpt lat="44.6804" lon="6.6518">
        <ele>1238.8</ele>
        <time>2011-06-12T12:43:36Z</time>
      </trkpt>
      <trkpt lat="44.68033" lon="6.65182">
        <ele>1237.35</ele>
        <time>2011-06-12T12:43:37Z</time>
      </trkpt>
      <trkpt lat="44.68014" lon="6.65188">
        <ele>1234.47</ele>
        <time>2011-06-12T12:43:40Z</time>
      </trkpt>
      <trkpt lat="44.6801" lon="6.65191">
        <ele>1233.51</ele>
        <time>2011-06-12T12:43:41Z</time>
      </trkpt>
      <trkpt lat="44.68007" lon="6.65192">
        <ele>1232.55</ele>
        <time>2011-06-12T12:43:42Z</time>
      </trkpt>
      <trkpt lat="44.68006" lon="6.6519">
        <ele>1231.59</ele>
        <time>2011-06-12T12:43:43Z</time>
      </trkpt>
      <trkpt lat="44.68007" lon="6.65187">
        <ele>1231.11</ele>
        <time>2011-06-12T12:43:44Z</time>
      </trkpt>
      <trkpt lat="44.68016" lon="6.65157">
        <ele>1227.26</ele>
        <time>2011-06-12T12:43:49Z</time>
      </trkpt>
      <trkpt lat="44.68028" lon="6.6513">
        <ele>1223.9</ele>
        <time>2011-06-12T12:43:52Z</time>
      </trkpt>
      <trkpt lat="44.68033" lon="6.65121">
        <ele>1222.93</ele>
        <time>2011-06-12T12:43:53Z</time>
      </trkpt>
      <trkpt lat="44.68047" lon="6.65098">
        <ele>1219.57</ele>
        <time>2011-06-12T12:43:56Z</time>
      </trkpt>
      <trkpt lat="44.6805" lon="6.65091">
        <ele>1218.61</ele>
        <time>2011-06-12T12:43:57Z</time>
      </trkpt>
      <trkpt lat="44.68052" lon="6.65086">
        <ele>1217.17</ele>
        <time>2011-06-12T12:43:58Z</time>
      </trkpt>
      <trkpt lat="44.68043" lon="6.65081">
        <ele>1215.24</ele>
        <time>2011-06-12T12:44:01Z</time>
      </trkpt>
      <trkpt lat="44.68037" lon="6.65082">
        <ele>1214.76</ele>
        <time>2011-06-12T12:44:02Z</time>
      </trkpt>
      <trkpt lat="44.68023" lon="6.65085">
        <ele>1211.88</ele>
        <time>2011-06-12T12:44:04Z</time>
      </trkpt>
      <trkpt lat="44.68014" lon="6.65087">
        <ele>1210.92</ele>
        <time>2011-06-12T12:44:05Z</time>
      </trkpt>
      <trkpt lat="44.67995" lon="6.65087">
        <ele>1208.51</ele>
        <time>2011-06-12T12:44:07Z</time>
      </trkpt>
      <trkpt lat="44.67967" lon="6.65089">
        <ele>1204.67</ele>
        <time>2011-06-12T12:44:10Z</time>
      </trkpt>
      <trkpt lat="44.67958" lon="6.6509">
        <ele>1203.23</ele>
        <time>2011-06-12T12:44:11Z</time>
      </trkpt>
      <trkpt lat="44.67933" lon="6.65096">
        <ele>1199.38</ele>
        <time>2011-06-12T12:44:14Z</time>
      </trkpt>
      <trkpt lat="44.67917" lon="6.65103">
        <ele>1198.42</ele>
        <time>2011-06-12T12:44:16Z</time>
      </trkpt>
      <trkpt lat="44.67894" lon="6.65123">
        <ele>1194.58</ele>
        <time>2011-06-12T12:44:20Z</time>
      </trkpt>
      <trkpt lat="44.67889" lon="6.65128">
        <ele>1193.61</ele>
        <time>2011-06-12T12:44:21Z</time>
      </trkpt>
      <trkpt lat="44.67883" lon="6.6513">
        <ele>1193.13</ele>
        <time>2011-06-12T12:44:22Z</time>
      </trkpt>
      <trkpt lat="44.67874" lon="6.65131">
        <ele>1190.73</ele>
        <time>2011-06-12T12:44:24Z</time>
      </trkpt>
      <trkpt lat="44.67873" lon="6.6513">
        <ele>1190.25</ele>
        <time>2011-06-12T12:44:25Z</time>
      </trkpt>
      <trkpt lat="44.67873" lon="6.65128">
        <ele>1189.77</ele>
        <time>2011-06-12T12:44:26Z</time>
      </trkpt>
      <trkpt lat="44.67874" lon="6.65125">
        <ele>1189.29</ele>
        <time>2011-06-12T12:44:27Z</time>
      </trkpt>
      <trkpt lat="44.67874" lon="6.65123">
        <ele>1188.81</ele>
        <time>2011-06-12T12:44:28Z</time>
      </trkpt>
      <trkpt lat="44.67877" lon="6.65123">
        <ele>1188.81</ele>
        <time>2011-06-12T12:44:29Z</time>
      </trkpt>
      <trkpt lat="44.6788" lon="6.65121">
        <ele>1187.85</ele>
        <time>2011-06-12T12:44:30Z</time>
      </trkpt>
      <trkpt lat="44.67884" lon="6.65116">
        <ele>1187.85</ele>
        <time>2011-06-12T12:44:31Z</time>
      </trkpt>
      <trkpt lat="44.67887" lon="6.6511">
        <ele>1186.88</ele>
        <time>2011-06-12T12:44:32Z</time>
      </trkpt>
      <trkpt lat="44.67891" lon="6.65101">
        <ele>1186.4</ele>
        <time>2011-06-12T12:44:33Z</time>
      </trkpt>
      <trkpt lat="44.67892" lon="6.65095">
        <ele>1185.44</ele>
        <time>2011-06-12T12:44:34Z</time>
      </trkpt>
      <trkpt lat="44.67892" lon="6.65091">
        <ele>1184.96</ele>
        <time>2011-06-12T12:44:35Z</time>
      </trkpt>
      <trkpt lat="44.67891" lon="6.65089">
        <ele>1184</ele>
        <time>2011-06-12T12:44:36Z</time>
      </trkpt>
      <trkpt lat="44.67888" lon="6.6509">
        <ele>1183.52</ele>
        <time>2011-06-12T12:44:37Z</time>
      </trkpt>
      <trkpt lat="44.67873" lon="6.65095">
        <ele>1181.12</ele>
        <time>2011-06-12T12:44:40Z</time>
      </trkpt>
      <trkpt lat="44.67868" lon="6.65103">
        <ele>1181.12</ele>
        <time>2011-06-12T12:44:41Z</time>
      </trkpt>
      <trkpt lat="44.67864" lon="6.65108">
        <ele>1178.71</ele>
        <time>2011-06-12T12:44:42Z</time>
      </trkpt>
      <trkpt lat="44.6786" lon="6.65114">
        <ele>1178.71</ele>
        <time>2011-06-12T12:44:43Z</time>
      </trkpt>
      <trkpt lat="44.67857" lon="6.65115">
        <ele>1177.75</ele>
        <time>2011-06-12T12:44:45Z</time>
      </trkpt>
      <trkpt lat="44.67861" lon="6.65099">
        <ele>1174.87</ele>
        <time>2011-06-12T12:44:49Z</time>
      </trkpt>
      <trkpt lat="44.67858" lon="6.651">
        <ele>1173.43</ele>
        <time>2011-06-12T12:44:50Z</time>
      </trkpt>
      <trkpt lat="44.67855" lon="6.65103">
        <ele>1172.95</ele>
        <time>2011-06-12T12:44:51Z</time>
      </trkpt>
      <trkpt lat="44.67851" lon="6.65106">
        <ele>1172.47</ele>
        <time>2011-06-12T12:44:52Z</time>
      </trkpt>
      <trkpt lat="44.6785" lon="6.65107">
        <ele>1171.5</ele>
        <time>2011-06-12T12:44:53Z</time>
      </trkpt>
      <trkpt lat="44.6785" lon="6.65104">
        <ele>1170.54</ele>
        <time>2011-06-12T12:44:54Z</time>
      </trkpt>
      <trkpt lat="44.67851" lon="6.651">
        <ele>1170.06</ele>
        <time>2011-06-12T12:44:55Z</time>
      </trkpt>
      <trkpt lat="44.67851" lon="6.65087">
        <ele>1169.1</ele>
        <time>2011-06-12T12:44:57Z</time>
      </trkpt>
      <trkpt lat="44.67848" lon="6.65085">
        <ele>1168.62</ele>
        <time>2011-06-12T12:44:58Z</time>
      </trkpt>
      <trkpt lat="44.67844" lon="6.65086">
        <ele>1167.66</ele>
        <time>2011-06-12T12:44:59Z</time>
      </trkpt>
      <trkpt lat="44.6784" lon="6.65091">
        <ele>1166.22</ele>
        <time>2011-06-12T12:45:00Z</time>
      </trkpt>
      <trkpt lat="44.67838" lon="6.65096">
        <ele>1165.74</ele>
        <time>2011-06-12T12:45:01Z</time>
      </trkpt>
      <trkpt lat="44.67835" lon="6.65098">
        <ele>1164.29</ele>
        <time>2011-06-12T12:45:03Z</time>
      </trkpt>
      <trkpt lat="44.67835" lon="6.65083">
        <ele>1161.41</ele>
        <time>2011-06-12T12:45:06Z</time>
      </trkpt>
      <trkpt lat="44.67834" lon="6.65076">
        <ele>1161.41</ele>
        <time>2011-06-12T12:45:07Z</time>
      </trkpt>
      <trkpt lat="44.67833" lon="6.65061">
        <ele>1158.05</ele>
        <time>2011-06-12T12:45:09Z</time>
      </trkpt>
      <trkpt lat="44.67832" lon="6.65053">
        <ele>1156.6</ele>
        <time>2011-06-12T12:45:10Z</time>
      </trkpt>
      <trkpt lat="44.67831" lon="6.65048">
        <ele>1155.64</ele>
        <time>2011-06-12T12:45:11Z</time>
      </trkpt>
      <trkpt lat="44.67828" lon="6.65048">
        <ele>1154.68</ele>
        <time>2011-06-12T12:45:12Z</time>
      </trkpt>
      <trkpt lat="44.67824" lon="6.65055">
        <ele>1154.68</ele>
        <time>2011-06-12T12:45:14Z</time>
      </trkpt>
      <trkpt lat="44.67822" lon="6.6506">
        <ele>1154.68</ele>
        <time>2011-06-12T12:45:15Z</time>
      </trkpt>
      <trkpt lat="44.67817" lon="6.65073">
        <ele>1153.24</ele>
        <time>2011-06-12T12:45:17Z</time>
      </trkpt>
      <trkpt lat="44.67812" lon="6.65078">
        <ele>1153.24</ele>
        <time>2011-06-12T12:45:18Z</time>
      </trkpt>
      <trkpt lat="44.67807" lon="6.65082">
        <ele>1152.28</ele>
        <time>2011-06-12T12:45:19Z</time>
      </trkpt>
      <trkpt lat="44.67802" lon="6.65085">
        <ele>1151.32</ele>
        <time>2011-06-12T12:45:20Z</time>
      </trkpt>
      <trkpt lat="44.67798" lon="6.65084">
        <ele>1150.84</ele>
        <time>2011-06-12T12:45:21Z</time>
      </trkpt>
      <trkpt lat="44.67792" lon="6.65085">
        <ele>1151.32</ele>
        <time>2011-06-12T12:45:22Z</time>
      </trkpt>
      <trkpt lat="44.67788" lon="6.65087">
        <ele>1151.32</ele>
        <time>2011-06-12T12:45:23Z</time>
      </trkpt>
      <trkpt lat="44.67765" lon="6.65103">
        <ele>1152.28</ele>
        <time>2011-06-12T12:45:29Z</time>
      </trkpt>
      <trkpt lat="44.67761" lon="6.65104">
        <ele>1152.28</ele>
        <time>2011-06-12T12:45:30Z</time>
      </trkpt>
      <trkpt lat="44.67752" lon="6.65104">
        <ele>1151.8</ele>
        <time>2011-06-12T12:45:32Z</time>
      </trkpt>
      <trkpt lat="44.67737" lon="6.65112">
        <ele>1151.32</ele>
        <time>2011-06-12T12:45:35Z</time>
      </trkpt>
      <trkpt lat="44.67734" lon="6.65116">
        <ele>1151.32</ele>
        <time>2011-06-12T12:45:36Z</time>
      </trkpt>
      <trkpt lat="44.67732" lon="6.65121">
        <ele>1151.8</ele>
        <time>2011-06-12T12:45:37Z</time>
      </trkpt>
      <trkpt lat="44.67731" lon="6.65128">
        <ele>1151.32</ele>
        <time>2011-06-12T12:45:38Z</time>
      </trkpt>
      <trkpt lat="44.67732" lon="6.6514">
        <ele>1151.32</ele>
        <time>2011-06-12T12:45:39Z</time>
      </trkpt>
      <trkpt lat="44.67731" lon="6.65147">
        <ele>1151.8</ele>
        <time>2011-06-12T12:45:40Z</time>
      </trkpt>
      <trkpt lat="44.6773" lon="6.65155">
        <ele>1151.32</ele>
        <time>2011-06-12T12:45:41Z</time>
      </trkpt>
      <trkpt lat="44.67727" lon="6.65162">
        <ele>1151.32</ele>
        <time>2011-06-12T12:45:42Z</time>
      </trkpt>
      <trkpt lat="44.67723" lon="6.65168">
        <ele>1151.32</ele>
        <time>2011-06-12T12:45:43Z</time>
      </trkpt>
      <trkpt lat="44.67719" lon="6.65173">
        <ele>1150.84</ele>
        <time>2011-06-12T12:45:44Z</time>
      </trkpt>
      <trkpt lat="44.67715" lon="6.65177">
        <ele>1150.84</ele>
        <time>2011-06-12T12:45:45Z</time>
      </trkpt>
      <trkpt lat="44.67711" lon="6.65181">
        <ele>1150.35</ele>
        <time>2011-06-12T12:45:46Z</time>
      </trkpt>
      <trkpt lat="44.67701" lon="6.65189">
        <ele>1150.35</ele>
        <time>2011-06-12T12:45:48Z</time>
      </trkpt>
      <trkpt lat="44.67697" lon="6.65194">
        <ele>1149.87</ele>
        <time>2011-06-12T12:45:49Z</time>
      </trkpt>
      <trkpt lat="44.67692" lon="6.652">
        <ele>1149.39</ele>
        <time>2011-06-12T12:45:50Z</time>
      </trkpt>
      <trkpt lat="44.67682" lon="6.6521">
        <ele>1148.91</ele>
        <time>2011-06-12T12:45:52Z</time>
      </trkpt>
      <trkpt lat="44.67677" lon="6.65213">
        <ele>1149.39</ele>
        <time>2011-06-12T12:45:53Z</time>
      </trkpt>
      <trkpt lat="44.67672" lon="6.65214">
        <ele>1149.39</ele>
        <time>2011-06-12T12:45:54Z</time>
      </trkpt>
      <trkpt lat="44.67667" lon="6.65215">
        <ele>1148.91</ele>
        <time>2011-06-12T12:45:55Z</time>
      </trkpt>
      <trkpt lat="44.67661" lon="6.65215">
        <ele>1148.91</ele>
        <time>2011-06-12T12:45:56Z</time>
      </trkpt>
      <trkpt lat="44.67636" lon="6.65218">
        <ele>1147.47</ele>
        <time>2011-06-12T12:46:00Z</time>
      </trkpt>
      <trkpt lat="44.6763" lon="6.6522">
        <ele>1147.95</ele>
        <time>2011-06-12T12:46:01Z</time>
      </trkpt>
      <trkpt lat="44.67623" lon="6.65222">
        <ele>1147.95</ele>
        <time>2011-06-12T12:46:02Z</time>
      </trkpt>
      <trkpt lat="44.67611" lon="6.6523">
        <ele>1146.99</ele>
        <time>2011-06-12T12:46:04Z</time>
      </trkpt>
      <trkpt lat="44.67606" lon="6.65236">
        <ele>1146.99</ele>
        <time>2011-06-12T12:46:05Z</time>
      </trkpt>
      <trkpt lat="44.67602" lon="6.65244">
        <ele>1146.51</ele>
        <time>2011-06-12T12:46:06Z</time>
      </trkpt>
      <trkpt lat="44.67594" lon="6.65255">
        <ele>1146.51</ele>
        <time>2011-06-12T12:46:08Z</time>
      </trkpt>
      <trkpt lat="44.6759" lon="6.65258">
        <ele>1146.51</ele>
        <time>2011-06-12T12:46:09Z</time>
      </trkpt>
      <trkpt lat="44.6758" lon="6.65259">
        <ele>1145.55</ele>
        <time>2011-06-12T12:46:11Z</time>
      </trkpt>
      <trkpt lat="44.67539" lon="6.65265">
        <ele>1144.11</ele>
        <time>2011-06-12T12:46:20Z</time>
      </trkpt>
      <trkpt lat="44.67494" lon="6.65289">
        <ele>1146.03</ele>
        <time>2011-06-12T12:46:32Z</time>
      </trkpt>
      <trkpt lat="44.67493" lon="6.65295">
        <ele>1146.03</ele>
        <time>2011-06-12T12:46:33Z</time>
      </trkpt>
      <trkpt lat="44.67493" lon="6.65301">
        <ele>1146.51</ele>
        <time>2011-06-12T12:46:34Z</time>
      </trkpt>
      <trkpt lat="44.67493" lon="6.65308">
        <ele>1146.03</ele>
        <time>2011-06-12T12:46:35Z</time>
      </trkpt>
      <trkpt lat="44.67495" lon="6.65313">
        <ele>1146.03</ele>
        <time>2011-06-12T12:46:36Z</time>
      </trkpt>
      <trkpt lat="44.67497" lon="6.65318">
        <ele>1146.51</ele>
        <time>2011-06-12T12:46:37Z</time>
      </trkpt>
      <trkpt lat="44.67499" lon="6.65323">
        <ele>1146.03</ele>
        <time>2011-06-12T12:46:38Z</time>
      </trkpt>
      <trkpt lat="44.67502" lon="6.65329">
        <ele>1146.51</ele>
        <time>2011-06-12T12:46:39Z</time>
      </trkpt>
      <trkpt lat="44.67504" lon="6.65334">
        <ele>1146.51</ele>
        <time>2011-06-12T12:46:40Z</time>
      </trkpt>
      <trkpt lat="44.67506" lon="6.65339">
        <ele>1146.51</ele>
        <time>2011-06-12T12:46:41Z</time>
      </trkpt>
      <trkpt lat="44.67508" lon="6.65345">
        <ele>1146.51</ele>
        <time>2011-06-12T12:46:42Z</time>
      </trkpt>
      <trkpt lat="44.6751" lon="6.65352">
        <ele>1146.99</ele>
        <time>2011-06-12T12:46:43Z</time>
      </trkpt>
      <trkpt lat="44.67511" lon="6.65358">
        <ele>1146.99</ele>
        <time>2011-06-12T12:46:44Z</time>
      </trkpt>
      <trkpt lat="44.67512" lon="6.65365">
        <ele>1146.99</ele>
        <time>2011-06-12T12:46:45Z</time>
      </trkpt>
      <trkpt lat="44.67512" lon="6.65371">
        <ele>1146.51</ele>
        <time>2011-06-12T12:46:46Z</time>
      </trkpt>
      <trkpt lat="44.67508" lon="6.65399">
        <ele>1146.99</ele>
        <time>2011-06-12T12:46:51Z</time>
      </trkpt>
      <trkpt lat="44.67509" lon="6.65414">
        <ele>1146.03</ele>
        <time>2011-06-12T12:46:54Z</time>
      </trkpt>
      <trkpt lat="44.67509" lon="6.65409">
        <ele>1142.18</ele>
        <time>2011-06-12T12:46:59Z</time>
      </trkpt>
      <trkpt lat="44.67503" lon="6.65389">
        <ele>1138.34</ele>
        <time>2011-06-12T12:47:02Z</time>
      </trkpt>
      <trkpt lat="44.67503" lon="6.65383">
        <ele>1137.86</ele>
        <time>2011-06-12T12:47:03Z</time>
      </trkpt>
      <trkpt lat="44.67503" lon="6.65376">
        <ele>1136.9</ele>
        <time>2011-06-12T12:47:04Z</time>
      </trkpt>
      <trkpt lat="44.67502" lon="6.6537">
        <ele>1135.45</ele>
        <time>2011-06-12T12:47:05Z</time>
      </trkpt>
      <trkpt lat="44.675" lon="6.65367">
        <ele>1134.01</ele>
        <time>2011-06-12T12:47:06Z</time>
      </trkpt>
      <trkpt lat="44.67495" lon="6.65368">
        <ele>1133.05</ele>
        <time>2011-06-12T12:47:08Z</time>
      </trkpt>
      <trkpt lat="44.67491" lon="6.65369">
        <ele>1132.09</ele>
        <time>2011-06-12T12:47:09Z</time>
      </trkpt>
      <trkpt lat="44.67482" lon="6.65371">
        <ele>1128.73</ele>
        <time>2011-06-12T12:47:14Z</time>
      </trkpt>
      <trkpt lat="44.67479" lon="6.65358">
        <ele>1125.36</ele>
        <time>2011-06-12T12:47:19Z</time>
      </trkpt>
      <trkpt lat="44.67476" lon="6.65358">
        <ele>1124.4</ele>
        <time>2011-06-12T12:47:21Z</time>
      </trkpt>
      <trkpt lat="44.67472" lon="6.65343">
        <ele>1121.03</ele>
        <time>2011-06-12T12:47:26Z</time>
      </trkpt>
      <trkpt lat="44.67471" lon="6.65339">
        <ele>1118.63</ele>
        <time>2011-06-12T12:47:27Z</time>
      </trkpt>
      <trkpt lat="44.67462" lon="6.6532">
        <ele>1114.31</ele>
        <time>2011-06-12T12:47:31Z</time>
      </trkpt>
      <trkpt lat="44.6745" lon="6.65321">
        <ele>1109.98</ele>
        <time>2011-06-12T12:47:35Z</time>
      </trkpt>
      <trkpt lat="44.67448" lon="6.65319">
        <ele>1109.98</ele>
        <time>2011-06-12T12:47:36Z</time>
      </trkpt>
      <trkpt lat="44.67436" lon="6.65288">
        <ele>1106.13</ele>
        <time>2011-06-12T12:47:42Z</time>
      </trkpt>
      <trkpt lat="44.67431" lon="6.65272">
        <ele>1102.77</ele>
        <time>2011-06-12T12:47:47Z</time>
      </trkpt>
      <trkpt lat="44.67424" lon="6.65278">
        <ele>1099.89</ele>
        <time>2011-06-12T12:47:50Z</time>
      </trkpt>
      <trkpt lat="44.67421" lon="6.65284">
        <ele>1096.52</ele>
        <time>2011-06-12T12:47:52Z</time>
      </trkpt>
      <trkpt lat="44.67419" lon="6.65285">
        <ele>1093.16</ele>
        <time>2011-06-12T12:47:53Z</time>
      </trkpt>
      <trkpt lat="44.67418" lon="6.65288">
        <ele>1093.16</ele>
        <time>2011-06-12T12:47:54Z</time>
      </trkpt>
      <trkpt lat="44.67416" lon="6.65293">
        <ele>1091.71</ele>
        <time>2011-06-12T12:47:55Z</time>
      </trkpt>
      <trkpt lat="44.67411" lon="6.65303">
        <ele>1087.39</ele>
        <time>2011-06-12T12:47:57Z</time>
      </trkpt>
      <trkpt lat="44.674" lon="6.65317">
        <ele>1083.54</ele>
        <time>2011-06-12T12:48:00Z</time>
      </trkpt>
      <trkpt lat="44.67388" lon="6.65321">
        <ele>1079.7</ele>
        <time>2011-06-12T12:48:03Z</time>
      </trkpt>
      <trkpt lat="44.67382" lon="6.65258">
        <ele>1078.26</ele>
        <time>2011-06-12T12:48:16Z</time>
      </trkpt>
      <trkpt lat="44.67376" lon="6.65243">
        <ele>1074.41</ele>
        <time>2011-06-12T12:48:21Z</time>
      </trkpt>
      <trkpt lat="44.67377" lon="6.65236">
        <ele>1073.93</ele>
        <time>2011-06-12T12:48:23Z</time>
      </trkpt>
      <trkpt lat="44.67395" lon="6.65201">
        <ele>1074.41</ele>
        <time>2011-06-12T12:48:29Z</time>
      </trkpt>
      <trkpt lat="44.67405" lon="6.65169">
        <ele>1074.41</ele>
        <time>2011-06-12T12:48:33Z</time>
      </trkpt>
      <trkpt lat="44.67408" lon="6.65161">
        <ele>1074.41</ele>
        <time>2011-06-12T12:48:34Z</time>
      </trkpt>
      <trkpt lat="44.67414" lon="6.6514">
        <ele>1073.93</ele>
        <time>2011-06-12T12:48:37Z</time>
      </trkpt>
      <trkpt lat="44.67417" lon="6.65133">
        <ele>1073.45</ele>
        <time>2011-06-12T12:48:38Z</time>
      </trkpt>
      <trkpt lat="44.6742" lon="6.65126">
        <ele>1072.49</ele>
        <time>2011-06-12T12:48:39Z</time>
      </trkpt>
      <trkpt lat="44.67424" lon="6.6512">
        <ele>1072.49</ele>
        <time>2011-06-12T12:48:40Z</time>
      </trkpt>
      <trkpt lat="44.67446" lon="6.65092">
        <ele>1068.64</ele>
        <time>2011-06-12T12:48:44Z</time>
      </trkpt>
      <trkpt lat="44.67473" lon="6.65062">
        <ele>1064.8</ele>
        <time>2011-06-12T12:48:48Z</time>
      </trkpt>
      <trkpt lat="44.67485" lon="6.65046">
        <ele>1061.43</ele>
        <time>2011-06-12T12:48:50Z</time>
      </trkpt>
      <trkpt lat="44.6749" lon="6.65036">
        <ele>1060.47</ele>
        <time>2011-06-12T12:48:51Z</time>
      </trkpt>
      <trkpt lat="44.67493" lon="6.65026">
        <ele>1060.47</ele>
        <time>2011-06-12T12:48:52Z</time>
      </trkpt>
      <trkpt lat="44.67499" lon="6.65003">
        <ele>1058.07</ele>
        <time>2011-06-12T12:48:54Z</time>
      </trkpt>
      <trkpt lat="44.67499" lon="6.64989">
        <ele>1057.11</ele>
        <time>2011-06-12T12:48:55Z</time>
      </trkpt>
      <trkpt lat="44.67501" lon="6.64949">
        <ele>1055.18</ele>
        <time>2011-06-12T12:48:58Z</time>
      </trkpt>
      <trkpt lat="44.67502" lon="6.64909">
        <ele>1055.18</ele>
        <time>2011-06-12T12:49:02Z</time>
      </trkpt>
      <trkpt lat="44.67498" lon="6.64905">
        <ele>1054.7</ele>
        <time>2011-06-12T12:49:03Z</time>
      </trkpt>
      <trkpt lat="44.67493" lon="6.64903">
        <ele>1054.22</ele>
        <time>2011-06-12T12:49:04Z</time>
      </trkpt>
      <trkpt lat="44.67464" lon="6.64902">
        <ele>1049.9</ele>
        <time>2011-06-12T12:49:08Z</time>
      </trkpt>
      <trkpt lat="44.67454" lon="6.64903">
        <ele>1048.94</ele>
        <time>2011-06-12T12:49:09Z</time>
      </trkpt>
      <trkpt lat="44.67444" lon="6.64905">
        <ele>1048.45</ele>
        <time>2011-06-12T12:49:10Z</time>
      </trkpt>
      <trkpt lat="44.67434" lon="6.64905">
        <ele>1048.45</ele>
        <time>2011-06-12T12:49:11Z</time>
      </trkpt>
      <trkpt lat="44.67425" lon="6.64903">
        <ele>1047.97</ele>
        <time>2011-06-12T12:49:12Z</time>
      </trkpt>
      <trkpt lat="44.67417" lon="6.64901">
        <ele>1048.45</ele>
        <time>2011-06-12T12:49:13Z</time>
      </trkpt>
      <trkpt lat="44.67411" lon="6.64898">
        <ele>1048.94</ele>
        <time>2011-06-12T12:49:14Z</time>
      </trkpt>
      <trkpt lat="44.67405" lon="6.64894">
        <ele>1048.94</ele>
        <time>2011-06-12T12:49:15Z</time>
      </trkpt>
      <trkpt lat="44.6739" lon="6.6488">
        <ele>1047.97</ele>
        <time>2011-06-12T12:49:18Z</time>
      </trkpt>
      <trkpt lat="44.67385" lon="6.64877">
        <ele>1047.49</ele>
        <time>2011-06-12T12:49:19Z</time>
      </trkpt>
      <trkpt lat="44.6738" lon="6.64874">
        <ele>1046.53</ele>
        <time>2011-06-12T12:49:20Z</time>
      </trkpt>
      <trkpt lat="44.67374" lon="6.64872">
        <ele>1046.05</ele>
        <time>2011-06-12T12:49:21Z</time>
      </trkpt>
      <trkpt lat="44.67368" lon="6.64868">
        <ele>1045.09</ele>
        <time>2011-06-12T12:49:22Z</time>
      </trkpt>
      <trkpt lat="44.67363" lon="6.64866">
        <ele>1044.13</ele>
        <time>2011-06-12T12:49:23Z</time>
      </trkpt>
      <trkpt lat="44.67357" lon="6.64862">
        <ele>1042.69</ele>
        <time>2011-06-12T12:49:24Z</time>
      </trkpt>
      <trkpt lat="44.67352" lon="6.6486">
        <ele>1041.73</ele>
        <time>2011-06-12T12:49:25Z</time>
      </trkpt>
      <trkpt lat="44.67347" lon="6.64859">
        <ele>1040.76</ele>
        <time>2011-06-12T12:49:26Z</time>
      </trkpt>
      <trkpt lat="44.67342" lon="6.64858">
        <ele>1040.28</ele>
        <time>2011-06-12T12:49:27Z</time>
      </trkpt>
      <trkpt lat="44.67338" lon="6.64859">
        <ele>1039.32</ele>
        <time>2011-06-12T12:49:28Z</time>
      </trkpt>
      <trkpt lat="44.67335" lon="6.64862">
        <ele>1038.36</ele>
        <time>2011-06-12T12:49:29Z</time>
      </trkpt>
      <trkpt lat="44.6733" lon="6.64868">
        <ele>1037.4</ele>
        <time>2011-06-12T12:49:30Z</time>
      </trkpt>
      <trkpt lat="44.67326" lon="6.64875">
        <ele>1035.48</ele>
        <time>2011-06-12T12:49:31Z</time>
      </trkpt>
      <trkpt lat="44.67319" lon="6.64889">
        <ele>1032.59</ele>
        <time>2011-06-12T12:49:33Z</time>
      </trkpt>
      <trkpt lat="44.67316" lon="6.64895">
        <ele>1031.15</ele>
        <time>2011-06-12T12:49:34Z</time>
      </trkpt>
      <trkpt lat="44.6731" lon="6.64903">
        <ele>1027.79</ele>
        <time>2011-06-12T12:49:36Z</time>
      </trkpt>
      <trkpt lat="44.67308" lon="6.64903">
        <ele>1026.34</ele>
        <time>2011-06-12T12:49:37Z</time>
      </trkpt>
      <trkpt lat="44.67309" lon="6.64901">
        <ele>1026.34</ele>
        <time>2011-06-12T12:49:38Z</time>
      </trkpt>
      <trkpt lat="44.67309" lon="6.64898">
        <ele>1025.38</ele>
        <time>2011-06-12T12:49:39Z</time>
      </trkpt>
      <trkpt lat="44.67303" lon="6.64894">
        <ele>1021.54</ele>
        <time>2011-06-12T12:49:42Z</time>
      </trkpt>
      <trkpt lat="44.673" lon="6.64886">
        <ele>1018.17</ele>
        <time>2011-06-12T12:49:44Z</time>
      </trkpt>
      <trkpt lat="44.67301" lon="6.6488">
        <ele>1017.21</ele>
        <time>2011-06-12T12:49:45Z</time>
      </trkpt>
      <trkpt lat="44.67302" lon="6.64874">
        <ele>1017.21</ele>
        <time>2011-06-12T12:49:46Z</time>
      </trkpt>
      <trkpt lat="44.67304" lon="6.64868">
        <ele>1016.73</ele>
        <time>2011-06-12T12:49:47Z</time>
      </trkpt>
      <trkpt lat="44.67306" lon="6.64861">
        <ele>1016.73</ele>
        <time>2011-06-12T12:49:48Z</time>
      </trkpt>
      <trkpt lat="44.67307" lon="6.64853">
        <ele>1016.25</ele>
        <time>2011-06-12T12:49:49Z</time>
      </trkpt>
      <trkpt lat="44.67307" lon="6.64844">
        <ele>1016.25</ele>
        <time>2011-06-12T12:49:50Z</time>
      </trkpt>
      <trkpt lat="44.67307" lon="6.64826">
        <ele>1017.21</ele>
        <time>2011-06-12T12:49:52Z</time>
      </trkpt>
      <trkpt lat="44.67312" lon="6.64787">
        <ele>1015.77</ele>
        <time>2011-06-12T12:49:57Z</time>
      </trkpt>
      <trkpt lat="44.67311" lon="6.64778">
        <ele>1014.33</ele>
        <time>2011-06-12T12:49:58Z</time>
      </trkpt>
      <trkpt lat="44.67308" lon="6.64773">
        <ele>1012.89</ele>
        <time>2011-06-12T12:49:59Z</time>
      </trkpt>
      <trkpt lat="44.67302" lon="6.64771">
        <ele>1011.93</ele>
        <time>2011-06-12T12:50:00Z</time>
      </trkpt>
      <trkpt lat="44.67296" lon="6.64768">
        <ele>1010.96</ele>
        <time>2011-06-12T12:50:01Z</time>
      </trkpt>
      <trkpt lat="44.67289" lon="6.64764">
        <ele>1010.48</ele>
        <time>2011-06-12T12:50:02Z</time>
      </trkpt>
      <trkpt lat="44.67282" lon="6.64761">
        <ele>1009.52</ele>
        <time>2011-06-12T12:50:03Z</time>
      </trkpt>
      <trkpt lat="44.67275" lon="6.64757">
        <ele>1008.08</ele>
        <time>2011-06-12T12:50:04Z</time>
      </trkpt>
      <trkpt lat="44.67269" lon="6.64753">
        <ele>1007.6</ele>
        <time>2011-06-12T12:50:05Z</time>
      </trkpt>
      <trkpt lat="44.67262" lon="6.64748">
        <ele>1006.64</ele>
        <time>2011-06-12T12:50:06Z</time>
      </trkpt>
      <trkpt lat="44.67243" lon="6.64733">
        <ele>1003.27</ele>
        <time>2011-06-12T12:50:09Z</time>
      </trkpt>
      <trkpt lat="44.67238" lon="6.6473">
        <ele>1001.83</ele>
        <time>2011-06-12T12:50:10Z</time>
      </trkpt>
      <trkpt lat="44.67233" lon="6.64729">
        <ele>1000.87</ele>
        <time>2011-06-12T12:50:11Z</time>
      </trkpt>
      <trkpt lat="44.67228" lon="6.64724">
        <ele>998.47</ele>
        <time>2011-06-12T12:50:12Z</time>
      </trkpt>
      <trkpt lat="44.67226" lon="6.64717">
        <ele>997.99</ele>
        <time>2011-06-12T12:50:13Z</time>
      </trkpt>
      <trkpt lat="44.67224" lon="6.64708">
        <ele>997.02</ele>
        <time>2011-06-12T12:50:14Z</time>
      </trkpt>
      <trkpt lat="44.67224" lon="6.64699">
        <ele>995.1</ele>
        <time>2011-06-12T12:50:15Z</time>
      </trkpt>
      <trkpt lat="44.67224" lon="6.64689">
        <ele>992.7</ele>
        <time>2011-06-12T12:50:16Z</time>
      </trkpt>
      <trkpt lat="44.67225" lon="6.64678">
        <ele>990.78</ele>
        <time>2011-06-12T12:50:17Z</time>
      </trkpt>
      <trkpt lat="44.67226" lon="6.64667">
        <ele>988.85</ele>
        <time>2011-06-12T12:50:18Z</time>
      </trkpt>
      <trkpt lat="44.6723" lon="6.64646">
        <ele>985.01</ele>
        <time>2011-06-12T12:50:20Z</time>
      </trkpt>
      <trkpt lat="44.67232" lon="6.64634">
        <ele>981.16</ele>
        <time>2011-06-12T12:50:22Z</time>
      </trkpt>
      <trkpt lat="44.6723" lon="6.64622">
        <ele>978.76</ele>
        <time>2011-06-12T12:50:24Z</time>
      </trkpt>
      <trkpt lat="44.67224" lon="6.64604">
        <ele>973.95</ele>
        <time>2011-06-12T12:50:26Z</time>
      </trkpt>
      <trkpt lat="44.67219" lon="6.64592">
        <ele>972.51</ele>
        <time>2011-06-12T12:50:27Z</time>
      </trkpt>
      <trkpt lat="44.67217" lon="6.6458">
        <ele>971.55</ele>
        <time>2011-06-12T12:50:28Z</time>
      </trkpt>
      <trkpt lat="44.67216" lon="6.64569">
        <ele>970.59</ele>
        <time>2011-06-12T12:50:29Z</time>
      </trkpt>
      <trkpt lat="44.67217" lon="6.64558">
        <ele>970.59</ele>
        <time>2011-06-12T12:50:30Z</time>
      </trkpt>
      <trkpt lat="44.67217" lon="6.64549">
        <ele>970.59</ele>
        <time>2011-06-12T12:50:31Z</time>
      </trkpt>
      <trkpt lat="44.67217" lon="6.64541">
        <ele>969.63</ele>
        <time>2011-06-12T12:50:32Z</time>
      </trkpt>
      <trkpt lat="44.67215" lon="6.64535">
        <ele>968.18</ele>
        <time>2011-06-12T12:50:33Z</time>
      </trkpt>
      <trkpt lat="44.67211" lon="6.64532">
        <ele>967.22</ele>
        <time>2011-06-12T12:50:34Z</time>
      </trkpt>
      <trkpt lat="44.67206" lon="6.64531">
        <ele>966.26</ele>
        <time>2011-06-12T12:50:35Z</time>
      </trkpt>
      <trkpt lat="44.672" lon="6.64531">
        <ele>966.26</ele>
        <time>2011-06-12T12:50:36Z</time>
      </trkpt>
      <trkpt lat="44.67116" lon="6.64524">
        <ele>967.7</ele>
        <time>2011-06-12T12:50:48Z</time>
      </trkpt>
      <trkpt lat="44.67098" lon="6.64523">
        <ele>970.59</ele>
        <time>2011-06-12T12:50:54Z</time>
      </trkpt>
      <trkpt lat="44.67096" lon="6.64519">
        <ele>972.99</ele>
        <time>2011-06-12T12:51:05Z</time>
      </trkpt>
      <trkpt lat="44.67094" lon="6.6451">
        <ele>975.39</ele>
        <time>2011-06-12T12:51:18Z</time>
      </trkpt>
      <trkpt lat="44.67093" lon="6.64509">
        <ele>975.88</ele>
        <time>2011-06-12T12:51:19Z</time>
      </trkpt>
      <trkpt lat="44.67093" lon="6.64508">
        <ele>976.36</ele>
        <time>2011-06-12T12:51:20Z</time>
      </trkpt>
      <trkpt lat="44.6709" lon="6.64506">
        <ele>978.28</ele>
        <time>2011-06-12T12:51:25Z</time>
      </trkpt>
      <trkpt lat="44.67087" lon="6.64511">
        <ele>978.28</ele>
        <time>2011-06-12T12:51:30Z</time>
      </trkpt>
      <trkpt lat="44.67086" lon="6.64515">
        <ele>978.28</ele>
        <time>2011-06-12T12:51:33Z</time>
      </trkpt>
      <trkpt lat="44.67081" lon="6.64524">
        <ele>978.28</ele>
        <time>2011-06-12T12:51:41Z</time>
      </trkpt>
      <trkpt lat="44.67081" lon="6.6454">
        <ele>978.28</ele>
        <time>2011-06-12T12:51:45Z</time>
      </trkpt>
      <trkpt lat="44.67069" lon="6.64584">
        <ele>978.76</ele>
        <time>2011-06-12T12:51:56Z</time>
      </trkpt>
      <trkpt lat="44.67047" lon="6.64637">
        <ele>977.32</ele>
        <time>2011-06-12T12:52:08Z</time>
      </trkpt>
      <trkpt lat="44.67044" lon="6.64693">
        <ele>977.8</ele>
        <time>2011-06-12T12:52:21Z</time>
      </trkpt>
      <trkpt lat="44.67047" lon="6.64733">
        <ele>979.72</ele>
        <time>2011-06-12T12:52:33Z</time>
      </trkpt>
      <trkpt lat="44.67046" lon="6.64764">
        <ele>983.09</ele>
        <time>2011-06-12T12:52:44Z</time>
      </trkpt>
      <trkpt lat="44.67042" lon="6.6479">
        <ele>985.01</ele>
        <time>2011-06-12T12:52:59Z</time>
      </trkpt>
      <trkpt lat="44.67038" lon="6.64778">
        <ele>988.37</ele>
        <time>2011-06-12T12:53:13Z</time>
      </trkpt>
      <trkpt lat="44.67037" lon="6.64778">
        <ele>990.78</ele>
        <time>2011-06-12T12:53:26Z</time>
      </trkpt>
      <trkpt lat="44.67036" lon="6.64779">
        <ele>991.26</ele>
        <time>2011-06-12T12:53:27Z</time>
      </trkpt>
      <trkpt lat="44.67036" lon="6.64782">
        <ele>991.74</ele>
        <time>2011-06-12T12:53:29Z</time>
      </trkpt>
      <trkpt lat="44.67027" lon="6.648">
        <ele>994.14</ele>
        <time>2011-06-12T12:53:45Z</time>
      </trkpt>
      <trkpt lat="44.67021" lon="6.6481">
        <ele>997.02</ele>
        <time>2011-06-12T12:53:57Z</time>
      </trkpt>
      <trkpt lat="44.67018" lon="6.64821">
        <ele>999.91</ele>
        <time>2011-06-12T12:54:12Z</time>
      </trkpt>
      <trkpt lat="44.67015" lon="6.6483">
        <ele>1003.27</ele>
        <time>2011-06-12T12:54:25Z</time>
      </trkpt>
      <trkpt lat="44.67016" lon="6.64844">
        <ele>1005.2</ele>
        <time>2011-06-12T12:54:38Z</time>
      </trkpt>
      <trkpt lat="44.67012" lon="6.64856">
        <ele>1008.56</ele>
        <time>2011-06-12T12:54:52Z</time>
      </trkpt>
      <trkpt lat="44.67009" lon="6.64866">
        <ele>1010</ele>
        <time>2011-06-12T12:55:06Z</time>
      </trkpt>
      <trkpt lat="44.67011" lon="6.6489">
        <ele>1011.44</ele>
        <time>2011-06-12T12:55:17Z</time>
      </trkpt>
      <trkpt lat="44.67009" lon="6.64905">
        <ele>1012.41</ele>
        <time>2011-06-12T12:55:24Z</time>
      </trkpt>
      <trkpt lat="44.67019" lon="6.64932">
        <ele>1015.29</ele>
        <time>2011-06-12T12:55:39Z</time>
      </trkpt>
      <trkpt lat="44.6702" lon="6.64943">
        <ele>1016.73</ele>
        <time>2011-06-12T12:55:48Z</time>
      </trkpt>
      <trkpt lat="44.67023" lon="6.64963">
        <ele>1018.65</ele>
        <time>2011-06-12T12:55:58Z</time>
      </trkpt>
      <trkpt lat="44.67024" lon="6.64964">
        <ele>1019.13</ele>
        <time>2011-06-12T12:55:59Z</time>
      </trkpt>
      <trkpt lat="44.67032" lon="6.6498">
        <ele>1021.54</ele>
        <time>2011-06-12T12:56:13Z</time>
      </trkpt>
      <trkpt lat="44.67031" lon="6.64984">
        <ele>1022.02</ele>
        <time>2011-06-12T12:56:15Z</time>
      </trkpt>
      <trkpt lat="44.67034" lon="6.64999">
        <ele>1023.46</ele>
        <time>2011-06-12T12:56:25Z</time>
      </trkpt>
      <trkpt lat="44.67037" lon="6.65027">
        <ele>1025.86</ele>
        <time>2011-06-12T12:56:42Z</time>
      </trkpt>
      <trkpt lat="44.67034" lon="6.65031">
        <ele>1021.54</ele>
        <time>2011-06-12T12:56:49Z</time>
      </trkpt>
      <trkpt lat="44.67034" lon="6.65032">
        <ele>1027.79</ele>
        <time>2011-06-12T12:56:50Z</time>
      </trkpt>
      <trkpt lat="44.6703" lon="6.65031">
        <ele>1030.67</ele>
        <time>2011-06-12T12:57:02Z</time>
      </trkpt>
      <trkpt lat="44.67028" lon="6.65037">
        <ele>1031.15</ele>
        <time>2011-06-12T12:57:09Z</time>
      </trkpt>
      <trkpt lat="44.67021" lon="6.65046">
        <ele>1033.55</ele>
        <time>2011-06-12T12:57:21Z</time>
      </trkpt>
      <trkpt lat="44.67015" lon="6.65063">
        <ele>1035.96</ele>
        <time>2011-06-12T12:57:36Z</time>
      </trkpt>
      <trkpt lat="44.67014" lon="6.65072">
        <ele>1037.88</ele>
        <time>2011-06-12T12:57:44Z</time>
      </trkpt>
      <trkpt lat="44.6701" lon="6.65076">
        <ele>1040.28</ele>
        <time>2011-06-12T12:57:57Z</time>
      </trkpt>
      <trkpt lat="44.67008" lon="6.65082">
        <ele>1042.69</ele>
        <time>2011-06-12T12:58:10Z</time>
      </trkpt>
      <trkpt lat="44.67006" lon="6.65093">
        <ele>1044.61</ele>
        <time>2011-06-12T12:58:24Z</time>
      </trkpt>
      <trkpt lat="44.66998" lon="6.65103">
        <ele>1047.01</ele>
        <time>2011-06-12T12:58:41Z</time>
      </trkpt>
      <trkpt lat="44.66991" lon="6.65104">
        <ele>1048.94</ele>
        <time>2011-06-12T12:58:54Z</time>
      </trkpt>
      <trkpt lat="44.66986" lon="6.65104">
        <ele>1050.86</ele>
        <time>2011-06-12T12:59:07Z</time>
      </trkpt>
      <trkpt lat="44.66977" lon="6.65095">
        <ele>1052.3</ele>
        <time>2011-06-12T12:59:23Z</time>
      </trkpt>
      <trkpt lat="44.66977" lon="6.65094">
        <ele>1052.78</ele>
        <time>2011-06-12T12:59:27Z</time>
      </trkpt>
      <trkpt lat="44.66972" lon="6.65081">
        <ele>1052.78</ele>
        <time>2011-06-12T12:59:36Z</time>
      </trkpt>
      <trkpt lat="44.66974" lon="6.65072">
        <ele>1053.26</ele>
        <time>2011-06-12T12:59:41Z</time>
      </trkpt>
      <trkpt lat="44.66975" lon="6.65059">
        <ele>1053.74</ele>
        <time>2011-06-12T12:59:47Z</time>
      </trkpt>
      <trkpt lat="44.66978" lon="6.65036">
        <ele>1054.7</ele>
        <time>2011-06-12T12:59:56Z</time>
      </trkpt>
      <trkpt lat="44.66975" lon="6.65029">
        <ele>1055.67</ele>
        <time>2011-06-12T13:00:04Z</time>
      </trkpt>
      <trkpt lat="44.6697" lon="6.65041">
        <ele>1055.67</ele>
        <time>2011-06-12T13:00:08Z</time>
      </trkpt>
      <trkpt lat="44.66959" lon="6.65078">
        <ele>1058.07</ele>
        <time>2011-06-12T13:00:24Z</time>
      </trkpt>
      <trkpt lat="44.66955" lon="6.65112">
        <ele>1060.47</ele>
        <time>2011-06-12T13:00:38Z</time>
      </trkpt>
      <trkpt lat="44.66959" lon="6.65149">
        <ele>1062.87</ele>
        <time>2011-06-12T13:00:53Z</time>
      </trkpt>
      <trkpt lat="44.66962" lon="6.65195">
        <ele>1065.28</ele>
        <time>2011-06-12T13:01:08Z</time>
      </trkpt>
      <trkpt lat="44.66972" lon="6.65227">
        <ele>1066.72</ele>
        <time>2011-06-12T13:01:23Z</time>
      </trkpt>
      <trkpt lat="44.66972" lon="6.65257">
        <ele>1069.12</ele>
        <time>2011-06-12T13:01:37Z</time>
      </trkpt>
      <trkpt lat="44.66971" lon="6.65275">
        <ele>1072.01</ele>
        <time>2011-06-12T13:01:47Z</time>
      </trkpt>
      <trkpt lat="44.66961" lon="6.65303">
        <ele>1075.37</ele>
        <time>2011-06-12T13:02:02Z</time>
      </trkpt>
      <trkpt lat="44.6696" lon="6.65305">
        <ele>1075.85</ele>
        <time>2011-06-12T13:02:03Z</time>
      </trkpt>
      <trkpt lat="44.66954" lon="6.65326">
        <ele>1077.29</ele>
        <time>2011-06-12T13:02:17Z</time>
      </trkpt>
      <trkpt lat="44.66952" lon="6.65343">
        <ele>1080.18</ele>
        <time>2011-06-12T13:02:30Z</time>
      </trkpt>
      <trkpt lat="44.66948" lon="6.65368">
        <ele>1082.58</ele>
        <time>2011-06-12T13:02:46Z</time>
      </trkpt>
      <trkpt lat="44.66943" lon="6.65393">
        <ele>1084.02</ele>
        <time>2011-06-12T13:03:01Z</time>
      </trkpt>
      <trkpt lat="44.66934" lon="6.65413">
        <ele>1087.39</ele>
        <time>2011-06-12T13:03:17Z</time>
      </trkpt>
      <trkpt lat="44.66928" lon="6.65419">
        <ele>1088.35</ele>
        <time>2011-06-12T13:03:25Z</time>
      </trkpt>
      <trkpt lat="44.66913" lon="6.65417">
        <ele>1091.23</ele>
        <time>2011-06-12T13:03:41Z</time>
      </trkpt>
      <trkpt lat="44.6691" lon="6.65415">
        <ele>1091.71</ele>
        <time>2011-06-12T13:03:44Z</time>
      </trkpt>
      <trkpt lat="44.66907" lon="6.65418">
        <ele>1092.68</ele>
        <time>2011-06-12T13:03:47Z</time>
      </trkpt>
      <trkpt lat="44.66908" lon="6.65443">
        <ele>1094.12</ele>
        <time>2011-06-12T13:04:01Z</time>
      </trkpt>
      <trkpt lat="44.66897" lon="6.6549">
        <ele>1095.08</ele>
        <time>2011-06-12T13:04:16Z</time>
      </trkpt>
      <trkpt lat="44.66891" lon="6.65509">
        <ele>1094.6</ele>
        <time>2011-06-12T13:04:20Z</time>
      </trkpt>
      <trkpt lat="44.6689" lon="6.65515">
        <ele>1094.12</ele>
        <time>2011-06-12T13:04:21Z</time>
      </trkpt>
      <trkpt lat="44.66891" lon="6.65521">
        <ele>1093.64</ele>
        <time>2011-06-12T13:04:22Z</time>
      </trkpt>
      <trkpt lat="44.66891" lon="6.65527">
        <ele>1093.64</ele>
        <time>2011-06-12T13:04:23Z</time>
      </trkpt>
      <trkpt lat="44.66892" lon="6.65532">
        <ele>1093.16</ele>
        <time>2011-06-12T13:04:24Z</time>
      </trkpt>
      <trkpt lat="44.66894" lon="6.65538">
        <ele>1093.16</ele>
        <time>2011-06-12T13:04:25Z</time>
      </trkpt>
      <trkpt lat="44.66896" lon="6.65543">
        <ele>1093.16</ele>
        <time>2011-06-12T13:04:26Z</time>
      </trkpt>
      <trkpt lat="44.66901" lon="6.65559">
        <ele>1092.68</ele>
        <time>2011-06-12T13:04:28Z</time>
      </trkpt>
      <trkpt lat="44.66902" lon="6.65567">
        <ele>1092.68</ele>
        <time>2011-06-12T13:04:29Z</time>
      </trkpt>
      <trkpt lat="44.66903" lon="6.65574">
        <ele>1092.68</ele>
        <time>2011-06-12T13:04:30Z</time>
      </trkpt>
      <trkpt lat="44.66905" lon="6.65618">
        <ele>1092.68</ele>
        <time>2011-06-12T13:04:36Z</time>
      </trkpt>
      <trkpt lat="44.66901" lon="6.65645">
        <ele>1091.71</ele>
        <time>2011-06-12T13:04:40Z</time>
      </trkpt>
      <trkpt lat="44.66899" lon="6.65651">
        <ele>1091.71</ele>
        <time>2011-06-12T13:04:41Z</time>
      </trkpt>
      <trkpt lat="44.66895" lon="6.65655">
        <ele>1091.71</ele>
        <time>2011-06-12T13:04:42Z</time>
      </trkpt>
      <trkpt lat="44.66884" lon="6.6569">
        <ele>1093.64</ele>
        <time>2011-06-12T13:04:50Z</time>
      </trkpt>
      <trkpt lat="44.66865" lon="6.65713">
        <ele>1094.12</ele>
        <time>2011-06-12T13:04:57Z</time>
      </trkpt>
      <trkpt lat="44.66847" lon="6.65725">
        <ele>1095.56</ele>
        <time>2011-06-12T13:05:07Z</time>
      </trkpt>
      <trkpt lat="44.6684" lon="6.6573">
        <ele>1097.48</ele>
        <time>2011-06-12T13:05:13Z</time>
      </trkpt>
      <trkpt lat="44.66827" lon="6.65736">
        <ele>1098.92</ele>
        <time>2011-06-12T13:05:22Z</time>
      </trkpt>
      <trkpt lat="44.66818" lon="6.6574">
        <ele>1100.37</ele>
        <time>2011-06-12T13:05:34Z</time>
      </trkpt>
      <trkpt lat="44.66812" lon="6.65744">
        <ele>1102.29</ele>
        <time>2011-06-12T13:05:42Z</time>
      </trkpt>
      <trkpt lat="44.66797" lon="6.65756">
        <ele>1105.17</ele>
        <time>2011-06-12T13:05:59Z</time>
      </trkpt>
      <trkpt lat="44.6679" lon="6.65775">
        <ele>1108.06</ele>
        <time>2011-06-12T13:06:15Z</time>
      </trkpt>
      <trkpt lat="44.66788" lon="6.65778">
        <ele>1108.54</ele>
        <time>2011-06-12T13:06:17Z</time>
      </trkpt>
      <trkpt lat="44.6677" lon="6.65789">
        <ele>1111.42</ele>
        <time>2011-06-12T13:06:36Z</time>
      </trkpt>
      <trkpt lat="44.66753" lon="6.65804">
        <ele>1114.31</ele>
        <time>2011-06-12T13:06:51Z</time>
      </trkpt>
      <trkpt lat="44.66749" lon="6.65811">
        <ele>1114.79</ele>
        <time>2011-06-12T13:06:57Z</time>
      </trkpt>
      <trkpt lat="44.66744" lon="6.65815">
        <ele>1115.27</ele>
        <time>2011-06-12T13:07:00Z</time>
      </trkpt>
      <trkpt lat="44.66721" lon="6.65843">
        <ele>1117.67</ele>
        <time>2011-06-12T13:07:17Z</time>
      </trkpt>
      <trkpt lat="44.66701" lon="6.65874">
        <ele>1119.11</ele>
        <time>2011-06-12T13:07:32Z</time>
      </trkpt>
      <trkpt lat="44.66686" lon="6.65902">
        <ele>1120.07</ele>
        <time>2011-06-12T13:07:45Z</time>
      </trkpt>
      <trkpt lat="44.66661" lon="6.65911">
        <ele>1122</ele>
        <time>2011-06-12T13:07:58Z</time>
      </trkpt>
      <trkpt lat="44.66657" lon="6.65903">
        <ele>1122.96</ele>
        <time>2011-06-12T13:08:03Z</time>
      </trkpt>
      <trkpt lat="44.66655" lon="6.65891">
        <ele>1126.32</ele>
        <time>2011-06-12T13:08:10Z</time>
      </trkpt>
      <trkpt lat="44.66655" lon="6.65889">
        <ele>1129.69</ele>
        <time>2011-06-12T13:08:11Z</time>
      </trkpt>
      <trkpt lat="44.66654" lon="6.65887">
        <ele>1126.32</ele>
        <time>2011-06-12T13:08:12Z</time>
      </trkpt>
      <trkpt lat="44.6665" lon="6.65879">
        <ele>1127.28</ele>
        <time>2011-06-12T13:08:17Z</time>
      </trkpt>
      <trkpt lat="44.66627" lon="6.65868">
        <ele>1129.21</ele>
        <time>2011-06-12T13:08:31Z</time>
      </trkpt>
      <trkpt lat="44.66583" lon="6.65862">
        <ele>1129.69</ele>
        <time>2011-06-12T13:08:47Z</time>
      </trkpt>
      <trkpt lat="44.66539" lon="6.65847">
        <ele>1129.21</ele>
        <time>2011-06-12T13:09:00Z</time>
      </trkpt>
      <trkpt lat="44.66539" lon="6.65851">
        <ele>1128.73</ele>
        <time>2011-06-12T13:09:13Z</time>
      </trkpt>
      <trkpt lat="44.66537" lon="6.65847">
        <ele>1129.21</ele>
        <time>2011-06-12T13:09:19Z</time>
      </trkpt>
      <trkpt lat="44.66536" lon="6.65845">
        <ele>1129.21</ele>
        <time>2011-06-12T13:09:21Z</time>
      </trkpt>
      <trkpt lat="44.66514" lon="6.65807">
        <ele>1128.73</ele>
        <time>2011-06-12T13:09:35Z</time>
      </trkpt>
      <trkpt lat="44.66476" lon="6.65732">
        <ele>1127.76</ele>
        <time>2011-06-12T13:09:48Z</time>
      </trkpt>
      <trkpt lat="44.66472" lon="6.65726">
        <ele>1127.28</ele>
        <time>2011-06-12T13:09:49Z</time>
      </trkpt>
      <trkpt lat="44.66463" lon="6.65715">
        <ele>1125.84</ele>
        <time>2011-06-12T13:09:51Z</time>
      </trkpt>
      <trkpt lat="44.66459" lon="6.65707">
        <ele>1124.88</ele>
        <time>2011-06-12T13:09:52Z</time>
      </trkpt>
      <trkpt lat="44.6644" lon="6.65657">
        <ele>1122</ele>
        <time>2011-06-12T13:09:57Z</time>
      </trkpt>
      <trkpt lat="44.66418" lon="6.65604">
        <ele>1118.63</ele>
        <time>2011-06-12T13:10:02Z</time>
      </trkpt>
      <trkpt lat="44.66399" lon="6.65559">
        <ele>1114.79</ele>
        <time>2011-06-12T13:10:06Z</time>
      </trkpt>
      <trkpt lat="44.66396" lon="6.65547">
        <ele>1113.82</ele>
        <time>2011-06-12T13:10:07Z</time>
      </trkpt>
      <trkpt lat="44.66394" lon="6.65536">
        <ele>1113.82</ele>
        <time>2011-06-12T13:10:08Z</time>
      </trkpt>
      <trkpt lat="44.66384" lon="6.65466">
        <ele>1109.98</ele>
        <time>2011-06-12T13:10:14Z</time>
      </trkpt>
      <trkpt lat="44.66382" lon="6.65456">
        <ele>1109.02</ele>
        <time>2011-06-12T13:10:15Z</time>
      </trkpt>
      <trkpt lat="44.66378" lon="6.65448">
        <ele>1107.58</ele>
        <time>2011-06-12T13:10:16Z</time>
      </trkpt>
      <trkpt lat="44.66366" lon="6.65429">
        <ele>1104.21</ele>
        <time>2011-06-12T13:10:19Z</time>
      </trkpt>
      <trkpt lat="44.66358" lon="6.65422">
        <ele>1101.81</ele>
        <time>2011-06-12T13:10:21Z</time>
      </trkpt>
      <trkpt lat="44.66354" lon="6.65417">
        <ele>1100.37</ele>
        <time>2011-06-12T13:10:22Z</time>
      </trkpt>
      <trkpt lat="44.6635" lon="6.65413">
        <ele>1098.92</ele>
        <time>2011-06-12T13:10:23Z</time>
      </trkpt>
      <trkpt lat="44.66346" lon="6.65408">
        <ele>1097.48</ele>
        <time>2011-06-12T13:10:24Z</time>
      </trkpt>
      <trkpt lat="44.66343" lon="6.65402">
        <ele>1097.48</ele>
        <time>2011-06-12T13:10:25Z</time>
      </trkpt>
      <trkpt lat="44.66342" lon="6.65395">
        <ele>1096.52</ele>
        <time>2011-06-12T13:10:26Z</time>
      </trkpt>
      <trkpt lat="44.6634" lon="6.65388">
        <ele>1095.56</ele>
        <time>2011-06-12T13:10:27Z</time>
      </trkpt>
      <trkpt lat="44.66339" lon="6.65381">
        <ele>1094.6</ele>
        <time>2011-06-12T13:10:28Z</time>
      </trkpt>
      <trkpt lat="44.66337" lon="6.65378">
        <ele>1093.64</ele>
        <time>2011-06-12T13:10:29Z</time>
      </trkpt>
      <trkpt lat="44.66335" lon="6.65377">
        <ele>1093.16</ele>
        <time>2011-06-12T13:10:30Z</time>
      </trkpt>
      <trkpt lat="44.66333" lon="6.6538">
        <ele>1093.64</ele>
        <time>2011-06-12T13:10:31Z</time>
      </trkpt>
      <trkpt lat="44.66333" lon="6.65383">
        <ele>1093.16</ele>
        <time>2011-06-12T13:10:32Z</time>
      </trkpt>
      <trkpt lat="44.66333" lon="6.65387">
        <ele>1093.16</ele>
        <time>2011-06-12T13:10:33Z</time>
      </trkpt>
      <trkpt lat="44.66336" lon="6.65439">
        <ele>1094.12</ele>
        <time>2011-06-12T13:10:43Z</time>
      </trkpt>
      <trkpt lat="44.66333" lon="6.65482">
        <ele>1093.64</ele>
        <time>2011-06-12T13:10:50Z</time>
      </trkpt>
      <trkpt lat="44.66333" lon="6.65488">
        <ele>1093.64</ele>
        <time>2011-06-12T13:10:51Z</time>
      </trkpt>
      <trkpt lat="44.66332" lon="6.65498">
        <ele>1094.12</ele>
        <time>2011-06-12T13:10:53Z</time>
      </trkpt>
      <trkpt lat="44.66332" lon="6.65511">
        <ele>1094.6</ele>
        <time>2011-06-12T13:10:55Z</time>
      </trkpt>
      <trkpt lat="44.66334" lon="6.65578">
        <ele>1096.04</ele>
        <time>2011-06-12T13:11:07Z</time>
      </trkpt>
      <trkpt lat="44.66332" lon="6.65582">
        <ele>1095.56</ele>
        <time>2011-06-12T13:11:08Z</time>
      </trkpt>
      <trkpt lat="44.66328" lon="6.65584">
        <ele>1095.56</ele>
        <time>2011-06-12T13:11:09Z</time>
      </trkpt>
      <trkpt lat="44.66325" lon="6.65586">
        <ele>1095.56</ele>
        <time>2011-06-12T13:11:10Z</time>
      </trkpt>
      <trkpt lat="44.66321" lon="6.65588">
        <ele>1096.52</ele>
        <time>2011-06-12T13:11:11Z</time>
      </trkpt>
      <trkpt lat="44.66318" lon="6.6559">
        <ele>1096.04</ele>
        <time>2011-06-12T13:11:12Z</time>
      </trkpt>
      <trkpt lat="44.66286" lon="6.65602">
        <ele>1094.6</ele>
        <time>2011-06-12T13:11:21Z</time>
      </trkpt>
      <trkpt lat="44.66282" lon="6.656">
        <ele>1094.6</ele>
        <time>2011-06-12T13:11:22Z</time>
      </trkpt>
      <trkpt lat="44.66278" lon="6.65597">
        <ele>1094.6</ele>
        <time>2011-06-12T13:11:23Z</time>
      </trkpt>
      <trkpt lat="44.66274" lon="6.65594">
        <ele>1093.16</ele>
        <time>2011-06-12T13:11:24Z</time>
      </trkpt>
      <trkpt lat="44.66269" lon="6.65591">
        <ele>1092.68</ele>
        <time>2011-06-12T13:11:25Z</time>
      </trkpt>
      <trkpt lat="44.66264" lon="6.65588">
        <ele>1092.68</ele>
        <time>2011-06-12T13:11:26Z</time>
      </trkpt>
      <trkpt lat="44.6626" lon="6.65582">
        <ele>1092.2</ele>
        <time>2011-06-12T13:11:27Z</time>
      </trkpt>
      <trkpt lat="44.66256" lon="6.65575">
        <ele>1092.2</ele>
        <time>2011-06-12T13:11:28Z</time>
      </trkpt>
      <trkpt lat="44.66253" lon="6.65567">
        <ele>1092.2</ele>
        <time>2011-06-12T13:11:29Z</time>
      </trkpt>
      <trkpt lat="44.66247" lon="6.65551">
        <ele>1091.23</ele>
        <time>2011-06-12T13:11:31Z</time>
      </trkpt>
      <trkpt lat="44.66243" lon="6.65544">
        <ele>1090.75</ele>
        <time>2011-06-12T13:11:32Z</time>
      </trkpt>
      <trkpt lat="44.66238" lon="6.65541">
        <ele>1090.75</ele>
        <time>2011-06-12T13:11:33Z</time>
      </trkpt>
      <trkpt lat="44.66233" lon="6.65542">
        <ele>1091.23</ele>
        <time>2011-06-12T13:11:34Z</time>
      </trkpt>
      <trkpt lat="44.66205" lon="6.6556">
        <ele>1091.23</ele>
        <time>2011-06-12T13:11:40Z</time>
      </trkpt>
      <trkpt lat="44.66193" lon="6.65566">
        <ele>1089.31</ele>
        <time>2011-06-12T13:11:43Z</time>
      </trkpt>
      <trkpt lat="44.66191" lon="6.65569">
        <ele>1087.39</ele>
        <time>2011-06-12T13:11:46Z</time>
      </trkpt>
      <trkpt lat="44.66189" lon="6.65569">
        <ele>1086.43</ele>
        <time>2011-06-12T13:11:55Z</time>
      </trkpt>
      <trkpt lat="44.66174" lon="6.6553">
        <ele>1083.54</ele>
        <time>2011-06-12T13:12:05Z</time>
      </trkpt>
      <trkpt lat="44.66161" lon="6.65466">
        <ele>1079.7</ele>
        <time>2011-06-12T13:12:12Z</time>
      </trkpt>
      <trkpt lat="44.66159" lon="6.65457">
        <ele>1079.7</ele>
        <time>2011-06-12T13:12:13Z</time>
      </trkpt>
      <trkpt lat="44.66146" lon="6.65418">
        <ele>1076.33</ele>
        <time>2011-06-12T13:12:18Z</time>
      </trkpt>
      <trkpt lat="44.66144" lon="6.65405">
        <ele>1074.89</ele>
        <time>2011-06-12T13:12:20Z</time>
      </trkpt>
      <trkpt lat="44.6614" lon="6.65372">
        <ele>1073.45</ele>
        <time>2011-06-12T13:12:25Z</time>
      </trkpt>
      <trkpt lat="44.66136" lon="6.65333">
        <ele>1069.6</ele>
        <time>2011-06-12T13:12:31Z</time>
      </trkpt>
      <trkpt lat="44.66135" lon="6.65322">
        <ele>1069.12</ele>
        <time>2011-06-12T13:12:33Z</time>
      </trkpt>
      <trkpt lat="44.66131" lon="6.65271">
        <ele>1065.76</ele>
        <time>2011-06-12T13:12:44Z</time>
      </trkpt>
      <trkpt lat="44.66127" lon="6.65202">
        <ele>1063.36</ele>
        <time>2011-06-12T13:12:53Z</time>
      </trkpt>
      <trkpt lat="44.66126" lon="6.65194">
        <ele>1063.36</ele>
        <time>2011-06-12T13:12:54Z</time>
      </trkpt>
      <trkpt lat="44.66123" lon="6.65188">
        <ele>1062.39</ele>
        <time>2011-06-12T13:12:55Z</time>
      </trkpt>
      <trkpt lat="44.66121" lon="6.65183">
        <ele>1061.91</ele>
        <time>2011-06-12T13:12:56Z</time>
      </trkpt>
      <trkpt lat="44.66119" lon="6.65178">
        <ele>1061.43</ele>
        <time>2011-06-12T13:12:57Z</time>
      </trkpt>
      <trkpt lat="44.66118" lon="6.65175">
        <ele>1061.91</ele>
        <time>2011-06-12T13:12:58Z</time>
      </trkpt>
      <trkpt lat="44.66111" lon="6.65166">
        <ele>1059.99</ele>
        <time>2011-06-12T13:13:03Z</time>
      </trkpt>
      <trkpt lat="44.66111" lon="6.65164">
        <ele>1059.99</ele>
        <time>2011-06-12T13:13:04Z</time>
      </trkpt>
      <trkpt lat="44.6611" lon="6.65153">
        <ele>1059.99</ele>
        <time>2011-06-12T13:13:06Z</time>
      </trkpt>
      <trkpt lat="44.6611" lon="6.65146">
        <ele>1059.99</ele>
        <time>2011-06-12T13:13:07Z</time>
      </trkpt>
      <trkpt lat="44.66109" lon="6.6514">
        <ele>1059.51</ele>
        <time>2011-06-12T13:13:08Z</time>
      </trkpt>
      <trkpt lat="44.66107" lon="6.65137">
        <ele>1059.99</ele>
        <time>2011-06-12T13:13:09Z</time>
      </trkpt>
      <trkpt lat="44.66104" lon="6.65135">
        <ele>1059.51</ele>
        <time>2011-06-12T13:13:10Z</time>
      </trkpt>
      <trkpt lat="44.66102" lon="6.65133">
        <ele>1059.51</ele>
        <time>2011-06-12T13:13:11Z</time>
      </trkpt>
      <trkpt lat="44.66099" lon="6.6513">
        <ele>1059.03</ele>
        <time>2011-06-12T13:13:12Z</time>
      </trkpt>
      <trkpt lat="44.66095" lon="6.65125">
        <ele>1059.03</ele>
        <time>2011-06-12T13:13:13Z</time>
      </trkpt>
      <trkpt lat="44.66091" lon="6.65119">
        <ele>1058.07</ele>
        <time>2011-06-12T13:13:14Z</time>
      </trkpt>
      <trkpt lat="44.66088" lon="6.65114">
        <ele>1057.11</ele>
        <time>2011-06-12T13:13:15Z</time>
      </trkpt>
      <trkpt lat="44.66085" lon="6.6511">
        <ele>1056.15</ele>
        <time>2011-06-12T13:13:16Z</time>
      </trkpt>
      <trkpt lat="44.66083" lon="6.65108">
        <ele>1056.15</ele>
        <time>2011-06-12T13:13:17Z</time>
      </trkpt>
      <trkpt lat="44.66081" lon="6.65108">
        <ele>1055.18</ele>
        <time>2011-06-12T13:13:18Z</time>
      </trkpt>
      <trkpt lat="44.66078" lon="6.6511">
        <ele>1054.7</ele>
        <time>2011-06-12T13:13:19Z</time>
      </trkpt>
      <trkpt lat="44.66074" lon="6.65111">
        <ele>1054.7</ele>
        <time>2011-06-12T13:13:20Z</time>
      </trkpt>
      <trkpt lat="44.66068" lon="6.65113">
        <ele>1054.22</ele>
        <time>2011-06-12T13:13:21Z</time>
      </trkpt>
      <trkpt lat="44.66062" lon="6.65114">
        <ele>1053.26</ele>
        <time>2011-06-12T13:13:22Z</time>
      </trkpt>
      <trkpt lat="44.66055" lon="6.65113">
        <ele>1053.26</ele>
        <time>2011-06-12T13:13:23Z</time>
      </trkpt>
      <trkpt lat="44.66051" lon="6.65109">
        <ele>1053.26</ele>
        <time>2011-06-12T13:13:24Z</time>
      </trkpt>
      <trkpt lat="44.66035" lon="6.65086">
        <ele>1051.82</ele>
        <time>2011-06-12T13:13:28Z</time>
      </trkpt>
      <trkpt lat="44.66033" lon="6.65079">
        <ele>1051.34</ele>
        <time>2011-06-12T13:13:29Z</time>
      </trkpt>
      <trkpt lat="44.66034" lon="6.65072">
        <ele>1051.34</ele>
        <time>2011-06-12T13:13:30Z</time>
      </trkpt>
      <trkpt lat="44.66037" lon="6.65067">
        <ele>1051.34</ele>
        <time>2011-06-12T13:13:31Z</time>
      </trkpt>
      <trkpt lat="44.6604" lon="6.65063">
        <ele>1051.34</ele>
        <time>2011-06-12T13:13:32Z</time>
      </trkpt>
      <trkpt lat="44.66043" lon="6.6506">
        <ele>1051.82</ele>
        <time>2011-06-12T13:13:33Z</time>
      </trkpt>
      <trkpt lat="44.66046" lon="6.65058">
        <ele>1051.34</ele>
        <time>2011-06-12T13:13:34Z</time>
      </trkpt>
      <trkpt lat="44.66049" lon="6.65055">
        <ele>1051.82</ele>
        <time>2011-06-12T13:13:35Z</time>
      </trkpt>
      <trkpt lat="44.66056" lon="6.65049">
        <ele>1052.78</ele>
        <time>2011-06-12T13:13:39Z</time>
      </trkpt>
      <trkpt lat="44.66057" lon="6.65047">
        <ele>1052.78</ele>
        <time>2011-06-12T13:13:40Z</time>
      </trkpt>
      <trkpt lat="44.66059" lon="6.65046">
        <ele>1052.78</ele>
        <time>2011-06-12T13:13:41Z</time>
      </trkpt>
      <trkpt lat="44.6606" lon="6.65044">
        <ele>1052.78</ele>
        <time>2011-06-12T13:13:42Z</time>
      </trkpt>
      <trkpt lat="44.66062" lon="6.65042">
        <ele>1052.78</ele>
        <time>2011-06-12T13:13:43Z</time>
      </trkpt>
      <trkpt lat="44.66069" lon="6.65025">
        <ele>1053.74</ele>
        <time>2011-06-12T13:13:55Z</time>
      </trkpt>
      <trkpt lat="44.66071" lon="6.65023">
        <ele>1053.74</ele>
        <time>2011-06-12T13:14:12Z</time>
      </trkpt>
      <trkpt lat="44.66071" lon="6.65023">
        <ele>1055.67</ele>
        <time>2011-06-12T13:14:47Z</time>
      </trkpt>
      <trkpt lat="44.66071" lon="6.65023">
        <ele>1051.82</ele>
        <time>2011-06-12T13:14:49Z</time>
      </trkpt>
      <trkpt lat="44.6607" lon="6.65022">
        <ele>1053.74</ele>
        <time>2011-06-12T13:16:53Z</time>
      </trkpt>
      <trkpt lat="44.66074" lon="6.65015">
        <ele>1053.74</ele>
        <time>2011-06-12T13:18:14Z</time>
      </trkpt>
      <trkpt lat="44.66072" lon="6.65019">
        <ele>1053.26</ele>
        <time>2011-06-12T13:18:51Z</time>
      </trkpt>
      <trkpt lat="44.66071" lon="6.65023">
        <ele>1053.74</ele>
        <time>2011-06-12T13:19:19Z</time>
      </trkpt>
      <trkpt lat="44.6607" lon="6.65021">
        <ele>1052.78</ele>
        <time>2011-06-12T13:20:14Z</time>
      </trkpt>
      <trkpt lat="44.6607" lon="6.65021">
        <ele>1057.59</ele>
        <time>2011-06-12T13:21:39Z</time>
      </trkpt>
      <trkpt lat="44.6607" lon="6.65021">
        <ele>1054.7</ele>
        <time>2011-06-12T13:21:40Z</time>
      </trkpt>
      <trkpt lat="44.6607" lon="6.65021">
        <ele>1048.94</ele>
        <time>2011-06-12T13:21:42Z</time>
      </trkpt>
      <trkpt lat="44.6607" lon="6.65021">
        <ele>1057.11</ele>
        <time>2011-06-12T13:21:43Z</time>
      </trkpt>
      <trkpt lat="44.6607" lon="6.65021">
        <ele>1053.26</ele>
        <time>2011-06-12T13:21:45Z</time>
      </trkpt>
      <trkpt lat="44.6607" lon="6.65021">
        <ele>1049.9</ele>
        <time>2011-06-12T13:21:52Z</time>
      </trkpt>
      <trkpt lat="44.6607" lon="6.65021">
        <ele>1053.26</ele>
        <time>2011-06-12T13:21:53Z</time>
      </trkpt>
      <trkpt lat="44.6607" lon="6.65021">
        <ele>1054.7</ele>
        <time>2011-06-12T13:21:59Z</time>
      </trkpt>
      <trkpt lat="44.6607" lon="6.65021">
        <ele>1053.74</ele>
        <time>2011-06-12T13:22:01Z</time>
      </trkpt>
    </trkseg>
  </trk>
</gpx>